<?xml version="1.0" encoding="UTF-8" standalone="no" ?>
<gpx xmlns="http://www.topografix.com/GPX/1/1" xmlns:xsi="http://www.w3.org/2001/XMLSchema-instance" xsi:schemaLocation="http://www.topografix.com/GPX/1/1 http://www.topografix.com/GPX/1/1/gpx.xsd" version="1.1" creator="VisuGPX - https://www.visugpx.com">
  <metadata>
    <name>7 Laux - 17.02.2013</name>
    <desc><![CDATA[Ski au 7 Laux - 17.02.2013]]></desc>
  </metadata>
  <trk>
    <name><![CDATA[2013-02-17T08:59:05Z]]></name>
    <trkseg>
      <trkpt lat="45.2567" lon="5.99724">
        <ele>1346.4638672</ele>
        <time>2013-02-17T08:59:05Z</time>
      </trkpt>
      <trkpt lat="45.25671" lon="5.99723">
        <ele>1344.0605469</ele>
        <time>2013-02-17T08:59:10Z</time>
      </trkpt>
      <trkpt lat="45.25674" lon="5.99731">
        <ele>1345.9831543</ele>
        <time>2013-02-17T08:59:15Z</time>
      </trkpt>
      <trkpt lat="45.25673" lon="5.99736">
        <ele>1347.4250488</ele>
        <time>2013-02-17T08:59:19Z</time>
      </trkpt>
      <trkpt lat="45.25663" lon="5.99756">
        <ele>1346.4638672</ele>
        <time>2013-02-17T08:59:24Z</time>
      </trkpt>
      <trkpt lat="45.2565" lon="5.99788">
        <ele>1349.8283691</ele>
        <time>2013-02-17T08:59:30Z</time>
      </trkpt>
      <trkpt lat="45.25636" lon="5.99819">
        <ele>1358.4802246</ele>
        <time>2013-02-17T08:59:36Z</time>
      </trkpt>
      <trkpt lat="45.25621" lon="5.9985">
        <ele>1366.6513672</ele>
        <time>2013-02-17T08:59:42Z</time>
      </trkpt>
      <trkpt lat="45.25606" lon="5.99882">
        <ele>1373.8613281</ele>
        <time>2013-02-17T08:59:48Z</time>
      </trkpt>
      <trkpt lat="45.25587" lon="5.99924">
        <ele>1382.5131836</ele>
        <time>2013-02-17T08:59:56Z</time>
      </trkpt>
      <trkpt lat="45.25559" lon="5.99986">
        <ele>1399.3361816</ele>
        <time>2013-02-17T09:00:08Z</time>
      </trkpt>
      <trkpt lat="45.25538" lon="6.00032">
        <ele>1413.7558594</ele>
        <time>2013-02-17T09:00:17Z</time>
      </trkpt>
      <trkpt lat="45.2552" lon="6.00073">
        <ele>1430.0983887</ele>
        <time>2013-02-17T09:00:25Z</time>
      </trkpt>
      <trkpt lat="45.25502" lon="6.00114">
        <ele>1443.5568848</ele>
        <time>2013-02-17T09:00:33Z</time>
      </trkpt>
      <trkpt lat="45.25484" lon="6.00155">
        <ele>1456.0539551</ele>
        <time>2013-02-17T09:00:41Z</time>
      </trkpt>
      <trkpt lat="45.25463" lon="6.00199">
        <ele>1471.9157715</ele>
        <time>2013-02-17T09:00:50Z</time>
      </trkpt>
      <trkpt lat="45.25447" lon="6.00235">
        <ele>1482.4902344</ele>
        <time>2013-02-17T09:00:57Z</time>
      </trkpt>
      <trkpt lat="45.25427" lon="6.00281">
        <ele>1496.9099121</ele>
        <time>2013-02-17T09:01:06Z</time>
      </trkpt>
      <trkpt lat="45.25407" lon="6.00327">
        <ele>1512.7717285</ele>
        <time>2013-02-17T09:01:15Z</time>
      </trkpt>
      <trkpt lat="45.25393" lon="6.00359">
        <ele>1521.9042969</ele>
        <time>2013-02-17T09:01:21Z</time>
      </trkpt>
      <trkpt lat="45.2538" lon="6.00391">
        <ele>1527.1916504</ele>
        <time>2013-02-17T09:01:27Z</time>
      </trkpt>
      <trkpt lat="45.25365" lon="6.00424">
        <ele>1527.6721191</ele>
        <time>2013-02-17T09:01:33Z</time>
      </trkpt>
      <trkpt lat="45.25345" lon="6.00466">
        <ele>1524.3076172</ele>
        <time>2013-02-17T09:01:41Z</time>
      </trkpt>
      <trkpt lat="45.25327" lon="6.00508">
        <ele>1512.7717285</ele>
        <time>2013-02-17T09:01:49Z</time>
      </trkpt>
      <trkpt lat="45.25308" lon="6.0055">
        <ele>1503.1586914</ele>
        <time>2013-02-17T09:01:57Z</time>
      </trkpt>
      <trkpt lat="45.2529" lon="6.00594">
        <ele>1496.9099121</ele>
        <time>2013-02-17T09:02:05Z</time>
      </trkpt>
      <trkpt lat="45.25263" lon="6.00652">
        <ele>1491.1420898</ele>
        <time>2013-02-17T09:02:16Z</time>
      </trkpt>
      <trkpt lat="45.25239" lon="6.00706">
        <ele>1489.7001953</ele>
        <time>2013-02-17T09:02:26Z</time>
      </trkpt>
      <trkpt lat="45.25213" lon="6.00766">
        <ele>1492.5842285</ele>
        <time>2013-02-17T09:02:37Z</time>
      </trkpt>
      <trkpt lat="45.25186" lon="6.00825">
        <ele>1499.3132324</ele>
        <time>2013-02-17T09:02:48Z</time>
      </trkpt>
      <trkpt lat="45.25165" lon="6.00874">
        <ele>1506.5231934</ele>
        <time>2013-02-17T09:02:57Z</time>
      </trkpt>
      <trkpt lat="45.25151" lon="6.00905">
        <ele>1512.7717285</ele>
        <time>2013-02-17T09:03:03Z</time>
      </trkpt>
      <trkpt lat="45.25138" lon="6.00938">
        <ele>1520.4624023</ele>
        <time>2013-02-17T09:03:09Z</time>
      </trkpt>
      <trkpt lat="45.25124" lon="6.00968">
        <ele>1529.1140137</ele>
        <time>2013-02-17T09:03:15Z</time>
      </trkpt>
      <trkpt lat="45.25108" lon="6.01004">
        <ele>1540.1694336</ele>
        <time>2013-02-17T09:03:22Z</time>
      </trkpt>
      <trkpt lat="45.25092" lon="6.01041">
        <ele>1551.7053223</ele>
        <time>2013-02-17T09:03:29Z</time>
      </trkpt>
      <trkpt lat="45.25068" lon="6.01097">
        <ele>1562.279541</ele>
        <time>2013-02-17T09:03:40Z</time>
      </trkpt>
      <trkpt lat="45.25045" lon="6.01148">
        <ele>1574.2961426</ele>
        <time>2013-02-17T09:03:50Z</time>
      </trkpt>
      <trkpt lat="45.2502" lon="6.01204">
        <ele>1591.5998535</ele>
        <time>2013-02-17T09:04:01Z</time>
      </trkpt>
      <trkpt lat="45.24989" lon="6.01273">
        <ele>1620.920166</ele>
        <time>2013-02-17T09:04:15Z</time>
      </trkpt>
      <trkpt lat="45.24963" lon="6.01332">
        <ele>1649.7597656</ele>
        <time>2013-02-17T09:04:27Z</time>
      </trkpt>
      <trkpt lat="45.24939" lon="6.01388">
        <ele>1682.4445801</ele>
        <time>2013-02-17T09:04:39Z</time>
      </trkpt>
      <trkpt lat="45.24917" lon="6.01438">
        <ele>1713.6872559</ele>
        <time>2013-02-17T09:04:50Z</time>
      </trkpt>
      <trkpt lat="45.24897" lon="6.01483">
        <ele>1743.0075684</ele>
        <time>2013-02-17T09:05:00Z</time>
      </trkpt>
      <trkpt lat="45.24872" lon="6.01538">
        <ele>1783.3828125</ele>
        <time>2013-02-17T09:05:13Z</time>
      </trkpt>
      <trkpt lat="45.24859" lon="6.01569">
        <ele>1803.5705566</ele>
        <time>2013-02-17T09:05:20Z</time>
      </trkpt>
      <trkpt lat="45.24834" lon="6.01626">
        <ele>1842.5041504</ele>
        <time>2013-02-17T09:05:33Z</time>
      </trkpt>
      <trkpt lat="45.24811" lon="6.01678">
        <ele>1879.0339355</ele>
        <time>2013-02-17T09:05:45Z</time>
      </trkpt>
      <trkpt lat="45.24792" lon="6.01721">
        <ele>1908.8349609</ele>
        <time>2013-02-17T09:05:55Z</time>
      </trkpt>
      <trkpt lat="45.24771" lon="6.01768">
        <ele>1942.9616699</ele>
        <time>2013-02-17T09:06:06Z</time>
      </trkpt>
      <trkpt lat="45.24758" lon="6.01798">
        <ele>1964.5915527</ele>
        <time>2013-02-17T09:06:13Z</time>
      </trkpt>
      <trkpt lat="45.2475" lon="6.01816">
        <ele>1975.6464844</ele>
        <time>2013-02-17T09:06:17Z</time>
      </trkpt>
      <trkpt lat="45.24736" lon="6.01846">
        <ele>1988.6245117</ele>
        <time>2013-02-17T09:06:23Z</time>
      </trkpt>
      <trkpt lat="45.24729" lon="6.01862">
        <ele>1991.0275879</ele>
        <time>2013-02-17T09:06:26Z</time>
      </trkpt>
      <trkpt lat="45.24721" lon="6.01884">
        <ele>1994.8728027</ele>
        <time>2013-02-17T09:06:31Z</time>
      </trkpt>
      <trkpt lat="45.2472" lon="6.01894">
        <ele>1994.8728027</ele>
        <time>2013-02-17T09:06:36Z</time>
      </trkpt>
      <trkpt lat="45.24726" lon="6.01899">
        <ele>1992.9501953</ele>
        <time>2013-02-17T09:06:39Z</time>
      </trkpt>
      <trkpt lat="45.24729" lon="6.019">
        <ele>1992.4697266</ele>
        <time>2013-02-17T09:06:40Z</time>
      </trkpt>
      <trkpt lat="45.24744" lon="6.01898">
        <ele>1986.7016602</ele>
        <time>2013-02-17T09:06:46Z</time>
      </trkpt>
      <trkpt lat="45.24746" lon="6.019">
        <ele>1985.2597656</ele>
        <time>2013-02-17T09:06:51Z</time>
      </trkpt>
      <trkpt lat="45.24745" lon="6.01903">
        <ele>1983.3371582</ele>
        <time>2013-02-17T09:07:04Z</time>
      </trkpt>
      <trkpt lat="45.24745" lon="6.01904">
        <ele>1983.8178711</ele>
        <time>2013-02-17T09:07:10Z</time>
      </trkpt>
      <trkpt lat="45.24745" lon="6.01905">
        <ele>1983.3371582</ele>
        <time>2013-02-17T09:07:14Z</time>
      </trkpt>
      <trkpt lat="45.24745" lon="6.01905">
        <ele>1983.8178711</ele>
        <time>2013-02-17T09:07:21Z</time>
      </trkpt>
      <trkpt lat="45.24745" lon="6.01905">
        <ele>1983.3371582</ele>
        <time>2013-02-17T09:07:32Z</time>
      </trkpt>
      <trkpt lat="45.24744" lon="6.01905">
        <ele>1983.8178711</ele>
        <time>2013-02-17T09:07:45Z</time>
      </trkpt>
      <trkpt lat="45.24744" lon="6.01905">
        <ele>1983.8178711</ele>
        <time>2013-02-17T09:07:57Z</time>
      </trkpt>
      <trkpt lat="45.24745" lon="6.01906">
        <ele>1982.8564453</ele>
        <time>2013-02-17T09:08:07Z</time>
      </trkpt>
      <trkpt lat="45.24744" lon="6.01906">
        <ele>1983.3371582</ele>
        <time>2013-02-17T09:08:23Z</time>
      </trkpt>
      <trkpt lat="45.24744" lon="6.01903">
        <ele>1983.8178711</ele>
        <time>2013-02-17T09:08:38Z</time>
      </trkpt>
      <trkpt lat="45.24743" lon="6.01904">
        <ele>1984.7792969</ele>
        <time>2013-02-17T09:08:45Z</time>
      </trkpt>
      <trkpt lat="45.24744" lon="6.01904">
        <ele>1984.298584</ele>
        <time>2013-02-17T09:08:53Z</time>
      </trkpt>
      <trkpt lat="45.24744" lon="6.01904">
        <ele>1985.2597656</ele>
        <time>2013-02-17T09:09:02Z</time>
      </trkpt>
      <trkpt lat="45.24745" lon="6.01904">
        <ele>1985.2597656</ele>
        <time>2013-02-17T09:09:12Z</time>
      </trkpt>
      <trkpt lat="45.24744" lon="6.01904">
        <ele>1985.7404785</ele>
        <time>2013-02-17T09:09:35Z</time>
      </trkpt>
      <trkpt lat="45.24744" lon="6.01904">
        <ele>1985.2597656</ele>
        <time>2013-02-17T09:09:48Z</time>
      </trkpt>
      <trkpt lat="45.24744" lon="6.01904">
        <ele>1985.2597656</ele>
        <time>2013-02-17T09:09:55Z</time>
      </trkpt>
      <trkpt lat="45.24746" lon="6.0191">
        <ele>1985.2597656</ele>
        <time>2013-02-17T09:09:58Z</time>
      </trkpt>
      <trkpt lat="45.24761" lon="6.01924">
        <ele>1982.8564453</ele>
        <time>2013-02-17T09:10:03Z</time>
      </trkpt>
      <trkpt lat="45.24778" lon="6.01942">
        <ele>1979.0109863</ele>
        <time>2013-02-17T09:10:07Z</time>
      </trkpt>
      <trkpt lat="45.24786" lon="6.01957">
        <ele>1977.088623</ele>
        <time>2013-02-17T09:10:09Z</time>
      </trkpt>
      <trkpt lat="45.24808" lon="6.02002">
        <ele>1971.3205566</ele>
        <time>2013-02-17T09:10:14Z</time>
      </trkpt>
      <trkpt lat="45.24834" lon="6.02068">
        <ele>1965.0722656</ele>
        <time>2013-02-17T09:10:20Z</time>
      </trkpt>
      <trkpt lat="45.24843" lon="6.02092">
        <ele>1961.7075195</ele>
        <time>2013-02-17T09:10:22Z</time>
      </trkpt>
      <trkpt lat="45.24854" lon="6.02113">
        <ele>1958.3427734</ele>
        <time>2013-02-17T09:10:24Z</time>
      </trkpt>
      <trkpt lat="45.2487" lon="6.02157">
        <ele>1950.6523438</ele>
        <time>2013-02-17T09:10:28Z</time>
      </trkpt>
      <trkpt lat="45.2487" lon="6.02189">
        <ele>1944.8842773</ele>
        <time>2013-02-17T09:10:31Z</time>
      </trkpt>
      <trkpt lat="45.24899" lon="6.02239">
        <ele>1933.3486328</ele>
        <time>2013-02-17T09:10:36Z</time>
      </trkpt>
      <trkpt lat="45.2491" lon="6.02246">
        <ele>1931.4257813</ele>
        <time>2013-02-17T09:10:37Z</time>
      </trkpt>
      <trkpt lat="45.24947" lon="6.02271">
        <ele>1925.657959</ele>
        <time>2013-02-17T09:10:40Z</time>
      </trkpt>
      <trkpt lat="45.25014" lon="6.02331">
        <ele>1914.6027832</ele>
        <time>2013-02-17T09:10:46Z</time>
      </trkpt>
      <trkpt lat="45.25058" lon="6.02345">
        <ele>1907.8737793</ele>
        <time>2013-02-17T09:10:50Z</time>
      </trkpt>
      <trkpt lat="45.25077" lon="6.02337">
        <ele>1906.4316406</ele>
        <time>2013-02-17T09:10:52Z</time>
      </trkpt>
      <trkpt lat="45.25102" lon="6.02326">
        <ele>1904.9897461</ele>
        <time>2013-02-17T09:10:55Z</time>
      </trkpt>
      <trkpt lat="45.25138" lon="6.02325">
        <ele>1903.0671387</ele>
        <time>2013-02-17T09:11:00Z</time>
      </trkpt>
      <trkpt lat="45.25201" lon="6.0234">
        <ele>1899.7023926</ele>
        <time>2013-02-17T09:11:10Z</time>
      </trkpt>
      <trkpt lat="45.25223" lon="6.02343">
        <ele>1899.2216797</ele>
        <time>2013-02-17T09:11:14Z</time>
      </trkpt>
      <trkpt lat="45.25242" lon="6.02341">
        <ele>1897.2990723</ele>
        <time>2013-02-17T09:11:17Z</time>
      </trkpt>
      <trkpt lat="45.25263" lon="6.02342">
        <ele>1895.3764648</ele>
        <time>2013-02-17T09:11:21Z</time>
      </trkpt>
      <trkpt lat="45.25266" lon="6.02344">
        <ele>1895.3764648</ele>
        <time>2013-02-17T09:11:25Z</time>
      </trkpt>
      <trkpt lat="45.25265" lon="6.02343">
        <ele>1892.9731445</ele>
        <time>2013-02-17T09:12:11Z</time>
      </trkpt>
      <trkpt lat="45.25268" lon="6.02343">
        <ele>1890.0893555</ele>
        <time>2013-02-17T09:12:40Z</time>
      </trkpt>
      <trkpt lat="45.25269" lon="6.02343">
        <ele>1889.1279297</ele>
        <time>2013-02-17T09:12:48Z</time>
      </trkpt>
      <trkpt lat="45.25273" lon="6.02345">
        <ele>1888.166748</ele>
        <time>2013-02-17T09:13:03Z</time>
      </trkpt>
      <trkpt lat="45.25285" lon="6.02359">
        <ele>1885.2827148</ele>
        <time>2013-02-17T09:14:06Z</time>
      </trkpt>
      <trkpt lat="45.25288" lon="6.02364">
        <ele>1888.166748</ele>
        <time>2013-02-17T09:14:15Z</time>
      </trkpt>
      <trkpt lat="45.25291" lon="6.02367">
        <ele>1888.6474609</ele>
        <time>2013-02-17T09:14:19Z</time>
      </trkpt>
      <trkpt lat="45.25301" lon="6.02383">
        <ele>1888.6474609</ele>
        <time>2013-02-17T09:14:25Z</time>
      </trkpt>
      <trkpt lat="45.25312" lon="6.02399">
        <ele>1891.0505371</ele>
        <time>2013-02-17T09:14:32Z</time>
      </trkpt>
      <trkpt lat="45.2532" lon="6.02415">
        <ele>1894.895752</ele>
        <time>2013-02-17T09:14:38Z</time>
      </trkpt>
      <trkpt lat="45.25329" lon="6.02433">
        <ele>1898.7409668</ele>
        <time>2013-02-17T09:14:45Z</time>
      </trkpt>
      <trkpt lat="45.2535" lon="6.02468">
        <ele>1904.5090332</ele>
        <time>2013-02-17T09:14:59Z</time>
      </trkpt>
      <trkpt lat="45.25363" lon="6.0249">
        <ele>1911.2382813</ele>
        <time>2013-02-17T09:15:08Z</time>
      </trkpt>
      <trkpt lat="45.2538" lon="6.02517">
        <ele>1921.3320313</ele>
        <time>2013-02-17T09:15:20Z</time>
      </trkpt>
      <trkpt lat="45.25399" lon="6.02547">
        <ele>1932.3874512</ele>
        <time>2013-02-17T09:15:33Z</time>
      </trkpt>
      <trkpt lat="45.25408" lon="6.02561">
        <ele>1940.5583496</ele>
        <time>2013-02-17T09:15:40Z</time>
      </trkpt>
      <trkpt lat="45.25424" lon="6.02588">
        <ele>1949.2104492</ele>
        <time>2013-02-17T09:15:51Z</time>
      </trkpt>
      <trkpt lat="45.2544" lon="6.02615">
        <ele>1959.3041992</ele>
        <time>2013-02-17T09:16:02Z</time>
      </trkpt>
      <trkpt lat="45.25457" lon="6.02643">
        <ele>1969.8786621</ele>
        <time>2013-02-17T09:16:14Z</time>
      </trkpt>
      <trkpt lat="45.2547" lon="6.02661">
        <ele>1977.5690918</ele>
        <time>2013-02-17T09:16:23Z</time>
      </trkpt>
      <trkpt lat="45.25484" lon="6.02683">
        <ele>1987.182373</ele>
        <time>2013-02-17T09:16:32Z</time>
      </trkpt>
      <trkpt lat="45.25498" lon="6.02708">
        <ele>1993.9116211</ele>
        <time>2013-02-17T09:16:42Z</time>
      </trkpt>
      <trkpt lat="45.25515" lon="6.02733">
        <ele>2001.121582</ele>
        <time>2013-02-17T09:16:53Z</time>
      </trkpt>
      <trkpt lat="45.2553" lon="6.02756">
        <ele>2004.9667969</ele>
        <time>2013-02-17T09:17:03Z</time>
      </trkpt>
      <trkpt lat="45.25538" lon="6.02771">
        <ele>2023.2319336</ele>
        <time>2013-02-17T09:17:10Z</time>
      </trkpt>
      <trkpt lat="45.25549" lon="6.02791">
        <ele>2036.6901855</ele>
        <time>2013-02-17T09:17:19Z</time>
      </trkpt>
      <trkpt lat="45.25559" lon="6.02808">
        <ele>2048.7067871</ele>
        <time>2013-02-17T09:17:27Z</time>
      </trkpt>
      <trkpt lat="45.25567" lon="6.0282">
        <ele>2054.9553223</ele>
        <time>2013-02-17T09:17:33Z</time>
      </trkpt>
      <trkpt lat="45.2558" lon="6.02841">
        <ele>2065.5300293</ele>
        <time>2013-02-17T09:17:42Z</time>
      </trkpt>
      <trkpt lat="45.25593" lon="6.02861">
        <ele>2071.2976074</ele>
        <time>2013-02-17T09:17:51Z</time>
      </trkpt>
      <trkpt lat="45.25608" lon="6.02886">
        <ele>2081.3916016</ele>
        <time>2013-02-17T09:18:02Z</time>
      </trkpt>
      <trkpt lat="45.25619" lon="6.02903">
        <ele>2084.2756348</ele>
        <time>2013-02-17T09:18:10Z</time>
      </trkpt>
      <trkpt lat="45.25629" lon="6.02918">
        <ele>2090.043457</ele>
        <time>2013-02-17T09:18:18Z</time>
      </trkpt>
      <trkpt lat="45.25636" lon="6.02932">
        <ele>2095.3308105</ele>
        <time>2013-02-17T09:18:24Z</time>
      </trkpt>
      <trkpt lat="45.25648" lon="6.0295">
        <ele>2102.5405273</ele>
        <time>2013-02-17T09:18:32Z</time>
      </trkpt>
      <trkpt lat="45.2566" lon="6.0297">
        <ele>2111.6733398</ele>
        <time>2013-02-17T09:18:41Z</time>
      </trkpt>
      <trkpt lat="45.25668" lon="6.02984">
        <ele>2116.4797363</ele>
        <time>2013-02-17T09:18:47Z</time>
      </trkpt>
      <trkpt lat="45.25683" lon="6.03005">
        <ele>2117.9216309</ele>
        <time>2013-02-17T09:18:56Z</time>
      </trkpt>
      <trkpt lat="45.25686" lon="6.03022">
        <ele>2117.440918</ele>
        <time>2013-02-17T09:19:00Z</time>
      </trkpt>
      <trkpt lat="45.25683" lon="6.0303">
        <ele>2116.9604492</ele>
        <time>2013-02-17T09:19:03Z</time>
      </trkpt>
      <trkpt lat="45.25672" lon="6.03038">
        <ele>2116.4797363</ele>
        <time>2013-02-17T09:19:08Z</time>
      </trkpt>
      <trkpt lat="45.25668" lon="6.03047">
        <ele>2115.0378418</ele>
        <time>2013-02-17T09:19:11Z</time>
      </trkpt>
      <trkpt lat="45.25665" lon="6.03054">
        <ele>2115.0378418</ele>
        <time>2013-02-17T09:19:14Z</time>
      </trkpt>
      <trkpt lat="45.25662" lon="6.03056">
        <ele>2115.0378418</ele>
        <time>2013-02-17T09:19:19Z</time>
      </trkpt>
      <trkpt lat="45.2566" lon="6.03057">
        <ele>2115.5185547</ele>
        <time>2013-02-17T09:19:25Z</time>
      </trkpt>
      <trkpt lat="45.25659" lon="6.03057">
        <ele>2115.5185547</ele>
        <time>2013-02-17T09:19:26Z</time>
      </trkpt>
      <trkpt lat="45.25649" lon="6.03065">
        <ele>2115.0378418</ele>
        <time>2013-02-17T09:19:32Z</time>
      </trkpt>
      <trkpt lat="45.25646" lon="6.03073">
        <ele>2114.076416</ele>
        <time>2013-02-17T09:19:39Z</time>
      </trkpt>
      <trkpt lat="45.2564" lon="6.03086">
        <ele>2112.6345215</ele>
        <time>2013-02-17T09:19:42Z</time>
      </trkpt>
      <trkpt lat="45.25627" lon="6.03116">
        <ele>2107.8278809</ele>
        <time>2013-02-17T09:19:46Z</time>
      </trkpt>
      <trkpt lat="45.25624" lon="6.03124">
        <ele>2106.8664551</ele>
        <time>2013-02-17T09:19:47Z</time>
      </trkpt>
      <trkpt lat="45.25625" lon="6.03147">
        <ele>2102.0598145</ele>
        <time>2013-02-17T09:19:50Z</time>
      </trkpt>
      <trkpt lat="45.25627" lon="6.03155">
        <ele>2100.6179199</ele>
        <time>2013-02-17T09:19:51Z</time>
      </trkpt>
      <trkpt lat="45.25633" lon="6.03185">
        <ele>2094.8500977</ele>
        <time>2013-02-17T09:19:55Z</time>
      </trkpt>
      <trkpt lat="45.25634" lon="6.03196">
        <ele>2091.0046387</ele>
        <time>2013-02-17T09:19:58Z</time>
      </trkpt>
      <trkpt lat="45.25633" lon="6.03211">
        <ele>2085.7175293</ele>
        <time>2013-02-17T09:20:00Z</time>
      </trkpt>
      <trkpt lat="45.25633" lon="6.03229">
        <ele>2078.5078125</ele>
        <time>2013-02-17T09:20:02Z</time>
      </trkpt>
      <trkpt lat="45.25644" lon="6.03256">
        <ele>2066.9719238</ele>
        <time>2013-02-17T09:20:05Z</time>
      </trkpt>
      <trkpt lat="45.25672" lon="6.03274">
        <ele>2051.5908203</ele>
        <time>2013-02-17T09:20:08Z</time>
      </trkpt>
      <trkpt lat="45.25695" lon="6.03294">
        <ele>2041.0161133</ele>
        <time>2013-02-17T09:20:10Z</time>
      </trkpt>
      <trkpt lat="45.25717" lon="6.03344">
        <ele>2031.4030762</ele>
        <time>2013-02-17T09:20:13Z</time>
      </trkpt>
      <trkpt lat="45.25729" lon="6.03399">
        <ele>2024.1931152</ele>
        <time>2013-02-17T09:20:16Z</time>
      </trkpt>
      <trkpt lat="45.25723" lon="6.03447">
        <ele>2014.5800781</ele>
        <time>2013-02-17T09:20:19Z</time>
      </trkpt>
      <trkpt lat="45.25717" lon="6.03475">
        <ele>2009.7731934</ele>
        <time>2013-02-17T09:20:21Z</time>
      </trkpt>
      <trkpt lat="45.25705" lon="6.03511">
        <ele>2002.5634766</ele>
        <time>2013-02-17T09:20:24Z</time>
      </trkpt>
      <trkpt lat="45.25705" lon="6.03547">
        <ele>1994.8728027</ele>
        <time>2013-02-17T09:20:27Z</time>
      </trkpt>
      <trkpt lat="45.25716" lon="6.03613">
        <ele>1981.8952637</ele>
        <time>2013-02-17T09:20:32Z</time>
      </trkpt>
      <trkpt lat="45.25719" lon="6.03626">
        <ele>1979.4916992</ele>
        <time>2013-02-17T09:20:33Z</time>
      </trkpt>
      <trkpt lat="45.25736" lon="6.03691">
        <ele>1965.5529785</ele>
        <time>2013-02-17T09:20:38Z</time>
      </trkpt>
      <trkpt lat="45.25753" lon="6.0373">
        <ele>1955.4589844</ele>
        <time>2013-02-17T09:20:41Z</time>
      </trkpt>
      <trkpt lat="45.25775" lon="6.03764">
        <ele>1944.4035645</ele>
        <time>2013-02-17T09:20:44Z</time>
      </trkpt>
      <trkpt lat="45.25795" lon="6.03804">
        <ele>1930.9453125</ele>
        <time>2013-02-17T09:20:47Z</time>
      </trkpt>
      <trkpt lat="45.25808" lon="6.03833">
        <ele>1921.8127441</ele>
        <time>2013-02-17T09:20:49Z</time>
      </trkpt>
      <trkpt lat="45.25835" lon="6.03873">
        <ele>1911.2382813</ele>
        <time>2013-02-17T09:20:52Z</time>
      </trkpt>
      <trkpt lat="45.25847" lon="6.03918">
        <ele>1901.1445313</ele>
        <time>2013-02-17T09:20:55Z</time>
      </trkpt>
      <trkpt lat="45.25853" lon="6.03987">
        <ele>1887.2053223</ele>
        <time>2013-02-17T09:20:59Z</time>
      </trkpt>
      <trkpt lat="45.2585" lon="6.0402">
        <ele>1880.4760742</ele>
        <time>2013-02-17T09:21:01Z</time>
      </trkpt>
      <trkpt lat="45.25834" lon="6.04063">
        <ele>1869.4211426</ele>
        <time>2013-02-17T09:21:04Z</time>
      </trkpt>
      <trkpt lat="45.25807" lon="6.04123">
        <ele>1857.404541</ele>
        <time>2013-02-17T09:21:08Z</time>
      </trkpt>
      <trkpt lat="45.258" lon="6.04137">
        <ele>1855.0012207</ele>
        <time>2013-02-17T09:21:09Z</time>
      </trkpt>
      <trkpt lat="45.25782" lon="6.04201">
        <ele>1846.3493652</ele>
        <time>2013-02-17T09:21:13Z</time>
      </trkpt>
      <trkpt lat="45.2577" lon="6.04268">
        <ele>1835.2939453</ele>
        <time>2013-02-17T09:21:17Z</time>
      </trkpt>
      <trkpt lat="45.25769" lon="6.04285">
        <ele>1832.890625</ele>
        <time>2013-02-17T09:21:18Z</time>
      </trkpt>
      <trkpt lat="45.25778" lon="6.04306">
        <ele>1827.6035156</ele>
        <time>2013-02-17T09:21:21Z</time>
      </trkpt>
      <trkpt lat="45.2578" lon="6.04308">
        <ele>1826.1616211</ele>
        <time>2013-02-17T09:21:25Z</time>
      </trkpt>
      <trkpt lat="45.2578" lon="6.04308">
        <ele>1826.1616211</ele>
        <time>2013-02-17T09:21:31Z</time>
      </trkpt>
      <trkpt lat="45.25779" lon="6.04306">
        <ele>1826.1616211</ele>
        <time>2013-02-17T09:21:37Z</time>
      </trkpt>
      <trkpt lat="45.25781" lon="6.04307">
        <ele>1826.1616211</ele>
        <time>2013-02-17T09:21:47Z</time>
      </trkpt>
      <trkpt lat="45.25782" lon="6.04307">
        <ele>1827.6035156</ele>
        <time>2013-02-17T09:22:01Z</time>
      </trkpt>
      <trkpt lat="45.25782" lon="6.04307">
        <ele>1827.6035156</ele>
        <time>2013-02-17T09:22:05Z</time>
      </trkpt>
      <trkpt lat="45.25781" lon="6.04307">
        <ele>1827.6035156</ele>
        <time>2013-02-17T09:22:12Z</time>
      </trkpt>
      <trkpt lat="45.25784" lon="6.04313">
        <ele>1825.6809082</ele>
        <time>2013-02-17T09:22:21Z</time>
      </trkpt>
      <trkpt lat="45.25789" lon="6.04318">
        <ele>1823.7583008</ele>
        <time>2013-02-17T09:22:22Z</time>
      </trkpt>
      <trkpt lat="45.25815" lon="6.04356">
        <ele>1809.338623</ele>
        <time>2013-02-17T09:22:26Z</time>
      </trkpt>
      <trkpt lat="45.25841" lon="6.04391">
        <ele>1797.8027344</ele>
        <time>2013-02-17T09:22:29Z</time>
      </trkpt>
      <trkpt lat="45.25854" lon="6.04415">
        <ele>1790.5927734</ele>
        <time>2013-02-17T09:22:31Z</time>
      </trkpt>
      <trkpt lat="45.25861" lon="6.04441">
        <ele>1783.3828125</ele>
        <time>2013-02-17T09:22:33Z</time>
      </trkpt>
      <trkpt lat="45.25875" lon="6.04468">
        <ele>1774.7312012</ele>
        <time>2013-02-17T09:22:35Z</time>
      </trkpt>
      <trkpt lat="45.25912" lon="6.04518">
        <ele>1757.4274902</ele>
        <time>2013-02-17T09:22:39Z</time>
      </trkpt>
      <trkpt lat="45.25966" lon="6.04576">
        <ele>1734.8364258</ele>
        <time>2013-02-17T09:22:44Z</time>
      </trkpt>
      <trkpt lat="45.2599" lon="6.04602">
        <ele>1725.2231445</ele>
        <time>2013-02-17T09:22:46Z</time>
      </trkpt>
      <trkpt lat="45.26046" lon="6.04646">
        <ele>1706.4772949</ele>
        <time>2013-02-17T09:22:50Z</time>
      </trkpt>
      <trkpt lat="45.26111" lon="6.0471">
        <ele>1688.2124023</ele>
        <time>2013-02-17T09:22:55Z</time>
      </trkpt>
      <trkpt lat="45.26135" lon="6.04735">
        <ele>1682.9250488</ele>
        <time>2013-02-17T09:22:57Z</time>
      </trkpt>
      <trkpt lat="45.26172" lon="6.04787">
        <ele>1674.7539063</ele>
        <time>2013-02-17T09:23:01Z</time>
      </trkpt>
      <trkpt lat="45.26205" lon="6.04809">
        <ele>1670.4279785</ele>
        <time>2013-02-17T09:23:05Z</time>
      </trkpt>
      <trkpt lat="45.26248" lon="6.04838">
        <ele>1663.6987305</ele>
        <time>2013-02-17T09:23:10Z</time>
      </trkpt>
      <trkpt lat="45.26283" lon="6.04867">
        <ele>1657.9309082</ele>
        <time>2013-02-17T09:23:14Z</time>
      </trkpt>
      <trkpt lat="45.26326" lon="6.04875">
        <ele>1652.1628418</ele>
        <time>2013-02-17T09:23:18Z</time>
      </trkpt>
      <trkpt lat="45.26347" lon="6.04877">
        <ele>1649.7597656</ele>
        <time>2013-02-17T09:23:20Z</time>
      </trkpt>
      <trkpt lat="45.26384" lon="6.04868">
        <ele>1643.9916992</ele>
        <time>2013-02-17T09:23:24Z</time>
      </trkpt>
      <trkpt lat="45.26406" lon="6.04848">
        <ele>1640.6269531</ele>
        <time>2013-02-17T09:23:27Z</time>
      </trkpt>
      <trkpt lat="45.26429" lon="6.04845">
        <ele>1637.7431641</ele>
        <time>2013-02-17T09:23:30Z</time>
      </trkpt>
      <trkpt lat="45.26437" lon="6.04849">
        <ele>1637.2624512</ele>
        <time>2013-02-17T09:23:31Z</time>
      </trkpt>
      <trkpt lat="45.26455" lon="6.04864">
        <ele>1636.3012695</ele>
        <time>2013-02-17T09:23:34Z</time>
      </trkpt>
      <trkpt lat="45.26493" lon="6.04881">
        <ele>1632.4560547</ele>
        <time>2013-02-17T09:23:40Z</time>
      </trkpt>
      <trkpt lat="45.26517" lon="6.04891">
        <ele>1632.4560547</ele>
        <time>2013-02-17T09:23:44Z</time>
      </trkpt>
      <trkpt lat="45.26541" lon="6.0489">
        <ele>1632.4560547</ele>
        <time>2013-02-17T09:23:48Z</time>
      </trkpt>
      <trkpt lat="45.26568" lon="6.04879">
        <ele>1631.9753418</ele>
        <time>2013-02-17T09:23:53Z</time>
      </trkpt>
      <trkpt lat="45.26581" lon="6.04876">
        <ele>1631.9753418</ele>
        <time>2013-02-17T09:23:55Z</time>
      </trkpt>
      <trkpt lat="45.26615" lon="6.0488">
        <ele>1627.6491699</ele>
        <time>2013-02-17T09:23:59Z</time>
      </trkpt>
      <trkpt lat="45.26673" lon="6.04889">
        <ele>1618.9975586</ele>
        <time>2013-02-17T09:24:05Z</time>
      </trkpt>
      <trkpt lat="45.26691" lon="6.04889">
        <ele>1617.0749512</ele>
        <time>2013-02-17T09:24:07Z</time>
      </trkpt>
      <trkpt lat="45.26739" lon="6.04903">
        <ele>1608.9035645</ele>
        <time>2013-02-17T09:24:12Z</time>
      </trkpt>
      <trkpt lat="45.26799" lon="6.04922">
        <ele>1600.7324219</ele>
        <time>2013-02-17T09:24:18Z</time>
      </trkpt>
      <trkpt lat="45.2684" lon="6.04938">
        <ele>1595.9257813</ele>
        <time>2013-02-17T09:24:22Z</time>
      </trkpt>
      <trkpt lat="45.26872" lon="6.04966">
        <ele>1594.0031738</ele>
        <time>2013-02-17T09:24:26Z</time>
      </trkpt>
      <trkpt lat="45.26885" lon="6.0498">
        <ele>1592.5612793</ele>
        <time>2013-02-17T09:24:28Z</time>
      </trkpt>
      <trkpt lat="45.26906" lon="6.05018">
        <ele>1588.2353516</ele>
        <time>2013-02-17T09:24:32Z</time>
      </trkpt>
      <trkpt lat="45.26942" lon="6.05048">
        <ele>1581.5061035</ele>
        <time>2013-02-17T09:24:36Z</time>
      </trkpt>
      <trkpt lat="45.26982" lon="6.05055">
        <ele>1575.7380371</ele>
        <time>2013-02-17T09:24:40Z</time>
      </trkpt>
      <trkpt lat="45.2701" lon="6.05067">
        <ele>1569.9702148</ele>
        <time>2013-02-17T09:24:43Z</time>
      </trkpt>
      <trkpt lat="45.27028" lon="6.05075">
        <ele>1567.0864258</ele>
        <time>2013-02-17T09:24:45Z</time>
      </trkpt>
      <trkpt lat="45.27044" lon="6.051">
        <ele>1561.7990723</ele>
        <time>2013-02-17T09:24:48Z</time>
      </trkpt>
      <trkpt lat="45.27047" lon="6.05109">
        <ele>1559.8762207</ele>
        <time>2013-02-17T09:24:49Z</time>
      </trkpt>
      <trkpt lat="45.27069" lon="6.05154">
        <ele>1545.9372559</ele>
        <time>2013-02-17T09:24:54Z</time>
      </trkpt>
      <trkpt lat="45.27081" lon="6.0519">
        <ele>1534.8823242</ele>
        <time>2013-02-17T09:24:57Z</time>
      </trkpt>
      <trkpt lat="45.27087" lon="6.05218">
        <ele>1525.7495117</ele>
        <time>2013-02-17T09:24:59Z</time>
      </trkpt>
      <trkpt lat="45.27103" lon="6.05244">
        <ele>1517.0979004</ele>
        <time>2013-02-17T09:25:01Z</time>
      </trkpt>
      <trkpt lat="45.2713" lon="6.05286">
        <ele>1507.0039063</ele>
        <time>2013-02-17T09:25:04Z</time>
      </trkpt>
      <trkpt lat="45.27149" lon="6.05313">
        <ele>1500.2749023</ele>
        <time>2013-02-17T09:25:06Z</time>
      </trkpt>
      <trkpt lat="45.27152" lon="6.05339">
        <ele>1494.5065918</ele>
        <time>2013-02-17T09:25:08Z</time>
      </trkpt>
      <trkpt lat="45.27148" lon="6.05384">
        <ele>1482.4902344</ele>
        <time>2013-02-17T09:25:12Z</time>
      </trkpt>
      <trkpt lat="45.27146" lon="6.0539">
        <ele>1480.0869141</ele>
        <time>2013-02-17T09:25:13Z</time>
      </trkpt>
      <trkpt lat="45.27147" lon="6.05396">
        <ele>1472.8771973</ele>
        <time>2013-02-17T09:25:19Z</time>
      </trkpt>
      <trkpt lat="45.27147" lon="6.05396">
        <ele>1474.7998047</ele>
        <time>2013-02-17T09:25:25Z</time>
      </trkpt>
      <trkpt lat="45.27147" lon="6.05396">
        <ele>1475.7609863</ele>
        <time>2013-02-17T09:25:30Z</time>
      </trkpt>
      <trkpt lat="45.27145" lon="6.05399">
        <ele>1475.7609863</ele>
        <time>2013-02-17T09:25:33Z</time>
      </trkpt>
      <trkpt lat="45.27135" lon="6.05421">
        <ele>1472.3964844</ele>
        <time>2013-02-17T09:25:37Z</time>
      </trkpt>
      <trkpt lat="45.27131" lon="6.0543">
        <ele>1470.9545898</ele>
        <time>2013-02-17T09:25:38Z</time>
      </trkpt>
      <trkpt lat="45.27113" lon="6.05469">
        <ele>1464.7058105</ele>
        <time>2013-02-17T09:25:42Z</time>
      </trkpt>
      <trkpt lat="45.27104" lon="6.05487">
        <ele>1463.263916</ele>
        <time>2013-02-17T09:25:45Z</time>
      </trkpt>
      <trkpt lat="45.27097" lon="6.05485">
        <ele>1462.7832031</ele>
        <time>2013-02-17T09:25:49Z</time>
      </trkpt>
      <trkpt lat="45.27096" lon="6.05485">
        <ele>1462.7832031</ele>
        <time>2013-02-17T09:25:50Z</time>
      </trkpt>
      <trkpt lat="45.27095" lon="6.05484">
        <ele>1463.263916</ele>
        <time>2013-02-17T09:26:00Z</time>
      </trkpt>
      <trkpt lat="45.27095" lon="6.05484">
        <ele>1463.7443848</ele>
        <time>2013-02-17T09:26:10Z</time>
      </trkpt>
      <trkpt lat="45.27095" lon="6.05484">
        <ele>1463.7443848</ele>
        <time>2013-02-17T09:26:22Z</time>
      </trkpt>
      <trkpt lat="45.27093" lon="6.05484">
        <ele>1463.7443848</ele>
        <time>2013-02-17T09:26:41Z</time>
      </trkpt>
      <trkpt lat="45.27092" lon="6.05482">
        <ele>1462.3024902</ele>
        <time>2013-02-17T09:27:43Z</time>
      </trkpt>
      <trkpt lat="45.27092" lon="6.05481">
        <ele>1461.8220215</ele>
        <time>2013-02-17T09:28:00Z</time>
      </trkpt>
      <trkpt lat="45.27091" lon="6.05481">
        <ele>1461.3413086</ele>
        <time>2013-02-17T09:28:07Z</time>
      </trkpt>
      <trkpt lat="45.27091" lon="6.0548">
        <ele>1460.8605957</ele>
        <time>2013-02-17T09:28:21Z</time>
      </trkpt>
      <trkpt lat="45.27091" lon="6.0548">
        <ele>1460.3798828</ele>
        <time>2013-02-17T09:28:34Z</time>
      </trkpt>
      <trkpt lat="45.2709" lon="6.05479">
        <ele>1461.3413086</ele>
        <time>2013-02-17T09:28:45Z</time>
      </trkpt>
      <trkpt lat="45.27088" lon="6.05479">
        <ele>1462.3024902</ele>
        <time>2013-02-17T09:28:55Z</time>
      </trkpt>
      <trkpt lat="45.27087" lon="6.05479">
        <ele>1463.263916</ele>
        <time>2013-02-17T09:29:05Z</time>
      </trkpt>
      <trkpt lat="45.27086" lon="6.05477">
        <ele>1462.7832031</ele>
        <time>2013-02-17T09:29:13Z</time>
      </trkpt>
      <trkpt lat="45.27085" lon="6.05478">
        <ele>1463.263916</ele>
        <time>2013-02-17T09:29:29Z</time>
      </trkpt>
      <trkpt lat="45.27084" lon="6.05478">
        <ele>1462.7832031</ele>
        <time>2013-02-17T09:29:37Z</time>
      </trkpt>
      <trkpt lat="45.27083" lon="6.05478">
        <ele>1462.7832031</ele>
        <time>2013-02-17T09:29:44Z</time>
      </trkpt>
      <trkpt lat="45.27082" lon="6.05477">
        <ele>1462.3024902</ele>
        <time>2013-02-17T09:29:52Z</time>
      </trkpt>
      <trkpt lat="45.27081" lon="6.05477">
        <ele>1462.7832031</ele>
        <time>2013-02-17T09:30:09Z</time>
      </trkpt>
      <trkpt lat="45.27079" lon="6.05477">
        <ele>1462.7832031</ele>
        <time>2013-02-17T09:30:17Z</time>
      </trkpt>
      <trkpt lat="45.27078" lon="6.05477">
        <ele>1463.263916</ele>
        <time>2013-02-17T09:30:25Z</time>
      </trkpt>
      <trkpt lat="45.27076" lon="6.05475">
        <ele>1462.3024902</ele>
        <time>2013-02-17T09:30:37Z</time>
      </trkpt>
      <trkpt lat="45.27074" lon="6.05474">
        <ele>1462.3024902</ele>
        <time>2013-02-17T09:30:49Z</time>
      </trkpt>
      <trkpt lat="45.27072" lon="6.05471">
        <ele>1461.8220215</ele>
        <time>2013-02-17T09:30:55Z</time>
      </trkpt>
      <trkpt lat="45.27072" lon="6.05471">
        <ele>1461.3413086</ele>
        <time>2013-02-17T09:31:02Z</time>
      </trkpt>
      <trkpt lat="45.27071" lon="6.05468">
        <ele>1460.8605957</ele>
        <time>2013-02-17T09:31:13Z</time>
      </trkpt>
      <trkpt lat="45.27069" lon="6.05465">
        <ele>1460.3798828</ele>
        <time>2013-02-17T09:31:22Z</time>
      </trkpt>
      <trkpt lat="45.27069" lon="6.05461">
        <ele>1459.4187012</ele>
        <time>2013-02-17T09:31:27Z</time>
      </trkpt>
      <trkpt lat="45.27068" lon="6.05457">
        <ele>1457.9768066</ele>
        <time>2013-02-17T09:31:33Z</time>
      </trkpt>
      <trkpt lat="45.27067" lon="6.05454">
        <ele>1457.9768066</ele>
        <time>2013-02-17T09:31:35Z</time>
      </trkpt>
      <trkpt lat="45.27055" lon="6.05435">
        <ele>1456.534668</ele>
        <time>2013-02-17T09:31:39Z</time>
      </trkpt>
      <trkpt lat="45.27053" lon="6.05428">
        <ele>1458.4572754</ele>
        <time>2013-02-17T09:31:40Z</time>
      </trkpt>
      <trkpt lat="45.27044" lon="6.05398">
        <ele>1464.7058105</ele>
        <time>2013-02-17T09:31:45Z</time>
      </trkpt>
      <trkpt lat="45.27031" lon="6.05365">
        <ele>1473.8383789</ele>
        <time>2013-02-17T09:31:51Z</time>
      </trkpt>
      <trkpt lat="45.27016" lon="6.05328">
        <ele>1484.8937988</ele>
        <time>2013-02-17T09:31:58Z</time>
      </trkpt>
      <trkpt lat="45.27" lon="6.05291">
        <ele>1493.0646973</ele>
        <time>2013-02-17T09:32:05Z</time>
      </trkpt>
      <trkpt lat="45.26987" lon="6.05261">
        <ele>1501.7167969</ele>
        <time>2013-02-17T09:32:11Z</time>
      </trkpt>
      <trkpt lat="45.26975" lon="6.05231">
        <ele>1511.8105469</ele>
        <time>2013-02-17T09:32:17Z</time>
      </trkpt>
      <trkpt lat="45.26963" lon="6.052">
        <ele>1521.9042969</ele>
        <time>2013-02-17T09:32:23Z</time>
      </trkpt>
      <trkpt lat="45.26946" lon="6.05162">
        <ele>1539.2080078</ele>
        <time>2013-02-17T09:32:31Z</time>
      </trkpt>
      <trkpt lat="45.26932" lon="6.05128">
        <ele>1553.6279297</ele>
        <time>2013-02-17T09:32:38Z</time>
      </trkpt>
      <trkpt lat="45.2692" lon="6.05097">
        <ele>1565.6445313</ele>
        <time>2013-02-17T09:32:44Z</time>
      </trkpt>
      <trkpt lat="45.26907" lon="6.05066">
        <ele>1576.6994629</ele>
        <time>2013-02-17T09:32:50Z</time>
      </trkpt>
      <trkpt lat="45.26896" lon="6.05039">
        <ele>1581.5061035</ele>
        <time>2013-02-17T09:32:55Z</time>
      </trkpt>
      <trkpt lat="45.26881" lon="6.05002">
        <ele>1589.6772461</ele>
        <time>2013-02-17T09:33:02Z</time>
      </trkpt>
      <trkpt lat="45.26864" lon="6.0496">
        <ele>1598.8098145</ele>
        <time>2013-02-17T09:33:10Z</time>
      </trkpt>
      <trkpt lat="45.26843" lon="6.04907">
        <ele>1607.9423828</ele>
        <time>2013-02-17T09:33:20Z</time>
      </trkpt>
      <trkpt lat="45.26827" lon="6.04867">
        <ele>1618.9975586</ele>
        <time>2013-02-17T09:33:28Z</time>
      </trkpt>
      <trkpt lat="45.26803" lon="6.04808">
        <ele>1644.953125</ele>
        <time>2013-02-17T09:33:40Z</time>
      </trkpt>
      <trkpt lat="45.26791" lon="6.04778">
        <ele>1657.9309082</ele>
        <time>2013-02-17T09:33:46Z</time>
      </trkpt>
      <trkpt lat="45.2677" lon="6.04729">
        <ele>1679.079834</ele>
        <time>2013-02-17T09:33:56Z</time>
      </trkpt>
      <trkpt lat="45.26753" lon="6.04686">
        <ele>1700.2290039</ele>
        <time>2013-02-17T09:34:05Z</time>
      </trkpt>
      <trkpt lat="45.2674" lon="6.04654">
        <ele>1718.4938965</ele>
        <time>2013-02-17T09:34:12Z</time>
      </trkpt>
      <trkpt lat="45.26728" lon="6.04624">
        <ele>1731.4716797</ele>
        <time>2013-02-17T09:34:18Z</time>
      </trkpt>
      <trkpt lat="45.26714" lon="6.0459">
        <ele>1746.3723145</ele>
        <time>2013-02-17T09:34:25Z</time>
      </trkpt>
      <trkpt lat="45.26698" lon="6.04551">
        <ele>1763.1953125</ele>
        <time>2013-02-17T09:34:33Z</time>
      </trkpt>
      <trkpt lat="45.26683" lon="6.04515">
        <ele>1773.7697754</ele>
        <time>2013-02-17T09:34:40Z</time>
      </trkpt>
      <trkpt lat="45.26668" lon="6.04479">
        <ele>1786.2668457</ele>
        <time>2013-02-17T09:34:47Z</time>
      </trkpt>
      <trkpt lat="45.26654" lon="6.04444">
        <ele>1798.2832031</ele>
        <time>2013-02-17T09:34:54Z</time>
      </trkpt>
      <trkpt lat="45.26641" lon="6.04412">
        <ele>1805.973877</ele>
        <time>2013-02-17T09:35:00Z</time>
      </trkpt>
      <trkpt lat="45.26627" lon="6.04376">
        <ele>1816.067627</ele>
        <time>2013-02-17T09:35:07Z</time>
      </trkpt>
      <trkpt lat="45.266" lon="6.04309">
        <ele>1837.6975098</ele>
        <time>2013-02-17T09:35:20Z</time>
      </trkpt>
      <trkpt lat="45.26584" lon="6.04269">
        <ele>1852.1171875</ele>
        <time>2013-02-17T09:35:28Z</time>
      </trkpt>
      <trkpt lat="45.26571" lon="6.04237">
        <ele>1859.3271484</ele>
        <time>2013-02-17T09:35:34Z</time>
      </trkpt>
      <trkpt lat="45.26552" lon="6.0419">
        <ele>1872.3049316</ele>
        <time>2013-02-17T09:35:43Z</time>
      </trkpt>
      <trkpt lat="45.26541" lon="6.04164">
        <ele>1877.1115723</ele>
        <time>2013-02-17T09:35:48Z</time>
      </trkpt>
      <trkpt lat="45.26519" lon="6.0411">
        <ele>1885.7634277</ele>
        <time>2013-02-17T09:35:58Z</time>
      </trkpt>
      <trkpt lat="45.26486" lon="6.0403">
        <ele>1903.5478516</ele>
        <time>2013-02-17T09:36:13Z</time>
      </trkpt>
      <trkpt lat="45.26465" lon="6.03978">
        <ele>1918.9289551</ele>
        <time>2013-02-17T09:36:23Z</time>
      </trkpt>
      <trkpt lat="45.26458" lon="6.03964">
        <ele>1924.2160645</ele>
        <time>2013-02-17T09:36:26Z</time>
      </trkpt>
      <trkpt lat="45.26438" lon="6.03914">
        <ele>1934.7907715</ele>
        <time>2013-02-17T09:36:35Z</time>
      </trkpt>
      <trkpt lat="45.26434" lon="6.039">
        <ele>1936.232666</ele>
        <time>2013-02-17T09:36:38Z</time>
      </trkpt>
      <trkpt lat="45.26429" lon="6.03884">
        <ele>1935.7519531</ele>
        <time>2013-02-17T09:36:44Z</time>
      </trkpt>
      <trkpt lat="45.26429" lon="6.0387">
        <ele>1934.3100586</ele>
        <time>2013-02-17T09:36:49Z</time>
      </trkpt>
      <trkpt lat="45.26432" lon="6.03861">
        <ele>1933.3486328</ele>
        <time>2013-02-17T09:36:53Z</time>
      </trkpt>
      <trkpt lat="45.26433" lon="6.03861">
        <ele>1933.3486328</ele>
        <time>2013-02-17T09:37:01Z</time>
      </trkpt>
      <trkpt lat="45.26432" lon="6.0386">
        <ele>1934.7907715</ele>
        <time>2013-02-17T09:37:07Z</time>
      </trkpt>
      <trkpt lat="45.26432" lon="6.03859">
        <ele>1935.7519531</ele>
        <time>2013-02-17T09:37:16Z</time>
      </trkpt>
      <trkpt lat="45.26432" lon="6.0386">
        <ele>1934.3100586</ele>
        <time>2013-02-17T09:37:26Z</time>
      </trkpt>
      <trkpt lat="45.26438" lon="6.03857">
        <ele>1933.3486328</ele>
        <time>2013-02-17T09:37:31Z</time>
      </trkpt>
      <trkpt lat="45.26439" lon="6.03858">
        <ele>1932.8679199</ele>
        <time>2013-02-17T09:37:37Z</time>
      </trkpt>
      <trkpt lat="45.26441" lon="6.03858">
        <ele>1932.3874512</ele>
        <time>2013-02-17T09:37:40Z</time>
      </trkpt>
      <trkpt lat="45.26455" lon="6.03864">
        <ele>1929.0224609</ele>
        <time>2013-02-17T09:37:44Z</time>
      </trkpt>
      <trkpt lat="45.26478" lon="6.03874">
        <ele>1922.293457</ele>
        <time>2013-02-17T09:37:47Z</time>
      </trkpt>
      <trkpt lat="45.2652" lon="6.03885">
        <ele>1914.1220703</ele>
        <time>2013-02-17T09:37:51Z</time>
      </trkpt>
      <trkpt lat="45.2653" lon="6.03887">
        <ele>1912.6801758</ele>
        <time>2013-02-17T09:37:52Z</time>
      </trkpt>
      <trkpt lat="45.26551" lon="6.03914">
        <ele>1905.9509277</ele>
        <time>2013-02-17T09:37:55Z</time>
      </trkpt>
      <trkpt lat="45.26563" lon="6.03977">
        <ele>1892.9731445</ele>
        <time>2013-02-17T09:37:59Z</time>
      </trkpt>
      <trkpt lat="45.26555" lon="6.04009">
        <ele>1887.2053223</ele>
        <time>2013-02-17T09:38:01Z</time>
      </trkpt>
      <trkpt lat="45.26547" lon="6.04021">
        <ele>1884.8022461</ele>
        <time>2013-02-17T09:38:02Z</time>
      </trkpt>
      <trkpt lat="45.26522" lon="6.04058">
        <ele>1879.5146484</ele>
        <time>2013-02-17T09:38:06Z</time>
      </trkpt>
      <trkpt lat="45.26507" lon="6.04115">
        <ele>1870.3823242</ele>
        <time>2013-02-17T09:38:10Z</time>
      </trkpt>
      <trkpt lat="45.26505" lon="6.04131">
        <ele>1867.9787598</ele>
        <time>2013-02-17T09:38:11Z</time>
      </trkpt>
      <trkpt lat="45.26501" lon="6.04158">
        <ele>1864.1335449</ele>
        <time>2013-02-17T09:38:13Z</time>
      </trkpt>
      <trkpt lat="45.26492" lon="6.04204">
        <ele>1857.8852539</ele>
        <time>2013-02-17T09:38:17Z</time>
      </trkpt>
      <trkpt lat="45.26479" lon="6.0423">
        <ele>1853.0786133</ele>
        <time>2013-02-17T09:38:20Z</time>
      </trkpt>
      <trkpt lat="45.26474" lon="6.04236">
        <ele>1850.6750488</ele>
        <time>2013-02-17T09:38:22Z</time>
      </trkpt>
      <trkpt lat="45.26475" lon="6.04236">
        <ele>1848.7524414</ele>
        <time>2013-02-17T09:38:32Z</time>
      </trkpt>
      <trkpt lat="45.26474" lon="6.04235">
        <ele>1849.2331543</ele>
        <time>2013-02-17T09:38:37Z</time>
      </trkpt>
      <trkpt lat="45.26471" lon="6.04233">
        <ele>1848.7524414</ele>
        <time>2013-02-17T09:38:41Z</time>
      </trkpt>
      <trkpt lat="45.26453" lon="6.04235">
        <ele>1844.9072266</ele>
        <time>2013-02-17T09:38:45Z</time>
      </trkpt>
      <trkpt lat="45.26439" lon="6.0424">
        <ele>1841.5427246</ele>
        <time>2013-02-17T09:38:47Z</time>
      </trkpt>
      <trkpt lat="45.26426" lon="6.0425">
        <ele>1836.736084</ele>
        <time>2013-02-17T09:38:49Z</time>
      </trkpt>
      <trkpt lat="45.2641" lon="6.04288">
        <ele>1824.7197266</ele>
        <time>2013-02-17T09:38:53Z</time>
      </trkpt>
      <trkpt lat="45.26404" lon="6.04327">
        <ele>1813.6643066</ele>
        <time>2013-02-17T09:38:56Z</time>
      </trkpt>
      <trkpt lat="45.26403" lon="6.04376">
        <ele>1800.2060547</ele>
        <time>2013-02-17T09:38:59Z</time>
      </trkpt>
      <trkpt lat="45.26403" lon="6.04432">
        <ele>1787.7087402</ele>
        <time>2013-02-17T09:39:02Z</time>
      </trkpt>
      <trkpt lat="45.26396" lon="6.04466">
        <ele>1780.0183105</ele>
        <time>2013-02-17T09:39:04Z</time>
      </trkpt>
      <trkpt lat="45.26375" lon="6.045">
        <ele>1771.8469238</ele>
        <time>2013-02-17T09:39:07Z</time>
      </trkpt>
      <trkpt lat="45.26363" lon="6.04515">
        <ele>1765.5986328</ele>
        <time>2013-02-17T09:39:09Z</time>
      </trkpt>
      <trkpt lat="45.26357" lon="6.04543">
        <ele>1758.3886719</ele>
        <time>2013-02-17T09:39:12Z</time>
      </trkpt>
      <trkpt lat="45.26356" lon="6.04582">
        <ele>1749.2561035</ele>
        <time>2013-02-17T09:39:15Z</time>
      </trkpt>
      <trkpt lat="45.26354" lon="6.04624">
        <ele>1739.1621094</ele>
        <time>2013-02-17T09:39:18Z</time>
      </trkpt>
      <trkpt lat="45.26352" lon="6.04669">
        <ele>1728.5878906</ele>
        <time>2013-02-17T09:39:21Z</time>
      </trkpt>
      <trkpt lat="45.26348" lon="6.04711">
        <ele>1718.0131836</ele>
        <time>2013-02-17T09:39:24Z</time>
      </trkpt>
      <trkpt lat="45.26333" lon="6.04733">
        <ele>1708.8808594</ele>
        <time>2013-02-17T09:39:26Z</time>
      </trkpt>
      <trkpt lat="45.2631" lon="6.04747">
        <ele>1701.1901855</ele>
        <time>2013-02-17T09:39:28Z</time>
      </trkpt>
      <trkpt lat="45.26273" lon="6.04755">
        <ele>1692.0578613</ele>
        <time>2013-02-17T09:39:31Z</time>
      </trkpt>
      <trkpt lat="45.26241" lon="6.04757">
        <ele>1684.8479004</ele>
        <time>2013-02-17T09:39:34Z</time>
      </trkpt>
      <trkpt lat="45.26213" lon="6.0476">
        <ele>1678.1186523</ele>
        <time>2013-02-17T09:39:37Z</time>
      </trkpt>
      <trkpt lat="45.26202" lon="6.04773">
        <ele>1673.7924805</ele>
        <time>2013-02-17T09:39:39Z</time>
      </trkpt>
      <trkpt lat="45.26202" lon="6.04777">
        <ele>1672.8312988</ele>
        <time>2013-02-17T09:39:41Z</time>
      </trkpt>
      <trkpt lat="45.26202" lon="6.04776">
        <ele>1673.3120117</ele>
        <time>2013-02-17T09:39:46Z</time>
      </trkpt>
      <trkpt lat="45.26202" lon="6.04781">
        <ele>1672.8312988</ele>
        <time>2013-02-17T09:39:48Z</time>
      </trkpt>
      <trkpt lat="45.26192" lon="6.04798">
        <ele>1670.9086914</ele>
        <time>2013-02-17T09:39:53Z</time>
      </trkpt>
      <trkpt lat="45.26184" lon="6.04806">
        <ele>1671.3891602</ele>
        <time>2013-02-17T09:39:57Z</time>
      </trkpt>
      <trkpt lat="45.26179" lon="6.04815">
        <ele>1671.3891602</ele>
        <time>2013-02-17T09:40:01Z</time>
      </trkpt>
      <trkpt lat="45.26178" lon="6.04816">
        <ele>1671.869873</ele>
        <time>2013-02-17T09:40:02Z</time>
      </trkpt>
      <trkpt lat="45.26177" lon="6.04819">
        <ele>1672.3505859</ele>
        <time>2013-02-17T09:40:09Z</time>
      </trkpt>
      <trkpt lat="45.26177" lon="6.04821">
        <ele>1672.8312988</ele>
        <time>2013-02-17T09:40:18Z</time>
      </trkpt>
      <trkpt lat="45.26177" lon="6.04822">
        <ele>1673.3120117</ele>
        <time>2013-02-17T09:40:26Z</time>
      </trkpt>
      <trkpt lat="45.26176" lon="6.04823">
        <ele>1673.7924805</ele>
        <time>2013-02-17T09:40:34Z</time>
      </trkpt>
      <trkpt lat="45.26176" lon="6.04824">
        <ele>1674.2731934</ele>
        <time>2013-02-17T09:40:43Z</time>
      </trkpt>
      <trkpt lat="45.26176" lon="6.04825">
        <ele>1673.7924805</ele>
        <time>2013-02-17T09:40:49Z</time>
      </trkpt>
      <trkpt lat="45.26176" lon="6.04826">
        <ele>1673.3120117</ele>
        <time>2013-02-17T09:40:58Z</time>
      </trkpt>
      <trkpt lat="45.26176" lon="6.04827">
        <ele>1672.8312988</ele>
        <time>2013-02-17T09:41:05Z</time>
      </trkpt>
      <trkpt lat="45.26176" lon="6.04828">
        <ele>1672.8312988</ele>
        <time>2013-02-17T09:41:13Z</time>
      </trkpt>
      <trkpt lat="45.26175" lon="6.04828">
        <ele>1672.8312988</ele>
        <time>2013-02-17T09:41:25Z</time>
      </trkpt>
      <trkpt lat="45.26175" lon="6.0483">
        <ele>1672.8312988</ele>
        <time>2013-02-17T09:41:36Z</time>
      </trkpt>
      <trkpt lat="45.26174" lon="6.04831">
        <ele>1673.3120117</ele>
        <time>2013-02-17T09:41:44Z</time>
      </trkpt>
      <trkpt lat="45.26173" lon="6.04832">
        <ele>1674.2731934</ele>
        <time>2013-02-17T09:41:54Z</time>
      </trkpt>
      <trkpt lat="45.26172" lon="6.04832">
        <ele>1674.7539063</ele>
        <time>2013-02-17T09:42:05Z</time>
      </trkpt>
      <trkpt lat="45.26172" lon="6.04833">
        <ele>1674.7539063</ele>
        <time>2013-02-17T09:42:16Z</time>
      </trkpt>
      <trkpt lat="45.2617" lon="6.04834">
        <ele>1675.234375</ele>
        <time>2013-02-17T09:42:27Z</time>
      </trkpt>
      <trkpt lat="45.26169" lon="6.04835">
        <ele>1675.234375</ele>
        <time>2013-02-17T09:42:36Z</time>
      </trkpt>
      <trkpt lat="45.2617" lon="6.04834">
        <ele>1673.3120117</ele>
        <time>2013-02-17T09:42:48Z</time>
      </trkpt>
      <trkpt lat="45.26169" lon="6.04834">
        <ele>1672.3505859</ele>
        <time>2013-02-17T09:42:57Z</time>
      </trkpt>
      <trkpt lat="45.26169" lon="6.04835">
        <ele>1672.8312988</ele>
        <time>2013-02-17T09:43:08Z</time>
      </trkpt>
      <trkpt lat="45.26168" lon="6.04836">
        <ele>1673.3120117</ele>
        <time>2013-02-17T09:43:21Z</time>
      </trkpt>
      <trkpt lat="45.26167" lon="6.04836">
        <ele>1674.2731934</ele>
        <time>2013-02-17T09:43:31Z</time>
      </trkpt>
      <trkpt lat="45.26166" lon="6.04837">
        <ele>1674.7539063</ele>
        <time>2013-02-17T09:43:44Z</time>
      </trkpt>
      <trkpt lat="45.26165" lon="6.04837">
        <ele>1675.234375</ele>
        <time>2013-02-17T09:43:53Z</time>
      </trkpt>
      <trkpt lat="45.26165" lon="6.04837">
        <ele>1675.234375</ele>
        <time>2013-02-17T09:44:01Z</time>
      </trkpt>
      <trkpt lat="45.26165" lon="6.04836">
        <ele>1675.234375</ele>
        <time>2013-02-17T09:44:13Z</time>
      </trkpt>
      <trkpt lat="45.26164" lon="6.04836">
        <ele>1675.234375</ele>
        <time>2013-02-17T09:44:24Z</time>
      </trkpt>
      <trkpt lat="45.26163" lon="6.04835">
        <ele>1675.234375</ele>
        <time>2013-02-17T09:44:31Z</time>
      </trkpt>
      <trkpt lat="45.26163" lon="6.04833">
        <ele>1676.6767578</ele>
        <time>2013-02-17T09:44:55Z</time>
      </trkpt>
      <trkpt lat="45.26163" lon="6.04833">
        <ele>1677.1574707</ele>
        <time>2013-02-17T09:45:02Z</time>
      </trkpt>
      <trkpt lat="45.26163" lon="6.04832">
        <ele>1677.6379395</ele>
        <time>2013-02-17T09:45:11Z</time>
      </trkpt>
      <trkpt lat="45.26162" lon="6.04832">
        <ele>1678.5993652</ele>
        <time>2013-02-17T09:45:32Z</time>
      </trkpt>
      <trkpt lat="45.26161" lon="6.04832">
        <ele>1679.079834</ele>
        <time>2013-02-17T09:45:45Z</time>
      </trkpt>
      <trkpt lat="45.2616" lon="6.04831">
        <ele>1679.079834</ele>
        <time>2013-02-17T09:45:55Z</time>
      </trkpt>
      <trkpt lat="45.26159" lon="6.04829">
        <ele>1678.1186523</ele>
        <time>2013-02-17T09:46:03Z</time>
      </trkpt>
      <trkpt lat="45.26158" lon="6.04827">
        <ele>1677.1574707</ele>
        <time>2013-02-17T09:46:15Z</time>
      </trkpt>
      <trkpt lat="45.26158" lon="6.04825">
        <ele>1675.234375</ele>
        <time>2013-02-17T09:46:24Z</time>
      </trkpt>
      <trkpt lat="45.26156" lon="6.04822">
        <ele>1673.7924805</ele>
        <time>2013-02-17T09:46:56Z</time>
      </trkpt>
      <trkpt lat="45.26155" lon="6.04822">
        <ele>1676.6767578</ele>
        <time>2013-02-17T09:47:03Z</time>
      </trkpt>
      <trkpt lat="45.2615" lon="6.0482">
        <ele>1680.0412598</ele>
        <time>2013-02-17T09:47:10Z</time>
      </trkpt>
      <trkpt lat="45.26147" lon="6.04811">
        <ele>1674.2731934</ele>
        <time>2013-02-17T09:47:19Z</time>
      </trkpt>
      <trkpt lat="45.26146" lon="6.04808">
        <ele>1673.7924805</ele>
        <time>2013-02-17T09:47:20Z</time>
      </trkpt>
      <trkpt lat="45.26135" lon="6.0479">
        <ele>1672.8312988</ele>
        <time>2013-02-17T09:47:23Z</time>
      </trkpt>
      <trkpt lat="45.2613" lon="6.04774">
        <ele>1678.1186523</ele>
        <time>2013-02-17T09:47:25Z</time>
      </trkpt>
      <trkpt lat="45.26125" lon="6.04763">
        <ele>1683.4057617</ele>
        <time>2013-02-17T09:47:27Z</time>
      </trkpt>
      <trkpt lat="45.26112" lon="6.04737">
        <ele>1689.173584</ele>
        <time>2013-02-17T09:47:32Z</time>
      </trkpt>
      <trkpt lat="45.26098" lon="6.04711">
        <ele>1693.9804688</ele>
        <time>2013-02-17T09:47:37Z</time>
      </trkpt>
      <trkpt lat="45.26085" lon="6.04686">
        <ele>1701.1901855</ele>
        <time>2013-02-17T09:47:42Z</time>
      </trkpt>
      <trkpt lat="45.26071" lon="6.04661">
        <ele>1708.8808594</ele>
        <time>2013-02-17T09:47:47Z</time>
      </trkpt>
      <trkpt lat="45.26061" lon="6.0464">
        <ele>1714.6486816</ele>
        <time>2013-02-17T09:47:51Z</time>
      </trkpt>
      <trkpt lat="45.26047" lon="6.04615">
        <ele>1722.3391113</ele>
        <time>2013-02-17T09:47:56Z</time>
      </trkpt>
      <trkpt lat="45.26031" lon="6.04585">
        <ele>1732.9135742</ele>
        <time>2013-02-17T09:48:02Z</time>
      </trkpt>
      <trkpt lat="45.26016" lon="6.04555">
        <ele>1744.4494629</ele>
        <time>2013-02-17T09:48:08Z</time>
      </trkpt>
      <trkpt lat="45.26" lon="6.04525">
        <ele>1755.0239258</ele>
        <time>2013-02-17T09:48:14Z</time>
      </trkpt>
      <trkpt lat="45.25979" lon="6.04485">
        <ele>1766.5598145</ele>
        <time>2013-02-17T09:48:22Z</time>
      </trkpt>
      <trkpt lat="45.25952" lon="6.04435">
        <ele>1783.8635254</ele>
        <time>2013-02-17T09:48:32Z</time>
      </trkpt>
      <trkpt lat="45.25937" lon="6.04405">
        <ele>1793.9575195</ele>
        <time>2013-02-17T09:48:38Z</time>
      </trkpt>
      <trkpt lat="45.25915" lon="6.04365">
        <ele>1808.8579102</ele>
        <time>2013-02-17T09:48:46Z</time>
      </trkpt>
      <trkpt lat="45.25895" lon="6.04326">
        <ele>1825.6809082</ele>
        <time>2013-02-17T09:48:54Z</time>
      </trkpt>
      <trkpt lat="45.25879" lon="6.04296">
        <ele>1836.2556152</ele>
        <time>2013-02-17T09:49:00Z</time>
      </trkpt>
      <trkpt lat="45.2586" lon="6.0426">
        <ele>1844.4265137</ele>
        <time>2013-02-17T09:49:07Z</time>
      </trkpt>
      <trkpt lat="45.25838" lon="6.04219">
        <ele>1854.5205078</ele>
        <time>2013-02-17T09:49:15Z</time>
      </trkpt>
      <trkpt lat="45.25818" lon="6.04182">
        <ele>1862.2109375</ele>
        <time>2013-02-17T09:49:22Z</time>
      </trkpt>
      <trkpt lat="45.25801" lon="6.0415">
        <ele>1865.5756836</ele>
        <time>2013-02-17T09:49:28Z</time>
      </trkpt>
      <trkpt lat="45.25768" lon="6.04087">
        <ele>1874.2275391</ele>
        <time>2013-02-17T09:49:40Z</time>
      </trkpt>
      <trkpt lat="45.25746" lon="6.04047">
        <ele>1884.3215332</ele>
        <time>2013-02-17T09:49:48Z</time>
      </trkpt>
      <trkpt lat="45.25729" lon="6.04014">
        <ele>1902.5864258</ele>
        <time>2013-02-17T09:49:55Z</time>
      </trkpt>
      <trkpt lat="45.2571" lon="6.03979">
        <ele>1924.2160645</ele>
        <time>2013-02-17T09:50:03Z</time>
      </trkpt>
      <trkpt lat="45.25689" lon="6.03939">
        <ele>1951.1330566</ele>
        <time>2013-02-17T09:50:12Z</time>
      </trkpt>
      <trkpt lat="45.25674" lon="6.03909">
        <ele>1972.7626953</ele>
        <time>2013-02-17T09:50:19Z</time>
      </trkpt>
      <trkpt lat="45.25653" lon="6.0387">
        <ele>2000.6408691</ele>
        <time>2013-02-17T09:50:28Z</time>
      </trkpt>
      <trkpt lat="45.25628" lon="6.03823">
        <ele>2033.8063965</ele>
        <time>2013-02-17T09:50:39Z</time>
      </trkpt>
      <trkpt lat="45.25616" lon="6.03799">
        <ele>2047.7456055</ele>
        <time>2013-02-17T09:50:44Z</time>
      </trkpt>
      <trkpt lat="45.25603" lon="6.03776">
        <ele>2059.28125</ele>
        <time>2013-02-17T09:50:49Z</time>
      </trkpt>
      <trkpt lat="45.25588" lon="6.03747">
        <ele>2074.1816406</ele>
        <time>2013-02-17T09:50:55Z</time>
      </trkpt>
      <trkpt lat="45.25576" lon="6.03724">
        <ele>2086.6787109</ele>
        <time>2013-02-17T09:51:00Z</time>
      </trkpt>
      <trkpt lat="45.25556" lon="6.03687">
        <ele>2096.2922363</ele>
        <time>2013-02-17T09:51:07Z</time>
      </trkpt>
      <trkpt lat="45.25535" lon="6.03645">
        <ele>2105.4245605</ele>
        <time>2013-02-17T09:51:15Z</time>
      </trkpt>
      <trkpt lat="45.25505" lon="6.03588">
        <ele>2120.3249512</ele>
        <time>2013-02-17T09:51:26Z</time>
      </trkpt>
      <trkpt lat="45.25488" lon="6.03556">
        <ele>2125.1315918</ele>
        <time>2013-02-17T09:51:32Z</time>
      </trkpt>
      <trkpt lat="45.2546" lon="6.03504">
        <ele>2134.744873</ele>
        <time>2013-02-17T09:51:42Z</time>
      </trkpt>
      <trkpt lat="45.25439" lon="6.03462">
        <ele>2144.838623</ele>
        <time>2013-02-17T09:51:50Z</time>
      </trkpt>
      <trkpt lat="45.25418" lon="6.03426">
        <ele>2165.0263672</ele>
        <time>2013-02-17T09:51:58Z</time>
      </trkpt>
      <trkpt lat="45.25399" lon="6.03388">
        <ele>2185.2138672</ele>
        <time>2013-02-17T09:52:06Z</time>
      </trkpt>
      <trkpt lat="45.25378" lon="6.03347">
        <ele>2208.2856445</ele>
        <time>2013-02-17T09:52:15Z</time>
      </trkpt>
      <trkpt lat="45.25353" lon="6.03305">
        <ele>2234.2412109</ele>
        <time>2013-02-17T09:52:24Z</time>
      </trkpt>
      <trkpt lat="45.25348" lon="6.03294">
        <ele>2239.0478516</ele>
        <time>2013-02-17T09:52:26Z</time>
      </trkpt>
      <trkpt lat="45.25338" lon="6.03283">
        <ele>2244.3349609</ele>
        <time>2013-02-17T09:52:29Z</time>
      </trkpt>
      <trkpt lat="45.25333" lon="6.03271">
        <ele>2246.2578125</ele>
        <time>2013-02-17T09:52:34Z</time>
      </trkpt>
      <trkpt lat="45.25333" lon="6.03267">
        <ele>2245.7770996</ele>
        <time>2013-02-17T09:52:35Z</time>
      </trkpt>
      <trkpt lat="45.25332" lon="6.03264">
        <ele>2245.7770996</ele>
        <time>2013-02-17T09:52:40Z</time>
      </trkpt>
      <trkpt lat="45.25334" lon="6.03265">
        <ele>2243.8544922</ele>
        <time>2013-02-17T09:52:49Z</time>
      </trkpt>
      <trkpt lat="45.25335" lon="6.03264">
        <ele>2243.3737793</ele>
        <time>2013-02-17T09:52:54Z</time>
      </trkpt>
      <trkpt lat="45.25339" lon="6.03264">
        <ele>2243.3737793</ele>
        <time>2013-02-17T09:53:00Z</time>
      </trkpt>
      <trkpt lat="45.2534" lon="6.03264">
        <ele>2243.3737793</ele>
        <time>2013-02-17T09:53:01Z</time>
      </trkpt>
      <trkpt lat="45.25346" lon="6.03263">
        <ele>2242.4125977</ele>
        <time>2013-02-17T09:53:06Z</time>
      </trkpt>
      <trkpt lat="45.25356" lon="6.03268">
        <ele>2240.4897461</ele>
        <time>2013-02-17T09:53:14Z</time>
      </trkpt>
      <trkpt lat="45.25368" lon="6.0328">
        <ele>2236.1640625</ele>
        <time>2013-02-17T09:53:18Z</time>
      </trkpt>
      <trkpt lat="45.25386" lon="6.03267">
        <ele>2229.9152832</ele>
        <time>2013-02-17T09:53:22Z</time>
      </trkpt>
      <trkpt lat="45.25399" lon="6.03247">
        <ele>2223.1862793</ele>
        <time>2013-02-17T09:53:25Z</time>
      </trkpt>
      <trkpt lat="45.25411" lon="6.03236">
        <ele>2216.9375</ele>
        <time>2013-02-17T09:53:27Z</time>
      </trkpt>
      <trkpt lat="45.25418" lon="6.03231">
        <ele>2214.5341797</ele>
        <time>2013-02-17T09:53:28Z</time>
      </trkpt>
      <trkpt lat="45.2544" lon="6.03212">
        <ele>2202.998291</ele>
        <time>2013-02-17T09:53:31Z</time>
      </trkpt>
      <trkpt lat="45.25465" lon="6.03203">
        <ele>2189.5400391</ele>
        <time>2013-02-17T09:53:34Z</time>
      </trkpt>
      <trkpt lat="45.25488" lon="6.03214">
        <ele>2175.6008301</ele>
        <time>2013-02-17T09:53:37Z</time>
      </trkpt>
      <trkpt lat="45.2549" lon="6.03244">
        <ele>2165.9875488</ele>
        <time>2013-02-17T09:53:39Z</time>
      </trkpt>
      <trkpt lat="45.25482" lon="6.03273">
        <ele>2158.2971191</ele>
        <time>2013-02-17T09:53:41Z</time>
      </trkpt>
      <trkpt lat="45.25477" lon="6.03287">
        <ele>2155.4130859</ele>
        <time>2013-02-17T09:53:42Z</time>
      </trkpt>
      <trkpt lat="45.25481" lon="6.03349">
        <ele>2142.4355469</ele>
        <time>2013-02-17T09:53:47Z</time>
      </trkpt>
      <trkpt lat="45.25483" lon="6.03361">
        <ele>2140.5126953</ele>
        <time>2013-02-17T09:53:48Z</time>
      </trkpt>
      <trkpt lat="45.25485" lon="6.03374">
        <ele>2138.109375</ele>
        <time>2013-02-17T09:53:51Z</time>
      </trkpt>
      <trkpt lat="45.25485" lon="6.03373">
        <ele>2138.109375</ele>
        <time>2013-02-17T09:53:52Z</time>
      </trkpt>
      <trkpt lat="45.25485" lon="6.03373">
        <ele>2138.5900879</ele>
        <time>2013-02-17T09:53:57Z</time>
      </trkpt>
      <trkpt lat="45.25486" lon="6.03374">
        <ele>2140.5126953</ele>
        <time>2013-02-17T09:54:03Z</time>
      </trkpt>
      <trkpt lat="45.25486" lon="6.03375">
        <ele>2142.9160156</ele>
        <time>2013-02-17T09:54:13Z</time>
      </trkpt>
      <trkpt lat="45.25486" lon="6.03376">
        <ele>2142.4355469</ele>
        <time>2013-02-17T09:54:16Z</time>
      </trkpt>
      <trkpt lat="45.25485" lon="6.03409">
        <ele>2139.0705566</ele>
        <time>2013-02-17T09:54:21Z</time>
      </trkpt>
      <trkpt lat="45.25486" lon="6.03466">
        <ele>2135.2253418</ele>
        <time>2013-02-17T09:54:28Z</time>
      </trkpt>
      <trkpt lat="45.25485" lon="6.03499">
        <ele>2133.3027344</ele>
        <time>2013-02-17T09:54:32Z</time>
      </trkpt>
      <trkpt lat="45.2548" lon="6.03527">
        <ele>2130.4189453</ele>
        <time>2013-02-17T09:54:36Z</time>
      </trkpt>
      <trkpt lat="45.25472" lon="6.03537">
        <ele>2127.0544434</ele>
        <time>2013-02-17T09:54:39Z</time>
      </trkpt>
      <trkpt lat="45.25465" lon="6.03538">
        <ele>2123.6894531</ele>
        <time>2013-02-17T09:54:44Z</time>
      </trkpt>
      <trkpt lat="45.25447" lon="6.03535">
        <ele>2119.8442383</ele>
        <time>2013-02-17T09:54:47Z</time>
      </trkpt>
      <trkpt lat="45.25417" lon="6.03539">
        <ele>2112.6345215</ele>
        <time>2013-02-17T09:54:52Z</time>
      </trkpt>
      <trkpt lat="45.25384" lon="6.03557">
        <ele>2106.3857422</ele>
        <time>2013-02-17T09:54:57Z</time>
      </trkpt>
      <trkpt lat="45.25378" lon="6.03561">
        <ele>2104.9438477</ele>
        <time>2013-02-17T09:54:58Z</time>
      </trkpt>
      <trkpt lat="45.25348" lon="6.03579">
        <ele>2098.6953125</ele>
        <time>2013-02-17T09:55:03Z</time>
      </trkpt>
      <trkpt lat="45.25341" lon="6.03586">
        <ele>2096.7727051</ele>
        <time>2013-02-17T09:55:05Z</time>
      </trkpt>
      <trkpt lat="45.25326" lon="6.03604">
        <ele>2091.4853516</ele>
        <time>2013-02-17T09:55:09Z</time>
      </trkpt>
      <trkpt lat="45.25321" lon="6.03617">
        <ele>2087.1594238</ele>
        <time>2013-02-17T09:55:12Z</time>
      </trkpt>
      <trkpt lat="45.25317" lon="6.03626">
        <ele>2082.8334961</ele>
        <time>2013-02-17T09:55:14Z</time>
      </trkpt>
      <trkpt lat="45.25314" lon="6.03624">
        <ele>2080.9111328</ele>
        <time>2013-02-17T09:55:17Z</time>
      </trkpt>
      <trkpt lat="45.25315" lon="6.03626">
        <ele>2080.9111328</ele>
        <time>2013-02-17T09:55:21Z</time>
      </trkpt>
      <trkpt lat="45.25311" lon="6.03629">
        <ele>2079.4689941</ele>
        <time>2013-02-17T09:55:26Z</time>
      </trkpt>
      <trkpt lat="45.25301" lon="6.03631">
        <ele>2076.5852051</ele>
        <time>2013-02-17T09:55:30Z</time>
      </trkpt>
      <trkpt lat="45.25299" lon="6.03632">
        <ele>2075.6235352</ele>
        <time>2013-02-17T09:55:32Z</time>
      </trkpt>
      <trkpt lat="45.25298" lon="6.03642">
        <ele>2072.2590332</ele>
        <time>2013-02-17T09:55:35Z</time>
      </trkpt>
      <trkpt lat="45.25291" lon="6.03653">
        <ele>2068.4138184</ele>
        <time>2013-02-17T09:55:38Z</time>
      </trkpt>
      <trkpt lat="45.25286" lon="6.03655">
        <ele>2066.4912109</ele>
        <time>2013-02-17T09:55:40Z</time>
      </trkpt>
      <trkpt lat="45.25275" lon="6.03674">
        <ele>2059.7617188</ele>
        <time>2013-02-17T09:55:45Z</time>
      </trkpt>
      <trkpt lat="45.2527" lon="6.03682">
        <ele>2056.3972168</ele>
        <time>2013-02-17T09:55:47Z</time>
      </trkpt>
      <trkpt lat="45.25261" lon="6.03686">
        <ele>2053.0327148</ele>
        <time>2013-02-17T09:55:50Z</time>
      </trkpt>
      <trkpt lat="45.25257" lon="6.03698">
        <ele>2047.7456055</ele>
        <time>2013-02-17T09:55:53Z</time>
      </trkpt>
      <trkpt lat="45.25254" lon="6.03701">
        <ele>2045.3422852</ele>
        <time>2013-02-17T09:56:00Z</time>
      </trkpt>
      <trkpt lat="45.25251" lon="6.03713">
        <ele>2041.4968262</ele>
        <time>2013-02-17T09:56:03Z</time>
      </trkpt>
      <trkpt lat="45.25249" lon="6.03717">
        <ele>2040.5354004</ele>
        <time>2013-02-17T09:56:04Z</time>
      </trkpt>
      <trkpt lat="45.2524" lon="6.03723">
        <ele>2038.6130371</ele>
        <time>2013-02-17T09:56:07Z</time>
      </trkpt>
      <trkpt lat="45.25237" lon="6.03735">
        <ele>2034.7678223</ele>
        <time>2013-02-17T09:56:10Z</time>
      </trkpt>
      <trkpt lat="45.25233" lon="6.03742">
        <ele>2032.364502</ele>
        <time>2013-02-17T09:56:12Z</time>
      </trkpt>
      <trkpt lat="45.25231" lon="6.03741">
        <ele>2030.9226074</ele>
        <time>2013-02-17T09:56:15Z</time>
      </trkpt>
      <trkpt lat="45.25231" lon="6.0374">
        <ele>2029.9611816</ele>
        <time>2013-02-17T09:56:22Z</time>
      </trkpt>
      <trkpt lat="45.25231" lon="6.0374">
        <ele>2029.9611816</ele>
        <time>2013-02-17T09:56:33Z</time>
      </trkpt>
      <trkpt lat="45.2523" lon="6.03744">
        <ele>2028.9997559</ele>
        <time>2013-02-17T09:56:35Z</time>
      </trkpt>
      <trkpt lat="45.25227" lon="6.03755">
        <ele>2025.6350098</ele>
        <time>2013-02-17T09:56:38Z</time>
      </trkpt>
      <trkpt lat="45.25225" lon="6.03757">
        <ele>2024.6738281</ele>
        <time>2013-02-17T09:56:39Z</time>
      </trkpt>
      <trkpt lat="45.25212" lon="6.03762">
        <ele>2019.8671875</ele>
        <time>2013-02-17T09:56:44Z</time>
      </trkpt>
      <trkpt lat="45.25207" lon="6.0377">
        <ele>2015.5415039</ele>
        <time>2013-02-17T09:56:49Z</time>
      </trkpt>
      <trkpt lat="45.252" lon="6.03774">
        <ele>2012.6574707</ele>
        <time>2013-02-17T09:56:52Z</time>
      </trkpt>
      <trkpt lat="45.25191" lon="6.0378">
        <ele>2009.7731934</ele>
        <time>2013-02-17T09:56:55Z</time>
      </trkpt>
      <trkpt lat="45.25184" lon="6.03783">
        <ele>2007.3701172</ele>
        <time>2013-02-17T09:56:57Z</time>
      </trkpt>
      <trkpt lat="45.25167" lon="6.03791">
        <ele>2001.6022949</ele>
        <time>2013-02-17T09:57:02Z</time>
      </trkpt>
      <trkpt lat="45.25161" lon="6.03799">
        <ele>1997.7570801</ele>
        <time>2013-02-17T09:57:06Z</time>
      </trkpt>
      <trkpt lat="45.25153" lon="6.03812">
        <ele>1993.9116211</ele>
        <time>2013-02-17T09:57:10Z</time>
      </trkpt>
      <trkpt lat="45.25151" lon="6.03827">
        <ele>1989.1049805</ele>
        <time>2013-02-17T09:57:13Z</time>
      </trkpt>
      <trkpt lat="45.25146" lon="6.03834">
        <ele>1986.7016602</ele>
        <time>2013-02-17T09:57:15Z</time>
      </trkpt>
      <trkpt lat="45.25142" lon="6.03846">
        <ele>1982.8564453</ele>
        <time>2013-02-17T09:57:17Z</time>
      </trkpt>
      <trkpt lat="45.25133" lon="6.03865">
        <ele>1978.5305176</ele>
        <time>2013-02-17T09:57:20Z</time>
      </trkpt>
      <trkpt lat="45.2512" lon="6.03873">
        <ele>1974.6853027</ele>
        <time>2013-02-17T09:57:24Z</time>
      </trkpt>
      <trkpt lat="45.25111" lon="6.03878">
        <ele>1972.7626953</ele>
        <time>2013-02-17T09:57:26Z</time>
      </trkpt>
      <trkpt lat="45.25088" lon="6.0389">
        <ele>1966.994873</ele>
        <time>2013-02-17T09:57:32Z</time>
      </trkpt>
      <trkpt lat="45.25082" lon="6.03893">
        <ele>1965.0722656</ele>
        <time>2013-02-17T09:57:34Z</time>
      </trkpt>
      <trkpt lat="45.25058" lon="6.03912">
        <ele>1959.3041992</ele>
        <time>2013-02-17T09:57:38Z</time>
      </trkpt>
      <trkpt lat="45.25042" lon="6.03927">
        <ele>1956.9008789</ele>
        <time>2013-02-17T09:57:41Z</time>
      </trkpt>
      <trkpt lat="45.25029" lon="6.03941">
        <ele>1952.5749512</ele>
        <time>2013-02-17T09:57:44Z</time>
      </trkpt>
      <trkpt lat="45.25013" lon="6.03961">
        <ele>1947.2875977</ele>
        <time>2013-02-17T09:57:47Z</time>
      </trkpt>
      <trkpt lat="45.24996" lon="6.03996">
        <ele>1942.0004883</ele>
        <time>2013-02-17T09:57:51Z</time>
      </trkpt>
      <trkpt lat="45.24976" lon="6.04024">
        <ele>1938.1552734</ele>
        <time>2013-02-17T09:57:56Z</time>
      </trkpt>
      <trkpt lat="45.24967" lon="6.04039">
        <ele>1935.7519531</ele>
        <time>2013-02-17T09:57:59Z</time>
      </trkpt>
      <trkpt lat="45.2496" lon="6.04047">
        <ele>1933.8293457</ele>
        <time>2013-02-17T09:58:03Z</time>
      </trkpt>
      <trkpt lat="45.24962" lon="6.04048">
        <ele>1932.3874512</ele>
        <time>2013-02-17T09:58:10Z</time>
      </trkpt>
      <trkpt lat="45.24962" lon="6.04049">
        <ele>1931.9064941</ele>
        <time>2013-02-17T09:58:13Z</time>
      </trkpt>
      <trkpt lat="45.24964" lon="6.04062">
        <ele>1929.0224609</ele>
        <time>2013-02-17T09:58:16Z</time>
      </trkpt>
      <trkpt lat="45.24969" lon="6.04092">
        <ele>1920.8515625</ele>
        <time>2013-02-17T09:58:20Z</time>
      </trkpt>
      <trkpt lat="45.24968" lon="6.04099">
        <ele>1917.9675293</ele>
        <time>2013-02-17T09:58:21Z</time>
      </trkpt>
      <trkpt lat="45.24966" lon="6.04154">
        <ele>1905.9509277</ele>
        <time>2013-02-17T09:58:26Z</time>
      </trkpt>
      <trkpt lat="45.24966" lon="6.04164">
        <ele>1904.9897461</ele>
        <time>2013-02-17T09:58:27Z</time>
      </trkpt>
      <trkpt lat="45.24966" lon="6.04183">
        <ele>1903.5478516</ele>
        <time>2013-02-17T09:58:30Z</time>
      </trkpt>
      <trkpt lat="45.24967" lon="6.04184">
        <ele>1903.0671387</ele>
        <time>2013-02-17T09:58:34Z</time>
      </trkpt>
      <trkpt lat="45.24968" lon="6.04186">
        <ele>1902.1057129</ele>
        <time>2013-02-17T09:58:41Z</time>
      </trkpt>
      <trkpt lat="45.24971" lon="6.04188">
        <ele>1901.1445313</ele>
        <time>2013-02-17T09:58:45Z</time>
      </trkpt>
      <trkpt lat="45.24982" lon="6.04202">
        <ele>1898.2602539</ele>
        <time>2013-02-17T09:58:49Z</time>
      </trkpt>
      <trkpt lat="45.24987" lon="6.04212">
        <ele>1896.3378906</ele>
        <time>2013-02-17T09:58:51Z</time>
      </trkpt>
      <trkpt lat="45.24986" lon="6.04231">
        <ele>1892.9731445</ele>
        <time>2013-02-17T09:58:54Z</time>
      </trkpt>
      <trkpt lat="45.24985" lon="6.04252">
        <ele>1889.1279297</ele>
        <time>2013-02-17T09:58:58Z</time>
      </trkpt>
      <trkpt lat="45.24986" lon="6.04264">
        <ele>1886.2441406</ele>
        <time>2013-02-17T09:59:00Z</time>
      </trkpt>
      <trkpt lat="45.24984" lon="6.04269">
        <ele>1885.2827148</ele>
        <time>2013-02-17T09:59:01Z</time>
      </trkpt>
      <trkpt lat="45.24977" lon="6.04305">
        <ele>1879.5146484</ele>
        <time>2013-02-17T09:59:06Z</time>
      </trkpt>
      <trkpt lat="45.24986" lon="6.04324">
        <ele>1875.6694336</ele>
        <time>2013-02-17T09:59:09Z</time>
      </trkpt>
      <trkpt lat="45.24989" lon="6.0433">
        <ele>1874.708252</ele>
        <time>2013-02-17T09:59:10Z</time>
      </trkpt>
      <trkpt lat="45.25012" lon="6.04338">
        <ele>1867.0175781</ele>
        <time>2013-02-17T09:59:15Z</time>
      </trkpt>
      <trkpt lat="45.25022" lon="6.04347">
        <ele>1863.1723633</ele>
        <time>2013-02-17T09:59:17Z</time>
      </trkpt>
      <trkpt lat="45.25031" lon="6.04351">
        <ele>1859.8076172</ele>
        <time>2013-02-17T09:59:19Z</time>
      </trkpt>
      <trkpt lat="45.25046" lon="6.04358">
        <ele>1854.0400391</ele>
        <time>2013-02-17T09:59:22Z</time>
      </trkpt>
      <trkpt lat="45.25055" lon="6.04365">
        <ele>1850.1945801</ele>
        <time>2013-02-17T09:59:24Z</time>
      </trkpt>
      <trkpt lat="45.2507" lon="6.0436">
        <ele>1847.3105469</ele>
        <time>2013-02-17T09:59:27Z</time>
      </trkpt>
      <trkpt lat="45.25077" lon="6.04365">
        <ele>1844.9072266</ele>
        <time>2013-02-17T09:59:29Z</time>
      </trkpt>
      <trkpt lat="45.25088" lon="6.04372">
        <ele>1841.0620117</ele>
        <time>2013-02-17T09:59:32Z</time>
      </trkpt>
      <trkpt lat="45.251" lon="6.04381">
        <ele>1837.2167969</ele>
        <time>2013-02-17T09:59:35Z</time>
      </trkpt>
      <trkpt lat="45.25123" lon="6.04392">
        <ele>1830.9682617</ele>
        <time>2013-02-17T09:59:39Z</time>
      </trkpt>
      <trkpt lat="45.2514" lon="6.04396">
        <ele>1827.6035156</ele>
        <time>2013-02-17T09:59:42Z</time>
      </trkpt>
      <trkpt lat="45.25157" lon="6.04405">
        <ele>1824.2390137</ele>
        <time>2013-02-17T09:59:45Z</time>
      </trkpt>
      <trkpt lat="45.25173" lon="6.04414">
        <ele>1820.3937988</ele>
        <time>2013-02-17T09:59:48Z</time>
      </trkpt>
      <trkpt lat="45.25187" lon="6.04421">
        <ele>1817.0290527</ele>
        <time>2013-02-17T09:59:51Z</time>
      </trkpt>
      <trkpt lat="45.25201" lon="6.04428">
        <ele>1813.1838379</ele>
        <time>2013-02-17T09:59:54Z</time>
      </trkpt>
      <trkpt lat="45.25218" lon="6.04431">
        <ele>1808.3771973</ele>
        <time>2013-02-17T09:59:57Z</time>
      </trkpt>
      <trkpt lat="45.25232" lon="6.04427">
        <ele>1804.5319824</ele>
        <time>2013-02-17T10:00:00Z</time>
      </trkpt>
      <trkpt lat="45.2524" lon="6.04422">
        <ele>1803.0898438</ele>
        <time>2013-02-17T10:00:02Z</time>
      </trkpt>
      <trkpt lat="45.2525" lon="6.0442">
        <ele>1801.1672363</ele>
        <time>2013-02-17T10:00:07Z</time>
      </trkpt>
      <trkpt lat="45.25249" lon="6.0442">
        <ele>1800.6865234</ele>
        <time>2013-02-17T10:00:12Z</time>
      </trkpt>
      <trkpt lat="45.2525" lon="6.04421">
        <ele>1800.6865234</ele>
        <time>2013-02-17T10:00:14Z</time>
      </trkpt>
      <trkpt lat="45.2526" lon="6.04431">
        <ele>1795.880127</ele>
        <time>2013-02-17T10:00:18Z</time>
      </trkpt>
      <trkpt lat="45.25269" lon="6.04431">
        <ele>1794.4379883</ele>
        <time>2013-02-17T10:00:20Z</time>
      </trkpt>
      <trkpt lat="45.25291" lon="6.04432">
        <ele>1790.5927734</ele>
        <time>2013-02-17T10:00:26Z</time>
      </trkpt>
      <trkpt lat="45.253" lon="6.04436">
        <ele>1788.1896973</ele>
        <time>2013-02-17T10:00:28Z</time>
      </trkpt>
      <trkpt lat="45.25308" lon="6.04439">
        <ele>1786.7473145</ele>
        <time>2013-02-17T10:00:30Z</time>
      </trkpt>
      <trkpt lat="45.25315" lon="6.04453">
        <ele>1782.9020996</ele>
        <time>2013-02-17T10:00:33Z</time>
      </trkpt>
      <trkpt lat="45.25321" lon="6.04464">
        <ele>1780.0183105</ele>
        <time>2013-02-17T10:00:36Z</time>
      </trkpt>
      <trkpt lat="45.25329" lon="6.04474">
        <ele>1775.6923828</ele>
        <time>2013-02-17T10:00:39Z</time>
      </trkpt>
      <trkpt lat="45.25334" lon="6.04489">
        <ele>1772.8085938</ele>
        <time>2013-02-17T10:00:42Z</time>
      </trkpt>
      <trkpt lat="45.2534" lon="6.04489">
        <ele>1770.8857422</ele>
        <time>2013-02-17T10:00:45Z</time>
      </trkpt>
      <trkpt lat="45.25348" lon="6.0449">
        <ele>1768.9631348</ele>
        <time>2013-02-17T10:00:49Z</time>
      </trkpt>
      <trkpt lat="45.25357" lon="6.04493">
        <ele>1766.5598145</ele>
        <time>2013-02-17T10:00:52Z</time>
      </trkpt>
      <trkpt lat="45.25363" lon="6.04502">
        <ele>1763.6757813</ele>
        <time>2013-02-17T10:00:55Z</time>
      </trkpt>
      <trkpt lat="45.25371" lon="6.0451">
        <ele>1760.7919922</ele>
        <time>2013-02-17T10:00:58Z</time>
      </trkpt>
      <trkpt lat="45.25386" lon="6.04506">
        <ele>1756.4660645</ele>
        <time>2013-02-17T10:01:03Z</time>
      </trkpt>
      <trkpt lat="45.25398" lon="6.04508">
        <ele>1753.1013184</ele>
        <time>2013-02-17T10:01:06Z</time>
      </trkpt>
      <trkpt lat="45.25409" lon="6.04527">
        <ele>1748.2946777</ele>
        <time>2013-02-17T10:01:09Z</time>
      </trkpt>
      <trkpt lat="45.25424" lon="6.04549">
        <ele>1742.0463867</ele>
        <time>2013-02-17T10:01:12Z</time>
      </trkpt>
      <trkpt lat="45.25444" lon="6.04566">
        <ele>1735.3168945</ele>
        <time>2013-02-17T10:01:15Z</time>
      </trkpt>
      <trkpt lat="45.25469" lon="6.04593">
        <ele>1724.7426758</ele>
        <time>2013-02-17T10:01:19Z</time>
      </trkpt>
      <trkpt lat="45.25482" lon="6.04603">
        <ele>1720.4165039</ele>
        <time>2013-02-17T10:01:21Z</time>
      </trkpt>
      <trkpt lat="45.2549" lon="6.04616">
        <ele>1716.0905762</ele>
        <time>2013-02-17T10:01:23Z</time>
      </trkpt>
      <trkpt lat="45.25496" lon="6.0462">
        <ele>1712.7260742</ele>
        <time>2013-02-17T10:01:25Z</time>
      </trkpt>
      <trkpt lat="45.255" lon="6.0462">
        <ele>1709.842041</ele>
        <time>2013-02-17T10:01:30Z</time>
      </trkpt>
      <trkpt lat="45.25501" lon="6.04619">
        <ele>1710.8034668</ele>
        <time>2013-02-17T10:01:40Z</time>
      </trkpt>
      <trkpt lat="45.25501" lon="6.0462">
        <ele>1710.3227539</ele>
        <time>2013-02-17T10:01:43Z</time>
      </trkpt>
      <trkpt lat="45.25515" lon="6.04639">
        <ele>1705.996582</ele>
        <time>2013-02-17T10:01:47Z</time>
      </trkpt>
      <trkpt lat="45.25522" lon="6.0465">
        <ele>1704.0742188</ele>
        <time>2013-02-17T10:01:48Z</time>
      </trkpt>
      <trkpt lat="45.25562" lon="6.0469">
        <ele>1689.6542969</ele>
        <time>2013-02-17T10:01:52Z</time>
      </trkpt>
      <trkpt lat="45.25592" lon="6.04724">
        <ele>1680.0412598</ele>
        <time>2013-02-17T10:01:55Z</time>
      </trkpt>
      <trkpt lat="45.25636" lon="6.04763">
        <ele>1667.0634766</ele>
        <time>2013-02-17T10:01:59Z</time>
      </trkpt>
      <trkpt lat="45.25678" lon="6.04784">
        <ele>1663.6987305</ele>
        <time>2013-02-17T10:02:03Z</time>
      </trkpt>
      <trkpt lat="45.25703" lon="6.04791">
        <ele>1662.7375488</ele>
        <time>2013-02-17T10:02:06Z</time>
      </trkpt>
      <trkpt lat="45.25738" lon="6.04783">
        <ele>1660.8149414</ele>
        <time>2013-02-17T10:02:11Z</time>
      </trkpt>
      <trkpt lat="45.25763" lon="6.04781">
        <ele>1659.8532715</ele>
        <time>2013-02-17T10:02:15Z</time>
      </trkpt>
      <trkpt lat="45.2581" lon="6.04792">
        <ele>1657.4501953</ele>
        <time>2013-02-17T10:02:23Z</time>
      </trkpt>
      <trkpt lat="45.25832" lon="6.04797">
        <ele>1656.0080566</ele>
        <time>2013-02-17T10:02:27Z</time>
      </trkpt>
      <trkpt lat="45.25861" lon="6.04792">
        <ele>1654.0856934</ele>
        <time>2013-02-17T10:02:32Z</time>
      </trkpt>
      <trkpt lat="45.25879" lon="6.04787">
        <ele>1652.6435547</ele>
        <time>2013-02-17T10:02:35Z</time>
      </trkpt>
      <trkpt lat="45.25885" lon="6.04788">
        <ele>1651.682373</ele>
        <time>2013-02-17T10:02:36Z</time>
      </trkpt>
      <trkpt lat="45.25905" lon="6.04791">
        <ele>1649.7597656</ele>
        <time>2013-02-17T10:02:39Z</time>
      </trkpt>
      <trkpt lat="45.25943" lon="6.04809">
        <ele>1646.3952637</ele>
        <time>2013-02-17T10:02:45Z</time>
      </trkpt>
      <trkpt lat="45.25988" lon="6.04838">
        <ele>1642.0690918</ele>
        <time>2013-02-17T10:02:52Z</time>
      </trkpt>
      <trkpt lat="45.25995" lon="6.04841">
        <ele>1641.5883789</ele>
        <time>2013-02-17T10:02:53Z</time>
      </trkpt>
      <trkpt lat="45.26019" lon="6.04828">
        <ele>1639.1850586</ele>
        <time>2013-02-17T10:02:57Z</time>
      </trkpt>
      <trkpt lat="45.2603" lon="6.04813">
        <ele>1636.7817383</ele>
        <time>2013-02-17T10:02:59Z</time>
      </trkpt>
      <trkpt lat="45.26058" lon="6.04805">
        <ele>1632.9365234</ele>
        <time>2013-02-17T10:03:03Z</time>
      </trkpt>
      <trkpt lat="45.26078" lon="6.04826">
        <ele>1629.0913086</ele>
        <time>2013-02-17T10:03:06Z</time>
      </trkpt>
      <trkpt lat="45.26084" lon="6.04836">
        <ele>1627.1687012</ele>
        <time>2013-02-17T10:03:07Z</time>
      </trkpt>
      <trkpt lat="45.26114" lon="6.04912">
        <ele>1618.5168457</ele>
        <time>2013-02-17T10:03:13Z</time>
      </trkpt>
      <trkpt lat="45.26126" lon="6.0495">
        <ele>1614.6716309</ele>
        <time>2013-02-17T10:03:16Z</time>
      </trkpt>
      <trkpt lat="45.26148" lon="6.04983">
        <ele>1609.8647461</ele>
        <time>2013-02-17T10:03:20Z</time>
      </trkpt>
      <trkpt lat="45.2616" lon="6.04992">
        <ele>1607.4616699</ele>
        <time>2013-02-17T10:03:22Z</time>
      </trkpt>
      <trkpt lat="45.26184" lon="6.05005">
        <ele>1607.4616699</ele>
        <time>2013-02-17T10:03:26Z</time>
      </trkpt>
      <trkpt lat="45.26208" lon="6.05003">
        <ele>1605.5390625</ele>
        <time>2013-02-17T10:03:30Z</time>
      </trkpt>
      <trkpt lat="45.26215" lon="6.05002">
        <ele>1604.5776367</ele>
        <time>2013-02-17T10:03:31Z</time>
      </trkpt>
      <trkpt lat="45.26251" lon="6.04996">
        <ele>1598.8098145</ele>
        <time>2013-02-17T10:03:35Z</time>
      </trkpt>
      <trkpt lat="45.26289" lon="6.04998">
        <ele>1591.5998535</ele>
        <time>2013-02-17T10:03:39Z</time>
      </trkpt>
      <trkpt lat="45.26307" lon="6.04993">
        <ele>1587.7546387</ele>
        <time>2013-02-17T10:03:41Z</time>
      </trkpt>
      <trkpt lat="45.26365" lon="6.04986">
        <ele>1578.6220703</ele>
        <time>2013-02-17T10:03:47Z</time>
      </trkpt>
      <trkpt lat="45.26409" lon="6.04971">
        <ele>1573.3349609</ele>
        <time>2013-02-17T10:03:52Z</time>
      </trkpt>
      <trkpt lat="45.26443" lon="6.04976">
        <ele>1566.6057129</ele>
        <time>2013-02-17T10:03:56Z</time>
      </trkpt>
      <trkpt lat="45.26451" lon="6.04979">
        <ele>1565.6445313</ele>
        <time>2013-02-17T10:03:57Z</time>
      </trkpt>
      <trkpt lat="45.26465" lon="6.0499">
        <ele>1563.2409668</ele>
        <time>2013-02-17T10:03:59Z</time>
      </trkpt>
      <trkpt lat="45.26488" lon="6.05">
        <ele>1559.395752</ele>
        <time>2013-02-17T10:04:03Z</time>
      </trkpt>
      <trkpt lat="45.26531" lon="6.05002">
        <ele>1555.0698242</ele>
        <time>2013-02-17T10:04:10Z</time>
      </trkpt>
      <trkpt lat="45.26551" lon="6.05014">
        <ele>1558.4343262</ele>
        <time>2013-02-17T10:04:13Z</time>
      </trkpt>
      <trkpt lat="45.26582" lon="6.05041">
        <ele>1555.0698242</ele>
        <time>2013-02-17T10:04:17Z</time>
      </trkpt>
      <trkpt lat="45.26604" lon="6.05059">
        <ele>1551.2246094</ele>
        <time>2013-02-17T10:04:20Z</time>
      </trkpt>
      <trkpt lat="45.2661" lon="6.05064">
        <ele>1549.7827148</ele>
        <time>2013-02-17T10:04:21Z</time>
      </trkpt>
      <trkpt lat="45.26644" lon="6.05082">
        <ele>1544.9758301</ele>
        <time>2013-02-17T10:04:26Z</time>
      </trkpt>
      <trkpt lat="45.26662" lon="6.05087">
        <ele>1543.0532227</ele>
        <time>2013-02-17T10:04:30Z</time>
      </trkpt>
      <trkpt lat="45.26663" lon="6.05101">
        <ele>1539.2080078</ele>
        <time>2013-02-17T10:04:33Z</time>
      </trkpt>
      <trkpt lat="45.26679" lon="6.05148">
        <ele>1529.1140137</ele>
        <time>2013-02-17T10:04:38Z</time>
      </trkpt>
      <trkpt lat="45.26709" lon="6.05177">
        <ele>1519.9816895</ele>
        <time>2013-02-17T10:04:42Z</time>
      </trkpt>
      <trkpt lat="45.26746" lon="6.05184">
        <ele>1513.7329102</ele>
        <time>2013-02-17T10:04:45Z</time>
      </trkpt>
      <trkpt lat="45.26758" lon="6.05181">
        <ele>1511.8105469</ele>
        <time>2013-02-17T10:04:46Z</time>
      </trkpt>
      <trkpt lat="45.268" lon="6.05191">
        <ele>1505.5620117</ele>
        <time>2013-02-17T10:04:50Z</time>
      </trkpt>
      <trkpt lat="45.26827" lon="6.05208">
        <ele>1500.7553711</ele>
        <time>2013-02-17T10:04:53Z</time>
      </trkpt>
      <trkpt lat="45.26865" lon="6.05239">
        <ele>1492.5842285</ele>
        <time>2013-02-17T10:04:57Z</time>
      </trkpt>
      <trkpt lat="45.26885" lon="6.05255">
        <ele>1488.7390137</ele>
        <time>2013-02-17T10:04:59Z</time>
      </trkpt>
      <trkpt lat="45.26928" lon="6.05271">
        <ele>1481.0483398</ele>
        <time>2013-02-17T10:05:03Z</time>
      </trkpt>
      <trkpt lat="45.26969" lon="6.053">
        <ele>1474.3190918</ele>
        <time>2013-02-17T10:05:07Z</time>
      </trkpt>
      <trkpt lat="45.26995" lon="6.05339">
        <ele>1471.9157715</ele>
        <time>2013-02-17T10:05:11Z</time>
      </trkpt>
      <trkpt lat="45.27011" lon="6.05356">
        <ele>1469.9931641</ele>
        <time>2013-02-17T10:05:14Z</time>
      </trkpt>
      <trkpt lat="45.27023" lon="6.0536">
        <ele>1468.0705566</ele>
        <time>2013-02-17T10:05:16Z</time>
      </trkpt>
      <trkpt lat="45.27045" lon="6.05381">
        <ele>1466.1477051</ele>
        <time>2013-02-17T10:05:20Z</time>
      </trkpt>
      <trkpt lat="45.2707" lon="6.05416">
        <ele>1465.1865234</ele>
        <time>2013-02-17T10:05:25Z</time>
      </trkpt>
      <trkpt lat="45.27081" lon="6.05445">
        <ele>1462.3024902</ele>
        <time>2013-02-17T10:05:29Z</time>
      </trkpt>
      <trkpt lat="45.2708" lon="6.05447">
        <ele>1462.3024902</ele>
        <time>2013-02-17T10:05:31Z</time>
      </trkpt>
      <trkpt lat="45.27081" lon="6.05445">
        <ele>1462.7832031</ele>
        <time>2013-02-17T10:05:36Z</time>
      </trkpt>
      <trkpt lat="45.27082" lon="6.05446">
        <ele>1462.3024902</ele>
        <time>2013-02-17T10:05:37Z</time>
      </trkpt>
      <trkpt lat="45.27098" lon="6.0546">
        <ele>1458.9379883</ele>
        <time>2013-02-17T10:05:41Z</time>
      </trkpt>
      <trkpt lat="45.27116" lon="6.05476">
        <ele>1457.0153809</ele>
        <time>2013-02-17T10:05:45Z</time>
      </trkpt>
      <trkpt lat="45.27133" lon="6.05481">
        <ele>1456.0539551</ele>
        <time>2013-02-17T10:05:50Z</time>
      </trkpt>
      <trkpt lat="45.2715" lon="6.05477">
        <ele>1456.0539551</ele>
        <time>2013-02-17T10:05:55Z</time>
      </trkpt>
      <trkpt lat="45.27167" lon="6.05476">
        <ele>1458.4572754</ele>
        <time>2013-02-17T10:06:01Z</time>
      </trkpt>
      <trkpt lat="45.27179" lon="6.05474">
        <ele>1460.3798828</ele>
        <time>2013-02-17T10:06:06Z</time>
      </trkpt>
      <trkpt lat="45.27181" lon="6.05473">
        <ele>1460.3798828</ele>
        <time>2013-02-17T10:06:07Z</time>
      </trkpt>
      <trkpt lat="45.27193" lon="6.05472">
        <ele>1463.263916</ele>
        <time>2013-02-17T10:06:12Z</time>
      </trkpt>
      <trkpt lat="45.27204" lon="6.05475">
        <ele>1463.7443848</ele>
        <time>2013-02-17T10:06:17Z</time>
      </trkpt>
      <trkpt lat="45.27216" lon="6.05481">
        <ele>1463.7443848</ele>
        <time>2013-02-17T10:06:24Z</time>
      </trkpt>
      <trkpt lat="45.27223" lon="6.05477">
        <ele>1464.2250977</ele>
        <time>2013-02-17T10:06:29Z</time>
      </trkpt>
      <trkpt lat="45.27223" lon="6.05475">
        <ele>1464.7058105</ele>
        <time>2013-02-17T10:06:34Z</time>
      </trkpt>
      <trkpt lat="45.27224" lon="6.05476">
        <ele>1464.2250977</ele>
        <time>2013-02-17T10:06:46Z</time>
      </trkpt>
      <trkpt lat="45.27225" lon="6.05477">
        <ele>1464.2250977</ele>
        <time>2013-02-17T10:06:54Z</time>
      </trkpt>
      <trkpt lat="45.27225" lon="6.05477">
        <ele>1464.7058105</ele>
        <time>2013-02-17T10:07:03Z</time>
      </trkpt>
      <trkpt lat="45.27225" lon="6.05478">
        <ele>1464.2250977</ele>
        <time>2013-02-17T10:07:17Z</time>
      </trkpt>
      <trkpt lat="45.27225" lon="6.05478">
        <ele>1464.7058105</ele>
        <time>2013-02-17T10:07:32Z</time>
      </trkpt>
      <trkpt lat="45.27224" lon="6.05477">
        <ele>1465.1865234</ele>
        <time>2013-02-17T10:07:44Z</time>
      </trkpt>
      <trkpt lat="45.27224" lon="6.05476">
        <ele>1466.1477051</ele>
        <time>2013-02-17T10:08:00Z</time>
      </trkpt>
      <trkpt lat="45.27223" lon="6.05477">
        <ele>1467.5895996</ele>
        <time>2013-02-17T10:08:37Z</time>
      </trkpt>
      <trkpt lat="45.27222" lon="6.05477">
        <ele>1469.0319824</ele>
        <time>2013-02-17T10:08:50Z</time>
      </trkpt>
      <trkpt lat="45.27221" lon="6.05477">
        <ele>1468.0705566</ele>
        <time>2013-02-17T10:08:59Z</time>
      </trkpt>
      <trkpt lat="45.27222" lon="6.05477">
        <ele>1468.0705566</ele>
        <time>2013-02-17T10:09:07Z</time>
      </trkpt>
      <trkpt lat="45.27222" lon="6.05477">
        <ele>1468.5512695</ele>
        <time>2013-02-17T10:09:24Z</time>
      </trkpt>
      <trkpt lat="45.27222" lon="6.05478">
        <ele>1468.5512695</ele>
        <time>2013-02-17T10:09:46Z</time>
      </trkpt>
      <trkpt lat="45.27221" lon="6.05478">
        <ele>1469.5126953</ele>
        <time>2013-02-17T10:10:01Z</time>
      </trkpt>
      <trkpt lat="45.2722" lon="6.05478">
        <ele>1469.5126953</ele>
        <time>2013-02-17T10:10:14Z</time>
      </trkpt>
      <trkpt lat="45.2722" lon="6.05477">
        <ele>1468.5512695</ele>
        <time>2013-02-17T10:10:24Z</time>
      </trkpt>
      <trkpt lat="45.27221" lon="6.05476">
        <ele>1467.5895996</ele>
        <time>2013-02-17T10:10:43Z</time>
      </trkpt>
      <trkpt lat="45.2722" lon="6.05475">
        <ele>1467.5895996</ele>
        <time>2013-02-17T10:11:00Z</time>
      </trkpt>
      <trkpt lat="45.27218" lon="6.05475">
        <ele>1468.5512695</ele>
        <time>2013-02-17T10:11:15Z</time>
      </trkpt>
      <trkpt lat="45.27217" lon="6.05474">
        <ele>1468.0705566</ele>
        <time>2013-02-17T10:11:45Z</time>
      </trkpt>
      <trkpt lat="45.27215" lon="6.05472">
        <ele>1467.1091309</ele>
        <time>2013-02-17T10:11:58Z</time>
      </trkpt>
      <trkpt lat="45.27214" lon="6.05473">
        <ele>1467.5895996</ele>
        <time>2013-02-17T10:12:07Z</time>
      </trkpt>
      <trkpt lat="45.27213" lon="6.05473">
        <ele>1468.0705566</ele>
        <time>2013-02-17T10:12:35Z</time>
      </trkpt>
      <trkpt lat="45.27213" lon="6.05473">
        <ele>1467.5895996</ele>
        <time>2013-02-17T10:12:47Z</time>
      </trkpt>
      <trkpt lat="45.27212" lon="6.05473">
        <ele>1466.628418</ele>
        <time>2013-02-17T10:13:03Z</time>
      </trkpt>
      <trkpt lat="45.27212" lon="6.05473">
        <ele>1463.7443848</ele>
        <time>2013-02-17T10:13:20Z</time>
      </trkpt>
      <trkpt lat="45.27211" lon="6.05473">
        <ele>1462.7832031</ele>
        <time>2013-02-17T10:13:30Z</time>
      </trkpt>
      <trkpt lat="45.27211" lon="6.05473">
        <ele>1461.3413086</ele>
        <time>2013-02-17T10:13:45Z</time>
      </trkpt>
      <trkpt lat="45.27209" lon="6.05473">
        <ele>1460.8605957</ele>
        <time>2013-02-17T10:13:54Z</time>
      </trkpt>
      <trkpt lat="45.27209" lon="6.05473">
        <ele>1459.8991699</ele>
        <time>2013-02-17T10:14:05Z</time>
      </trkpt>
      <trkpt lat="45.27208" lon="6.05473">
        <ele>1458.9379883</ele>
        <time>2013-02-17T10:14:16Z</time>
      </trkpt>
      <trkpt lat="45.27207" lon="6.0547">
        <ele>1458.4572754</ele>
        <time>2013-02-17T10:14:30Z</time>
      </trkpt>
      <trkpt lat="45.27207" lon="6.05468">
        <ele>1459.4187012</ele>
        <time>2013-02-17T10:14:43Z</time>
      </trkpt>
      <trkpt lat="45.27207" lon="6.05466">
        <ele>1458.4572754</ele>
        <time>2013-02-17T10:14:52Z</time>
      </trkpt>
      <trkpt lat="45.27208" lon="6.05464">
        <ele>1457.4960938</ele>
        <time>2013-02-17T10:15:00Z</time>
      </trkpt>
      <trkpt lat="45.27208" lon="6.05461">
        <ele>1457.0153809</ele>
        <time>2013-02-17T10:15:05Z</time>
      </trkpt>
      <trkpt lat="45.27209" lon="6.05454">
        <ele>1456.534668</ele>
        <time>2013-02-17T10:15:10Z</time>
      </trkpt>
      <trkpt lat="45.27211" lon="6.05446">
        <ele>1456.0539551</ele>
        <time>2013-02-17T10:15:15Z</time>
      </trkpt>
      <trkpt lat="45.27214" lon="6.05435">
        <ele>1457.0153809</ele>
        <time>2013-02-17T10:15:19Z</time>
      </trkpt>
      <trkpt lat="45.27218" lon="6.05427">
        <ele>1459.8991699</ele>
        <time>2013-02-17T10:15:23Z</time>
      </trkpt>
      <trkpt lat="45.27221" lon="6.05411">
        <ele>1467.1091309</ele>
        <time>2013-02-17T10:15:29Z</time>
      </trkpt>
      <trkpt lat="45.27221" lon="6.05407">
        <ele>1470.473877</ele>
        <time>2013-02-17T10:15:34Z</time>
      </trkpt>
      <trkpt lat="45.2722" lon="6.05407">
        <ele>1470.9545898</ele>
        <time>2013-02-17T10:15:38Z</time>
      </trkpt>
      <trkpt lat="45.2722" lon="6.05407">
        <ele>1471.9157715</ele>
        <time>2013-02-17T10:15:44Z</time>
      </trkpt>
      <trkpt lat="45.2722" lon="6.05407">
        <ele>1472.8771973</ele>
        <time>2013-02-17T10:15:51Z</time>
      </trkpt>
      <trkpt lat="45.2722" lon="6.05407">
        <ele>1473.8383789</ele>
        <time>2013-02-17T10:16:02Z</time>
      </trkpt>
      <trkpt lat="45.2722" lon="6.05407">
        <ele>1473.3579102</ele>
        <time>2013-02-17T10:16:13Z</time>
      </trkpt>
      <trkpt lat="45.27221" lon="6.05402">
        <ele>1477.203125</ele>
        <time>2013-02-17T10:16:43Z</time>
      </trkpt>
      <trkpt lat="45.27223" lon="6.0539">
        <ele>1482.9707031</ele>
        <time>2013-02-17T10:16:51Z</time>
      </trkpt>
      <trkpt lat="45.27228" lon="6.05373">
        <ele>1488.2583008</ele>
        <time>2013-02-17T10:16:58Z</time>
      </trkpt>
      <trkpt lat="45.27233" lon="6.05351">
        <ele>1496.4294434</ele>
        <time>2013-02-17T10:17:07Z</time>
      </trkpt>
      <trkpt lat="45.27241" lon="6.05322">
        <ele>1508.4458008</ele>
        <time>2013-02-17T10:17:19Z</time>
      </trkpt>
      <trkpt lat="45.27247" lon="6.05293">
        <ele>1516.1364746</ele>
        <time>2013-02-17T10:17:30Z</time>
      </trkpt>
      <trkpt lat="45.27254" lon="6.05267">
        <ele>1523.8269043</ele>
        <time>2013-02-17T10:17:40Z</time>
      </trkpt>
      <trkpt lat="45.2726" lon="6.05242">
        <ele>1531.9980469</ele>
        <time>2013-02-17T10:17:50Z</time>
      </trkpt>
      <trkpt lat="45.27271" lon="6.05198">
        <ele>1547.8598633</ele>
        <time>2013-02-17T10:18:08Z</time>
      </trkpt>
      <trkpt lat="45.27279" lon="6.05161">
        <ele>1555.0698242</ele>
        <time>2013-02-17T10:18:22Z</time>
      </trkpt>
      <trkpt lat="45.2729" lon="6.05115">
        <ele>1568.0476074</ele>
        <time>2013-02-17T10:18:40Z</time>
      </trkpt>
      <trkpt lat="45.273" lon="6.05075">
        <ele>1581.9868164</ele>
        <time>2013-02-17T10:18:56Z</time>
      </trkpt>
      <trkpt lat="45.27308" lon="6.05043">
        <ele>1595.9257813</ele>
        <time>2013-02-17T10:19:09Z</time>
      </trkpt>
      <trkpt lat="45.27316" lon="6.05011">
        <ele>1611.3068848</ele>
        <time>2013-02-17T10:19:23Z</time>
      </trkpt>
      <trkpt lat="45.27323" lon="6.04981">
        <ele>1629.0913086</ele>
        <time>2013-02-17T10:19:37Z</time>
      </trkpt>
      <trkpt lat="45.27328" lon="6.04958">
        <ele>1641.5883789</ele>
        <time>2013-02-17T10:19:47Z</time>
      </trkpt>
      <trkpt lat="45.27334" lon="6.04933">
        <ele>1653.6049805</ele>
        <time>2013-02-17T10:19:58Z</time>
      </trkpt>
      <trkpt lat="45.27342" lon="6.04903">
        <ele>1667.0634766</ele>
        <time>2013-02-17T10:20:11Z</time>
      </trkpt>
      <trkpt lat="45.27348" lon="6.04878">
        <ele>1674.7539063</ele>
        <time>2013-02-17T10:20:21Z</time>
      </trkpt>
      <trkpt lat="45.27357" lon="6.04842">
        <ele>1685.809082</ele>
        <time>2013-02-17T10:20:35Z</time>
      </trkpt>
      <trkpt lat="45.27368" lon="6.04799">
        <ele>1701.1901855</ele>
        <time>2013-02-17T10:20:52Z</time>
      </trkpt>
      <trkpt lat="45.27375" lon="6.04772">
        <ele>1712.2453613</ele>
        <time>2013-02-17T10:21:03Z</time>
      </trkpt>
      <trkpt lat="45.27386" lon="6.04727">
        <ele>1730.510498</ele>
        <time>2013-02-17T10:21:22Z</time>
      </trkpt>
      <trkpt lat="45.27394" lon="6.04693">
        <ele>1743.9689941</ele>
        <time>2013-02-17T10:21:36Z</time>
      </trkpt>
      <trkpt lat="45.27403" lon="6.04657">
        <ele>1755.0239258</ele>
        <time>2013-02-17T10:21:50Z</time>
      </trkpt>
      <trkpt lat="45.27414" lon="6.04615">
        <ele>1769.9243164</ele>
        <time>2013-02-17T10:22:07Z</time>
      </trkpt>
      <trkpt lat="45.27424" lon="6.04578">
        <ele>1778.576416</ele>
        <time>2013-02-17T10:22:21Z</time>
      </trkpt>
      <trkpt lat="45.2743" lon="6.04553">
        <ele>1785.3054199</ele>
        <time>2013-02-17T10:22:33Z</time>
      </trkpt>
      <trkpt lat="45.27434" lon="6.04537">
        <ele>1789.6315918</ele>
        <time>2013-02-17T10:22:47Z</time>
      </trkpt>
      <trkpt lat="45.27439" lon="6.0452">
        <ele>1795.880127</ele>
        <time>2013-02-17T10:23:03Z</time>
      </trkpt>
      <trkpt lat="45.27443" lon="6.04504">
        <ele>1799.7253418</ele>
        <time>2013-02-17T10:23:11Z</time>
      </trkpt>
      <trkpt lat="45.2745" lon="6.04475">
        <ele>1805.4934082</ele>
        <time>2013-02-17T10:23:22Z</time>
      </trkpt>
      <trkpt lat="45.27458" lon="6.04444">
        <ele>1812.703125</ele>
        <time>2013-02-17T10:23:34Z</time>
      </trkpt>
      <trkpt lat="45.27466" lon="6.0441">
        <ele>1821.3549805</ele>
        <time>2013-02-17T10:23:47Z</time>
      </trkpt>
      <trkpt lat="45.27473" lon="6.04384">
        <ele>1830.0068359</ele>
        <time>2013-02-17T10:23:57Z</time>
      </trkpt>
      <trkpt lat="45.2748" lon="6.04354">
        <ele>1840.1008301</ele>
        <time>2013-02-17T10:24:09Z</time>
      </trkpt>
      <trkpt lat="45.27486" lon="6.04334">
        <ele>1845.3879395</ele>
        <time>2013-02-17T10:24:17Z</time>
      </trkpt>
      <trkpt lat="45.27494" lon="6.04299">
        <ele>1851.1557617</ele>
        <time>2013-02-17T10:24:30Z</time>
      </trkpt>
      <trkpt lat="45.27501" lon="6.0427">
        <ele>1857.8852539</ele>
        <time>2013-02-17T10:24:41Z</time>
      </trkpt>
      <trkpt lat="45.2751" lon="6.04236">
        <ele>1867.0175781</ele>
        <time>2013-02-17T10:24:54Z</time>
      </trkpt>
      <trkpt lat="45.27517" lon="6.04208">
        <ele>1874.2275391</ele>
        <time>2013-02-17T10:25:05Z</time>
      </trkpt>
      <trkpt lat="45.27524" lon="6.04179">
        <ele>1880.4760742</ele>
        <time>2013-02-17T10:25:16Z</time>
      </trkpt>
      <trkpt lat="45.27531" lon="6.04153">
        <ele>1886.7246094</ele>
        <time>2013-02-17T10:25:26Z</time>
      </trkpt>
      <trkpt lat="45.27538" lon="6.04126">
        <ele>1892.9731445</ele>
        <time>2013-02-17T10:25:36Z</time>
      </trkpt>
      <trkpt lat="45.27543" lon="6.04106">
        <ele>1893.9345703</ele>
        <time>2013-02-17T10:25:43Z</time>
      </trkpt>
      <trkpt lat="45.2755" lon="6.04089">
        <ele>1893.4538574</ele>
        <time>2013-02-17T10:25:48Z</time>
      </trkpt>
      <trkpt lat="45.27552" lon="6.04086">
        <ele>1894.4150391</ele>
        <time>2013-02-17T10:25:53Z</time>
      </trkpt>
      <trkpt lat="45.27552" lon="6.04086">
        <ele>1895.3764648</ele>
        <time>2013-02-17T10:26:02Z</time>
      </trkpt>
      <trkpt lat="45.27554" lon="6.04085">
        <ele>1895.3764648</ele>
        <time>2013-02-17T10:26:07Z</time>
      </trkpt>
      <trkpt lat="45.27556" lon="6.04084">
        <ele>1895.3764648</ele>
        <time>2013-02-17T10:26:09Z</time>
      </trkpt>
      <trkpt lat="45.27562" lon="6.04089">
        <ele>1894.895752</ele>
        <time>2013-02-17T10:26:13Z</time>
      </trkpt>
      <trkpt lat="45.27566" lon="6.04095">
        <ele>1894.4150391</ele>
        <time>2013-02-17T10:26:16Z</time>
      </trkpt>
      <trkpt lat="45.27579" lon="6.04107">
        <ele>1892.0119629</ele>
        <time>2013-02-17T10:26:22Z</time>
      </trkpt>
      <trkpt lat="45.27583" lon="6.0411">
        <ele>1891.0505371</ele>
        <time>2013-02-17T10:26:24Z</time>
      </trkpt>
      <trkpt lat="45.27589" lon="6.04103">
        <ele>1891.0505371</ele>
        <time>2013-02-17T10:26:29Z</time>
      </trkpt>
      <trkpt lat="45.27588" lon="6.041">
        <ele>1891.53125</ele>
        <time>2013-02-17T10:26:37Z</time>
      </trkpt>
      <trkpt lat="45.27588" lon="6.041">
        <ele>1892.0119629</ele>
        <time>2013-02-17T10:26:45Z</time>
      </trkpt>
      <trkpt lat="45.27588" lon="6.04099">
        <ele>1892.0119629</ele>
        <time>2013-02-17T10:26:55Z</time>
      </trkpt>
      <trkpt lat="45.27587" lon="6.04099">
        <ele>1892.0119629</ele>
        <time>2013-02-17T10:27:06Z</time>
      </trkpt>
      <trkpt lat="45.27587" lon="6.04099">
        <ele>1892.0119629</ele>
        <time>2013-02-17T10:27:16Z</time>
      </trkpt>
      <trkpt lat="45.27587" lon="6.04099">
        <ele>1892.4926758</ele>
        <time>2013-02-17T10:27:27Z</time>
      </trkpt>
      <trkpt lat="45.27587" lon="6.04098">
        <ele>1891.53125</ele>
        <time>2013-02-17T10:27:42Z</time>
      </trkpt>
      <trkpt lat="45.27586" lon="6.04097">
        <ele>1891.0505371</ele>
        <time>2013-02-17T10:27:52Z</time>
      </trkpt>
      <trkpt lat="45.27586" lon="6.04097">
        <ele>1891.0505371</ele>
        <time>2013-02-17T10:28:08Z</time>
      </trkpt>
      <trkpt lat="45.27586" lon="6.04096">
        <ele>1891.0505371</ele>
        <time>2013-02-17T10:28:26Z</time>
      </trkpt>
      <trkpt lat="45.27586" lon="6.04097">
        <ele>1891.0505371</ele>
        <time>2013-02-17T10:28:34Z</time>
      </trkpt>
      <trkpt lat="45.27585" lon="6.04096">
        <ele>1891.53125</ele>
        <time>2013-02-17T10:28:50Z</time>
      </trkpt>
      <trkpt lat="45.27585" lon="6.04095">
        <ele>1892.0119629</ele>
        <time>2013-02-17T10:29:01Z</time>
      </trkpt>
      <trkpt lat="45.27584" lon="6.04094">
        <ele>1892.9731445</ele>
        <time>2013-02-17T10:29:16Z</time>
      </trkpt>
      <trkpt lat="45.27584" lon="6.04093">
        <ele>1893.4538574</ele>
        <time>2013-02-17T10:29:34Z</time>
      </trkpt>
      <trkpt lat="45.27583" lon="6.04093">
        <ele>1893.9345703</ele>
        <time>2013-02-17T10:29:47Z</time>
      </trkpt>
      <trkpt lat="45.27582" lon="6.04091">
        <ele>1893.9345703</ele>
        <time>2013-02-17T10:30:01Z</time>
      </trkpt>
      <trkpt lat="45.27581" lon="6.04089">
        <ele>1894.895752</ele>
        <time>2013-02-17T10:30:08Z</time>
      </trkpt>
      <trkpt lat="45.27581" lon="6.04089">
        <ele>1894.895752</ele>
        <time>2013-02-17T10:30:16Z</time>
      </trkpt>
      <trkpt lat="45.27581" lon="6.04088">
        <ele>1895.3764648</ele>
        <time>2013-02-17T10:30:25Z</time>
      </trkpt>
      <trkpt lat="45.27579" lon="6.04086">
        <ele>1895.8571777</ele>
        <time>2013-02-17T10:30:36Z</time>
      </trkpt>
      <trkpt lat="45.27579" lon="6.04084">
        <ele>1895.3764648</ele>
        <time>2013-02-17T10:30:45Z</time>
      </trkpt>
      <trkpt lat="45.27579" lon="6.04083">
        <ele>1894.895752</ele>
        <time>2013-02-17T10:30:53Z</time>
      </trkpt>
      <trkpt lat="45.27578" lon="6.04082">
        <ele>1894.4150391</ele>
        <time>2013-02-17T10:31:03Z</time>
      </trkpt>
      <trkpt lat="45.27577" lon="6.0408">
        <ele>1893.9345703</ele>
        <time>2013-02-17T10:31:19Z</time>
      </trkpt>
      <trkpt lat="45.27576" lon="6.0408">
        <ele>1893.9345703</ele>
        <time>2013-02-17T10:31:25Z</time>
      </trkpt>
      <trkpt lat="45.27575" lon="6.04079">
        <ele>1894.4150391</ele>
        <time>2013-02-17T10:31:35Z</time>
      </trkpt>
      <trkpt lat="45.27574" lon="6.04078">
        <ele>1894.4150391</ele>
        <time>2013-02-17T10:31:44Z</time>
      </trkpt>
      <trkpt lat="45.27572" lon="6.04076">
        <ele>1894.895752</ele>
        <time>2013-02-17T10:31:55Z</time>
      </trkpt>
      <trkpt lat="45.27571" lon="6.04072">
        <ele>1894.895752</ele>
        <time>2013-02-17T10:32:01Z</time>
      </trkpt>
      <trkpt lat="45.27568" lon="6.04069">
        <ele>1894.895752</ele>
        <time>2013-02-17T10:32:04Z</time>
      </trkpt>
      <trkpt lat="45.27557" lon="6.04058">
        <ele>1895.8571777</ele>
        <time>2013-02-17T10:32:10Z</time>
      </trkpt>
      <trkpt lat="45.27543" lon="6.04041">
        <ele>1898.2602539</ele>
        <time>2013-02-17T10:32:18Z</time>
      </trkpt>
      <trkpt lat="45.2752" lon="6.04016">
        <ele>1901.6252441</ele>
        <time>2013-02-17T10:32:30Z</time>
      </trkpt>
      <trkpt lat="45.27503" lon="6.03996">
        <ele>1902.1057129</ele>
        <time>2013-02-17T10:32:39Z</time>
      </trkpt>
      <trkpt lat="45.27491" lon="6.03982">
        <ele>1902.5864258</ele>
        <time>2013-02-17T10:32:46Z</time>
      </trkpt>
      <trkpt lat="45.27471" lon="6.03958">
        <ele>1904.5090332</ele>
        <time>2013-02-17T10:32:57Z</time>
      </trkpt>
      <trkpt lat="45.27452" lon="6.03936">
        <ele>1908.8349609</ele>
        <time>2013-02-17T10:33:07Z</time>
      </trkpt>
      <trkpt lat="45.27431" lon="6.03912">
        <ele>1916.0449219</ele>
        <time>2013-02-17T10:33:19Z</time>
      </trkpt>
      <trkpt lat="45.27411" lon="6.03889">
        <ele>1921.8127441</ele>
        <time>2013-02-17T10:33:30Z</time>
      </trkpt>
      <trkpt lat="45.27391" lon="6.03865">
        <ele>1929.5031738</ele>
        <time>2013-02-17T10:33:42Z</time>
      </trkpt>
      <trkpt lat="45.27372" lon="6.03844">
        <ele>1938.6359863</ele>
        <time>2013-02-17T10:33:53Z</time>
      </trkpt>
      <trkpt lat="45.27359" lon="6.03835">
        <ele>1939.597168</ele>
        <time>2013-02-17T10:33:58Z</time>
      </trkpt>
      <trkpt lat="45.27342" lon="6.03833">
        <ele>1938.6359863</ele>
        <time>2013-02-17T10:34:04Z</time>
      </trkpt>
      <trkpt lat="45.27335" lon="6.03822">
        <ele>1938.1552734</ele>
        <time>2013-02-17T10:34:08Z</time>
      </trkpt>
      <trkpt lat="45.2733" lon="6.03813">
        <ele>1937.6745605</ele>
        <time>2013-02-17T10:34:11Z</time>
      </trkpt>
      <trkpt lat="45.27323" lon="6.03806">
        <ele>1937.1938477</ele>
        <time>2013-02-17T10:34:16Z</time>
      </trkpt>
      <trkpt lat="45.27322" lon="6.03802">
        <ele>1937.6745605</ele>
        <time>2013-02-17T10:34:21Z</time>
      </trkpt>
      <trkpt lat="45.27323" lon="6.03802">
        <ele>1937.1938477</ele>
        <time>2013-02-17T10:34:29Z</time>
      </trkpt>
      <trkpt lat="45.27322" lon="6.03803">
        <ele>1936.7131348</ele>
        <time>2013-02-17T10:34:44Z</time>
      </trkpt>
      <trkpt lat="45.27322" lon="6.03803">
        <ele>1936.7131348</ele>
        <time>2013-02-17T10:34:49Z</time>
      </trkpt>
      <trkpt lat="45.27322" lon="6.03803">
        <ele>1936.232666</ele>
        <time>2013-02-17T10:35:15Z</time>
      </trkpt>
      <trkpt lat="45.2732" lon="6.03799">
        <ele>1935.7519531</ele>
        <time>2013-02-17T10:35:19Z</time>
      </trkpt>
      <trkpt lat="45.27316" lon="6.0378">
        <ele>1935.7519531</ele>
        <time>2013-02-17T10:35:24Z</time>
      </trkpt>
      <trkpt lat="45.27312" lon="6.03768">
        <ele>1937.1938477</ele>
        <time>2013-02-17T10:35:27Z</time>
      </trkpt>
      <trkpt lat="45.27307" lon="6.03746">
        <ele>1936.232666</ele>
        <time>2013-02-17T10:35:32Z</time>
      </trkpt>
      <trkpt lat="45.27303" lon="6.03709">
        <ele>1934.7907715</ele>
        <time>2013-02-17T10:35:40Z</time>
      </trkpt>
      <trkpt lat="45.27304" lon="6.03686">
        <ele>1933.8293457</ele>
        <time>2013-02-17T10:35:43Z</time>
      </trkpt>
      <trkpt lat="45.27308" lon="6.03641">
        <ele>1930.9453125</ele>
        <time>2013-02-17T10:35:48Z</time>
      </trkpt>
      <trkpt lat="45.27311" lon="6.03581">
        <ele>1926.1386719</ele>
        <time>2013-02-17T10:35:54Z</time>
      </trkpt>
      <trkpt lat="45.27306" lon="6.03509">
        <ele>1919.409668</ele>
        <time>2013-02-17T10:36:00Z</time>
      </trkpt>
      <trkpt lat="45.27305" lon="6.03484">
        <ele>1917.4868164</ele>
        <time>2013-02-17T10:36:02Z</time>
      </trkpt>
      <trkpt lat="45.27297" lon="6.03435">
        <ele>1913.6413574</ele>
        <time>2013-02-17T10:36:06Z</time>
      </trkpt>
      <trkpt lat="45.27285" lon="6.03393">
        <ele>1910.2768555</ele>
        <time>2013-02-17T10:36:10Z</time>
      </trkpt>
      <trkpt lat="45.27269" lon="6.03379">
        <ele>1906.9123535</ele>
        <time>2013-02-17T10:36:13Z</time>
      </trkpt>
      <trkpt lat="45.27235" lon="6.03368">
        <ele>1900.6638184</ele>
        <time>2013-02-17T10:36:18Z</time>
      </trkpt>
      <trkpt lat="45.27198" lon="6.03362">
        <ele>1892.4926758</ele>
        <time>2013-02-17T10:36:22Z</time>
      </trkpt>
      <trkpt lat="45.27155" lon="6.03349">
        <ele>1884.3215332</ele>
        <time>2013-02-17T10:36:26Z</time>
      </trkpt>
      <trkpt lat="45.27122" lon="6.03346">
        <ele>1878.0727539</ele>
        <time>2013-02-17T10:36:29Z</time>
      </trkpt>
      <trkpt lat="45.2708" lon="6.03335">
        <ele>1871.8242188</ele>
        <time>2013-02-17T10:36:33Z</time>
      </trkpt>
      <trkpt lat="45.27053" lon="6.0331">
        <ele>1867.0175781</ele>
        <time>2013-02-17T10:36:36Z</time>
      </trkpt>
      <trkpt lat="45.27038" lon="6.03288">
        <ele>1864.1335449</ele>
        <time>2013-02-17T10:36:38Z</time>
      </trkpt>
      <trkpt lat="45.26983" lon="6.03221">
        <ele>1852.1171875</ele>
        <time>2013-02-17T10:36:44Z</time>
      </trkpt>
      <trkpt lat="45.2695" lon="6.03193">
        <ele>1844.9072266</ele>
        <time>2013-02-17T10:36:47Z</time>
      </trkpt>
      <trkpt lat="45.26909" lon="6.03153">
        <ele>1835.7746582</ele>
        <time>2013-02-17T10:36:51Z</time>
      </trkpt>
      <trkpt lat="45.26858" lon="6.03073">
        <ele>1823.7583008</ele>
        <time>2013-02-17T10:36:57Z</time>
      </trkpt>
      <trkpt lat="45.26848" lon="6.03061">
        <ele>1822.3164063</ele>
        <time>2013-02-17T10:36:58Z</time>
      </trkpt>
      <trkpt lat="45.26799" lon="6.03018">
        <ele>1817.5095215</ele>
        <time>2013-02-17T10:37:03Z</time>
      </trkpt>
      <trkpt lat="45.26761" lon="6.0297">
        <ele>1811.7419434</ele>
        <time>2013-02-17T10:37:08Z</time>
      </trkpt>
      <trkpt lat="45.26731" lon="6.02916">
        <ele>1806.9353027</ele>
        <time>2013-02-17T10:37:13Z</time>
      </trkpt>
      <trkpt lat="45.26715" lon="6.02884">
        <ele>1804.0515137</ele>
        <time>2013-02-17T10:37:16Z</time>
      </trkpt>
      <trkpt lat="45.26691" lon="6.02803">
        <ele>1796.8413086</ele>
        <time>2013-02-17T10:37:22Z</time>
      </trkpt>
      <trkpt lat="45.26674" lon="6.02721">
        <ele>1792.515625</ele>
        <time>2013-02-17T10:37:28Z</time>
      </trkpt>
      <trkpt lat="45.26664" lon="6.02669">
        <ele>1788.1896973</ele>
        <time>2013-02-17T10:37:32Z</time>
      </trkpt>
      <trkpt lat="45.26648" lon="6.02638">
        <ele>1783.3828125</ele>
        <time>2013-02-17T10:37:35Z</time>
      </trkpt>
      <trkpt lat="45.26628" lon="6.02636">
        <ele>1780.0183105</ele>
        <time>2013-02-17T10:37:37Z</time>
      </trkpt>
      <trkpt lat="45.26598" lon="6.02649">
        <ele>1775.6923828</ele>
        <time>2013-02-17T10:37:40Z</time>
      </trkpt>
      <trkpt lat="45.26526" lon="6.02697">
        <ele>1767.0405273</ele>
        <time>2013-02-17T10:37:48Z</time>
      </trkpt>
      <trkpt lat="45.26503" lon="6.02716">
        <ele>1763.1953125</ele>
        <time>2013-02-17T10:37:51Z</time>
      </trkpt>
      <trkpt lat="45.26469" lon="6.02727">
        <ele>1759.8305664</ele>
        <time>2013-02-17T10:37:55Z</time>
      </trkpt>
      <trkpt lat="45.26426" lon="6.02723">
        <ele>1756.9467773</ele>
        <time>2013-02-17T10:38:01Z</time>
      </trkpt>
      <trkpt lat="45.26407" lon="6.02709">
        <ele>1754.0627441</ele>
        <time>2013-02-17T10:38:05Z</time>
      </trkpt>
      <trkpt lat="45.26404" lon="6.0269">
        <ele>1751.1787109</ele>
        <time>2013-02-17T10:38:07Z</time>
      </trkpt>
      <trkpt lat="45.26407" lon="6.02665">
        <ele>1747.814209</ele>
        <time>2013-02-17T10:38:09Z</time>
      </trkpt>
      <trkpt lat="45.26433" lon="6.02574">
        <ele>1734.3557129</ele>
        <time>2013-02-17T10:38:14Z</time>
      </trkpt>
      <trkpt lat="45.26438" lon="6.02553">
        <ele>1730.9912109</ele>
        <time>2013-02-17T10:38:15Z</time>
      </trkpt>
      <trkpt lat="45.26459" lon="6.02457">
        <ele>1728.1071777</ele>
        <time>2013-02-17T10:38:20Z</time>
      </trkpt>
      <trkpt lat="45.26462" lon="6.02441">
        <ele>1727.1459961</ele>
        <time>2013-02-17T10:38:21Z</time>
      </trkpt>
      <trkpt lat="45.26464" lon="6.02409">
        <ele>1725.7038574</ele>
        <time>2013-02-17T10:38:23Z</time>
      </trkpt>
      <trkpt lat="45.26471" lon="6.02354">
        <ele>1721.8583984</ele>
        <time>2013-02-17T10:38:27Z</time>
      </trkpt>
      <trkpt lat="45.26483" lon="6.023">
        <ele>1715.1293945</ele>
        <time>2013-02-17T10:38:31Z</time>
      </trkpt>
      <trkpt lat="45.26486" lon="6.02271">
        <ele>1710.8034668</ele>
        <time>2013-02-17T10:38:33Z</time>
      </trkpt>
      <trkpt lat="45.26476" lon="6.02214">
        <ele>1699.2675781</ele>
        <time>2013-02-17T10:38:37Z</time>
      </trkpt>
      <trkpt lat="45.26465" lon="6.02174">
        <ele>1688.2124023</ele>
        <time>2013-02-17T10:38:40Z</time>
      </trkpt>
      <trkpt lat="45.26456" lon="6.02153">
        <ele>1681.0026855</ele>
        <time>2013-02-17T10:38:42Z</time>
      </trkpt>
      <trkpt lat="45.26456" lon="6.0212">
        <ele>1672.3505859</ele>
        <time>2013-02-17T10:38:44Z</time>
      </trkpt>
      <trkpt lat="45.26469" lon="6.02084">
        <ele>1664.1794434</ele>
        <time>2013-02-17T10:38:46Z</time>
      </trkpt>
      <trkpt lat="45.2649" lon="6.02066">
        <ele>1655.5275879</ele>
        <time>2013-02-17T10:38:48Z</time>
      </trkpt>
      <trkpt lat="45.265" lon="6.02043">
        <ele>1647.8371582</ele>
        <time>2013-02-17T10:38:50Z</time>
      </trkpt>
      <trkpt lat="45.26499" lon="6.02029">
        <ele>1644.953125</ele>
        <time>2013-02-17T10:38:51Z</time>
      </trkpt>
      <trkpt lat="45.2649" lon="6.01969">
        <ele>1628.6108398</ele>
        <time>2013-02-17T10:38:55Z</time>
      </trkpt>
      <trkpt lat="45.26491" lon="6.0193">
        <ele>1619.4782715</ele>
        <time>2013-02-17T10:38:57Z</time>
      </trkpt>
      <trkpt lat="45.26494" lon="6.01889">
        <ele>1610.8261719</ele>
        <time>2013-02-17T10:38:59Z</time>
      </trkpt>
      <trkpt lat="45.26509" lon="6.01789">
        <ele>1592.5612793</ele>
        <time>2013-02-17T10:39:04Z</time>
      </trkpt>
      <trkpt lat="45.26512" lon="6.01769">
        <ele>1589.1965332</ele>
        <time>2013-02-17T10:39:05Z</time>
      </trkpt>
      <trkpt lat="45.26512" lon="6.01689">
        <ele>1582.4675293</ele>
        <time>2013-02-17T10:39:09Z</time>
      </trkpt>
      <trkpt lat="45.26508" lon="6.01638">
        <ele>1580.064209</ele>
        <time>2013-02-17T10:39:12Z</time>
      </trkpt>
      <trkpt lat="45.26489" lon="6.0159">
        <ele>1576.6994629</ele>
        <time>2013-02-17T10:39:16Z</time>
      </trkpt>
      <trkpt lat="45.26474" lon="6.01572">
        <ele>1573.8154297</ele>
        <time>2013-02-17T10:39:21Z</time>
      </trkpt>
      <trkpt lat="45.26469" lon="6.01571">
        <ele>1572.854248</ele>
        <time>2013-02-17T10:39:24Z</time>
      </trkpt>
      <trkpt lat="45.26469" lon="6.01572">
        <ele>1573.3349609</ele>
        <time>2013-02-17T10:39:31Z</time>
      </trkpt>
      <trkpt lat="45.26467" lon="6.01571">
        <ele>1573.3349609</ele>
        <time>2013-02-17T10:39:38Z</time>
      </trkpt>
      <trkpt lat="45.26467" lon="6.01572">
        <ele>1573.3349609</ele>
        <time>2013-02-17T10:39:47Z</time>
      </trkpt>
      <trkpt lat="45.26466" lon="6.01573">
        <ele>1573.8154297</ele>
        <time>2013-02-17T10:39:58Z</time>
      </trkpt>
      <trkpt lat="45.26465" lon="6.01573">
        <ele>1575.2573242</ele>
        <time>2013-02-17T10:40:19Z</time>
      </trkpt>
      <trkpt lat="45.26465" lon="6.01573">
        <ele>1573.3349609</ele>
        <time>2013-02-17T10:40:44Z</time>
      </trkpt>
      <trkpt lat="45.26465" lon="6.01573">
        <ele>1572.854248</ele>
        <time>2013-02-17T10:40:56Z</time>
      </trkpt>
      <trkpt lat="45.26464" lon="6.01572">
        <ele>1573.3349609</ele>
        <time>2013-02-17T10:41:13Z</time>
      </trkpt>
      <trkpt lat="45.26465" lon="6.0157">
        <ele>1576.21875</ele>
        <time>2013-02-17T10:41:32Z</time>
      </trkpt>
      <trkpt lat="45.26464" lon="6.0157">
        <ele>1576.6994629</ele>
        <time>2013-02-17T10:41:44Z</time>
      </trkpt>
      <trkpt lat="45.26464" lon="6.01571">
        <ele>1576.21875</ele>
        <time>2013-02-17T10:41:55Z</time>
      </trkpt>
      <trkpt lat="45.26462" lon="6.01572">
        <ele>1577.6606445</ele>
        <time>2013-02-17T10:42:31Z</time>
      </trkpt>
      <trkpt lat="45.26462" lon="6.01572">
        <ele>1578.1413574</ele>
        <time>2013-02-17T10:42:39Z</time>
      </trkpt>
      <trkpt lat="45.26461" lon="6.01571">
        <ele>1577.1801758</ele>
        <time>2013-02-17T10:42:51Z</time>
      </trkpt>
      <trkpt lat="45.2646" lon="6.0157">
        <ele>1575.7380371</ele>
        <time>2013-02-17T10:43:04Z</time>
      </trkpt>
      <trkpt lat="45.26458" lon="6.01569">
        <ele>1574.7768555</ele>
        <time>2013-02-17T10:43:14Z</time>
      </trkpt>
      <trkpt lat="45.26457" lon="6.01569">
        <ele>1573.8154297</ele>
        <time>2013-02-17T10:43:28Z</time>
      </trkpt>
      <trkpt lat="45.26457" lon="6.01567">
        <ele>1575.2573242</ele>
        <time>2013-02-17T10:43:40Z</time>
      </trkpt>
      <trkpt lat="45.26456" lon="6.01567">
        <ele>1573.8154297</ele>
        <time>2013-02-17T10:43:51Z</time>
      </trkpt>
      <trkpt lat="45.26455" lon="6.01567">
        <ele>1573.3349609</ele>
        <time>2013-02-17T10:44:02Z</time>
      </trkpt>
      <trkpt lat="45.26454" lon="6.01566">
        <ele>1573.3349609</ele>
        <time>2013-02-17T10:44:12Z</time>
      </trkpt>
      <trkpt lat="45.26454" lon="6.01566">
        <ele>1573.3349609</ele>
        <time>2013-02-17T10:44:20Z</time>
      </trkpt>
      <trkpt lat="45.26452" lon="6.01565">
        <ele>1574.2961426</ele>
        <time>2013-02-17T10:44:28Z</time>
      </trkpt>
      <trkpt lat="45.26452" lon="6.01565">
        <ele>1575.2573242</ele>
        <time>2013-02-17T10:44:40Z</time>
      </trkpt>
      <trkpt lat="45.26451" lon="6.01564">
        <ele>1576.6994629</ele>
        <time>2013-02-17T10:44:50Z</time>
      </trkpt>
      <trkpt lat="45.2645" lon="6.01564">
        <ele>1576.6994629</ele>
        <time>2013-02-17T10:45:00Z</time>
      </trkpt>
      <trkpt lat="45.26449" lon="6.01565">
        <ele>1576.6994629</ele>
        <time>2013-02-17T10:45:10Z</time>
      </trkpt>
      <trkpt lat="45.26447" lon="6.01567">
        <ele>1577.1801758</ele>
        <time>2013-02-17T10:45:19Z</time>
      </trkpt>
      <trkpt lat="45.26445" lon="6.01568">
        <ele>1577.6606445</ele>
        <time>2013-02-17T10:45:33Z</time>
      </trkpt>
      <trkpt lat="45.26443" lon="6.01573">
        <ele>1575.7380371</ele>
        <time>2013-02-17T10:45:43Z</time>
      </trkpt>
      <trkpt lat="45.26442" lon="6.01576">
        <ele>1573.3349609</ele>
        <time>2013-02-17T10:45:49Z</time>
      </trkpt>
      <trkpt lat="45.26442" lon="6.01583">
        <ele>1570.4509277</ele>
        <time>2013-02-17T10:45:55Z</time>
      </trkpt>
      <trkpt lat="45.26442" lon="6.01586">
        <ele>1568.5283203</ele>
        <time>2013-02-17T10:45:57Z</time>
      </trkpt>
      <trkpt lat="45.26431" lon="6.01606">
        <ele>1561.7990723</ele>
        <time>2013-02-17T10:46:02Z</time>
      </trkpt>
      <trkpt lat="45.26421" lon="6.01624">
        <ele>1568.0476074</ele>
        <time>2013-02-17T10:46:06Z</time>
      </trkpt>
      <trkpt lat="45.26398" lon="6.01669">
        <ele>1581.0256348</ele>
        <time>2013-02-17T10:46:15Z</time>
      </trkpt>
      <trkpt lat="45.26378" lon="6.01709">
        <ele>1591.5998535</ele>
        <time>2013-02-17T10:46:23Z</time>
      </trkpt>
      <trkpt lat="45.26356" lon="6.01754">
        <ele>1603.1357422</ele>
        <time>2013-02-17T10:46:32Z</time>
      </trkpt>
      <trkpt lat="45.26339" lon="6.01788">
        <ele>1613.2297363</ele>
        <time>2013-02-17T10:46:39Z</time>
      </trkpt>
      <trkpt lat="45.26313" lon="6.01841">
        <ele>1631.0141602</ele>
        <time>2013-02-17T10:46:50Z</time>
      </trkpt>
      <trkpt lat="45.26296" lon="6.01876">
        <ele>1639.1850586</ele>
        <time>2013-02-17T10:46:57Z</time>
      </trkpt>
      <trkpt lat="45.26279" lon="6.01912">
        <ele>1647.8371582</ele>
        <time>2013-02-17T10:47:04Z</time>
      </trkpt>
      <trkpt lat="45.26254" lon="6.01961">
        <ele>1662.2568359</ele>
        <time>2013-02-17T10:47:14Z</time>
      </trkpt>
      <trkpt lat="45.26243" lon="6.01985">
        <ele>1669.9472656</ele>
        <time>2013-02-17T10:47:19Z</time>
      </trkpt>
      <trkpt lat="45.26229" lon="6.02014">
        <ele>1679.5605469</ele>
        <time>2013-02-17T10:47:25Z</time>
      </trkpt>
      <trkpt lat="45.26215" lon="6.02042">
        <ele>1689.173584</ele>
        <time>2013-02-17T10:47:31Z</time>
      </trkpt>
      <trkpt lat="45.262" lon="6.02074">
        <ele>1692.0578613</ele>
        <time>2013-02-17T10:47:37Z</time>
      </trkpt>
      <trkpt lat="45.26173" lon="6.0213">
        <ele>1700.2290039</ele>
        <time>2013-02-17T10:47:48Z</time>
      </trkpt>
      <trkpt lat="45.26146" lon="6.02184">
        <ele>1715.1293945</ele>
        <time>2013-02-17T10:47:59Z</time>
      </trkpt>
      <trkpt lat="45.26124" lon="6.02231">
        <ele>1733.875</ele>
        <time>2013-02-17T10:48:09Z</time>
      </trkpt>
      <trkpt lat="45.26099" lon="6.02283">
        <ele>1757.4274902</ele>
        <time>2013-02-17T10:48:20Z</time>
      </trkpt>
      <trkpt lat="45.26079" lon="6.02323">
        <ele>1778.0957031</ele>
        <time>2013-02-17T10:48:29Z</time>
      </trkpt>
      <trkpt lat="45.2606" lon="6.02363">
        <ele>1800.2060547</ele>
        <time>2013-02-17T10:48:38Z</time>
      </trkpt>
      <trkpt lat="45.26037" lon="6.02411">
        <ele>1828.5649414</ele>
        <time>2013-02-17T10:48:49Z</time>
      </trkpt>
      <trkpt lat="45.2601" lon="6.02465">
        <ele>1865.5756836</ele>
        <time>2013-02-17T10:49:02Z</time>
      </trkpt>
      <trkpt lat="45.25989" lon="6.02509">
        <ele>1898.7409668</ele>
        <time>2013-02-17T10:49:13Z</time>
      </trkpt>
      <trkpt lat="45.25968" lon="6.02552">
        <ele>1933.3486328</ele>
        <time>2013-02-17T10:49:24Z</time>
      </trkpt>
      <trkpt lat="45.25954" lon="6.02582">
        <ele>1953.536377</ele>
        <time>2013-02-17T10:49:31Z</time>
      </trkpt>
      <trkpt lat="45.25932" lon="6.02627">
        <ele>1986.2211914</ele>
        <time>2013-02-17T10:49:42Z</time>
      </trkpt>
      <trkpt lat="45.25912" lon="6.02668">
        <ele>2016.0219727</ele>
        <time>2013-02-17T10:49:52Z</time>
      </trkpt>
      <trkpt lat="45.25895" lon="6.02703">
        <ele>2036.6901855</ele>
        <time>2013-02-17T10:50:00Z</time>
      </trkpt>
      <trkpt lat="45.25879" lon="6.02733">
        <ele>2044.8615723</ele>
        <time>2013-02-17T10:50:06Z</time>
      </trkpt>
      <trkpt lat="45.25861" lon="6.02772">
        <ele>2053.9941406</ele>
        <time>2013-02-17T10:50:14Z</time>
      </trkpt>
      <trkpt lat="45.25833" lon="6.02827">
        <ele>2063.126709</ele>
        <time>2013-02-17T10:50:25Z</time>
      </trkpt>
      <trkpt lat="45.25804" lon="6.02887">
        <ele>2075.1428223</ele>
        <time>2013-02-17T10:50:37Z</time>
      </trkpt>
      <trkpt lat="45.25775" lon="6.02946">
        <ele>2091.4853516</ele>
        <time>2013-02-17T10:50:49Z</time>
      </trkpt>
      <trkpt lat="45.25751" lon="6.02995">
        <ele>2106.3857422</ele>
        <time>2013-02-17T10:50:59Z</time>
      </trkpt>
      <trkpt lat="45.25732" lon="6.03035">
        <ele>2119.8442383</ele>
        <time>2013-02-17T10:51:07Z</time>
      </trkpt>
      <trkpt lat="45.25721" lon="6.03065">
        <ele>2127.5349121</ele>
        <time>2013-02-17T10:51:13Z</time>
      </trkpt>
      <trkpt lat="45.2572" lon="6.03068">
        <ele>2129.4575195</ele>
        <time>2013-02-17T10:51:16Z</time>
      </trkpt>
      <trkpt lat="45.2571" lon="6.03082">
        <ele>2122.7282715</ele>
        <time>2013-02-17T10:51:23Z</time>
      </trkpt>
      <trkpt lat="45.25696" lon="6.03096">
        <ele>2119.8442383</ele>
        <time>2013-02-17T10:51:28Z</time>
      </trkpt>
      <trkpt lat="45.25681" lon="6.03108">
        <ele>2117.440918</ele>
        <time>2013-02-17T10:51:33Z</time>
      </trkpt>
      <trkpt lat="45.2568" lon="6.03109">
        <ele>2117.9216309</ele>
        <time>2013-02-17T10:51:40Z</time>
      </trkpt>
      <trkpt lat="45.25679" lon="6.03108">
        <ele>2117.9216309</ele>
        <time>2013-02-17T10:51:46Z</time>
      </trkpt>
      <trkpt lat="45.25676" lon="6.03106">
        <ele>2117.440918</ele>
        <time>2013-02-17T10:51:51Z</time>
      </trkpt>
      <trkpt lat="45.2567" lon="6.03109">
        <ele>2115.9990234</ele>
        <time>2013-02-17T10:51:55Z</time>
      </trkpt>
      <trkpt lat="45.25669" lon="6.03111">
        <ele>2115.9990234</ele>
        <time>2013-02-17T10:51:59Z</time>
      </trkpt>
      <trkpt lat="45.25653" lon="6.03115">
        <ele>2111.6733398</ele>
        <time>2013-02-17T10:52:03Z</time>
      </trkpt>
      <trkpt lat="45.25647" lon="6.03115">
        <ele>2109.7504883</ele>
        <time>2013-02-17T10:52:04Z</time>
      </trkpt>
      <trkpt lat="45.25626" lon="6.03121">
        <ele>2103.0212402</ele>
        <time>2013-02-17T10:52:08Z</time>
      </trkpt>
      <trkpt lat="45.25625" lon="6.03137">
        <ele>2099.1760254</ele>
        <time>2013-02-17T10:52:10Z</time>
      </trkpt>
      <trkpt lat="45.25632" lon="6.03154">
        <ele>2093.4082031</ele>
        <time>2013-02-17T10:52:13Z</time>
      </trkpt>
      <trkpt lat="45.25648" lon="6.03163">
        <ele>2088.1208496</ele>
        <time>2013-02-17T10:52:16Z</time>
      </trkpt>
      <trkpt lat="45.25665" lon="6.03172">
        <ele>2082.3530273</ele>
        <time>2013-02-17T10:52:19Z</time>
      </trkpt>
      <trkpt lat="45.25672" lon="6.03174">
        <ele>2080.4304199</ele>
        <time>2013-02-17T10:52:20Z</time>
      </trkpt>
      <trkpt lat="45.25704" lon="6.03181">
        <ele>2072.2590332</ele>
        <time>2013-02-17T10:52:24Z</time>
      </trkpt>
      <trkpt lat="45.25722" lon="6.03192">
        <ele>2067.9331055</ele>
        <time>2013-02-17T10:52:27Z</time>
      </trkpt>
      <trkpt lat="45.25751" lon="6.03192">
        <ele>2061.6848145</ele>
        <time>2013-02-17T10:52:31Z</time>
      </trkpt>
      <trkpt lat="45.25774" lon="6.03197">
        <ele>2056.8779297</ele>
        <time>2013-02-17T10:52:34Z</time>
      </trkpt>
      <trkpt lat="45.25798" lon="6.03199">
        <ele>2051.5908203</ele>
        <time>2013-02-17T10:52:37Z</time>
      </trkpt>
      <trkpt lat="45.25811" lon="6.03193">
        <ele>2047.7456055</ele>
        <time>2013-02-17T10:52:39Z</time>
      </trkpt>
      <trkpt lat="45.25815" lon="6.03173">
        <ele>2043.4194336</ele>
        <time>2013-02-17T10:52:41Z</time>
      </trkpt>
      <trkpt lat="45.25822" lon="6.03129">
        <ele>2032.8449707</ele>
        <time>2013-02-17T10:52:45Z</time>
      </trkpt>
      <trkpt lat="45.25842" lon="6.03095">
        <ele>2021.309082</ele>
        <time>2013-02-17T10:52:49Z</time>
      </trkpt>
      <trkpt lat="45.25859" lon="6.03103">
        <ele>2014.5800781</ele>
        <time>2013-02-17T10:52:51Z</time>
      </trkpt>
      <trkpt lat="45.25878" lon="6.03131">
        <ele>2003.0441895</ele>
        <time>2013-02-17T10:52:54Z</time>
      </trkpt>
      <trkpt lat="45.25904" lon="6.03161">
        <ele>1993.4309082</ele>
        <time>2013-02-17T10:52:57Z</time>
      </trkpt>
      <trkpt lat="45.25912" lon="6.0317">
        <ele>1990.546875</ele>
        <time>2013-02-17T10:52:58Z</time>
      </trkpt>
      <trkpt lat="45.25961" lon="6.03206">
        <ele>1977.088623</ele>
        <time>2013-02-17T10:53:03Z</time>
      </trkpt>
      <trkpt lat="45.25992" lon="6.03206">
        <ele>1968.9174805</ele>
        <time>2013-02-17T10:53:06Z</time>
      </trkpt>
      <trkpt lat="45.26002" lon="6.03188">
        <ele>1963.6298828</ele>
        <time>2013-02-17T10:53:08Z</time>
      </trkpt>
      <trkpt lat="45.26011" lon="6.03157">
        <ele>1955.9394531</ele>
        <time>2013-02-17T10:53:11Z</time>
      </trkpt>
      <trkpt lat="45.26017" lon="6.03132">
        <ele>1949.6911621</ele>
        <time>2013-02-17T10:53:13Z</time>
      </trkpt>
      <trkpt lat="45.26025" lon="6.031">
        <ele>1942.9616699</ele>
        <time>2013-02-17T10:53:15Z</time>
      </trkpt>
      <trkpt lat="45.26045" lon="6.03019">
        <ele>1929.0224609</ele>
        <time>2013-02-17T10:53:19Z</time>
      </trkpt>
      <trkpt lat="45.2606" lon="6.02968">
        <ele>1920.8515625</ele>
        <time>2013-02-17T10:53:22Z</time>
      </trkpt>
      <trkpt lat="45.26066" lon="6.02953">
        <ele>1918.4482422</ele>
        <time>2013-02-17T10:53:23Z</time>
      </trkpt>
      <trkpt lat="45.26075" lon="6.02911">
        <ele>1911.7189941</ele>
        <time>2013-02-17T10:53:26Z</time>
      </trkpt>
      <trkpt lat="45.26085" lon="6.02866">
        <ele>1900.1833496</ele>
        <time>2013-02-17T10:53:30Z</time>
      </trkpt>
      <trkpt lat="45.26085" lon="6.02825">
        <ele>1889.1279297</ele>
        <time>2013-02-17T10:53:33Z</time>
      </trkpt>
      <trkpt lat="45.26086" lon="6.02777">
        <ele>1877.592041</ele>
        <time>2013-02-17T10:53:36Z</time>
      </trkpt>
      <trkpt lat="45.26089" lon="6.02743">
        <ele>1869.9016113</ele>
        <time>2013-02-17T10:53:38Z</time>
      </trkpt>
      <trkpt lat="45.26093" lon="6.0271">
        <ele>1861.2497559</ele>
        <time>2013-02-17T10:53:40Z</time>
      </trkpt>
      <trkpt lat="45.26106" lon="6.02693">
        <ele>1855.9624023</ele>
        <time>2013-02-17T10:53:42Z</time>
      </trkpt>
      <trkpt lat="45.26117" lon="6.02696">
        <ele>1849.7138672</ele>
        <time>2013-02-17T10:53:44Z</time>
      </trkpt>
      <trkpt lat="45.2613" lon="6.02711">
        <ele>1842.9846191</ele>
        <time>2013-02-17T10:53:46Z</time>
      </trkpt>
      <trkpt lat="45.26145" lon="6.02729">
        <ele>1835.7746582</ele>
        <time>2013-02-17T10:53:48Z</time>
      </trkpt>
      <trkpt lat="45.26187" lon="6.02769">
        <ele>1818.9516602</ele>
        <time>2013-02-17T10:53:53Z</time>
      </trkpt>
      <trkpt lat="45.26226" lon="6.028">
        <ele>1803.5705566</ele>
        <time>2013-02-17T10:53:57Z</time>
      </trkpt>
      <trkpt lat="45.26264" lon="6.02824">
        <ele>1788.6704102</ele>
        <time>2013-02-17T10:54:01Z</time>
      </trkpt>
      <trkpt lat="45.26287" lon="6.0283">
        <ele>1780.0183105</ele>
        <time>2013-02-17T10:54:03Z</time>
      </trkpt>
      <trkpt lat="45.263" lon="6.02828">
        <ele>1775.6923828</ele>
        <time>2013-02-17T10:54:04Z</time>
      </trkpt>
      <trkpt lat="45.26352" lon="6.02796">
        <ele>1758.8693848</ele>
        <time>2013-02-17T10:54:08Z</time>
      </trkpt>
      <trkpt lat="45.26364" lon="6.02784">
        <ele>1755.5046387</ele>
        <time>2013-02-17T10:54:09Z</time>
      </trkpt>
      <trkpt lat="45.26385" lon="6.02746">
        <ele>1747.814209</ele>
        <time>2013-02-17T10:54:12Z</time>
      </trkpt>
      <trkpt lat="45.26388" lon="6.02732">
        <ele>1746.3723145</ele>
        <time>2013-02-17T10:54:13Z</time>
      </trkpt>
      <trkpt lat="45.26403" lon="6.02689">
        <ele>1742.5270996</ele>
        <time>2013-02-17T10:54:17Z</time>
      </trkpt>
      <trkpt lat="45.26416" lon="6.02683">
        <ele>1739.1621094</ele>
        <time>2013-02-17T10:54:19Z</time>
      </trkpt>
      <trkpt lat="45.26443" lon="6.02675">
        <ele>1734.8364258</ele>
        <time>2013-02-17T10:54:22Z</time>
      </trkpt>
      <trkpt lat="45.26461" lon="6.02652">
        <ele>1731.4716797</ele>
        <time>2013-02-17T10:54:25Z</time>
      </trkpt>
      <trkpt lat="45.26486" lon="6.02605">
        <ele>1728.5878906</ele>
        <time>2013-02-17T10:54:30Z</time>
      </trkpt>
      <trkpt lat="45.26496" lon="6.02578">
        <ele>1727.6264648</ele>
        <time>2013-02-17T10:54:34Z</time>
      </trkpt>
      <trkpt lat="45.26499" lon="6.02567">
        <ele>1726.6652832</ele>
        <time>2013-02-17T10:54:36Z</time>
      </trkpt>
      <trkpt lat="45.26499" lon="6.02564">
        <ele>1728.5878906</ele>
        <time>2013-02-17T10:54:43Z</time>
      </trkpt>
      <trkpt lat="45.26497" lon="6.02563">
        <ele>1730.510498</ele>
        <time>2013-02-17T10:54:53Z</time>
      </trkpt>
      <trkpt lat="45.26497" lon="6.02563">
        <ele>1734.3557129</ele>
        <time>2013-02-17T10:55:08Z</time>
      </trkpt>
      <trkpt lat="45.26496" lon="6.02563">
        <ele>1733.3942871</ele>
        <time>2013-02-17T10:55:15Z</time>
      </trkpt>
      <trkpt lat="45.26496" lon="6.02563">
        <ele>1732.4331055</ele>
        <time>2013-02-17T10:55:22Z</time>
      </trkpt>
      <trkpt lat="45.26494" lon="6.02561">
        <ele>1731.4716797</ele>
        <time>2013-02-17T10:55:35Z</time>
      </trkpt>
      <trkpt lat="45.26494" lon="6.02562">
        <ele>1731.9523926</ele>
        <time>2013-02-17T10:55:45Z</time>
      </trkpt>
      <trkpt lat="45.26494" lon="6.02562">
        <ele>1732.4331055</ele>
        <time>2013-02-17T10:55:52Z</time>
      </trkpt>
      <trkpt lat="45.26495" lon="6.02561">
        <ele>1731.4716797</ele>
        <time>2013-02-17T10:56:04Z</time>
      </trkpt>
      <trkpt lat="45.26496" lon="6.02561">
        <ele>1730.9912109</ele>
        <time>2013-02-17T10:56:12Z</time>
      </trkpt>
      <trkpt lat="45.26496" lon="6.02563">
        <ele>1731.4716797</ele>
        <time>2013-02-17T10:56:38Z</time>
      </trkpt>
      <trkpt lat="45.26496" lon="6.02563">
        <ele>1730.510498</ele>
        <time>2013-02-17T10:56:45Z</time>
      </trkpt>
      <trkpt lat="45.26496" lon="6.02563">
        <ele>1729.5490723</ele>
        <time>2013-02-17T10:56:53Z</time>
      </trkpt>
      <trkpt lat="45.26495" lon="6.02563">
        <ele>1730.510498</ele>
        <time>2013-02-17T10:57:06Z</time>
      </trkpt>
      <trkpt lat="45.26495" lon="6.02563">
        <ele>1730.9912109</ele>
        <time>2013-02-17T10:57:23Z</time>
      </trkpt>
      <trkpt lat="45.26496" lon="6.02564">
        <ele>1729.0683594</ele>
        <time>2013-02-17T10:57:33Z</time>
      </trkpt>
      <trkpt lat="45.26496" lon="6.02562">
        <ele>1729.5490723</ele>
        <time>2013-02-17T10:57:50Z</time>
      </trkpt>
      <trkpt lat="45.26501" lon="6.02565">
        <ele>1722.3391113</ele>
        <time>2013-02-17T10:58:01Z</time>
      </trkpt>
      <trkpt lat="45.26498" lon="6.02552">
        <ele>1729.5490723</ele>
        <time>2013-02-17T10:58:43Z</time>
      </trkpt>
      <trkpt lat="45.26501" lon="6.02559">
        <ele>1718.0131836</ele>
        <time>2013-02-17T10:59:06Z</time>
      </trkpt>
      <trkpt lat="45.26501" lon="6.02559">
        <ele>1719.935791</ele>
        <time>2013-02-17T10:59:19Z</time>
      </trkpt>
      <trkpt lat="45.26501" lon="6.0256">
        <ele>1724.2619629</ele>
        <time>2013-02-17T10:59:29Z</time>
      </trkpt>
      <trkpt lat="45.26503" lon="6.02559">
        <ele>1735.7976074</ele>
        <time>2013-02-17T10:59:44Z</time>
      </trkpt>
      <trkpt lat="45.26502" lon="6.02559">
        <ele>1736.7587891</ele>
        <time>2013-02-17T10:59:54Z</time>
      </trkpt>
      <trkpt lat="45.26499" lon="6.02562">
        <ele>1735.3168945</ele>
        <time>2013-02-17T11:00:29Z</time>
      </trkpt>
      <trkpt lat="45.26497" lon="6.02561">
        <ele>1732.9135742</ele>
        <time>2013-02-17T11:00:54Z</time>
      </trkpt>
      <trkpt lat="45.26497" lon="6.02558">
        <ele>1731.4716797</ele>
        <time>2013-02-17T11:00:59Z</time>
      </trkpt>
      <trkpt lat="45.26502" lon="6.02546">
        <ele>1730.510498</ele>
        <time>2013-02-17T11:01:04Z</time>
      </trkpt>
      <trkpt lat="45.26507" lon="6.02531">
        <ele>1730.510498</ele>
        <time>2013-02-17T11:01:10Z</time>
      </trkpt>
      <trkpt lat="45.26508" lon="6.02529">
        <ele>1730.0297852</ele>
        <time>2013-02-17T11:01:20Z</time>
      </trkpt>
      <trkpt lat="45.26508" lon="6.0253">
        <ele>1729.0683594</ele>
        <time>2013-02-17T11:01:26Z</time>
      </trkpt>
      <trkpt lat="45.26508" lon="6.02531">
        <ele>1727.6264648</ele>
        <time>2013-02-17T11:01:35Z</time>
      </trkpt>
      <trkpt lat="45.26507" lon="6.02531">
        <ele>1727.6264648</ele>
        <time>2013-02-17T11:01:44Z</time>
      </trkpt>
      <trkpt lat="45.26507" lon="6.0253">
        <ele>1727.6264648</ele>
        <time>2013-02-17T11:01:56Z</time>
      </trkpt>
      <trkpt lat="45.26508" lon="6.02528">
        <ele>1727.6264648</ele>
        <time>2013-02-17T11:01:59Z</time>
      </trkpt>
      <trkpt lat="45.26512" lon="6.02519">
        <ele>1728.1071777</ele>
        <time>2013-02-17T11:02:05Z</time>
      </trkpt>
      <trkpt lat="45.26513" lon="6.02516">
        <ele>1728.5878906</ele>
        <time>2013-02-17T11:02:13Z</time>
      </trkpt>
      <trkpt lat="45.26514" lon="6.02515">
        <ele>1730.0297852</ele>
        <time>2013-02-17T11:02:19Z</time>
      </trkpt>
      <trkpt lat="45.26514" lon="6.02514">
        <ele>1730.510498</ele>
        <time>2013-02-17T11:02:31Z</time>
      </trkpt>
      <trkpt lat="45.26513" lon="6.02513">
        <ele>1730.510498</ele>
        <time>2013-02-17T11:02:38Z</time>
      </trkpt>
      <trkpt lat="45.26514" lon="6.02514">
        <ele>1730.0297852</ele>
        <time>2013-02-17T11:02:44Z</time>
      </trkpt>
      <trkpt lat="45.26513" lon="6.02515">
        <ele>1729.5490723</ele>
        <time>2013-02-17T11:02:49Z</time>
      </trkpt>
      <trkpt lat="45.26514" lon="6.02514">
        <ele>1729.5490723</ele>
        <time>2013-02-17T11:02:55Z</time>
      </trkpt>
      <trkpt lat="45.26513" lon="6.02514">
        <ele>1729.5490723</ele>
        <time>2013-02-17T11:03:02Z</time>
      </trkpt>
      <trkpt lat="45.26513" lon="6.02515">
        <ele>1727.1459961</ele>
        <time>2013-02-17T11:03:10Z</time>
      </trkpt>
      <trkpt lat="45.26513" lon="6.02515">
        <ele>1729.0683594</ele>
        <time>2013-02-17T11:03:28Z</time>
      </trkpt>
      <trkpt lat="45.26513" lon="6.02516">
        <ele>1728.1071777</ele>
        <time>2013-02-17T11:03:34Z</time>
      </trkpt>
      <trkpt lat="45.26513" lon="6.02517">
        <ele>1728.5878906</ele>
        <time>2013-02-17T11:03:39Z</time>
      </trkpt>
      <trkpt lat="45.26512" lon="6.02518">
        <ele>1728.1071777</ele>
        <time>2013-02-17T11:03:44Z</time>
      </trkpt>
      <trkpt lat="45.26512" lon="6.02517">
        <ele>1728.1071777</ele>
        <time>2013-02-17T11:03:50Z</time>
      </trkpt>
      <trkpt lat="45.26512" lon="6.02517">
        <ele>1729.0683594</ele>
        <time>2013-02-17T11:03:58Z</time>
      </trkpt>
      <trkpt lat="45.26511" lon="6.02516">
        <ele>1730.0297852</ele>
        <time>2013-02-17T11:04:02Z</time>
      </trkpt>
      <trkpt lat="45.26512" lon="6.02516">
        <ele>1730.0297852</ele>
        <time>2013-02-17T11:04:07Z</time>
      </trkpt>
      <trkpt lat="45.26511" lon="6.02516">
        <ele>1730.510498</ele>
        <time>2013-02-17T11:04:12Z</time>
      </trkpt>
      <trkpt lat="45.26512" lon="6.02516">
        <ele>1730.9912109</ele>
        <time>2013-02-17T11:04:17Z</time>
      </trkpt>
      <trkpt lat="45.26512" lon="6.02517">
        <ele>1730.510498</ele>
        <time>2013-02-17T11:04:23Z</time>
      </trkpt>
      <trkpt lat="45.26513" lon="6.02516">
        <ele>1729.5490723</ele>
        <time>2013-02-17T11:04:30Z</time>
      </trkpt>
      <trkpt lat="45.26514" lon="6.02516">
        <ele>1729.0683594</ele>
        <time>2013-02-17T11:04:36Z</time>
      </trkpt>
      <trkpt lat="45.26514" lon="6.02516">
        <ele>1730.0297852</ele>
        <time>2013-02-17T11:04:45Z</time>
      </trkpt>
      <trkpt lat="45.26515" lon="6.02515">
        <ele>1729.0683594</ele>
        <time>2013-02-17T11:05:01Z</time>
      </trkpt>
      <trkpt lat="45.26515" lon="6.02515">
        <ele>1728.1071777</ele>
        <time>2013-02-17T11:05:05Z</time>
      </trkpt>
      <trkpt lat="45.26515" lon="6.02515">
        <ele>1728.1071777</ele>
        <time>2013-02-17T11:05:10Z</time>
      </trkpt>
      <trkpt lat="45.26514" lon="6.02515">
        <ele>1728.1071777</ele>
        <time>2013-02-17T11:05:19Z</time>
      </trkpt>
      <trkpt lat="45.26513" lon="6.02515">
        <ele>1728.1071777</ele>
        <time>2013-02-17T11:05:26Z</time>
      </trkpt>
      <trkpt lat="45.26513" lon="6.02515">
        <ele>1728.1071777</ele>
        <time>2013-02-17T11:06:32Z</time>
      </trkpt>
      <trkpt lat="45.26513" lon="6.02514">
        <ele>1728.5878906</ele>
        <time>2013-02-17T11:06:43Z</time>
      </trkpt>
      <trkpt lat="45.26513" lon="6.02514">
        <ele>1729.0683594</ele>
        <time>2013-02-17T11:06:53Z</time>
      </trkpt>
      <trkpt lat="45.26513" lon="6.02514">
        <ele>1729.5490723</ele>
        <time>2013-02-17T11:07:03Z</time>
      </trkpt>
      <trkpt lat="45.26512" lon="6.02514">
        <ele>1730.0297852</ele>
        <time>2013-02-17T11:07:15Z</time>
      </trkpt>
      <trkpt lat="45.26513" lon="6.02515">
        <ele>1730.0297852</ele>
        <time>2013-02-17T11:07:35Z</time>
      </trkpt>
      <trkpt lat="45.26513" lon="6.02515">
        <ele>1730.510498</ele>
        <time>2013-02-17T11:07:46Z</time>
      </trkpt>
      <trkpt lat="45.26514" lon="6.02514">
        <ele>1731.4716797</ele>
        <time>2013-02-17T11:08:05Z</time>
      </trkpt>
      <trkpt lat="45.26513" lon="6.02514">
        <ele>1732.4331055</ele>
        <time>2013-02-17T11:08:15Z</time>
      </trkpt>
      <trkpt lat="45.26513" lon="6.02514">
        <ele>1732.4331055</ele>
        <time>2013-02-17T11:08:27Z</time>
      </trkpt>
      <trkpt lat="45.26512" lon="6.02514">
        <ele>1732.4331055</ele>
        <time>2013-02-17T11:08:36Z</time>
      </trkpt>
      <trkpt lat="45.26512" lon="6.02515">
        <ele>1732.4331055</ele>
        <time>2013-02-17T11:08:49Z</time>
      </trkpt>
      <trkpt lat="45.26511" lon="6.02515">
        <ele>1731.4716797</ele>
        <time>2013-02-17T11:09:13Z</time>
      </trkpt>
      <trkpt lat="45.26511" lon="6.02515">
        <ele>1730.9912109</ele>
        <time>2013-02-17T11:09:19Z</time>
      </trkpt>
      <trkpt lat="45.26511" lon="6.02516">
        <ele>1730.510498</ele>
        <time>2013-02-17T11:09:28Z</time>
      </trkpt>
      <trkpt lat="45.26511" lon="6.02515">
        <ele>1730.510498</ele>
        <time>2013-02-17T11:09:34Z</time>
      </trkpt>
      <trkpt lat="45.26511" lon="6.02515">
        <ele>1730.0297852</ele>
        <time>2013-02-17T11:09:49Z</time>
      </trkpt>
      <trkpt lat="45.26512" lon="6.02515">
        <ele>1730.0297852</ele>
        <time>2013-02-17T11:10:12Z</time>
      </trkpt>
      <trkpt lat="45.26512" lon="6.02516">
        <ele>1730.0297852</ele>
        <time>2013-02-17T11:10:28Z</time>
      </trkpt>
      <trkpt lat="45.26512" lon="6.02516">
        <ele>1730.510498</ele>
        <time>2013-02-17T11:10:29Z</time>
      </trkpt>
      <trkpt lat="45.26511" lon="6.02511">
        <ele>1733.3942871</ele>
        <time>2013-02-17T11:28:34Z</time>
      </trkpt>
      <trkpt lat="45.2651" lon="6.02511">
        <ele>1733.3942871</ele>
        <time>2013-02-17T11:28:35Z</time>
      </trkpt>
      <trkpt lat="45.26507" lon="6.02506">
        <ele>1733.3942871</ele>
        <time>2013-02-17T11:28:40Z</time>
      </trkpt>
      <trkpt lat="45.26506" lon="6.02504">
        <ele>1731.9523926</ele>
        <time>2013-02-17T11:28:44Z</time>
      </trkpt>
      <trkpt lat="45.26506" lon="6.02503">
        <ele>1731.4716797</ele>
        <time>2013-02-17T11:28:47Z</time>
      </trkpt>
      <trkpt lat="45.26497" lon="6.02488">
        <ele>1729.0683594</ele>
        <time>2013-02-17T11:28:53Z</time>
      </trkpt>
      <trkpt lat="45.26487" lon="6.02473">
        <ele>1725.2231445</ele>
        <time>2013-02-17T11:28:56Z</time>
      </trkpt>
      <trkpt lat="45.26483" lon="6.02466">
        <ele>1722.8198242</ele>
        <time>2013-02-17T11:28:57Z</time>
      </trkpt>
      <trkpt lat="45.26474" lon="6.02453">
        <ele>1720.8972168</ele>
        <time>2013-02-17T11:28:59Z</time>
      </trkpt>
      <trkpt lat="45.26465" lon="6.02421">
        <ele>1718.4938965</ele>
        <time>2013-02-17T11:29:03Z</time>
      </trkpt>
      <trkpt lat="45.26465" lon="6.02414">
        <ele>1718.0131836</ele>
        <time>2013-02-17T11:29:04Z</time>
      </trkpt>
      <trkpt lat="45.26466" lon="6.024">
        <ele>1717.052002</ele>
        <time>2013-02-17T11:29:06Z</time>
      </trkpt>
      <trkpt lat="45.26471" lon="6.02378">
        <ele>1716.0905762</ele>
        <time>2013-02-17T11:29:10Z</time>
      </trkpt>
      <trkpt lat="45.26477" lon="6.02376">
        <ele>1716.0905762</ele>
        <time>2013-02-17T11:29:17Z</time>
      </trkpt>
      <trkpt lat="45.26477" lon="6.02375">
        <ele>1717.052002</ele>
        <time>2013-02-17T11:29:26Z</time>
      </trkpt>
      <trkpt lat="45.26476" lon="6.02375">
        <ele>1718.9746094</ele>
        <time>2013-02-17T11:29:38Z</time>
      </trkpt>
      <trkpt lat="45.26476" lon="6.02375">
        <ele>1718.9746094</ele>
        <time>2013-02-17T11:29:52Z</time>
      </trkpt>
      <trkpt lat="45.26476" lon="6.02376">
        <ele>1718.4938965</ele>
        <time>2013-02-17T11:30:08Z</time>
      </trkpt>
      <trkpt lat="45.26476" lon="6.02377">
        <ele>1718.4938965</ele>
        <time>2013-02-17T11:30:16Z</time>
      </trkpt>
      <trkpt lat="45.26476" lon="6.02378">
        <ele>1718.0131836</ele>
        <time>2013-02-17T11:30:30Z</time>
      </trkpt>
      <trkpt lat="45.26476" lon="6.02377">
        <ele>1717.5324707</ele>
        <time>2013-02-17T11:30:31Z</time>
      </trkpt>
      <trkpt lat="45.2648" lon="6.02358">
        <ele>1718.0131836</ele>
        <time>2013-02-17T11:30:35Z</time>
      </trkpt>
      <trkpt lat="45.26486" lon="6.02331">
        <ele>1716.0905762</ele>
        <time>2013-02-17T11:30:39Z</time>
      </trkpt>
      <trkpt lat="45.26494" lon="6.02306">
        <ele>1714.6486816</ele>
        <time>2013-02-17T11:30:43Z</time>
      </trkpt>
      <trkpt lat="45.26499" lon="6.02297">
        <ele>1713.6872559</ele>
        <time>2013-02-17T11:30:46Z</time>
      </trkpt>
      <trkpt lat="45.26499" lon="6.02297">
        <ele>1713.6872559</ele>
        <time>2013-02-17T11:30:52Z</time>
      </trkpt>
      <trkpt lat="45.26501" lon="6.02296">
        <ele>1713.2067871</ele>
        <time>2013-02-17T11:30:57Z</time>
      </trkpt>
      <trkpt lat="45.26508" lon="6.02286">
        <ele>1711.7648926</ele>
        <time>2013-02-17T11:31:01Z</time>
      </trkpt>
      <trkpt lat="45.26523" lon="6.02274">
        <ele>1708.4001465</ele>
        <time>2013-02-17T11:31:05Z</time>
      </trkpt>
      <trkpt lat="45.26558" lon="6.02249">
        <ele>1703.112793</ele>
        <time>2013-02-17T11:31:10Z</time>
      </trkpt>
      <trkpt lat="45.26564" lon="6.02243">
        <ele>1702.6320801</ele>
        <time>2013-02-17T11:31:11Z</time>
      </trkpt>
      <trkpt lat="45.26577" lon="6.02223">
        <ele>1700.2290039</ele>
        <time>2013-02-17T11:31:15Z</time>
      </trkpt>
      <trkpt lat="45.26581" lon="6.02209">
        <ele>1697.8256836</ele>
        <time>2013-02-17T11:31:17Z</time>
      </trkpt>
      <trkpt lat="45.26583" lon="6.02194">
        <ele>1694.4609375</ele>
        <time>2013-02-17T11:31:19Z</time>
      </trkpt>
      <trkpt lat="45.26572" lon="6.02178">
        <ele>1691.0961914</ele>
        <time>2013-02-17T11:31:22Z</time>
      </trkpt>
      <trkpt lat="45.26569" lon="6.02165">
        <ele>1688.2124023</ele>
        <time>2013-02-17T11:31:24Z</time>
      </trkpt>
      <trkpt lat="45.2657" lon="6.02149">
        <ele>1684.3671875</ele>
        <time>2013-02-17T11:31:27Z</time>
      </trkpt>
      <trkpt lat="45.26559" lon="6.02146">
        <ele>1680.0412598</ele>
        <time>2013-02-17T11:31:32Z</time>
      </trkpt>
      <trkpt lat="45.26555" lon="6.02141">
        <ele>1677.6379395</ele>
        <time>2013-02-17T11:31:34Z</time>
      </trkpt>
      <trkpt lat="45.26555" lon="6.02129">
        <ele>1674.2731934</ele>
        <time>2013-02-17T11:31:37Z</time>
      </trkpt>
      <trkpt lat="45.26546" lon="6.02125">
        <ele>1669.9472656</ele>
        <time>2013-02-17T11:31:41Z</time>
      </trkpt>
      <trkpt lat="45.26538" lon="6.02117">
        <ele>1666.5827637</ele>
        <time>2013-02-17T11:31:44Z</time>
      </trkpt>
      <trkpt lat="45.26534" lon="6.02113">
        <ele>1664.1794434</ele>
        <time>2013-02-17T11:31:46Z</time>
      </trkpt>
      <trkpt lat="45.26526" lon="6.02105">
        <ele>1660.3342285</ele>
        <time>2013-02-17T11:31:50Z</time>
      </trkpt>
      <trkpt lat="45.26521" lon="6.02096">
        <ele>1656.9694824</ele>
        <time>2013-02-17T11:31:53Z</time>
      </trkpt>
      <trkpt lat="45.26518" lon="6.02093">
        <ele>1656.0080566</ele>
        <time>2013-02-17T11:31:54Z</time>
      </trkpt>
      <trkpt lat="45.26502" lon="6.02078">
        <ele>1649.7597656</ele>
        <time>2013-02-17T11:31:59Z</time>
      </trkpt>
      <trkpt lat="45.265" lon="6.02073">
        <ele>1648.7983398</ele>
        <time>2013-02-17T11:32:00Z</time>
      </trkpt>
      <trkpt lat="45.26504" lon="6.02057">
        <ele>1645.4338379</ele>
        <time>2013-02-17T11:32:07Z</time>
      </trkpt>
      <trkpt lat="45.26508" lon="6.02053">
        <ele>1642.5498047</ele>
        <time>2013-02-17T11:32:11Z</time>
      </trkpt>
      <trkpt lat="45.26508" lon="6.02049">
        <ele>1641.5883789</ele>
        <time>2013-02-17T11:32:18Z</time>
      </trkpt>
      <trkpt lat="45.26498" lon="6.02026">
        <ele>1637.2624512</ele>
        <time>2013-02-17T11:32:22Z</time>
      </trkpt>
      <trkpt lat="45.26495" lon="6.02016">
        <ele>1635.3398438</ele>
        <time>2013-02-17T11:32:23Z</time>
      </trkpt>
      <trkpt lat="45.26482" lon="6.01968">
        <ele>1622.3620605</ele>
        <time>2013-02-17T11:32:27Z</time>
      </trkpt>
      <trkpt lat="45.26481" lon="6.01953">
        <ele>1618.5168457</ele>
        <time>2013-02-17T11:32:28Z</time>
      </trkpt>
      <trkpt lat="45.26491" lon="6.01865">
        <ele>1601.2131348</ele>
        <time>2013-02-17T11:32:33Z</time>
      </trkpt>
      <trkpt lat="45.26505" lon="6.01775">
        <ele>1586.3127441</ele>
        <time>2013-02-17T11:32:38Z</time>
      </trkpt>
      <trkpt lat="45.26508" lon="6.01703">
        <ele>1577.6606445</ele>
        <time>2013-02-17T11:32:42Z</time>
      </trkpt>
      <trkpt lat="45.26508" lon="6.01688">
        <ele>1576.6994629</ele>
        <time>2013-02-17T11:32:43Z</time>
      </trkpt>
      <trkpt lat="45.26505" lon="6.01643">
        <ele>1576.21875</ele>
        <time>2013-02-17T11:32:46Z</time>
      </trkpt>
      <trkpt lat="45.26492" lon="6.0161">
        <ele>1574.2961426</ele>
        <time>2013-02-17T11:32:49Z</time>
      </trkpt>
      <trkpt lat="45.26468" lon="6.01577">
        <ele>1573.3349609</ele>
        <time>2013-02-17T11:32:54Z</time>
      </trkpt>
      <trkpt lat="45.26461" lon="6.01571">
        <ele>1572.854248</ele>
        <time>2013-02-17T11:32:57Z</time>
      </trkpt>
      <trkpt lat="45.26456" lon="6.01568">
        <ele>1572.3735352</ele>
        <time>2013-02-17T11:33:02Z</time>
      </trkpt>
      <trkpt lat="45.26455" lon="6.01568">
        <ele>1573.3349609</ele>
        <time>2013-02-17T11:33:09Z</time>
      </trkpt>
      <trkpt lat="45.26455" lon="6.01567">
        <ele>1573.8154297</ele>
        <time>2013-02-17T11:33:18Z</time>
      </trkpt>
      <trkpt lat="45.26455" lon="6.01567">
        <ele>1573.3349609</ele>
        <time>2013-02-17T11:33:27Z</time>
      </trkpt>
      <trkpt lat="45.26455" lon="6.01568">
        <ele>1572.854248</ele>
        <time>2013-02-17T11:33:37Z</time>
      </trkpt>
      <trkpt lat="45.26454" lon="6.01567">
        <ele>1572.3735352</ele>
        <time>2013-02-17T11:33:50Z</time>
      </trkpt>
      <trkpt lat="45.26453" lon="6.01566">
        <ele>1572.854248</ele>
        <time>2013-02-17T11:33:57Z</time>
      </trkpt>
      <trkpt lat="45.26452" lon="6.01565">
        <ele>1573.8154297</ele>
        <time>2013-02-17T11:34:04Z</time>
      </trkpt>
      <trkpt lat="45.26451" lon="6.01564">
        <ele>1574.7768555</ele>
        <time>2013-02-17T11:34:19Z</time>
      </trkpt>
      <trkpt lat="45.2645" lon="6.01565">
        <ele>1574.7768555</ele>
        <time>2013-02-17T11:34:27Z</time>
      </trkpt>
      <trkpt lat="45.26449" lon="6.01565">
        <ele>1575.2573242</ele>
        <time>2013-02-17T11:34:35Z</time>
      </trkpt>
      <trkpt lat="45.26448" lon="6.01565">
        <ele>1576.6994629</ele>
        <time>2013-02-17T11:34:46Z</time>
      </trkpt>
      <trkpt lat="45.26447" lon="6.01565">
        <ele>1577.6606445</ele>
        <time>2013-02-17T11:34:56Z</time>
      </trkpt>
      <trkpt lat="45.26447" lon="6.01568">
        <ele>1576.6994629</ele>
        <time>2013-02-17T11:35:21Z</time>
      </trkpt>
      <trkpt lat="45.26446" lon="6.01569">
        <ele>1577.6606445</ele>
        <time>2013-02-17T11:35:29Z</time>
      </trkpt>
      <trkpt lat="45.26445" lon="6.01574">
        <ele>1578.6220703</ele>
        <time>2013-02-17T11:35:37Z</time>
      </trkpt>
      <trkpt lat="45.26445" lon="6.01577">
        <ele>1579.583252</ele>
        <time>2013-02-17T11:35:43Z</time>
      </trkpt>
      <trkpt lat="45.26445" lon="6.01582">
        <ele>1579.1025391</ele>
        <time>2013-02-17T11:35:51Z</time>
      </trkpt>
      <trkpt lat="45.26444" lon="6.01586">
        <ele>1577.6606445</ele>
        <time>2013-02-17T11:35:53Z</time>
      </trkpt>
      <trkpt lat="45.26436" lon="6.01602">
        <ele>1572.854248</ele>
        <time>2013-02-17T11:35:57Z</time>
      </trkpt>
      <trkpt lat="45.26428" lon="6.01616">
        <ele>1572.3735352</ele>
        <time>2013-02-17T11:36:00Z</time>
      </trkpt>
      <trkpt lat="45.26415" lon="6.01642">
        <ele>1573.8154297</ele>
        <time>2013-02-17T11:36:05Z</time>
      </trkpt>
      <trkpt lat="45.26395" lon="6.01683">
        <ele>1581.0256348</ele>
        <time>2013-02-17T11:36:13Z</time>
      </trkpt>
      <trkpt lat="45.26377" lon="6.01719">
        <ele>1588.7160645</ele>
        <time>2013-02-17T11:36:20Z</time>
      </trkpt>
      <trkpt lat="45.26355" lon="6.01763">
        <ele>1601.2131348</ele>
        <time>2013-02-17T11:36:29Z</time>
      </trkpt>
      <trkpt lat="45.26344" lon="6.01783">
        <ele>1607.4616699</ele>
        <time>2013-02-17T11:36:33Z</time>
      </trkpt>
      <trkpt lat="45.2632" lon="6.01832">
        <ele>1623.8039551</ele>
        <time>2013-02-17T11:36:43Z</time>
      </trkpt>
      <trkpt lat="45.26313" lon="6.01846">
        <ele>1629.5720215</ele>
        <time>2013-02-17T11:36:46Z</time>
      </trkpt>
      <trkpt lat="45.26292" lon="6.01886">
        <ele>1638.7045898</ele>
        <time>2013-02-17T11:36:54Z</time>
      </trkpt>
      <trkpt lat="45.26272" lon="6.01928">
        <ele>1647.3564453</ele>
        <time>2013-02-17T11:37:02Z</time>
      </trkpt>
      <trkpt lat="45.26253" lon="6.01968">
        <ele>1658.411377</ele>
        <time>2013-02-17T11:37:10Z</time>
      </trkpt>
      <trkpt lat="45.26235" lon="6.02006">
        <ele>1671.3891602</ele>
        <time>2013-02-17T11:37:18Z</time>
      </trkpt>
      <trkpt lat="45.2622" lon="6.0204">
        <ele>1682.9250488</ele>
        <time>2013-02-17T11:37:25Z</time>
      </trkpt>
      <trkpt lat="45.26208" lon="6.02059">
        <ele>1687.7316895</ele>
        <time>2013-02-17T11:37:29Z</time>
      </trkpt>
      <trkpt lat="45.2619" lon="6.02099">
        <ele>1693.019043</ele>
        <time>2013-02-17T11:37:37Z</time>
      </trkpt>
      <trkpt lat="45.26168" lon="6.02144">
        <ele>1700.7094727</ele>
        <time>2013-02-17T11:37:46Z</time>
      </trkpt>
      <trkpt lat="45.26147" lon="6.02188">
        <ele>1714.6486816</ele>
        <time>2013-02-17T11:37:55Z</time>
      </trkpt>
      <trkpt lat="45.26121" lon="6.02245">
        <ele>1736.2783203</ele>
        <time>2013-02-17T11:38:07Z</time>
      </trkpt>
      <trkpt lat="45.26095" lon="6.023">
        <ele>1762.2338867</ele>
        <time>2013-02-17T11:38:19Z</time>
      </trkpt>
      <trkpt lat="45.26071" lon="6.0235">
        <ele>1786.2668457</ele>
        <time>2013-02-17T11:38:30Z</time>
      </trkpt>
      <trkpt lat="45.26049" lon="6.02393">
        <ele>1811.2612305</ele>
        <time>2013-02-17T11:38:40Z</time>
      </trkpt>
      <trkpt lat="45.26028" lon="6.02436">
        <ele>1839.1394043</ele>
        <time>2013-02-17T11:38:50Z</time>
      </trkpt>
      <trkpt lat="45.26008" lon="6.02477">
        <ele>1868.4597168</ele>
        <time>2013-02-17T11:39:00Z</time>
      </trkpt>
      <trkpt lat="45.2599" lon="6.02514">
        <ele>1895.8571777</ele>
        <time>2013-02-17T11:39:09Z</time>
      </trkpt>
      <trkpt lat="45.25971" lon="6.02553">
        <ele>1928.0612793</ele>
        <time>2013-02-17T11:39:19Z</time>
      </trkpt>
      <trkpt lat="45.25957" lon="6.02582">
        <ele>1949.6911621</ele>
        <time>2013-02-17T11:39:26Z</time>
      </trkpt>
      <trkpt lat="45.2594" lon="6.02615">
        <ele>1973.2434082</ele>
        <time>2013-02-17T11:39:34Z</time>
      </trkpt>
      <trkpt lat="45.25919" lon="6.0266">
        <ele>2007.3701172</ele>
        <time>2013-02-17T11:39:45Z</time>
      </trkpt>
      <trkpt lat="45.25899" lon="6.02701">
        <ele>2036.6901855</ele>
        <time>2013-02-17T11:39:55Z</time>
      </trkpt>
      <trkpt lat="45.25885" lon="6.02731">
        <ele>2045.822998</ele>
        <time>2013-02-17T11:40:01Z</time>
      </trkpt>
      <trkpt lat="45.25863" lon="6.02776">
        <ele>2056.3972168</ele>
        <time>2013-02-17T11:40:10Z</time>
      </trkpt>
      <trkpt lat="45.2584" lon="6.02821">
        <ele>2063.126709</ele>
        <time>2013-02-17T11:40:19Z</time>
      </trkpt>
      <trkpt lat="45.25814" lon="6.02871">
        <ele>2073.220459</ele>
        <time>2013-02-17T11:40:29Z</time>
      </trkpt>
      <trkpt lat="45.25785" lon="6.02931">
        <ele>2088.1208496</ele>
        <time>2013-02-17T11:40:41Z</time>
      </trkpt>
      <trkpt lat="45.25756" lon="6.02989">
        <ele>2105.4245605</ele>
        <time>2013-02-17T11:40:53Z</time>
      </trkpt>
      <trkpt lat="45.25735" lon="6.03033">
        <ele>2120.3249512</ele>
        <time>2013-02-17T11:41:02Z</time>
      </trkpt>
      <trkpt lat="45.25722" lon="6.03058">
        <ele>2126.0930176</ele>
        <time>2013-02-17T11:41:07Z</time>
      </trkpt>
      <trkpt lat="45.25718" lon="6.03069">
        <ele>2127.5349121</ele>
        <time>2013-02-17T11:41:11Z</time>
      </trkpt>
      <trkpt lat="45.25712" lon="6.03082">
        <ele>2125.6123047</ele>
        <time>2013-02-17T11:41:17Z</time>
      </trkpt>
      <trkpt lat="45.25707" lon="6.03091">
        <ele>2125.1315918</ele>
        <time>2013-02-17T11:41:20Z</time>
      </trkpt>
      <trkpt lat="45.25705" lon="6.03091">
        <ele>2124.1704102</ele>
        <time>2013-02-17T11:41:27Z</time>
      </trkpt>
      <trkpt lat="45.25703" lon="6.03085">
        <ele>2123.2089844</ele>
        <time>2013-02-17T11:41:31Z</time>
      </trkpt>
      <trkpt lat="45.257" lon="6.03079">
        <ele>2123.2089844</ele>
        <time>2013-02-17T11:41:35Z</time>
      </trkpt>
      <trkpt lat="45.25697" lon="6.03073">
        <ele>2123.2089844</ele>
        <time>2013-02-17T11:41:43Z</time>
      </trkpt>
      <trkpt lat="45.25696" lon="6.03069">
        <ele>2123.6894531</ele>
        <time>2013-02-17T11:41:49Z</time>
      </trkpt>
      <trkpt lat="45.25698" lon="6.03067">
        <ele>2124.651123</ele>
        <time>2013-02-17T11:41:57Z</time>
      </trkpt>
      <trkpt lat="45.25699" lon="6.03064">
        <ele>2125.1315918</ele>
        <time>2013-02-17T11:42:04Z</time>
      </trkpt>
      <trkpt lat="45.25702" lon="6.03061">
        <ele>2125.6123047</ele>
        <time>2013-02-17T11:42:08Z</time>
      </trkpt>
      <trkpt lat="45.25702" lon="6.03062">
        <ele>2125.6123047</ele>
        <time>2013-02-17T11:42:13Z</time>
      </trkpt>
      <trkpt lat="45.25703" lon="6.03063">
        <ele>2125.6123047</ele>
        <time>2013-02-17T11:42:20Z</time>
      </trkpt>
      <trkpt lat="45.25703" lon="6.03062">
        <ele>2126.0930176</ele>
        <time>2013-02-17T11:42:28Z</time>
      </trkpt>
      <trkpt lat="45.25704" lon="6.03062">
        <ele>2126.0930176</ele>
        <time>2013-02-17T11:42:41Z</time>
      </trkpt>
      <trkpt lat="45.25705" lon="6.03061">
        <ele>2125.6123047</ele>
        <time>2013-02-17T11:43:08Z</time>
      </trkpt>
      <trkpt lat="45.25704" lon="6.03061">
        <ele>2125.1315918</ele>
        <time>2013-02-17T11:43:23Z</time>
      </trkpt>
      <trkpt lat="45.25704" lon="6.03062">
        <ele>2125.6123047</ele>
        <time>2013-02-17T11:43:35Z</time>
      </trkpt>
      <trkpt lat="45.25704" lon="6.03061">
        <ele>2125.1315918</ele>
        <time>2013-02-17T11:43:46Z</time>
      </trkpt>
      <trkpt lat="45.25702" lon="6.03062">
        <ele>2124.651123</ele>
        <time>2013-02-17T11:43:57Z</time>
      </trkpt>
      <trkpt lat="45.25695" lon="6.03065">
        <ele>2123.6894531</ele>
        <time>2013-02-17T11:44:01Z</time>
      </trkpt>
      <trkpt lat="45.25695" lon="6.03065">
        <ele>2124.1704102</ele>
        <time>2013-02-17T11:44:10Z</time>
      </trkpt>
      <trkpt lat="45.25695" lon="6.03064">
        <ele>2124.1704102</ele>
        <time>2013-02-17T11:44:22Z</time>
      </trkpt>
      <trkpt lat="45.25694" lon="6.03063">
        <ele>2124.651123</ele>
        <time>2013-02-17T11:44:29Z</time>
      </trkpt>
      <trkpt lat="45.25688" lon="6.03064">
        <ele>2124.1704102</ele>
        <time>2013-02-17T11:44:32Z</time>
      </trkpt>
      <trkpt lat="45.25673" lon="6.03077">
        <ele>2121.7668457</ele>
        <time>2013-02-17T11:44:36Z</time>
      </trkpt>
      <trkpt lat="45.25662" lon="6.03083">
        <ele>2119.3637695</ele>
        <time>2013-02-17T11:44:38Z</time>
      </trkpt>
      <trkpt lat="45.25635" lon="6.031">
        <ele>2113.1152344</ele>
        <time>2013-02-17T11:44:42Z</time>
      </trkpt>
      <trkpt lat="45.25621" lon="6.0312">
        <ele>2107.8278809</ele>
        <time>2013-02-17T11:44:45Z</time>
      </trkpt>
      <trkpt lat="45.2562" lon="6.03135">
        <ele>2104.4631348</ele>
        <time>2013-02-17T11:44:47Z</time>
      </trkpt>
      <trkpt lat="45.25639" lon="6.0316">
        <ele>2095.8115234</ele>
        <time>2013-02-17T11:44:52Z</time>
      </trkpt>
      <trkpt lat="45.25645" lon="6.03162">
        <ele>2093.888916</ele>
        <time>2013-02-17T11:44:53Z</time>
      </trkpt>
      <trkpt lat="45.25665" lon="6.03171">
        <ele>2087.6401367</ele>
        <time>2013-02-17T11:44:56Z</time>
      </trkpt>
      <trkpt lat="45.25679" lon="6.03181">
        <ele>2083.314209</ele>
        <time>2013-02-17T11:44:58Z</time>
      </trkpt>
      <trkpt lat="45.25714" lon="6.03193">
        <ele>2074.6623535</ele>
        <time>2013-02-17T11:45:02Z</time>
      </trkpt>
      <trkpt lat="45.25735" lon="6.03199">
        <ele>2069.3752441</ele>
        <time>2013-02-17T11:45:04Z</time>
      </trkpt>
      <trkpt lat="45.25755" lon="6.03232">
        <ele>2059.28125</ele>
        <time>2013-02-17T11:45:07Z</time>
      </trkpt>
      <trkpt lat="45.25756" lon="6.03267">
        <ele>2049.6682129</ele>
        <time>2013-02-17T11:45:09Z</time>
      </trkpt>
      <trkpt lat="45.25746" lon="6.03304">
        <ele>2041.0161133</ele>
        <time>2013-02-17T11:45:11Z</time>
      </trkpt>
      <trkpt lat="45.25741" lon="6.03321">
        <ele>2037.6516113</ele>
        <time>2013-02-17T11:45:12Z</time>
      </trkpt>
      <trkpt lat="45.25727" lon="6.0337">
        <ele>2027.5576172</ele>
        <time>2013-02-17T11:45:15Z</time>
      </trkpt>
      <trkpt lat="45.25721" lon="6.03432">
        <ele>2014.0993652</ele>
        <time>2013-02-17T11:45:19Z</time>
      </trkpt>
      <trkpt lat="45.25721" lon="6.03484">
        <ele>2006.4086914</ele>
        <time>2013-02-17T11:45:22Z</time>
      </trkpt>
      <trkpt lat="45.25731" lon="6.0352">
        <ele>2000.1604004</ele>
        <time>2013-02-17T11:45:25Z</time>
      </trkpt>
      <trkpt lat="45.25733" lon="6.03543">
        <ele>1993.9116211</ele>
        <time>2013-02-17T11:45:28Z</time>
      </trkpt>
      <trkpt lat="45.25729" lon="6.03548">
        <ele>1989.5856934</ele>
        <time>2013-02-17T11:45:32Z</time>
      </trkpt>
      <trkpt lat="45.25729" lon="6.03549">
        <ele>1989.5856934</ele>
        <time>2013-02-17T11:45:37Z</time>
      </trkpt>
      <trkpt lat="45.25732" lon="6.03553">
        <ele>1990.546875</ele>
        <time>2013-02-17T11:45:59Z</time>
      </trkpt>
      <trkpt lat="45.25732" lon="6.03575">
        <ele>1988.1437988</ele>
        <time>2013-02-17T11:46:03Z</time>
      </trkpt>
      <trkpt lat="45.25745" lon="6.03604">
        <ele>1981.4145508</ele>
        <time>2013-02-17T11:46:06Z</time>
      </trkpt>
      <trkpt lat="45.25762" lon="6.03637">
        <ele>1972.7626953</ele>
        <time>2013-02-17T11:46:09Z</time>
      </trkpt>
      <trkpt lat="45.25769" lon="6.0366">
        <ele>1967.9560547</ele>
        <time>2013-02-17T11:46:11Z</time>
      </trkpt>
      <trkpt lat="45.25774" lon="6.037">
        <ele>1959.3041992</ele>
        <time>2013-02-17T11:46:14Z</time>
      </trkpt>
      <trkpt lat="45.25782" lon="6.03735">
        <ele>1949.6911621</ele>
        <time>2013-02-17T11:46:17Z</time>
      </trkpt>
      <trkpt lat="45.25787" lon="6.03748">
        <ele>1945.8457031</ele>
        <time>2013-02-17T11:46:18Z</time>
      </trkpt>
      <trkpt lat="45.2581" lon="6.0382">
        <ele>1925.657959</ele>
        <time>2013-02-17T11:46:23Z</time>
      </trkpt>
      <trkpt lat="45.25829" lon="6.03869">
        <ele>1914.1220703</ele>
        <time>2013-02-17T11:46:26Z</time>
      </trkpt>
      <trkpt lat="45.25853" lon="6.03941">
        <ele>1897.7797852</ele>
        <time>2013-02-17T11:46:30Z</time>
      </trkpt>
      <trkpt lat="45.25872" lon="6.03992">
        <ele>1885.2827148</ele>
        <time>2013-02-17T11:46:33Z</time>
      </trkpt>
      <trkpt lat="45.25926" lon="6.04075">
        <ele>1863.1723633</ele>
        <time>2013-02-17T11:46:38Z</time>
      </trkpt>
      <trkpt lat="45.25937" lon="6.04091">
        <ele>1859.3271484</ele>
        <time>2013-02-17T11:46:39Z</time>
      </trkpt>
      <trkpt lat="45.25968" lon="6.04134">
        <ele>1861.2497559</ele>
        <time>2013-02-17T11:46:42Z</time>
      </trkpt>
      <trkpt lat="45.2598" lon="6.04156">
        <ele>1857.8852539</ele>
        <time>2013-02-17T11:46:44Z</time>
      </trkpt>
      <trkpt lat="45.25998" lon="6.04216">
        <ele>1842.0234375</ele>
        <time>2013-02-17T11:46:49Z</time>
      </trkpt>
      <trkpt lat="45.26001" lon="6.0422">
        <ele>1839.6201172</ele>
        <time>2013-02-17T11:46:50Z</time>
      </trkpt>
      <trkpt lat="45.26005" lon="6.04226">
        <ele>1834.8134766</ele>
        <time>2013-02-17T11:46:56Z</time>
      </trkpt>
      <trkpt lat="45.26003" lon="6.04226">
        <ele>1835.7746582</ele>
        <time>2013-02-17T11:47:02Z</time>
      </trkpt>
      <trkpt lat="45.26003" lon="6.04226">
        <ele>1836.736084</ele>
        <time>2013-02-17T11:47:07Z</time>
      </trkpt>
      <trkpt lat="45.26003" lon="6.04228">
        <ele>1836.736084</ele>
        <time>2013-02-17T11:47:10Z</time>
      </trkpt>
      <trkpt lat="45.26007" lon="6.04253">
        <ele>1831.9294434</ele>
        <time>2013-02-17T11:47:14Z</time>
      </trkpt>
      <trkpt lat="45.26014" lon="6.04283">
        <ele>1824.2390137</ele>
        <time>2013-02-17T11:47:17Z</time>
      </trkpt>
      <trkpt lat="45.26013" lon="6.04295">
        <ele>1820.3937988</ele>
        <time>2013-02-17T11:47:18Z</time>
      </trkpt>
      <trkpt lat="45.2602" lon="6.04339">
        <ele>1809.8190918</ele>
        <time>2013-02-17T11:47:21Z</time>
      </trkpt>
      <trkpt lat="45.26017" lon="6.04368">
        <ele>1802.6091309</ele>
        <time>2013-02-17T11:47:23Z</time>
      </trkpt>
      <trkpt lat="45.26022" lon="6.04399">
        <ele>1794.9187012</ele>
        <time>2013-02-17T11:47:25Z</time>
      </trkpt>
      <trkpt lat="45.26026" lon="6.04438">
        <ele>1783.8635254</ele>
        <time>2013-02-17T11:47:28Z</time>
      </trkpt>
      <trkpt lat="45.26052" lon="6.04481">
        <ele>1770.4050293</ele>
        <time>2013-02-17T11:47:32Z</time>
      </trkpt>
      <trkpt lat="45.26076" lon="6.04526">
        <ele>1754.5432129</ele>
        <time>2013-02-17T11:47:36Z</time>
      </trkpt>
      <trkpt lat="45.26088" lon="6.04554">
        <ele>1744.9301758</ele>
        <time>2013-02-17T11:47:38Z</time>
      </trkpt>
      <trkpt lat="45.26113" lon="6.04615">
        <ele>1727.1459961</ele>
        <time>2013-02-17T11:47:42Z</time>
      </trkpt>
      <trkpt lat="45.26143" lon="6.04633">
        <ele>1714.6486816</ele>
        <time>2013-02-17T11:47:45Z</time>
      </trkpt>
      <trkpt lat="45.26164" lon="6.04654">
        <ele>1704.0742188</ele>
        <time>2013-02-17T11:47:48Z</time>
      </trkpt>
      <trkpt lat="45.26171" lon="6.04676">
        <ele>1696.8642578</ele>
        <time>2013-02-17T11:47:50Z</time>
      </trkpt>
      <trkpt lat="45.26174" lon="6.04717">
        <ele>1686.2897949</ele>
        <time>2013-02-17T11:47:53Z</time>
      </trkpt>
      <trkpt lat="45.26177" lon="6.04772">
        <ele>1674.7539063</ele>
        <time>2013-02-17T11:47:57Z</time>
      </trkpt>
      <trkpt lat="45.26178" lon="6.04796">
        <ele>1670.9086914</ele>
        <time>2013-02-17T11:47:59Z</time>
      </trkpt>
      <trkpt lat="45.26177" lon="6.04807">
        <ele>1670.4279785</ele>
        <time>2013-02-17T11:48:02Z</time>
      </trkpt>
      <trkpt lat="45.26176" lon="6.04806">
        <ele>1672.8312988</ele>
        <time>2013-02-17T11:48:08Z</time>
      </trkpt>
      <trkpt lat="45.26175" lon="6.04805">
        <ele>1675.234375</ele>
        <time>2013-02-17T11:48:17Z</time>
      </trkpt>
      <trkpt lat="45.26174" lon="6.04809">
        <ele>1675.234375</ele>
        <time>2013-02-17T11:48:21Z</time>
      </trkpt>
      <trkpt lat="45.26171" lon="6.04821">
        <ele>1675.234375</ele>
        <time>2013-02-17T11:48:26Z</time>
      </trkpt>
      <trkpt lat="45.26164" lon="6.0483">
        <ele>1675.234375</ele>
        <time>2013-02-17T11:48:32Z</time>
      </trkpt>
      <trkpt lat="45.26162" lon="6.04831">
        <ele>1675.234375</ele>
        <time>2013-02-17T11:48:34Z</time>
      </trkpt>
      <trkpt lat="45.2616" lon="6.0483">
        <ele>1675.7150879</ele>
        <time>2013-02-17T11:48:42Z</time>
      </trkpt>
      <trkpt lat="45.26159" lon="6.04829">
        <ele>1675.7150879</ele>
        <time>2013-02-17T11:48:49Z</time>
      </trkpt>
      <trkpt lat="45.26159" lon="6.04828">
        <ele>1675.7150879</ele>
        <time>2013-02-17T11:48:58Z</time>
      </trkpt>
      <trkpt lat="45.26159" lon="6.04827">
        <ele>1676.1960449</ele>
        <time>2013-02-17T11:49:08Z</time>
      </trkpt>
      <trkpt lat="45.26158" lon="6.04826">
        <ele>1677.1574707</ele>
        <time>2013-02-17T11:49:17Z</time>
      </trkpt>
      <trkpt lat="45.26158" lon="6.04824">
        <ele>1677.1574707</ele>
        <time>2013-02-17T11:49:23Z</time>
      </trkpt>
      <trkpt lat="45.26157" lon="6.04822">
        <ele>1676.1960449</ele>
        <time>2013-02-17T11:49:31Z</time>
      </trkpt>
      <trkpt lat="45.26155" lon="6.04822">
        <ele>1675.7150879</ele>
        <time>2013-02-17T11:49:42Z</time>
      </trkpt>
      <trkpt lat="45.26153" lon="6.0482">
        <ele>1671.869873</ele>
        <time>2013-02-17T11:49:47Z</time>
      </trkpt>
      <trkpt lat="45.26151" lon="6.04818">
        <ele>1672.3505859</ele>
        <time>2013-02-17T11:49:49Z</time>
      </trkpt>
      <trkpt lat="45.26148" lon="6.04816">
        <ele>1667.0634766</ele>
        <time>2013-02-17T11:49:57Z</time>
      </trkpt>
      <trkpt lat="45.26144" lon="6.04803">
        <ele>1663.2182617</ele>
        <time>2013-02-17T11:50:02Z</time>
      </trkpt>
      <trkpt lat="45.26135" lon="6.04781">
        <ele>1670.9086914</ele>
        <time>2013-02-17T11:50:06Z</time>
      </trkpt>
      <trkpt lat="45.26124" lon="6.04761">
        <ele>1680.5219727</ele>
        <time>2013-02-17T11:50:10Z</time>
      </trkpt>
      <trkpt lat="45.26112" lon="6.04741">
        <ele>1686.7702637</ele>
        <time>2013-02-17T11:50:14Z</time>
      </trkpt>
      <trkpt lat="45.26087" lon="6.04696">
        <ele>1700.7094727</ele>
        <time>2013-02-17T11:50:23Z</time>
      </trkpt>
      <trkpt lat="45.26075" lon="6.04672">
        <ele>1708.8808594</ele>
        <time>2013-02-17T11:50:28Z</time>
      </trkpt>
      <trkpt lat="45.26054" lon="6.04633">
        <ele>1719.935791</ele>
        <time>2013-02-17T11:50:36Z</time>
      </trkpt>
      <trkpt lat="45.26034" lon="6.04596">
        <ele>1733.3942871</ele>
        <time>2013-02-17T11:50:44Z</time>
      </trkpt>
      <trkpt lat="45.26012" lon="6.04555">
        <ele>1750.2175293</ele>
        <time>2013-02-17T11:50:53Z</time>
      </trkpt>
      <trkpt lat="45.25995" lon="6.04523">
        <ele>1762.2338867</ele>
        <time>2013-02-17T11:51:00Z</time>
      </trkpt>
      <trkpt lat="45.25978" lon="6.04491">
        <ele>1772.8085938</ele>
        <time>2013-02-17T11:51:07Z</time>
      </trkpt>
      <trkpt lat="45.25958" lon="6.04454">
        <ele>1785.7861328</ele>
        <time>2013-02-17T11:51:15Z</time>
      </trkpt>
      <trkpt lat="45.25939" lon="6.04417">
        <ele>1798.763916</ele>
        <time>2013-02-17T11:51:23Z</time>
      </trkpt>
      <trkpt lat="45.25917" lon="6.04375">
        <ele>1813.1838379</ele>
        <time>2013-02-17T11:51:32Z</time>
      </trkpt>
      <trkpt lat="45.25896" lon="6.04335">
        <ele>1830.0068359</ele>
        <time>2013-02-17T11:51:41Z</time>
      </trkpt>
      <trkpt lat="45.25874" lon="6.04295">
        <ele>1844.4265137</ele>
        <time>2013-02-17T11:51:50Z</time>
      </trkpt>
      <trkpt lat="45.25856" lon="6.04261">
        <ele>1852.5979004</ele>
        <time>2013-02-17T11:51:57Z</time>
      </trkpt>
      <trkpt lat="45.25841" lon="6.04233">
        <ele>1859.8076172</ele>
        <time>2013-02-17T11:52:03Z</time>
      </trkpt>
      <trkpt lat="45.25819" lon="6.04192">
        <ele>1869.4211426</ele>
        <time>2013-02-17T11:52:12Z</time>
      </trkpt>
      <trkpt lat="45.25798" lon="6.04153">
        <ele>1872.3049316</ele>
        <time>2013-02-17T11:52:20Z</time>
      </trkpt>
      <trkpt lat="45.2577" lon="6.04101">
        <ele>1879.0339355</ele>
        <time>2013-02-17T11:52:31Z</time>
      </trkpt>
      <trkpt lat="45.25745" lon="6.04053">
        <ele>1889.6086426</ele>
        <time>2013-02-17T11:52:41Z</time>
      </trkpt>
      <trkpt lat="45.25723" lon="6.04014">
        <ele>1909.7961426</ele>
        <time>2013-02-17T11:52:50Z</time>
      </trkpt>
      <trkpt lat="45.25702" lon="6.03976">
        <ele>1932.3874512</ele>
        <time>2013-02-17T11:52:59Z</time>
      </trkpt>
      <trkpt lat="45.25687" lon="6.03947">
        <ele>1951.1330566</ele>
        <time>2013-02-17T11:53:06Z</time>
      </trkpt>
      <trkpt lat="45.25665" lon="6.03908">
        <ele>1978.5305176</ele>
        <time>2013-02-17T11:53:16Z</time>
      </trkpt>
      <trkpt lat="45.25647" lon="6.03872">
        <ele>2002.5634766</ele>
        <time>2013-02-17T11:53:25Z</time>
      </trkpt>
      <trkpt lat="45.25627" lon="6.0383">
        <ele>2036.2097168</ele>
        <time>2013-02-17T11:53:36Z</time>
      </trkpt>
      <trkpt lat="45.2561" lon="6.03798">
        <ele>2058.3198242</ele>
        <time>2013-02-17T11:53:44Z</time>
      </trkpt>
      <trkpt lat="45.25596" lon="6.03772">
        <ele>2071.7783203</ele>
        <time>2013-02-17T11:53:50Z</time>
      </trkpt>
      <trkpt lat="45.25581" lon="6.03743">
        <ele>2088.1208496</ele>
        <time>2013-02-17T11:53:57Z</time>
      </trkpt>
      <trkpt lat="45.25565" lon="6.03712">
        <ele>2102.5405273</ele>
        <time>2013-02-17T11:54:04Z</time>
      </trkpt>
      <trkpt lat="45.25552" lon="6.03688">
        <ele>2107.8278809</ele>
        <time>2013-02-17T11:54:09Z</time>
      </trkpt>
      <trkpt lat="45.25535" lon="6.03655">
        <ele>2115.5185547</ele>
        <time>2013-02-17T11:54:16Z</time>
      </trkpt>
      <trkpt lat="45.25515" lon="6.03618">
        <ele>2125.6123047</ele>
        <time>2013-02-17T11:54:24Z</time>
      </trkpt>
      <trkpt lat="45.25495" lon="6.0358">
        <ele>2135.2253418</ele>
        <time>2013-02-17T11:54:32Z</time>
      </trkpt>
      <trkpt lat="45.25478" lon="6.03547">
        <ele>2140.5126953</ele>
        <time>2013-02-17T11:54:39Z</time>
      </trkpt>
      <trkpt lat="45.25452" lon="6.03499">
        <ele>2150.1259766</ele>
        <time>2013-02-17T11:54:49Z</time>
      </trkpt>
      <trkpt lat="45.25428" lon="6.03454">
        <ele>2164.5456543</ele>
        <time>2013-02-17T11:54:59Z</time>
      </trkpt>
      <trkpt lat="45.25406" lon="6.03412">
        <ele>2188.0981445</ele>
        <time>2013-02-17T11:55:09Z</time>
      </trkpt>
      <trkpt lat="45.2538" lon="6.03362">
        <ele>2216.9375</ele>
        <time>2013-02-17T11:55:21Z</time>
      </trkpt>
      <trkpt lat="45.2536" lon="6.03325">
        <ele>2239.0478516</ele>
        <time>2013-02-17T11:55:30Z</time>
      </trkpt>
      <trkpt lat="45.25342" lon="6.03294">
        <ele>2252.9870605</ele>
        <time>2013-02-17T11:55:37Z</time>
      </trkpt>
      <trkpt lat="45.25335" lon="6.03285">
        <ele>2255.8708496</ele>
        <time>2013-02-17T11:55:40Z</time>
      </trkpt>
      <trkpt lat="45.25332" lon="6.0328">
        <ele>2255.3903809</ele>
        <time>2013-02-17T11:55:44Z</time>
      </trkpt>
      <trkpt lat="45.25324" lon="6.03272">
        <ele>2252.0256348</ele>
        <time>2013-02-17T11:55:52Z</time>
      </trkpt>
      <trkpt lat="45.25325" lon="6.0327">
        <ele>2248.6608887</ele>
        <time>2013-02-17T11:56:01Z</time>
      </trkpt>
      <trkpt lat="45.25325" lon="6.0327">
        <ele>2248.1801758</ele>
        <time>2013-02-17T11:56:08Z</time>
      </trkpt>
      <trkpt lat="45.25326" lon="6.0327">
        <ele>2247.2189941</ele>
        <time>2013-02-17T11:56:21Z</time>
      </trkpt>
      <trkpt lat="45.25322" lon="6.03274">
        <ele>2246.2578125</ele>
        <time>2013-02-17T11:56:28Z</time>
      </trkpt>
      <trkpt lat="45.2532" lon="6.03275">
        <ele>2246.2578125</ele>
        <time>2013-02-17T11:56:29Z</time>
      </trkpt>
      <trkpt lat="45.25304" lon="6.03281">
        <ele>2245.2963867</ele>
        <time>2013-02-17T11:56:35Z</time>
      </trkpt>
      <trkpt lat="45.25283" lon="6.03293">
        <ele>2243.8544922</ele>
        <time>2013-02-17T11:56:42Z</time>
      </trkpt>
      <trkpt lat="45.25271" lon="6.0331">
        <ele>2242.4125977</ele>
        <time>2013-02-17T11:56:47Z</time>
      </trkpt>
      <trkpt lat="45.25253" lon="6.03332">
        <ele>2239.5285645</ele>
        <time>2013-02-17T11:56:53Z</time>
      </trkpt>
      <trkpt lat="45.25244" lon="6.0334">
        <ele>2238.0866699</ele>
        <time>2013-02-17T11:56:55Z</time>
      </trkpt>
      <trkpt lat="45.25233" lon="6.03345">
        <ele>2235.6831055</ele>
        <time>2013-02-17T11:56:57Z</time>
      </trkpt>
      <trkpt lat="45.25215" lon="6.03353">
        <ele>2231.8378906</ele>
        <time>2013-02-17T11:57:00Z</time>
      </trkpt>
      <trkpt lat="45.25204" lon="6.0336">
        <ele>2228.9538574</ele>
        <time>2013-02-17T11:57:02Z</time>
      </trkpt>
      <trkpt lat="45.25205" lon="6.03367">
        <ele>2225.1086426</ele>
        <time>2013-02-17T11:57:05Z</time>
      </trkpt>
      <trkpt lat="45.25217" lon="6.03369">
        <ele>2222.2248535</ele>
        <time>2013-02-17T11:57:07Z</time>
      </trkpt>
      <trkpt lat="45.25251" lon="6.03377">
        <ele>2214.5341797</ele>
        <time>2013-02-17T11:57:12Z</time>
      </trkpt>
      <trkpt lat="45.25258" lon="6.03378">
        <ele>2213.0922852</ele>
        <time>2013-02-17T11:57:13Z</time>
      </trkpt>
      <trkpt lat="45.25289" lon="6.03383">
        <ele>2205.4018555</ele>
        <time>2013-02-17T11:57:17Z</time>
      </trkpt>
      <trkpt lat="45.2532" lon="6.03389">
        <ele>2198.6723633</ele>
        <time>2013-02-17T11:57:21Z</time>
      </trkpt>
      <trkpt lat="45.2535" lon="6.03395">
        <ele>2191.4626465</ele>
        <time>2013-02-17T11:57:25Z</time>
      </trkpt>
      <trkpt lat="45.25358" lon="6.03398">
        <ele>2189.5400391</ele>
        <time>2013-02-17T11:57:26Z</time>
      </trkpt>
      <trkpt lat="45.25376" lon="6.03401">
        <ele>2184.7333984</ele>
        <time>2013-02-17T11:57:28Z</time>
      </trkpt>
      <trkpt lat="45.25408" lon="6.03394">
        <ele>2175.6008301</ele>
        <time>2013-02-17T11:57:32Z</time>
      </trkpt>
      <trkpt lat="45.25426" lon="6.03369">
        <ele>2168.3908691</ele>
        <time>2013-02-17T11:57:35Z</time>
      </trkpt>
      <trkpt lat="45.25444" lon="6.03346">
        <ele>2161.6618652</ele>
        <time>2013-02-17T11:57:38Z</time>
      </trkpt>
      <trkpt lat="45.25463" lon="6.03338">
        <ele>2154.932373</ele>
        <time>2013-02-17T11:57:41Z</time>
      </trkpt>
      <trkpt lat="45.25465" lon="6.03338">
        <ele>2153.4904785</ele>
        <time>2013-02-17T11:57:42Z</time>
      </trkpt>
      <trkpt lat="45.25466" lon="6.0334">
        <ele>2152.5290527</ele>
        <time>2013-02-17T11:57:47Z</time>
      </trkpt>
      <trkpt lat="45.25462" lon="6.03342">
        <ele>2151.5678711</ele>
        <time>2013-02-17T11:58:23Z</time>
      </trkpt>
      <trkpt lat="45.25463" lon="6.03342">
        <ele>2151.0871582</ele>
        <time>2013-02-17T11:58:25Z</time>
      </trkpt>
      <trkpt lat="45.25481" lon="6.03341">
        <ele>2146.7612305</ele>
        <time>2013-02-17T11:58:29Z</time>
      </trkpt>
      <trkpt lat="45.25503" lon="6.03337">
        <ele>2140.9934082</ele>
        <time>2013-02-17T11:58:32Z</time>
      </trkpt>
      <trkpt lat="45.25513" lon="6.03326">
        <ele>2136.6672363</ele>
        <time>2013-02-17T11:58:34Z</time>
      </trkpt>
      <trkpt lat="45.25523" lon="6.0331">
        <ele>2132.3415527</ele>
        <time>2013-02-17T11:58:36Z</time>
      </trkpt>
      <trkpt lat="45.25541" lon="6.03278">
        <ele>2125.6123047</ele>
        <time>2013-02-17T11:58:39Z</time>
      </trkpt>
      <trkpt lat="45.25551" lon="6.03254">
        <ele>2121.7668457</ele>
        <time>2013-02-17T11:58:41Z</time>
      </trkpt>
      <trkpt lat="45.25566" lon="6.03222">
        <ele>2116.9604492</ele>
        <time>2013-02-17T11:58:44Z</time>
      </trkpt>
      <trkpt lat="45.25589" lon="6.03184">
        <ele>2109.7504883</ele>
        <time>2013-02-17T11:58:48Z</time>
      </trkpt>
      <trkpt lat="45.2561" lon="6.03168">
        <ele>2103.982666</ele>
        <time>2013-02-17T11:58:51Z</time>
      </trkpt>
      <trkpt lat="45.25618" lon="6.03169">
        <ele>2101.0986328</ele>
        <time>2013-02-17T11:58:52Z</time>
      </trkpt>
      <trkpt lat="45.25661" lon="6.03188">
        <ele>2087.1594238</ele>
        <time>2013-02-17T11:58:57Z</time>
      </trkpt>
      <trkpt lat="45.25704" lon="6.03191">
        <ele>2074.6623535</ele>
        <time>2013-02-17T11:59:02Z</time>
      </trkpt>
      <trkpt lat="45.2574" lon="6.03198">
        <ele>2066.010498</ele>
        <time>2013-02-17T11:59:06Z</time>
      </trkpt>
      <trkpt lat="45.25757" lon="6.03208">
        <ele>2061.6848145</ele>
        <time>2013-02-17T11:59:08Z</time>
      </trkpt>
      <trkpt lat="45.25765" lon="6.03215">
        <ele>2059.7617188</ele>
        <time>2013-02-17T11:59:09Z</time>
      </trkpt>
      <trkpt lat="45.25782" lon="6.03231">
        <ele>2056.8779297</ele>
        <time>2013-02-17T11:59:11Z</time>
      </trkpt>
      <trkpt lat="45.25808" lon="6.0328">
        <ele>2046.3037109</ele>
        <time>2013-02-17T11:59:15Z</time>
      </trkpt>
      <trkpt lat="45.25846" lon="6.03359">
        <ele>2033.3256836</ele>
        <time>2013-02-17T11:59:20Z</time>
      </trkpt>
      <trkpt lat="45.25882" lon="6.03431">
        <ele>2028.9997559</ele>
        <time>2013-02-17T11:59:25Z</time>
      </trkpt>
      <trkpt lat="45.259" lon="6.03467">
        <ele>2027.0771484</ele>
        <time>2013-02-17T11:59:28Z</time>
      </trkpt>
      <trkpt lat="45.25919" lon="6.03497">
        <ele>2024.1931152</ele>
        <time>2013-02-17T11:59:31Z</time>
      </trkpt>
      <trkpt lat="45.25943" lon="6.03536">
        <ele>2019.8671875</ele>
        <time>2013-02-17T11:59:35Z</time>
      </trkpt>
      <trkpt lat="45.25949" lon="6.03547">
        <ele>2018.9060059</ele>
        <time>2013-02-17T11:59:36Z</time>
      </trkpt>
      <trkpt lat="45.2598" lon="6.03597">
        <ele>2010.2539063</ele>
        <time>2013-02-17T11:59:41Z</time>
      </trkpt>
      <trkpt lat="45.25987" lon="6.03606">
        <ele>2008.8120117</ele>
        <time>2013-02-17T11:59:42Z</time>
      </trkpt>
      <trkpt lat="45.26024" lon="6.03649">
        <ele>2001.6022949</ele>
        <time>2013-02-17T11:59:47Z</time>
      </trkpt>
      <trkpt lat="45.26038" lon="6.03667">
        <ele>1998.2375488</ele>
        <time>2013-02-17T11:59:49Z</time>
      </trkpt>
      <trkpt lat="45.26054" lon="6.03717">
        <ele>1991.5083008</ele>
        <time>2013-02-17T11:59:53Z</time>
      </trkpt>
      <trkpt lat="45.26069" lon="6.03764">
        <ele>1986.2211914</ele>
        <time>2013-02-17T11:59:57Z</time>
      </trkpt>
      <trkpt lat="45.26087" lon="6.03795">
        <ele>1982.3759766</ele>
        <time>2013-02-17T12:00:00Z</time>
      </trkpt>
      <trkpt lat="45.26128" lon="6.03856">
        <ele>1973.723877</ele>
        <time>2013-02-17T12:00:06Z</time>
      </trkpt>
      <trkpt lat="45.26136" lon="6.03866">
        <ele>1972.2819824</ele>
        <time>2013-02-17T12:00:07Z</time>
      </trkpt>
      <trkpt lat="45.26188" lon="6.03919">
        <ele>1966.5141602</ele>
        <time>2013-02-17T12:00:14Z</time>
      </trkpt>
      <trkpt lat="45.2625" lon="6.03954">
        <ele>1960.7460938</ele>
        <time>2013-02-17T12:00:22Z</time>
      </trkpt>
      <trkpt lat="45.26286" lon="6.03981">
        <ele>1957.3815918</ele>
        <time>2013-02-17T12:00:27Z</time>
      </trkpt>
      <trkpt lat="45.26293" lon="6.03987">
        <ele>1956.420166</ele>
        <time>2013-02-17T12:00:28Z</time>
      </trkpt>
      <trkpt lat="45.26325" lon="6.04006">
        <ele>1951.1330566</ele>
        <time>2013-02-17T12:00:32Z</time>
      </trkpt>
      <trkpt lat="45.26362" lon="6.04">
        <ele>1943.9230957</ele>
        <time>2013-02-17T12:00:37Z</time>
      </trkpt>
      <trkpt lat="45.26374" lon="6.03992">
        <ele>1942.0004883</ele>
        <time>2013-02-17T12:00:40Z</time>
      </trkpt>
      <trkpt lat="45.26374" lon="6.03989">
        <ele>1941.5197754</ele>
        <time>2013-02-17T12:00:44Z</time>
      </trkpt>
      <trkpt lat="45.26374" lon="6.03988">
        <ele>1942.0004883</ele>
        <time>2013-02-17T12:00:57Z</time>
      </trkpt>
      <trkpt lat="45.26386" lon="6.03971">
        <ele>1940.5583496</ele>
        <time>2013-02-17T12:01:02Z</time>
      </trkpt>
      <trkpt lat="45.26399" lon="6.03942">
        <ele>1938.1552734</ele>
        <time>2013-02-17T12:01:06Z</time>
      </trkpt>
      <trkpt lat="45.26405" lon="6.0392">
        <ele>1938.1552734</ele>
        <time>2013-02-17T12:01:09Z</time>
      </trkpt>
      <trkpt lat="45.26413" lon="6.03902">
        <ele>1938.1552734</ele>
        <time>2013-02-17T12:01:13Z</time>
      </trkpt>
      <trkpt lat="45.26416" lon="6.03896">
        <ele>1938.1552734</ele>
        <time>2013-02-17T12:01:15Z</time>
      </trkpt>
      <trkpt lat="45.26419" lon="6.03887">
        <ele>1937.6745605</ele>
        <time>2013-02-17T12:01:18Z</time>
      </trkpt>
      <trkpt lat="45.26424" lon="6.03874">
        <ele>1937.1938477</ele>
        <time>2013-02-17T12:01:20Z</time>
      </trkpt>
      <trkpt lat="45.2643" lon="6.03867">
        <ele>1936.7131348</ele>
        <time>2013-02-17T12:01:22Z</time>
      </trkpt>
      <trkpt lat="45.26434" lon="6.03862">
        <ele>1936.232666</ele>
        <time>2013-02-17T12:01:23Z</time>
      </trkpt>
      <trkpt lat="45.26455" lon="6.03835">
        <ele>1935.7519531</ele>
        <time>2013-02-17T12:01:30Z</time>
      </trkpt>
      <trkpt lat="45.2646" lon="6.03827">
        <ele>1935.2712402</ele>
        <time>2013-02-17T12:01:36Z</time>
      </trkpt>
      <trkpt lat="45.26461" lon="6.03826">
        <ele>1936.232666</ele>
        <time>2013-02-17T12:01:44Z</time>
      </trkpt>
      <trkpt lat="45.26461" lon="6.03827">
        <ele>1935.7519531</ele>
        <time>2013-02-17T12:01:52Z</time>
      </trkpt>
      <trkpt lat="45.26462" lon="6.03824">
        <ele>1935.2712402</ele>
        <time>2013-02-17T12:02:00Z</time>
      </trkpt>
      <trkpt lat="45.26462" lon="6.03824">
        <ele>1935.2712402</ele>
        <time>2013-02-17T12:02:08Z</time>
      </trkpt>
      <trkpt lat="45.26462" lon="6.03822">
        <ele>1936.232666</ele>
        <time>2013-02-17T12:02:16Z</time>
      </trkpt>
      <trkpt lat="45.26465" lon="6.03822">
        <ele>1937.1938477</ele>
        <time>2013-02-17T12:02:36Z</time>
      </trkpt>
      <trkpt lat="45.26465" lon="6.03821">
        <ele>1936.7131348</ele>
        <time>2013-02-17T12:02:45Z</time>
      </trkpt>
      <trkpt lat="45.26465" lon="6.0382">
        <ele>1936.232666</ele>
        <time>2013-02-17T12:02:59Z</time>
      </trkpt>
      <trkpt lat="45.26465" lon="6.0382">
        <ele>1936.232666</ele>
        <time>2013-02-17T12:03:10Z</time>
      </trkpt>
      <trkpt lat="45.26466" lon="6.03819">
        <ele>1934.7907715</ele>
        <time>2013-02-17T12:03:21Z</time>
      </trkpt>
      <trkpt lat="45.26467" lon="6.03819">
        <ele>1935.2712402</ele>
        <time>2013-02-17T12:03:32Z</time>
      </trkpt>
      <trkpt lat="45.26467" lon="6.03817">
        <ele>1935.2712402</ele>
        <time>2013-02-17T12:03:57Z</time>
      </trkpt>
      <trkpt lat="45.26468" lon="6.03814">
        <ele>1936.232666</ele>
        <time>2013-02-17T12:04:29Z</time>
      </trkpt>
      <trkpt lat="45.26469" lon="6.03812">
        <ele>1937.6745605</ele>
        <time>2013-02-17T12:04:48Z</time>
      </trkpt>
      <trkpt lat="45.2647" lon="6.0381">
        <ele>1936.232666</ele>
        <time>2013-02-17T12:05:02Z</time>
      </trkpt>
      <trkpt lat="45.2647" lon="6.0381">
        <ele>1935.7519531</ele>
        <time>2013-02-17T12:05:09Z</time>
      </trkpt>
      <trkpt lat="45.26471" lon="6.03809">
        <ele>1934.7907715</ele>
        <time>2013-02-17T12:05:19Z</time>
      </trkpt>
      <trkpt lat="45.26471" lon="6.03807">
        <ele>1934.3100586</ele>
        <time>2013-02-17T12:05:34Z</time>
      </trkpt>
      <trkpt lat="45.26472" lon="6.03806">
        <ele>1932.3874512</ele>
        <time>2013-02-17T12:05:51Z</time>
      </trkpt>
      <trkpt lat="45.26474" lon="6.03805">
        <ele>1932.3874512</ele>
        <time>2013-02-17T12:06:04Z</time>
      </trkpt>
      <trkpt lat="45.26476" lon="6.03804">
        <ele>1931.9064941</ele>
        <time>2013-02-17T12:06:14Z</time>
      </trkpt>
      <trkpt lat="45.26477" lon="6.03802">
        <ele>1931.9064941</ele>
        <time>2013-02-17T12:06:25Z</time>
      </trkpt>
      <trkpt lat="45.26478" lon="6.03801">
        <ele>1931.9064941</ele>
        <time>2013-02-17T12:06:35Z</time>
      </trkpt>
      <trkpt lat="45.26479" lon="6.038">
        <ele>1932.8679199</ele>
        <time>2013-02-17T12:06:45Z</time>
      </trkpt>
      <trkpt lat="45.2648" lon="6.038">
        <ele>1933.8293457</ele>
        <time>2013-02-17T12:07:03Z</time>
      </trkpt>
      <trkpt lat="45.26481" lon="6.03801">
        <ele>1933.8293457</ele>
        <time>2013-02-17T12:07:08Z</time>
      </trkpt>
      <trkpt lat="45.26482" lon="6.03801">
        <ele>1933.8293457</ele>
        <time>2013-02-17T12:07:10Z</time>
      </trkpt>
      <trkpt lat="45.26492" lon="6.03797">
        <ele>1935.7519531</ele>
        <time>2013-02-17T12:07:14Z</time>
      </trkpt>
      <trkpt lat="45.2651" lon="6.03789">
        <ele>1942.0004883</ele>
        <time>2013-02-17T12:07:21Z</time>
      </trkpt>
      <trkpt lat="45.2653" lon="6.03781">
        <ele>1952.0942383</ele>
        <time>2013-02-17T12:07:29Z</time>
      </trkpt>
      <trkpt lat="45.26556" lon="6.0377">
        <ele>1963.6298828</ele>
        <time>2013-02-17T12:07:39Z</time>
      </trkpt>
      <trkpt lat="45.2658" lon="6.0376">
        <ele>1974.2045898</ele>
        <time>2013-02-17T12:07:49Z</time>
      </trkpt>
      <trkpt lat="45.26611" lon="6.03747">
        <ele>1986.2211914</ele>
        <time>2013-02-17T12:08:01Z</time>
      </trkpt>
      <trkpt lat="45.26639" lon="6.03736">
        <ele>1998.2375488</ele>
        <time>2013-02-17T12:08:12Z</time>
      </trkpt>
      <trkpt lat="45.2667" lon="6.03724">
        <ele>2015.060791</ele>
        <time>2013-02-17T12:08:25Z</time>
      </trkpt>
      <trkpt lat="45.26694" lon="6.03714">
        <ele>2027.5576172</ele>
        <time>2013-02-17T12:08:35Z</time>
      </trkpt>
      <trkpt lat="45.26718" lon="6.03704">
        <ele>2039.0935059</ele>
        <time>2013-02-17T12:08:45Z</time>
      </trkpt>
      <trkpt lat="45.26742" lon="6.03694">
        <ele>2051.5908203</ele>
        <time>2013-02-17T12:08:55Z</time>
      </trkpt>
      <trkpt lat="45.26761" lon="6.03686">
        <ele>2057.8393555</ele>
        <time>2013-02-17T12:09:03Z</time>
      </trkpt>
      <trkpt lat="45.26772" lon="6.03674">
        <ele>2058.3198242</ele>
        <time>2013-02-17T12:09:08Z</time>
      </trkpt>
      <trkpt lat="45.26784" lon="6.03663">
        <ele>2058.3198242</ele>
        <time>2013-02-17T12:09:13Z</time>
      </trkpt>
      <trkpt lat="45.26806" lon="6.03652">
        <ele>2057.3586426</ele>
        <time>2013-02-17T12:09:22Z</time>
      </trkpt>
      <trkpt lat="45.26811" lon="6.03648">
        <ele>2056.8779297</ele>
        <time>2013-02-17T12:09:24Z</time>
      </trkpt>
      <trkpt lat="45.26812" lon="6.03641">
        <ele>2056.3972168</ele>
        <time>2013-02-17T12:09:29Z</time>
      </trkpt>
      <trkpt lat="45.26814" lon="6.03641">
        <ele>2055.4360352</ele>
        <time>2013-02-17T12:09:35Z</time>
      </trkpt>
      <trkpt lat="45.26817" lon="6.03636">
        <ele>2054.9553223</ele>
        <time>2013-02-17T12:09:39Z</time>
      </trkpt>
      <trkpt lat="45.26817" lon="6.03638">
        <ele>2054.9553223</ele>
        <time>2013-02-17T12:09:47Z</time>
      </trkpt>
      <trkpt lat="45.26817" lon="6.03638">
        <ele>2054.9553223</ele>
        <time>2013-02-17T12:10:06Z</time>
      </trkpt>
      <trkpt lat="45.26818" lon="6.03638">
        <ele>2054.4746094</ele>
        <time>2013-02-17T12:10:12Z</time>
      </trkpt>
      <trkpt lat="45.26835" lon="6.03631">
        <ele>2051.5908203</ele>
        <time>2013-02-17T12:10:17Z</time>
      </trkpt>
      <trkpt lat="45.26842" lon="6.03631">
        <ele>2050.1489258</ele>
        <time>2013-02-17T12:10:18Z</time>
      </trkpt>
      <trkpt lat="45.26866" lon="6.03627">
        <ele>2045.822998</ele>
        <time>2013-02-17T12:10:21Z</time>
      </trkpt>
      <trkpt lat="45.26902" lon="6.03623">
        <ele>2036.2097168</ele>
        <time>2013-02-17T12:10:25Z</time>
      </trkpt>
      <trkpt lat="45.26919" lon="6.03623">
        <ele>2031.8837891</ele>
        <time>2013-02-17T12:10:27Z</time>
      </trkpt>
      <trkpt lat="45.26961" lon="6.03615">
        <ele>2021.309082</ele>
        <time>2013-02-17T12:10:32Z</time>
      </trkpt>
      <trkpt lat="45.26969" lon="6.03614">
        <ele>2019.3867188</ele>
        <time>2013-02-17T12:10:33Z</time>
      </trkpt>
      <trkpt lat="45.27012" lon="6.03602">
        <ele>2008.8120117</ele>
        <time>2013-02-17T12:10:38Z</time>
      </trkpt>
      <trkpt lat="45.27039" lon="6.03595">
        <ele>2001.121582</ele>
        <time>2013-02-17T12:10:41Z</time>
      </trkpt>
      <trkpt lat="45.27079" lon="6.03584">
        <ele>1987.6630859</ele>
        <time>2013-02-17T12:10:45Z</time>
      </trkpt>
      <trkpt lat="45.27114" lon="6.03576">
        <ele>1979.0109863</ele>
        <time>2013-02-17T12:10:48Z</time>
      </trkpt>
      <trkpt lat="45.27126" lon="6.03575">
        <ele>1976.6079102</ele>
        <time>2013-02-17T12:10:49Z</time>
      </trkpt>
      <trkpt lat="45.27159" lon="6.03566">
        <ele>1970.359375</ele>
        <time>2013-02-17T12:10:52Z</time>
      </trkpt>
      <trkpt lat="45.27214" lon="6.03562">
        <ele>1963.6298828</ele>
        <time>2013-02-17T12:10:57Z</time>
      </trkpt>
      <trkpt lat="45.2725" lon="6.03581">
        <ele>1959.784668</ele>
        <time>2013-02-17T12:11:01Z</time>
      </trkpt>
      <trkpt lat="45.27264" lon="6.03609">
        <ele>1957.8623047</ele>
        <time>2013-02-17T12:11:04Z</time>
      </trkpt>
      <trkpt lat="45.2727" lon="6.03631">
        <ele>1955.9394531</ele>
        <time>2013-02-17T12:11:06Z</time>
      </trkpt>
      <trkpt lat="45.27283" lon="6.03711">
        <ele>1948.7297363</ele>
        <time>2013-02-17T12:11:13Z</time>
      </trkpt>
      <trkpt lat="45.27296" lon="6.03765">
        <ele>1940.5583496</ele>
        <time>2013-02-17T12:11:17Z</time>
      </trkpt>
      <trkpt lat="45.273" lon="6.03779">
        <ele>1938.1552734</ele>
        <time>2013-02-17T12:11:18Z</time>
      </trkpt>
      <trkpt lat="45.27324" lon="6.03825">
        <ele>1934.7907715</ele>
        <time>2013-02-17T12:11:22Z</time>
      </trkpt>
      <trkpt lat="45.27336" lon="6.03841">
        <ele>1934.3100586</ele>
        <time>2013-02-17T12:11:24Z</time>
      </trkpt>
      <trkpt lat="45.27355" lon="6.03871">
        <ele>1932.3874512</ele>
        <time>2013-02-17T12:11:28Z</time>
      </trkpt>
      <trkpt lat="45.27379" lon="6.03917">
        <ele>1926.6193848</ele>
        <time>2013-02-17T12:11:33Z</time>
      </trkpt>
      <trkpt lat="45.27409" lon="6.03976">
        <ele>1918.9289551</ele>
        <time>2013-02-17T12:11:38Z</time>
      </trkpt>
      <trkpt lat="45.27444" lon="6.04031">
        <ele>1913.6413574</ele>
        <time>2013-02-17T12:11:43Z</time>
      </trkpt>
      <trkpt lat="45.27476" lon="6.04059">
        <ele>1909.3156738</ele>
        <time>2013-02-17T12:11:47Z</time>
      </trkpt>
      <trkpt lat="45.27507" lon="6.04076">
        <ele>1904.5090332</ele>
        <time>2013-02-17T12:11:51Z</time>
      </trkpt>
      <trkpt lat="45.27526" lon="6.04095">
        <ele>1900.6638184</ele>
        <time>2013-02-17T12:11:54Z</time>
      </trkpt>
      <trkpt lat="45.27534" lon="6.04111">
        <ele>1898.7409668</ele>
        <time>2013-02-17T12:11:57Z</time>
      </trkpt>
      <trkpt lat="45.27534" lon="6.04115">
        <ele>1898.7409668</ele>
        <time>2013-02-17T12:12:01Z</time>
      </trkpt>
      <trkpt lat="45.27534" lon="6.04114">
        <ele>1898.7409668</ele>
        <time>2013-02-17T12:12:07Z</time>
      </trkpt>
      <trkpt lat="45.27534" lon="6.04114">
        <ele>1899.2216797</ele>
        <time>2013-02-17T12:12:15Z</time>
      </trkpt>
      <trkpt lat="45.27534" lon="6.04115">
        <ele>1898.7409668</ele>
        <time>2013-02-17T12:12:16Z</time>
      </trkpt>
      <trkpt lat="45.27523" lon="6.04143">
        <ele>1895.3764648</ele>
        <time>2013-02-17T12:12:20Z</time>
      </trkpt>
      <trkpt lat="45.27503" lon="6.04192">
        <ele>1885.2827148</ele>
        <time>2013-02-17T12:12:24Z</time>
      </trkpt>
      <trkpt lat="45.27483" lon="6.04193">
        <ele>1880.9567871</ele>
        <time>2013-02-17T12:12:26Z</time>
      </trkpt>
      <trkpt lat="45.27456" lon="6.04182">
        <ele>1875.6694336</ele>
        <time>2013-02-17T12:12:29Z</time>
      </trkpt>
      <trkpt lat="45.27433" lon="6.04182">
        <ele>1869.9016113</ele>
        <time>2013-02-17T12:12:32Z</time>
      </trkpt>
      <trkpt lat="45.27427" lon="6.0421">
        <ele>1864.1335449</ele>
        <time>2013-02-17T12:12:34Z</time>
      </trkpt>
      <trkpt lat="45.27406" lon="6.04267">
        <ele>1853.5593262</ele>
        <time>2013-02-17T12:12:38Z</time>
      </trkpt>
      <trkpt lat="45.27388" lon="6.04265">
        <ele>1851.1557617</ele>
        <time>2013-02-17T12:12:40Z</time>
      </trkpt>
      <trkpt lat="45.27372" lon="6.04258">
        <ele>1848.7524414</ele>
        <time>2013-02-17T12:12:42Z</time>
      </trkpt>
      <trkpt lat="45.27333" lon="6.04251">
        <ele>1842.0234375</ele>
        <time>2013-02-17T12:12:46Z</time>
      </trkpt>
      <trkpt lat="45.27323" lon="6.04249">
        <ele>1840.1008301</ele>
        <time>2013-02-17T12:12:47Z</time>
      </trkpt>
      <trkpt lat="45.27314" lon="6.04274">
        <ele>1838.1782227</ele>
        <time>2013-02-17T12:12:50Z</time>
      </trkpt>
      <trkpt lat="45.2733" lon="6.04306">
        <ele>1833.8520508</ele>
        <time>2013-02-17T12:12:53Z</time>
      </trkpt>
      <trkpt lat="45.27349" lon="6.04348">
        <ele>1828.5649414</ele>
        <time>2013-02-17T12:12:56Z</time>
      </trkpt>
      <trkpt lat="45.27373" lon="6.04396">
        <ele>1821.3549805</ele>
        <time>2013-02-17T12:12:59Z</time>
      </trkpt>
      <trkpt lat="45.27381" lon="6.04408">
        <ele>1819.432373</ele>
        <time>2013-02-17T12:13:00Z</time>
      </trkpt>
      <trkpt lat="45.27414" lon="6.04413">
        <ele>1815.5871582</ele>
        <time>2013-02-17T12:13:03Z</time>
      </trkpt>
      <trkpt lat="45.27428" lon="6.0443">
        <ele>1812.703125</ele>
        <time>2013-02-17T12:13:05Z</time>
      </trkpt>
      <trkpt lat="45.27444" lon="6.04466">
        <ele>1806.9353027</ele>
        <time>2013-02-17T12:13:08Z</time>
      </trkpt>
      <trkpt lat="45.27452" lon="6.04476">
        <ele>1805.0126953</ele>
        <time>2013-02-17T12:13:09Z</time>
      </trkpt>
      <trkpt lat="45.27484" lon="6.04504">
        <ele>1802.128418</ele>
        <time>2013-02-17T12:13:13Z</time>
      </trkpt>
      <trkpt lat="45.27497" lon="6.04532">
        <ele>1800.6865234</ele>
        <time>2013-02-17T12:13:16Z</time>
      </trkpt>
      <trkpt lat="45.27488" lon="6.04559">
        <ele>1798.2832031</ele>
        <time>2013-02-17T12:13:18Z</time>
      </trkpt>
      <trkpt lat="45.2747" lon="6.04563">
        <ele>1793.9575195</ele>
        <time>2013-02-17T12:13:20Z</time>
      </trkpt>
      <trkpt lat="45.27455" lon="6.04573">
        <ele>1789.6315918</ele>
        <time>2013-02-17T12:13:22Z</time>
      </trkpt>
      <trkpt lat="45.27459" lon="6.04594">
        <ele>1785.3054199</ele>
        <time>2013-02-17T12:13:24Z</time>
      </trkpt>
      <trkpt lat="45.27476" lon="6.0461">
        <ele>1780.9797363</ele>
        <time>2013-02-17T12:13:26Z</time>
      </trkpt>
      <trkpt lat="45.27514" lon="6.04644">
        <ele>1774.2504883</ele>
        <time>2013-02-17T12:13:30Z</time>
      </trkpt>
      <trkpt lat="45.27539" lon="6.04672">
        <ele>1768.9631348</ele>
        <time>2013-02-17T12:13:33Z</time>
      </trkpt>
      <trkpt lat="45.27578" lon="6.04711">
        <ele>1763.6757813</ele>
        <time>2013-02-17T12:13:38Z</time>
      </trkpt>
      <trkpt lat="45.27585" lon="6.04719">
        <ele>1762.7145996</ele>
        <time>2013-02-17T12:13:39Z</time>
      </trkpt>
      <trkpt lat="45.27631" lon="6.04761">
        <ele>1755.9851074</ele>
        <time>2013-02-17T12:13:45Z</time>
      </trkpt>
      <trkpt lat="45.27666" lon="6.04802">
        <ele>1749.7368164</ele>
        <time>2013-02-17T12:13:49Z</time>
      </trkpt>
      <trkpt lat="45.27674" lon="6.04814">
        <ele>1748.2946777</ele>
        <time>2013-02-17T12:13:50Z</time>
      </trkpt>
      <trkpt lat="45.27703" lon="6.04863">
        <ele>1748.2946777</ele>
        <time>2013-02-17T12:13:55Z</time>
      </trkpt>
      <trkpt lat="45.27725" lon="6.04893">
        <ele>1743.0075684</ele>
        <time>2013-02-17T12:13:58Z</time>
      </trkpt>
      <trkpt lat="45.27742" lon="6.04916">
        <ele>1739.1621094</ele>
        <time>2013-02-17T12:14:00Z</time>
      </trkpt>
      <trkpt lat="45.27744" lon="6.04949">
        <ele>1733.3942871</ele>
        <time>2013-02-17T12:14:03Z</time>
      </trkpt>
      <trkpt lat="45.27727" lon="6.04958">
        <ele>1730.0297852</ele>
        <time>2013-02-17T12:14:05Z</time>
      </trkpt>
      <trkpt lat="45.27699" lon="6.04966">
        <ele>1724.2619629</ele>
        <time>2013-02-17T12:14:08Z</time>
      </trkpt>
      <trkpt lat="45.27689" lon="6.04966">
        <ele>1722.3391113</ele>
        <time>2013-02-17T12:14:09Z</time>
      </trkpt>
      <trkpt lat="45.27644" lon="6.04957">
        <ele>1715.1293945</ele>
        <time>2013-02-17T12:14:14Z</time>
      </trkpt>
      <trkpt lat="45.27599" lon="6.04934">
        <ele>1707.4387207</ele>
        <time>2013-02-17T12:14:19Z</time>
      </trkpt>
      <trkpt lat="45.27538" lon="6.04904">
        <ele>1700.2290039</ele>
        <time>2013-02-17T12:14:25Z</time>
      </trkpt>
      <trkpt lat="45.27468" lon="6.04889">
        <ele>1689.173584</ele>
        <time>2013-02-17T12:14:31Z</time>
      </trkpt>
      <trkpt lat="45.27456" lon="6.04888">
        <ele>1687.2509766</ele>
        <time>2013-02-17T12:14:32Z</time>
      </trkpt>
      <trkpt lat="45.27357" lon="6.04878">
        <ele>1672.3505859</ele>
        <time>2013-02-17T12:14:40Z</time>
      </trkpt>
      <trkpt lat="45.27312" lon="6.04879">
        <ele>1666.5827637</ele>
        <time>2013-02-17T12:14:44Z</time>
      </trkpt>
      <trkpt lat="45.2728" lon="6.04868">
        <ele>1661.7763672</ele>
        <time>2013-02-17T12:14:47Z</time>
      </trkpt>
      <trkpt lat="45.27248" lon="6.04859">
        <ele>1657.4501953</ele>
        <time>2013-02-17T12:14:50Z</time>
      </trkpt>
      <trkpt lat="45.27227" lon="6.04854">
        <ele>1654.0856934</ele>
        <time>2013-02-17T12:14:52Z</time>
      </trkpt>
      <trkpt lat="45.27186" lon="6.04853">
        <ele>1648.7983398</ele>
        <time>2013-02-17T12:14:56Z</time>
      </trkpt>
      <trkpt lat="45.27155" lon="6.0485">
        <ele>1645.4338379</ele>
        <time>2013-02-17T12:14:59Z</time>
      </trkpt>
      <trkpt lat="45.27127" lon="6.04841">
        <ele>1642.5498047</ele>
        <time>2013-02-17T12:15:02Z</time>
      </trkpt>
      <trkpt lat="45.27096" lon="6.04817">
        <ele>1640.6269531</ele>
        <time>2013-02-17T12:15:06Z</time>
      </trkpt>
      <trkpt lat="45.27089" lon="6.0481">
        <ele>1639.6657715</ele>
        <time>2013-02-17T12:15:07Z</time>
      </trkpt>
      <trkpt lat="45.27074" lon="6.04799">
        <ele>1638.223877</ele>
        <time>2013-02-17T12:15:09Z</time>
      </trkpt>
      <trkpt lat="45.27048" lon="6.04768">
        <ele>1632.9365234</ele>
        <time>2013-02-17T12:15:13Z</time>
      </trkpt>
      <trkpt lat="45.27021" lon="6.04755">
        <ele>1628.6108398</ele>
        <time>2013-02-17T12:15:16Z</time>
      </trkpt>
      <trkpt lat="45.27001" lon="6.04766">
        <ele>1625.7265625</ele>
        <time>2013-02-17T12:15:19Z</time>
      </trkpt>
      <trkpt lat="45.26993" lon="6.04768">
        <ele>1624.7653809</ele>
        <time>2013-02-17T12:15:22Z</time>
      </trkpt>
      <trkpt lat="45.26993" lon="6.04768">
        <ele>1625.7265625</ele>
        <time>2013-02-17T12:15:26Z</time>
      </trkpt>
      <trkpt lat="45.26988" lon="6.04779">
        <ele>1624.7653809</ele>
        <time>2013-02-17T12:15:31Z</time>
      </trkpt>
      <trkpt lat="45.26976" lon="6.04795">
        <ele>1624.284668</ele>
        <time>2013-02-17T12:15:35Z</time>
      </trkpt>
      <trkpt lat="45.2697" lon="6.04801">
        <ele>1624.284668</ele>
        <time>2013-02-17T12:15:39Z</time>
      </trkpt>
      <trkpt lat="45.26969" lon="6.04804">
        <ele>1623.8039551</ele>
        <time>2013-02-17T12:15:43Z</time>
      </trkpt>
      <trkpt lat="45.26967" lon="6.04807">
        <ele>1624.284668</ele>
        <time>2013-02-17T12:15:50Z</time>
      </trkpt>
      <trkpt lat="45.26967" lon="6.04807">
        <ele>1624.284668</ele>
        <time>2013-02-17T12:15:54Z</time>
      </trkpt>
      <trkpt lat="45.26968" lon="6.04807">
        <ele>1624.7653809</ele>
        <time>2013-02-17T12:16:03Z</time>
      </trkpt>
      <trkpt lat="45.26967" lon="6.04809">
        <ele>1624.284668</ele>
        <time>2013-02-17T12:16:16Z</time>
      </trkpt>
      <trkpt lat="45.26967" lon="6.04811">
        <ele>1624.284668</ele>
        <time>2013-02-17T12:16:17Z</time>
      </trkpt>
      <trkpt lat="45.26972" lon="6.04834">
        <ele>1619.9587402</ele>
        <time>2013-02-17T12:16:21Z</time>
      </trkpt>
      <trkpt lat="45.2698" lon="6.0485">
        <ele>1615.6330566</ele>
        <time>2013-02-17T12:16:23Z</time>
      </trkpt>
      <trkpt lat="45.26998" lon="6.04878">
        <ele>1606.0195313</ele>
        <time>2013-02-17T12:16:26Z</time>
      </trkpt>
      <trkpt lat="45.27017" lon="6.04915">
        <ele>1596.887207</ele>
        <time>2013-02-17T12:16:29Z</time>
      </trkpt>
      <trkpt lat="45.2703" lon="6.04955">
        <ele>1587.2739258</ele>
        <time>2013-02-17T12:16:32Z</time>
      </trkpt>
      <trkpt lat="45.27036" lon="6.04984">
        <ele>1581.0256348</ele>
        <time>2013-02-17T12:16:34Z</time>
      </trkpt>
      <trkpt lat="45.27045" lon="6.05029">
        <ele>1571.8928223</ele>
        <time>2013-02-17T12:16:37Z</time>
      </trkpt>
      <trkpt lat="45.27048" lon="6.05073">
        <ele>1563.2409668</ele>
        <time>2013-02-17T12:16:40Z</time>
      </trkpt>
      <trkpt lat="45.27048" lon="6.05098">
        <ele>1558.4343262</ele>
        <time>2013-02-17T12:16:42Z</time>
      </trkpt>
      <trkpt lat="45.2705" lon="6.05127">
        <ele>1550.7438965</ele>
        <time>2013-02-17T12:16:45Z</time>
      </trkpt>
      <trkpt lat="45.27053" lon="6.05151">
        <ele>1543.5339355</ele>
        <time>2013-02-17T12:16:48Z</time>
      </trkpt>
      <trkpt lat="45.27062" lon="6.05175">
        <ele>1535.8435059</ele>
        <time>2013-02-17T12:16:51Z</time>
      </trkpt>
      <trkpt lat="45.27073" lon="6.05191">
        <ele>1530.0754395</ele>
        <time>2013-02-17T12:16:54Z</time>
      </trkpt>
      <trkpt lat="45.27087" lon="6.05206">
        <ele>1524.7883301</ele>
        <time>2013-02-17T12:16:57Z</time>
      </trkpt>
      <trkpt lat="45.27096" lon="6.05224">
        <ele>1519.9816895</ele>
        <time>2013-02-17T12:16:59Z</time>
      </trkpt>
      <trkpt lat="45.27128" lon="6.05285">
        <ele>1505.0812988</ele>
        <time>2013-02-17T12:17:04Z</time>
      </trkpt>
      <trkpt lat="45.27138" lon="6.05311">
        <ele>1499.3132324</ele>
        <time>2013-02-17T12:17:06Z</time>
      </trkpt>
      <trkpt lat="45.27135" lon="6.05356">
        <ele>1488.2583008</ele>
        <time>2013-02-17T12:17:09Z</time>
      </trkpt>
      <trkpt lat="45.27132" lon="6.05373">
        <ele>1484.4130859</ele>
        <time>2013-02-17T12:17:10Z</time>
      </trkpt>
      <trkpt lat="45.27117" lon="6.05427">
        <ele>1472.8771973</ele>
        <time>2013-02-17T12:17:13Z</time>
      </trkpt>
      <trkpt lat="45.27098" lon="6.05483">
        <ele>1460.3798828</ele>
        <time>2013-02-17T12:17:17Z</time>
      </trkpt>
      <trkpt lat="45.2709" lon="6.0548">
        <ele>1457.4960938</ele>
        <time>2013-02-17T12:17:19Z</time>
      </trkpt>
      <trkpt lat="45.27091" lon="6.05476">
        <ele>1457.4960938</ele>
        <time>2013-02-17T12:17:22Z</time>
      </trkpt>
      <trkpt lat="45.27089" lon="6.05475">
        <ele>1458.4572754</ele>
        <time>2013-02-17T12:17:28Z</time>
      </trkpt>
      <trkpt lat="45.27086" lon="6.05474">
        <ele>1459.8991699</ele>
        <time>2013-02-17T12:17:35Z</time>
      </trkpt>
      <trkpt lat="45.27086" lon="6.05475">
        <ele>1460.8605957</ele>
        <time>2013-02-17T12:17:43Z</time>
      </trkpt>
      <trkpt lat="45.27084" lon="6.05474">
        <ele>1460.8605957</ele>
        <time>2013-02-17T12:17:48Z</time>
      </trkpt>
      <trkpt lat="45.27083" lon="6.05474">
        <ele>1461.8220215</ele>
        <time>2013-02-17T12:17:56Z</time>
      </trkpt>
      <trkpt lat="45.27082" lon="6.05474">
        <ele>1462.3024902</ele>
        <time>2013-02-17T12:18:04Z</time>
      </trkpt>
      <trkpt lat="45.27081" lon="6.05473">
        <ele>1461.8220215</ele>
        <time>2013-02-17T12:18:13Z</time>
      </trkpt>
      <trkpt lat="45.27079" lon="6.05472">
        <ele>1461.8220215</ele>
        <time>2013-02-17T12:18:21Z</time>
      </trkpt>
      <trkpt lat="45.27078" lon="6.05471">
        <ele>1461.8220215</ele>
        <time>2013-02-17T12:18:28Z</time>
      </trkpt>
      <trkpt lat="45.27077" lon="6.0547">
        <ele>1461.8220215</ele>
        <time>2013-02-17T12:18:38Z</time>
      </trkpt>
      <trkpt lat="45.27075" lon="6.0547">
        <ele>1461.8220215</ele>
        <time>2013-02-17T12:18:46Z</time>
      </trkpt>
      <trkpt lat="45.27073" lon="6.0547">
        <ele>1462.3024902</ele>
        <time>2013-02-17T12:18:57Z</time>
      </trkpt>
      <trkpt lat="45.27072" lon="6.05468">
        <ele>1462.3024902</ele>
        <time>2013-02-17T12:19:03Z</time>
      </trkpt>
      <trkpt lat="45.27072" lon="6.05468">
        <ele>1462.3024902</ele>
        <time>2013-02-17T12:19:12Z</time>
      </trkpt>
      <trkpt lat="45.27071" lon="6.05465">
        <ele>1462.3024902</ele>
        <time>2013-02-17T12:19:20Z</time>
      </trkpt>
      <trkpt lat="45.2707" lon="6.05463">
        <ele>1461.8220215</ele>
        <time>2013-02-17T12:19:26Z</time>
      </trkpt>
      <trkpt lat="45.27068" lon="6.05459">
        <ele>1460.8605957</ele>
        <time>2013-02-17T12:19:32Z</time>
      </trkpt>
      <trkpt lat="45.27065" lon="6.05454">
        <ele>1457.4960938</ele>
        <time>2013-02-17T12:19:39Z</time>
      </trkpt>
      <trkpt lat="45.27064" lon="6.05449">
        <ele>1457.4960938</ele>
        <time>2013-02-17T12:19:41Z</time>
      </trkpt>
      <trkpt lat="45.27053" lon="6.05419">
        <ele>1460.8605957</ele>
        <time>2013-02-17T12:19:46Z</time>
      </trkpt>
      <trkpt lat="45.27044" lon="6.05399">
        <ele>1466.628418</ele>
        <time>2013-02-17T12:19:50Z</time>
      </trkpt>
      <trkpt lat="45.27033" lon="6.05373">
        <ele>1473.3579102</ele>
        <time>2013-02-17T12:19:55Z</time>
      </trkpt>
      <trkpt lat="45.2702" lon="6.05342">
        <ele>1483.451416</ele>
        <time>2013-02-17T12:20:01Z</time>
      </trkpt>
      <trkpt lat="45.27007" lon="6.0531">
        <ele>1490.661377</ele>
        <time>2013-02-17T12:20:07Z</time>
      </trkpt>
      <trkpt lat="45.26992" lon="6.05272">
        <ele>1500.7553711</ele>
        <time>2013-02-17T12:20:14Z</time>
      </trkpt>
      <trkpt lat="45.26977" lon="6.05235">
        <ele>1510.8491211</ele>
        <time>2013-02-17T12:20:21Z</time>
      </trkpt>
      <trkpt lat="45.26965" lon="6.05204">
        <ele>1519.9816895</ele>
        <time>2013-02-17T12:20:27Z</time>
      </trkpt>
      <trkpt lat="45.26947" lon="6.05159">
        <ele>1538.7275391</ele>
        <time>2013-02-17T12:20:36Z</time>
      </trkpt>
      <trkpt lat="45.26928" lon="6.05114">
        <ele>1556.9924316</ele>
        <time>2013-02-17T12:20:45Z</time>
      </trkpt>
      <trkpt lat="45.26913" lon="6.0508">
        <ele>1572.854248</ele>
        <time>2013-02-17T12:20:52Z</time>
      </trkpt>
      <trkpt lat="45.26901" lon="6.05048">
        <ele>1580.5449219</ele>
        <time>2013-02-17T12:20:58Z</time>
      </trkpt>
      <trkpt lat="45.26885" lon="6.05011">
        <ele>1588.7160645</ele>
        <time>2013-02-17T12:21:05Z</time>
      </trkpt>
      <trkpt lat="45.26866" lon="6.04963">
        <ele>1599.7712402</ele>
        <time>2013-02-17T12:21:14Z</time>
      </trkpt>
      <trkpt lat="45.26839" lon="6.04899">
        <ele>1612.2683105</ele>
        <time>2013-02-17T12:21:26Z</time>
      </trkpt>
      <trkpt lat="45.26819" lon="6.04849">
        <ele>1629.5720215</ele>
        <time>2013-02-17T12:21:36Z</time>
      </trkpt>
      <trkpt lat="45.26797" lon="6.04796">
        <ele>1655.046875</ele>
        <time>2013-02-17T12:21:47Z</time>
      </trkpt>
      <trkpt lat="45.26783" lon="6.0476">
        <ele>1669.4667969</ele>
        <time>2013-02-17T12:21:54Z</time>
      </trkpt>
      <trkpt lat="45.26764" lon="6.04716">
        <ele>1689.6542969</ele>
        <time>2013-02-17T12:22:03Z</time>
      </trkpt>
      <trkpt lat="45.26747" lon="6.04672">
        <ele>1711.7648926</ele>
        <time>2013-02-17T12:22:12Z</time>
      </trkpt>
      <trkpt lat="45.26731" lon="6.04634">
        <ele>1730.9912109</ele>
        <time>2013-02-17T12:22:20Z</time>
      </trkpt>
      <trkpt lat="45.26718" lon="6.04601">
        <ele>1745.4108887</ele>
        <time>2013-02-17T12:22:27Z</time>
      </trkpt>
      <trkpt lat="45.2671" lon="6.04581">
        <ele>1754.5432129</ele>
        <time>2013-02-17T12:22:34Z</time>
      </trkpt>
      <trkpt lat="45.26707" lon="6.04574">
        <ele>1758.8693848</ele>
        <time>2013-02-17T12:22:41Z</time>
      </trkpt>
      <trkpt lat="45.26702" lon="6.04561">
        <ele>1764.637207</ele>
        <time>2013-02-17T12:22:49Z</time>
      </trkpt>
      <trkpt lat="45.26696" lon="6.04547">
        <ele>1768.001709</ele>
        <time>2013-02-17T12:22:54Z</time>
      </trkpt>
      <trkpt lat="45.26685" lon="6.0452">
        <ele>1775.2116699</ele>
        <time>2013-02-17T12:23:01Z</time>
      </trkpt>
      <trkpt lat="45.26665" lon="6.0447">
        <ele>1791.5541992</ele>
        <time>2013-02-17T12:23:11Z</time>
      </trkpt>
      <trkpt lat="45.2665" lon="6.04433">
        <ele>1803.5705566</ele>
        <time>2013-02-17T12:23:18Z</time>
      </trkpt>
      <trkpt lat="45.26632" lon="6.04386">
        <ele>1816.067627</ele>
        <time>2013-02-17T12:23:27Z</time>
      </trkpt>
      <trkpt lat="45.26615" lon="6.04344">
        <ele>1829.0454102</ele>
        <time>2013-02-17T12:23:35Z</time>
      </trkpt>
      <trkpt lat="45.26588" lon="6.04278">
        <ele>1853.5593262</ele>
        <time>2013-02-17T12:23:48Z</time>
      </trkpt>
      <trkpt lat="45.26574" lon="6.04242">
        <ele>1863.652832</ele>
        <time>2013-02-17T12:23:55Z</time>
      </trkpt>
      <trkpt lat="45.26557" lon="6.04199">
        <ele>1874.2275391</ele>
        <time>2013-02-17T12:24:03Z</time>
      </trkpt>
      <trkpt lat="45.26535" lon="6.04146">
        <ele>1885.7634277</ele>
        <time>2013-02-17T12:24:13Z</time>
      </trkpt>
      <trkpt lat="45.26511" lon="6.04088">
        <ele>1896.3378906</ele>
        <time>2013-02-17T12:24:24Z</time>
      </trkpt>
      <trkpt lat="45.26483" lon="6.04019">
        <ele>1913.1608887</ele>
        <time>2013-02-17T12:24:37Z</time>
      </trkpt>
      <trkpt lat="45.26462" lon="6.03969">
        <ele>1928.0612793</ele>
        <time>2013-02-17T12:24:47Z</time>
      </trkpt>
      <trkpt lat="45.26447" lon="6.03933">
        <ele>1936.232666</ele>
        <time>2013-02-17T12:24:54Z</time>
      </trkpt>
      <trkpt lat="45.26438" lon="6.03913">
        <ele>1937.6745605</ele>
        <time>2013-02-17T12:24:58Z</time>
      </trkpt>
      <trkpt lat="45.26436" lon="6.03898">
        <ele>1937.1938477</ele>
        <time>2013-02-17T12:25:03Z</time>
      </trkpt>
      <trkpt lat="45.26429" lon="6.0389">
        <ele>1936.7131348</ele>
        <time>2013-02-17T12:25:07Z</time>
      </trkpt>
      <trkpt lat="45.26427" lon="6.03876">
        <ele>1936.7131348</ele>
        <time>2013-02-17T12:25:11Z</time>
      </trkpt>
      <trkpt lat="45.26426" lon="6.03875">
        <ele>1936.7131348</ele>
        <time>2013-02-17T12:25:15Z</time>
      </trkpt>
      <trkpt lat="45.26424" lon="6.03877">
        <ele>1933.8293457</ele>
        <time>2013-02-17T12:25:23Z</time>
      </trkpt>
      <trkpt lat="45.2642" lon="6.0389">
        <ele>1932.8679199</ele>
        <time>2013-02-17T12:25:27Z</time>
      </trkpt>
      <trkpt lat="45.26419" lon="6.039">
        <ele>1933.8293457</ele>
        <time>2013-02-17T12:25:30Z</time>
      </trkpt>
      <trkpt lat="45.26415" lon="6.03913">
        <ele>1934.3100586</ele>
        <time>2013-02-17T12:25:34Z</time>
      </trkpt>
      <trkpt lat="45.26411" lon="6.03935">
        <ele>1935.7519531</ele>
        <time>2013-02-17T12:25:39Z</time>
      </trkpt>
      <trkpt lat="45.26406" lon="6.03957">
        <ele>1936.232666</ele>
        <time>2013-02-17T12:25:44Z</time>
      </trkpt>
      <trkpt lat="45.26399" lon="6.03974">
        <ele>1936.232666</ele>
        <time>2013-02-17T12:25:48Z</time>
      </trkpt>
      <trkpt lat="45.26389" lon="6.03995">
        <ele>1937.1938477</ele>
        <time>2013-02-17T12:25:53Z</time>
      </trkpt>
      <trkpt lat="45.26386" lon="6.0402">
        <ele>1936.232666</ele>
        <time>2013-02-17T12:25:58Z</time>
      </trkpt>
      <trkpt lat="45.26385" lon="6.04026">
        <ele>1935.7519531</ele>
        <time>2013-02-17T12:25:59Z</time>
      </trkpt>
      <trkpt lat="45.26378" lon="6.04034">
        <ele>1934.7907715</ele>
        <time>2013-02-17T12:26:03Z</time>
      </trkpt>
      <trkpt lat="45.26376" lon="6.04034">
        <ele>1934.3100586</ele>
        <time>2013-02-17T12:26:09Z</time>
      </trkpt>
      <trkpt lat="45.26374" lon="6.04033">
        <ele>1934.3100586</ele>
        <time>2013-02-17T12:26:16Z</time>
      </trkpt>
      <trkpt lat="45.26372" lon="6.04031">
        <ele>1934.3100586</ele>
        <time>2013-02-17T12:26:25Z</time>
      </trkpt>
      <trkpt lat="45.26371" lon="6.04029">
        <ele>1934.7907715</ele>
        <time>2013-02-17T12:26:34Z</time>
      </trkpt>
      <trkpt lat="45.26371" lon="6.04027">
        <ele>1934.7907715</ele>
        <time>2013-02-17T12:26:40Z</time>
      </trkpt>
      <trkpt lat="45.26372" lon="6.04025">
        <ele>1934.3100586</ele>
        <time>2013-02-17T12:26:46Z</time>
      </trkpt>
      <trkpt lat="45.26371" lon="6.04025">
        <ele>1934.7907715</ele>
        <time>2013-02-17T12:26:49Z</time>
      </trkpt>
      <trkpt lat="45.26366" lon="6.0401">
        <ele>1939.597168</ele>
        <time>2013-02-17T12:26:56Z</time>
      </trkpt>
      <trkpt lat="45.2636" lon="6.0399">
        <ele>1945.8457031</ele>
        <time>2013-02-17T12:27:05Z</time>
      </trkpt>
      <trkpt lat="45.26355" lon="6.03973">
        <ele>1953.0556641</ele>
        <time>2013-02-17T12:27:13Z</time>
      </trkpt>
      <trkpt lat="45.26347" lon="6.03952">
        <ele>1961.7075195</ele>
        <time>2013-02-17T12:27:23Z</time>
      </trkpt>
      <trkpt lat="45.26337" lon="6.03919">
        <ele>1976.6079102</ele>
        <time>2013-02-17T12:27:39Z</time>
      </trkpt>
      <trkpt lat="45.26328" lon="6.03894">
        <ele>1987.182373</ele>
        <time>2013-02-17T12:27:51Z</time>
      </trkpt>
      <trkpt lat="45.26319" lon="6.03864">
        <ele>1998.7182617</ele>
        <time>2013-02-17T12:28:05Z</time>
      </trkpt>
      <trkpt lat="45.26308" lon="6.03829">
        <ele>2008.8120117</ele>
        <time>2013-02-17T12:28:21Z</time>
      </trkpt>
      <trkpt lat="45.26297" lon="6.03796">
        <ele>2018.9060059</ele>
        <time>2013-02-17T12:28:36Z</time>
      </trkpt>
      <trkpt lat="45.26288" lon="6.03766">
        <ele>2028.9997559</ele>
        <time>2013-02-17T12:28:50Z</time>
      </trkpt>
      <trkpt lat="45.2628" lon="6.03742">
        <ele>2038.1323242</ele>
        <time>2013-02-17T12:29:01Z</time>
      </trkpt>
      <trkpt lat="45.2627" lon="6.03709">
        <ele>2052.552002</ele>
        <time>2013-02-17T12:29:17Z</time>
      </trkpt>
      <trkpt lat="45.2626" lon="6.0368">
        <ele>2065.0493164</ele>
        <time>2013-02-17T12:29:31Z</time>
      </trkpt>
      <trkpt lat="45.26249" lon="6.03644">
        <ele>2078.9882813</ele>
        <time>2013-02-17T12:29:48Z</time>
      </trkpt>
      <trkpt lat="45.26238" lon="6.03612">
        <ele>2090.5239258</ele>
        <time>2013-02-17T12:30:03Z</time>
      </trkpt>
      <trkpt lat="45.26228" lon="6.0358">
        <ele>2099.6567383</ele>
        <time>2013-02-17T12:30:17Z</time>
      </trkpt>
      <trkpt lat="45.26221" lon="6.03559">
        <ele>2105.4245605</ele>
        <time>2013-02-17T12:30:27Z</time>
      </trkpt>
      <trkpt lat="45.2621" lon="6.03537">
        <ele>2104.9438477</ele>
        <time>2013-02-17T12:30:35Z</time>
      </trkpt>
      <trkpt lat="45.26204" lon="6.0353">
        <ele>2103.982666</ele>
        <time>2013-02-17T12:30:38Z</time>
      </trkpt>
      <trkpt lat="45.26202" lon="6.0353">
        <ele>2103.5019531</ele>
        <time>2013-02-17T12:30:44Z</time>
      </trkpt>
      <trkpt lat="45.26202" lon="6.03529">
        <ele>2103.5019531</ele>
        <time>2013-02-17T12:30:51Z</time>
      </trkpt>
      <trkpt lat="45.26201" lon="6.03529">
        <ele>2102.5405273</ele>
        <time>2013-02-17T12:31:10Z</time>
      </trkpt>
      <trkpt lat="45.262" lon="6.03527">
        <ele>2102.5405273</ele>
        <time>2013-02-17T12:31:15Z</time>
      </trkpt>
      <trkpt lat="45.2619" lon="6.03513">
        <ele>2100.6179199</ele>
        <time>2013-02-17T12:31:20Z</time>
      </trkpt>
      <trkpt lat="45.26173" lon="6.03493">
        <ele>2098.6953125</ele>
        <time>2013-02-17T12:31:25Z</time>
      </trkpt>
      <trkpt lat="45.26162" lon="6.03483">
        <ele>2097.7341309</ele>
        <time>2013-02-17T12:31:28Z</time>
      </trkpt>
      <trkpt lat="45.26144" lon="6.03472">
        <ele>2095.3308105</ele>
        <time>2013-02-17T12:31:32Z</time>
      </trkpt>
      <trkpt lat="45.26125" lon="6.03457">
        <ele>2093.4082031</ele>
        <time>2013-02-17T12:31:36Z</time>
      </trkpt>
      <trkpt lat="45.26108" lon="6.03451">
        <ele>2091.9660645</ele>
        <time>2013-02-17T12:31:40Z</time>
      </trkpt>
      <trkpt lat="45.26084" lon="6.03452">
        <ele>2088.6015625</ele>
        <time>2013-02-17T12:31:45Z</time>
      </trkpt>
      <trkpt lat="45.26067" lon="6.03445">
        <ele>2087.6401367</ele>
        <time>2013-02-17T12:31:49Z</time>
      </trkpt>
      <trkpt lat="45.26052" lon="6.03439">
        <ele>2086.1982422</ele>
        <time>2013-02-17T12:31:53Z</time>
      </trkpt>
      <trkpt lat="45.26045" lon="6.03435">
        <ele>2085.7175293</ele>
        <time>2013-02-17T12:31:55Z</time>
      </trkpt>
      <trkpt lat="45.26021" lon="6.03426">
        <ele>2083.314209</ele>
        <time>2013-02-17T12:32:01Z</time>
      </trkpt>
      <trkpt lat="45.26004" lon="6.03416">
        <ele>2080.9111328</ele>
        <time>2013-02-17T12:32:05Z</time>
      </trkpt>
      <trkpt lat="45.25983" lon="6.03403">
        <ele>2077.5463867</ele>
        <time>2013-02-17T12:32:10Z</time>
      </trkpt>
      <trkpt lat="45.25981" lon="6.034">
        <ele>2076.5852051</ele>
        <time>2013-02-17T12:32:11Z</time>
      </trkpt>
      <trkpt lat="45.25961" lon="6.03383">
        <ele>2073.220459</ele>
        <time>2013-02-17T12:32:18Z</time>
      </trkpt>
      <trkpt lat="45.25945" lon="6.03366">
        <ele>2070.8171387</ele>
        <time>2013-02-17T12:32:23Z</time>
      </trkpt>
      <trkpt lat="45.2593" lon="6.03349">
        <ele>2068.4138184</ele>
        <time>2013-02-17T12:32:27Z</time>
      </trkpt>
      <trkpt lat="45.25904" lon="6.03315">
        <ele>2065.0493164</ele>
        <time>2013-02-17T12:32:33Z</time>
      </trkpt>
      <trkpt lat="45.25891" lon="6.03301">
        <ele>2064.5686035</ele>
        <time>2013-02-17T12:32:37Z</time>
      </trkpt>
      <trkpt lat="45.25881" lon="6.03287">
        <ele>2064.0878906</ele>
        <time>2013-02-17T12:32:42Z</time>
      </trkpt>
      <trkpt lat="45.25871" lon="6.03271">
        <ele>2063.6071777</ele>
        <time>2013-02-17T12:32:47Z</time>
      </trkpt>
      <trkpt lat="45.2586" lon="6.03244">
        <ele>2058.8005371</ele>
        <time>2013-02-17T12:32:51Z</time>
      </trkpt>
      <trkpt lat="45.25849" lon="6.0322">
        <ele>2054.4746094</ele>
        <time>2013-02-17T12:32:54Z</time>
      </trkpt>
      <trkpt lat="45.25834" lon="6.03198">
        <ele>2051.1101074</ele>
        <time>2013-02-17T12:32:57Z</time>
      </trkpt>
      <trkpt lat="45.2582" lon="6.03194">
        <ele>2048.2260742</ele>
        <time>2013-02-17T12:33:00Z</time>
      </trkpt>
      <trkpt lat="45.25817" lon="6.03195">
        <ele>2045.822998</ele>
        <time>2013-02-17T12:33:03Z</time>
      </trkpt>
      <trkpt lat="45.25817" lon="6.03196">
        <ele>2046.3037109</ele>
        <time>2013-02-17T12:33:08Z</time>
      </trkpt>
      <trkpt lat="45.25818" lon="6.03196">
        <ele>2046.7841797</ele>
        <time>2013-02-17T12:33:15Z</time>
      </trkpt>
      <trkpt lat="45.25818" lon="6.03196">
        <ele>2047.2648926</ele>
        <time>2013-02-17T12:33:23Z</time>
      </trkpt>
      <trkpt lat="45.25815" lon="6.03197">
        <ele>2049.1875</ele>
        <time>2013-02-17T12:33:33Z</time>
      </trkpt>
      <trkpt lat="45.25813" lon="6.03199">
        <ele>2051.5908203</ele>
        <time>2013-02-17T12:33:41Z</time>
      </trkpt>
      <trkpt lat="45.25811" lon="6.03201">
        <ele>2053.5134277</ele>
        <time>2013-02-17T12:33:49Z</time>
      </trkpt>
      <trkpt lat="45.25808" lon="6.03203">
        <ele>2055.4360352</ele>
        <time>2013-02-17T12:33:57Z</time>
      </trkpt>
      <trkpt lat="45.25808" lon="6.03204">
        <ele>2056.3972168</ele>
        <time>2013-02-17T12:34:03Z</time>
      </trkpt>
      <trkpt lat="45.25806" lon="6.03206">
        <ele>2057.3586426</ele>
        <time>2013-02-17T12:34:10Z</time>
      </trkpt>
      <trkpt lat="45.25804" lon="6.03207">
        <ele>2058.3198242</ele>
        <time>2013-02-17T12:34:16Z</time>
      </trkpt>
      <trkpt lat="45.25803" lon="6.03208">
        <ele>2058.8005371</ele>
        <time>2013-02-17T12:34:22Z</time>
      </trkpt>
      <trkpt lat="45.25802" lon="6.03209">
        <ele>2058.8005371</ele>
        <time>2013-02-17T12:34:27Z</time>
      </trkpt>
      <trkpt lat="45.25801" lon="6.0321">
        <ele>2059.28125</ele>
        <time>2013-02-17T12:34:33Z</time>
      </trkpt>
      <trkpt lat="45.258" lon="6.03212">
        <ele>2059.7617188</ele>
        <time>2013-02-17T12:34:39Z</time>
      </trkpt>
      <trkpt lat="45.258" lon="6.03213">
        <ele>2059.7617188</ele>
        <time>2013-02-17T12:34:44Z</time>
      </trkpt>
      <trkpt lat="45.258" lon="6.03215">
        <ele>2059.7617188</ele>
        <time>2013-02-17T12:34:50Z</time>
      </trkpt>
      <trkpt lat="45.258" lon="6.0322">
        <ele>2059.28125</ele>
        <time>2013-02-17T12:34:54Z</time>
      </trkpt>
      <trkpt lat="45.25802" lon="6.03227">
        <ele>2059.28125</ele>
        <time>2013-02-17T12:34:58Z</time>
      </trkpt>
      <trkpt lat="45.258" lon="6.03233">
        <ele>2058.3198242</ele>
        <time>2013-02-17T12:35:06Z</time>
      </trkpt>
      <trkpt lat="45.25795" lon="6.03239">
        <ele>2057.3586426</ele>
        <time>2013-02-17T12:35:10Z</time>
      </trkpt>
      <trkpt lat="45.25782" lon="6.03253">
        <ele>2055.4360352</ele>
        <time>2013-02-17T12:35:16Z</time>
      </trkpt>
      <trkpt lat="45.25768" lon="6.0327">
        <ele>2051.5908203</ele>
        <time>2013-02-17T12:35:19Z</time>
      </trkpt>
      <trkpt lat="45.25755" lon="6.03307">
        <ele>2045.3422852</ele>
        <time>2013-02-17T12:35:22Z</time>
      </trkpt>
      <trkpt lat="45.25746" lon="6.03339">
        <ele>2039.0935059</ele>
        <time>2013-02-17T12:35:25Z</time>
      </trkpt>
      <trkpt lat="45.25741" lon="6.03375">
        <ele>2032.364502</ele>
        <time>2013-02-17T12:35:28Z</time>
      </trkpt>
      <trkpt lat="45.25737" lon="6.03409">
        <ele>2024.6738281</ele>
        <time>2013-02-17T12:35:31Z</time>
      </trkpt>
      <trkpt lat="45.25733" lon="6.03476">
        <ele>2012.1767578</ele>
        <time>2013-02-17T12:35:36Z</time>
      </trkpt>
      <trkpt lat="45.25733" lon="6.03509">
        <ele>2005.9279785</ele>
        <time>2013-02-17T12:35:39Z</time>
      </trkpt>
      <trkpt lat="45.25741" lon="6.03575">
        <ele>1989.5856934</ele>
        <time>2013-02-17T12:35:45Z</time>
      </trkpt>
      <trkpt lat="45.25741" lon="6.03602">
        <ele>1983.3371582</ele>
        <time>2013-02-17T12:35:47Z</time>
      </trkpt>
      <trkpt lat="45.25738" lon="6.03637">
        <ele>1974.6853027</ele>
        <time>2013-02-17T12:35:50Z</time>
      </trkpt>
      <trkpt lat="45.25746" lon="6.03667">
        <ele>1967.4753418</ele>
        <time>2013-02-17T12:35:53Z</time>
      </trkpt>
      <trkpt lat="45.25761" lon="6.03693">
        <ele>1960.2653809</ele>
        <time>2013-02-17T12:35:56Z</time>
      </trkpt>
      <trkpt lat="45.25775" lon="6.03718">
        <ele>1952.0942383</ele>
        <time>2013-02-17T12:35:59Z</time>
      </trkpt>
      <trkpt lat="45.25778" lon="6.03726">
        <ele>1949.6911621</ele>
        <time>2013-02-17T12:36:00Z</time>
      </trkpt>
      <trkpt lat="45.25799" lon="6.0376">
        <ele>1937.6745605</ele>
        <time>2013-02-17T12:36:04Z</time>
      </trkpt>
      <trkpt lat="45.25807" lon="6.03794">
        <ele>1929.0224609</ele>
        <time>2013-02-17T12:36:07Z</time>
      </trkpt>
      <trkpt lat="45.25813" lon="6.03824">
        <ele>1920.3708496</ele>
        <time>2013-02-17T12:36:10Z</time>
      </trkpt>
      <trkpt lat="45.25811" lon="6.03842">
        <ele>1915.0834961</ele>
        <time>2013-02-17T12:36:12Z</time>
      </trkpt>
      <trkpt lat="45.25811" lon="6.03862">
        <ele>1908.8349609</ele>
        <time>2013-02-17T12:36:15Z</time>
      </trkpt>
      <trkpt lat="45.25814" lon="6.03877">
        <ele>1905.470459</ele>
        <time>2013-02-17T12:36:18Z</time>
      </trkpt>
      <trkpt lat="45.25815" lon="6.0388">
        <ele>1904.5090332</ele>
        <time>2013-02-17T12:36:21Z</time>
      </trkpt>
      <trkpt lat="45.25816" lon="6.03879">
        <ele>1904.9897461</ele>
        <time>2013-02-17T12:36:30Z</time>
      </trkpt>
      <trkpt lat="45.25816" lon="6.03879">
        <ele>1904.9897461</ele>
        <time>2013-02-17T12:36:35Z</time>
      </trkpt>
      <trkpt lat="45.25815" lon="6.03879">
        <ele>1905.470459</ele>
        <time>2013-02-17T12:36:57Z</time>
      </trkpt>
      <trkpt lat="45.25815" lon="6.0388">
        <ele>1904.9897461</ele>
        <time>2013-02-17T12:37:16Z</time>
      </trkpt>
      <trkpt lat="45.25819" lon="6.03882">
        <ele>1904.5090332</ele>
        <time>2013-02-17T12:37:28Z</time>
      </trkpt>
      <trkpt lat="45.2583" lon="6.03897">
        <ele>1901.6252441</ele>
        <time>2013-02-17T12:37:32Z</time>
      </trkpt>
      <trkpt lat="45.2584" lon="6.03912">
        <ele>1897.7797852</ele>
        <time>2013-02-17T12:37:35Z</time>
      </trkpt>
      <trkpt lat="45.2586" lon="6.03939">
        <ele>1889.1279297</ele>
        <time>2013-02-17T12:37:39Z</time>
      </trkpt>
      <trkpt lat="45.25879" lon="6.03969">
        <ele>1880.9567871</ele>
        <time>2013-02-17T12:37:42Z</time>
      </trkpt>
      <trkpt lat="45.25895" lon="6.03994">
        <ele>1874.708252</ele>
        <time>2013-02-17T12:37:44Z</time>
      </trkpt>
      <trkpt lat="45.25936" lon="6.04061">
        <ele>1863.1723633</ele>
        <time>2013-02-17T12:37:48Z</time>
      </trkpt>
      <trkpt lat="45.25956" lon="6.04092">
        <ele>1860.769043</ele>
        <time>2013-02-17T12:37:50Z</time>
      </trkpt>
      <trkpt lat="45.25972" lon="6.04114">
        <ele>1861.2497559</ele>
        <time>2013-02-17T12:37:52Z</time>
      </trkpt>
      <trkpt lat="45.25987" lon="6.04152">
        <ele>1856.4431152</ele>
        <time>2013-02-17T12:37:56Z</time>
      </trkpt>
      <trkpt lat="45.2599" lon="6.04162">
        <ele>1854.0400391</ele>
        <time>2013-02-17T12:37:57Z</time>
      </trkpt>
      <trkpt lat="45.26007" lon="6.042">
        <ele>1845.3879395</ele>
        <time>2013-02-17T12:38:00Z</time>
      </trkpt>
      <trkpt lat="45.26018" lon="6.04259">
        <ele>1830.9682617</ele>
        <time>2013-02-17T12:38:04Z</time>
      </trkpt>
      <trkpt lat="45.26018" lon="6.04323">
        <ele>1811.7419434</ele>
        <time>2013-02-17T12:38:08Z</time>
      </trkpt>
      <trkpt lat="45.2602" lon="6.04356">
        <ele>1802.6091309</ele>
        <time>2013-02-17T12:38:10Z</time>
      </trkpt>
      <trkpt lat="45.26024" lon="6.0442">
        <ele>1784.8249512</ele>
        <time>2013-02-17T12:38:14Z</time>
      </trkpt>
      <trkpt lat="45.26036" lon="6.04458">
        <ele>1773.2893066</ele>
        <time>2013-02-17T12:38:17Z</time>
      </trkpt>
      <trkpt lat="45.26058" lon="6.04505">
        <ele>1757.9082031</ele>
        <time>2013-02-17T12:38:21Z</time>
      </trkpt>
      <trkpt lat="45.26072" lon="6.04525">
        <ele>1750.2175293</ele>
        <time>2013-02-17T12:38:23Z</time>
      </trkpt>
      <trkpt lat="45.26092" lon="6.04564">
        <ele>1736.7587891</ele>
        <time>2013-02-17T12:38:26Z</time>
      </trkpt>
      <trkpt lat="45.2611" lon="6.0461">
        <ele>1723.3005371</ele>
        <time>2013-02-17T12:38:29Z</time>
      </trkpt>
      <trkpt lat="45.26138" lon="6.04632">
        <ele>1711.7648926</ele>
        <time>2013-02-17T12:38:32Z</time>
      </trkpt>
      <trkpt lat="45.26166" lon="6.04664">
        <ele>1698.3061523</ele>
        <time>2013-02-17T12:38:36Z</time>
      </trkpt>
      <trkpt lat="45.26169" lon="6.04678">
        <ele>1694.4609375</ele>
        <time>2013-02-17T12:38:37Z</time>
      </trkpt>
      <trkpt lat="45.26171" lon="6.04708">
        <ele>1685.809082</ele>
        <time>2013-02-17T12:38:39Z</time>
      </trkpt>
      <trkpt lat="45.26177" lon="6.0474">
        <ele>1678.5993652</ele>
        <time>2013-02-17T12:38:41Z</time>
      </trkpt>
      <trkpt lat="45.26173" lon="6.04796">
        <ele>1667.5439453</ele>
        <time>2013-02-17T12:38:45Z</time>
      </trkpt>
      <trkpt lat="45.26168" lon="6.04829">
        <ele>1664.1794434</ele>
        <time>2013-02-17T12:38:49Z</time>
      </trkpt>
      <trkpt lat="45.26161" lon="6.0483">
        <ele>1663.6987305</ele>
        <time>2013-02-17T12:38:52Z</time>
      </trkpt>
      <trkpt lat="45.26155" lon="6.04824">
        <ele>1664.6601563</ele>
        <time>2013-02-17T12:38:57Z</time>
      </trkpt>
      <trkpt lat="45.26152" lon="6.04819">
        <ele>1665.621582</ele>
        <time>2013-02-17T12:39:03Z</time>
      </trkpt>
      <trkpt lat="45.2615" lon="6.04816">
        <ele>1665.621582</ele>
        <time>2013-02-17T12:39:09Z</time>
      </trkpt>
      <trkpt lat="45.26144" lon="6.04816">
        <ele>1661.2956543</ele>
        <time>2013-02-17T12:39:18Z</time>
      </trkpt>
      <trkpt lat="45.26142" lon="6.04814">
        <ele>1661.2956543</ele>
        <time>2013-02-17T12:39:21Z</time>
      </trkpt>
      <trkpt lat="45.26133" lon="6.04796">
        <ele>1659.8532715</ele>
        <time>2013-02-17T12:39:26Z</time>
      </trkpt>
      <trkpt lat="45.26129" lon="6.04783">
        <ele>1667.0634766</ele>
        <time>2013-02-17T12:39:28Z</time>
      </trkpt>
      <trkpt lat="45.26121" lon="6.04757">
        <ele>1677.1574707</ele>
        <time>2013-02-17T12:39:32Z</time>
      </trkpt>
      <trkpt lat="45.26101" lon="6.0472">
        <ele>1688.6931152</ele>
        <time>2013-02-17T12:39:39Z</time>
      </trkpt>
      <trkpt lat="45.26085" lon="6.0469">
        <ele>1697.3449707</ele>
        <time>2013-02-17T12:39:45Z</time>
      </trkpt>
      <trkpt lat="45.26083" lon="6.04685">
        <ele>1699.2675781</ele>
        <time>2013-02-17T12:39:46Z</time>
      </trkpt>
      <trkpt lat="45.26071" lon="6.04662">
        <ele>1706.9580078</ele>
        <time>2013-02-17T12:39:53Z</time>
      </trkpt>
      <trkpt lat="45.26061" lon="6.04644">
        <ele>1712.7260742</ele>
        <time>2013-02-17T12:39:59Z</time>
      </trkpt>
      <trkpt lat="45.26052" lon="6.04626">
        <ele>1718.4938965</ele>
        <time>2013-02-17T12:40:05Z</time>
      </trkpt>
      <trkpt lat="45.26042" lon="6.04606">
        <ele>1724.7426758</ele>
        <time>2013-02-17T12:40:11Z</time>
      </trkpt>
      <trkpt lat="45.26026" lon="6.0458">
        <ele>1738.6816406</ele>
        <time>2013-02-17T12:40:18Z</time>
      </trkpt>
      <trkpt lat="45.26003" lon="6.04537">
        <ele>1756.4660645</ele>
        <time>2013-02-17T12:40:27Z</time>
      </trkpt>
      <trkpt lat="45.25987" lon="6.04507">
        <ele>1764.1564941</ele>
        <time>2013-02-17T12:40:33Z</time>
      </trkpt>
      <trkpt lat="45.25964" lon="6.04462">
        <ele>1777.1345215</ele>
        <time>2013-02-17T12:40:42Z</time>
      </trkpt>
      <trkpt lat="45.25936" lon="6.04407">
        <ele>1794.9187012</ele>
        <time>2013-02-17T12:40:53Z</time>
      </trkpt>
      <trkpt lat="45.25913" lon="6.04363">
        <ele>1810.2998047</ele>
        <time>2013-02-17T12:41:02Z</time>
      </trkpt>
      <trkpt lat="45.2589" lon="6.0432">
        <ele>1827.6035156</ele>
        <time>2013-02-17T12:41:11Z</time>
      </trkpt>
      <trkpt lat="45.25872" lon="6.04285">
        <ele>1837.2167969</ele>
        <time>2013-02-17T12:41:18Z</time>
      </trkpt>
      <trkpt lat="45.25854" lon="6.0425">
        <ele>1844.4265137</ele>
        <time>2013-02-17T12:41:25Z</time>
      </trkpt>
      <trkpt lat="45.2583" lon="6.04205">
        <ele>1855.4819336</ele>
        <time>2013-02-17T12:41:34Z</time>
      </trkpt>
      <trkpt lat="45.25814" lon="6.04174">
        <ele>1859.3271484</ele>
        <time>2013-02-17T12:41:40Z</time>
      </trkpt>
      <trkpt lat="45.25792" lon="6.04134">
        <ele>1864.1335449</ele>
        <time>2013-02-17T12:41:48Z</time>
      </trkpt>
      <trkpt lat="45.25769" lon="6.04094">
        <ele>1871.3435059</ele>
        <time>2013-02-17T12:41:56Z</time>
      </trkpt>
      <trkpt lat="45.25743" lon="6.04044">
        <ele>1882.3986816</ele>
        <time>2013-02-17T12:42:06Z</time>
      </trkpt>
      <trkpt lat="45.25721" lon="6.04004">
        <ele>1906.4316406</ele>
        <time>2013-02-17T12:42:15Z</time>
      </trkpt>
      <trkpt lat="45.25703" lon="6.0397">
        <ele>1929.0224609</ele>
        <time>2013-02-17T12:42:23Z</time>
      </trkpt>
      <trkpt lat="45.25687" lon="6.0394">
        <ele>1949.2104492</ele>
        <time>2013-02-17T12:42:30Z</time>
      </trkpt>
      <trkpt lat="45.25665" lon="6.03897">
        <ele>1978.5305176</ele>
        <time>2013-02-17T12:42:40Z</time>
      </trkpt>
      <trkpt lat="45.25642" lon="6.03856">
        <ele>2008.3312988</ele>
        <time>2013-02-17T12:42:50Z</time>
      </trkpt>
      <trkpt lat="45.25621" lon="6.03815">
        <ele>2039.5742188</ele>
        <time>2013-02-17T12:43:00Z</time>
      </trkpt>
      <trkpt lat="45.25609" lon="6.03793">
        <ele>2052.552002</ele>
        <time>2013-02-17T12:43:05Z</time>
      </trkpt>
      <trkpt lat="45.25595" lon="6.03765">
        <ele>2066.9719238</ele>
        <time>2013-02-17T12:43:11Z</time>
      </trkpt>
      <trkpt lat="45.2558" lon="6.03738">
        <ele>2082.3530273</ele>
        <time>2013-02-17T12:43:17Z</time>
      </trkpt>
      <trkpt lat="45.25562" lon="6.03705">
        <ele>2096.7727051</ele>
        <time>2013-02-17T12:43:24Z</time>
      </trkpt>
      <trkpt lat="45.25546" lon="6.03675">
        <ele>2103.5019531</ele>
        <time>2013-02-17T12:43:30Z</time>
      </trkpt>
      <trkpt lat="45.25533" lon="6.03651">
        <ele>2109.7504883</ele>
        <time>2013-02-17T12:43:35Z</time>
      </trkpt>
      <trkpt lat="45.25517" lon="6.03621">
        <ele>2118.4023438</ele>
        <time>2013-02-17T12:43:41Z</time>
      </trkpt>
      <trkpt lat="45.25496" lon="6.03583">
        <ele>2129.4575195</ele>
        <time>2013-02-17T12:43:49Z</time>
      </trkpt>
      <trkpt lat="45.25471" lon="6.03537">
        <ele>2136.6672363</ele>
        <time>2013-02-17T12:43:58Z</time>
      </trkpt>
      <trkpt lat="45.25442" lon="6.03481">
        <ele>2147.2419434</ele>
        <time>2013-02-17T12:44:09Z</time>
      </trkpt>
      <trkpt lat="45.25434" lon="6.03466">
        <ele>2151.5678711</ele>
        <time>2013-02-17T12:44:12Z</time>
      </trkpt>
      <trkpt lat="45.25415" lon="6.03429">
        <ele>2170.3134766</ele>
        <time>2013-02-17T12:44:20Z</time>
      </trkpt>
      <trkpt lat="45.25392" lon="6.03385">
        <ele>2196.7497559</ele>
        <time>2013-02-17T12:44:30Z</time>
      </trkpt>
      <trkpt lat="45.25375" lon="6.03354">
        <ele>2215.0148926</ele>
        <time>2013-02-17T12:44:37Z</time>
      </trkpt>
      <trkpt lat="45.25355" lon="6.03314">
        <ele>2238.5673828</ele>
        <time>2013-02-17T12:44:46Z</time>
      </trkpt>
      <trkpt lat="45.25338" lon="6.03287">
        <ele>2249.6223145</ele>
        <time>2013-02-17T12:44:52Z</time>
      </trkpt>
      <trkpt lat="45.25337" lon="6.03285">
        <ele>2250.5834961</ele>
        <time>2013-02-17T12:44:53Z</time>
      </trkpt>
      <trkpt lat="45.25334" lon="6.0328">
        <ele>2252.0256348</ele>
        <time>2013-02-17T12:44:57Z</time>
      </trkpt>
      <trkpt lat="45.25337" lon="6.0327">
        <ele>2250.5834961</ele>
        <time>2013-02-17T12:45:00Z</time>
      </trkpt>
      <trkpt lat="45.2534" lon="6.03267">
        <ele>2249.1416016</ele>
        <time>2013-02-17T12:45:02Z</time>
      </trkpt>
      <trkpt lat="45.25347" lon="6.03266">
        <ele>2246.2578125</ele>
        <time>2013-02-17T12:45:10Z</time>
      </trkpt>
      <trkpt lat="45.2535" lon="6.03267">
        <ele>2244.8156738</ele>
        <time>2013-02-17T12:45:15Z</time>
      </trkpt>
      <trkpt lat="45.25358" lon="6.0327">
        <ele>2242.4125977</ele>
        <time>2013-02-17T12:45:20Z</time>
      </trkpt>
      <trkpt lat="45.25364" lon="6.03275">
        <ele>2240.4897461</ele>
        <time>2013-02-17T12:45:22Z</time>
      </trkpt>
      <trkpt lat="45.25374" lon="6.03275">
        <ele>2236.1640625</ele>
        <time>2013-02-17T12:45:25Z</time>
      </trkpt>
      <trkpt lat="45.25386" lon="6.03262">
        <ele>2230.876709</ele>
        <time>2013-02-17T12:45:28Z</time>
      </trkpt>
      <trkpt lat="45.254" lon="6.03242">
        <ele>2222.7055664</ele>
        <time>2013-02-17T12:45:31Z</time>
      </trkpt>
      <trkpt lat="45.25417" lon="6.03225">
        <ele>2214.0534668</ele>
        <time>2013-02-17T12:45:34Z</time>
      </trkpt>
      <trkpt lat="45.25429" lon="6.03221">
        <ele>2207.8051758</ele>
        <time>2013-02-17T12:45:36Z</time>
      </trkpt>
      <trkpt lat="45.25462" lon="6.03202">
        <ele>2191.4626465</ele>
        <time>2013-02-17T12:45:41Z</time>
      </trkpt>
      <trkpt lat="45.25483" lon="6.032">
        <ele>2181.3686523</ele>
        <time>2013-02-17T12:45:44Z</time>
      </trkpt>
      <trkpt lat="45.25492" lon="6.03214">
        <ele>2175.1201172</ele>
        <time>2013-02-17T12:45:46Z</time>
      </trkpt>
      <trkpt lat="45.25492" lon="6.03237">
        <ele>2168.871582</ele>
        <time>2013-02-17T12:45:48Z</time>
      </trkpt>
      <trkpt lat="45.25486" lon="6.0326">
        <ele>2162.6230469</ele>
        <time>2013-02-17T12:45:50Z</time>
      </trkpt>
      <trkpt lat="45.2548" lon="6.03288">
        <ele>2155.8935547</ele>
        <time>2013-02-17T12:45:53Z</time>
      </trkpt>
      <trkpt lat="45.25479" lon="6.03298">
        <ele>2153.4904785</ele>
        <time>2013-02-17T12:45:54Z</time>
      </trkpt>
      <trkpt lat="45.25486" lon="6.03327">
        <ele>2144.3579102</ele>
        <time>2013-02-17T12:45:58Z</time>
      </trkpt>
      <trkpt lat="45.25506" lon="6.03329">
        <ele>2136.1867676</ele>
        <time>2013-02-17T12:46:01Z</time>
      </trkpt>
      <trkpt lat="45.25519" lon="6.03315">
        <ele>2130.8996582</ele>
        <time>2013-02-17T12:46:03Z</time>
      </trkpt>
      <trkpt lat="45.25539" lon="6.03282">
        <ele>2122.7282715</ele>
        <time>2013-02-17T12:46:06Z</time>
      </trkpt>
      <trkpt lat="45.2555" lon="6.03255">
        <ele>2118.4023438</ele>
        <time>2013-02-17T12:46:08Z</time>
      </trkpt>
      <trkpt lat="45.25568" lon="6.03218">
        <ele>2113.1152344</ele>
        <time>2013-02-17T12:46:11Z</time>
      </trkpt>
      <trkpt lat="45.25595" lon="6.03172">
        <ele>2105.9050293</ele>
        <time>2013-02-17T12:46:15Z</time>
      </trkpt>
      <trkpt lat="45.25606" lon="6.03113">
        <ele>2100.1374512</ele>
        <time>2013-02-17T12:46:20Z</time>
      </trkpt>
      <trkpt lat="45.25605" lon="6.03087">
        <ele>2099.6567383</ele>
        <time>2013-02-17T12:46:25Z</time>
      </trkpt>
      <trkpt lat="45.25604" lon="6.03087">
        <ele>2100.1374512</ele>
        <time>2013-02-17T12:46:31Z</time>
      </trkpt>
      <trkpt lat="45.25604" lon="6.03088">
        <ele>2101.0986328</ele>
        <time>2013-02-17T12:46:38Z</time>
      </trkpt>
      <trkpt lat="45.25604" lon="6.03087">
        <ele>2101.5793457</ele>
        <time>2013-02-17T12:46:51Z</time>
      </trkpt>
      <trkpt lat="45.25604" lon="6.03082">
        <ele>2101.5793457</ele>
        <time>2013-02-17T12:46:54Z</time>
      </trkpt>
      <trkpt lat="45.25601" lon="6.03064">
        <ele>2098.6953125</ele>
        <time>2013-02-17T12:46:58Z</time>
      </trkpt>
      <trkpt lat="45.25593" lon="6.03053">
        <ele>2095.3308105</ele>
        <time>2013-02-17T12:47:01Z</time>
      </trkpt>
      <trkpt lat="45.25585" lon="6.03043">
        <ele>2090.043457</ele>
        <time>2013-02-17T12:47:03Z</time>
      </trkpt>
      <trkpt lat="45.25575" lon="6.03032">
        <ele>2084.7563477</ele>
        <time>2013-02-17T12:47:05Z</time>
      </trkpt>
      <trkpt lat="45.25564" lon="6.03017">
        <ele>2076.5852051</ele>
        <time>2013-02-17T12:47:07Z</time>
      </trkpt>
      <trkpt lat="45.25544" lon="6.03003">
        <ele>2065.5300293</ele>
        <time>2013-02-17T12:47:10Z</time>
      </trkpt>
      <trkpt lat="45.2553" lon="6.02985">
        <ele>2057.3586426</ele>
        <time>2013-02-17T12:47:12Z</time>
      </trkpt>
      <trkpt lat="45.25521" lon="6.02962">
        <ele>2048.7067871</ele>
        <time>2013-02-17T12:47:14Z</time>
      </trkpt>
      <trkpt lat="45.25499" lon="6.02931">
        <ele>2036.2097168</ele>
        <time>2013-02-17T12:47:17Z</time>
      </trkpt>
      <trkpt lat="45.25481" lon="6.02911">
        <ele>2028.0385742</ele>
        <time>2013-02-17T12:47:19Z</time>
      </trkpt>
      <trkpt lat="45.25438" lon="6.02851">
        <ele>2008.3312988</ele>
        <time>2013-02-17T12:47:24Z</time>
      </trkpt>
      <trkpt lat="45.25411" lon="6.02816">
        <ele>1995.8342285</ele>
        <time>2013-02-17T12:47:27Z</time>
      </trkpt>
      <trkpt lat="45.25381" lon="6.02782">
        <ele>1982.3759766</ele>
        <time>2013-02-17T12:47:30Z</time>
      </trkpt>
      <trkpt lat="45.2534" lon="6.02715">
        <ele>1960.2653809</ele>
        <time>2013-02-17T12:47:34Z</time>
      </trkpt>
      <trkpt lat="45.25295" lon="6.02638">
        <ele>1941.5197754</ele>
        <time>2013-02-17T12:47:38Z</time>
      </trkpt>
      <trkpt lat="45.25255" lon="6.02558">
        <ele>1929.0224609</ele>
        <time>2013-02-17T12:47:42Z</time>
      </trkpt>
      <trkpt lat="45.25248" lon="6.02539">
        <ele>1925.657959</ele>
        <time>2013-02-17T12:47:43Z</time>
      </trkpt>
      <trkpt lat="45.25234" lon="6.02488">
        <ele>1916.5256348</ele>
        <time>2013-02-17T12:47:46Z</time>
      </trkpt>
      <trkpt lat="45.25232" lon="6.02471">
        <ele>1914.1220703</ele>
        <time>2013-02-17T12:47:47Z</time>
      </trkpt>
      <trkpt lat="45.25233" lon="6.02419">
        <ele>1905.470459</ele>
        <time>2013-02-17T12:47:50Z</time>
      </trkpt>
      <trkpt lat="45.2524" lon="6.0236">
        <ele>1896.8183594</ele>
        <time>2013-02-17T12:47:54Z</time>
      </trkpt>
      <trkpt lat="45.25245" lon="6.02338">
        <ele>1892.9731445</ele>
        <time>2013-02-17T12:47:56Z</time>
      </trkpt>
      <trkpt lat="45.25246" lon="6.02329">
        <ele>1891.0505371</ele>
        <time>2013-02-17T12:47:58Z</time>
      </trkpt>
      <trkpt lat="45.25245" lon="6.02329">
        <ele>1889.1279297</ele>
        <time>2013-02-17T12:48:01Z</time>
      </trkpt>
      <trkpt lat="45.25244" lon="6.02328">
        <ele>1888.6474609</ele>
        <time>2013-02-17T12:48:11Z</time>
      </trkpt>
      <trkpt lat="45.25238" lon="6.02298">
        <ele>1884.8022461</ele>
        <time>2013-02-17T12:48:15Z</time>
      </trkpt>
      <trkpt lat="45.25212" lon="6.0226">
        <ele>1875.6694336</ele>
        <time>2013-02-17T12:48:19Z</time>
      </trkpt>
      <trkpt lat="45.25194" lon="6.02235">
        <ele>1868.9404297</ele>
        <time>2013-02-17T12:48:22Z</time>
      </trkpt>
      <trkpt lat="45.25184" lon="6.02214">
        <ele>1864.1335449</ele>
        <time>2013-02-17T12:48:24Z</time>
      </trkpt>
      <trkpt lat="45.25166" lon="6.02181">
        <ele>1857.404541</ele>
        <time>2013-02-17T12:48:27Z</time>
      </trkpt>
      <trkpt lat="45.2516" lon="6.02172">
        <ele>1855.4819336</ele>
        <time>2013-02-17T12:48:28Z</time>
      </trkpt>
      <trkpt lat="45.25126" lon="6.02125">
        <ele>1843.465332</ele>
        <time>2013-02-17T12:48:33Z</time>
      </trkpt>
      <trkpt lat="45.25112" lon="6.02091">
        <ele>1835.2939453</ele>
        <time>2013-02-17T12:48:36Z</time>
      </trkpt>
      <trkpt lat="45.25101" lon="6.02057">
        <ele>1826.1616211</ele>
        <time>2013-02-17T12:48:39Z</time>
      </trkpt>
      <trkpt lat="45.2509" lon="6.02013">
        <ele>1814.1450195</ele>
        <time>2013-02-17T12:48:43Z</time>
      </trkpt>
      <trkpt lat="45.25092" lon="6.02008">
        <ele>1809.338623</ele>
        <time>2013-02-17T12:48:45Z</time>
      </trkpt>
      <trkpt lat="45.25089" lon="6.01995">
        <ele>1805.0126953</ele>
        <time>2013-02-17T12:48:48Z</time>
      </trkpt>
      <trkpt lat="45.25084" lon="6.01969">
        <ele>1796.8413086</ele>
        <time>2013-02-17T12:48:51Z</time>
      </trkpt>
      <trkpt lat="45.2508" lon="6.01947">
        <ele>1788.6704102</ele>
        <time>2013-02-17T12:48:53Z</time>
      </trkpt>
      <trkpt lat="45.25082" lon="6.01923">
        <ele>1780.4990234</ele>
        <time>2013-02-17T12:48:55Z</time>
      </trkpt>
      <trkpt lat="45.25086" lon="6.01883">
        <ele>1767.5209961</ele>
        <time>2013-02-17T12:48:58Z</time>
      </trkpt>
      <trkpt lat="45.251" lon="6.01839">
        <ele>1754.0627441</ele>
        <time>2013-02-17T12:49:01Z</time>
      </trkpt>
      <trkpt lat="45.25107" lon="6.01808">
        <ele>1745.4108887</ele>
        <time>2013-02-17T12:49:03Z</time>
      </trkpt>
      <trkpt lat="45.25113" lon="6.01776">
        <ele>1736.2783203</ele>
        <time>2013-02-17T12:49:05Z</time>
      </trkpt>
      <trkpt lat="45.25111" lon="6.01761">
        <ele>1734.3557129</ele>
        <time>2013-02-17T12:49:06Z</time>
      </trkpt>
      <trkpt lat="45.25094" lon="6.01693">
        <ele>1719.935791</ele>
        <time>2013-02-17T12:49:11Z</time>
      </trkpt>
      <trkpt lat="45.25089" lon="6.01666">
        <ele>1713.2067871</ele>
        <time>2013-02-17T12:49:13Z</time>
      </trkpt>
      <trkpt lat="45.25082" lon="6.01639">
        <ele>1706.9580078</ele>
        <time>2013-02-17T12:49:15Z</time>
      </trkpt>
      <trkpt lat="45.25077" lon="6.01611">
        <ele>1699.748291</ele>
        <time>2013-02-17T12:49:17Z</time>
      </trkpt>
      <trkpt lat="45.25063" lon="6.01527">
        <ele>1681.9638672</ele>
        <time>2013-02-17T12:49:23Z</time>
      </trkpt>
      <trkpt lat="45.25053" lon="6.01495">
        <ele>1674.7539063</ele>
        <time>2013-02-17T12:49:26Z</time>
      </trkpt>
      <trkpt lat="45.25048" lon="6.01486">
        <ele>1671.869873</ele>
        <time>2013-02-17T12:49:27Z</time>
      </trkpt>
      <trkpt lat="45.25027" lon="6.01423">
        <ele>1659.3728027</ele>
        <time>2013-02-17T12:49:32Z</time>
      </trkpt>
      <trkpt lat="45.25027" lon="6.01397">
        <ele>1654.0856934</ele>
        <time>2013-02-17T12:49:34Z</time>
      </trkpt>
      <trkpt lat="45.25027" lon="6.01396">
        <ele>1651.2016602</ele>
        <time>2013-02-17T12:49:36Z</time>
      </trkpt>
      <trkpt lat="45.25026" lon="6.01394">
        <ele>1649.7597656</ele>
        <time>2013-02-17T12:49:42Z</time>
      </trkpt>
      <trkpt lat="45.25027" lon="6.01393">
        <ele>1651.2016602</ele>
        <time>2013-02-17T12:49:50Z</time>
      </trkpt>
      <trkpt lat="45.25026" lon="6.01393">
        <ele>1651.682373</ele>
        <time>2013-02-17T12:49:57Z</time>
      </trkpt>
      <trkpt lat="45.25025" lon="6.01393">
        <ele>1651.682373</ele>
        <time>2013-02-17T12:50:00Z</time>
      </trkpt>
      <trkpt lat="45.25016" lon="6.0138">
        <ele>1650.7209473</ele>
        <time>2013-02-17T12:50:04Z</time>
      </trkpt>
      <trkpt lat="45.25004" lon="6.0136">
        <ele>1645.4338379</ele>
        <time>2013-02-17T12:50:07Z</time>
      </trkpt>
      <trkpt lat="45.24984" lon="6.01326">
        <ele>1636.3012695</ele>
        <time>2013-02-17T12:50:11Z</time>
      </trkpt>
      <trkpt lat="45.24969" lon="6.01297">
        <ele>1627.6491699</ele>
        <time>2013-02-17T12:50:14Z</time>
      </trkpt>
      <trkpt lat="45.24962" lon="6.01277">
        <ele>1622.8427734</ele>
        <time>2013-02-17T12:50:16Z</time>
      </trkpt>
      <trkpt lat="45.24959" lon="6.01246">
        <ele>1615.6330566</ele>
        <time>2013-02-17T12:50:19Z</time>
      </trkpt>
      <trkpt lat="45.24955" lon="6.01224">
        <ele>1610.345459</ele>
        <time>2013-02-17T12:50:21Z</time>
      </trkpt>
      <trkpt lat="45.2496" lon="6.01204">
        <ele>1604.5776367</ele>
        <time>2013-02-17T12:50:23Z</time>
      </trkpt>
      <trkpt lat="45.24974" lon="6.0118">
        <ele>1594.9643555</ele>
        <time>2013-02-17T12:50:26Z</time>
      </trkpt>
      <trkpt lat="45.24995" lon="6.0116">
        <ele>1584.3901367</ele>
        <time>2013-02-17T12:50:29Z</time>
      </trkpt>
      <trkpt lat="45.25012" lon="6.01151">
        <ele>1578.1413574</ele>
        <time>2013-02-17T12:50:31Z</time>
      </trkpt>
      <trkpt lat="45.25042" lon="6.0113">
        <ele>1563.2409668</ele>
        <time>2013-02-17T12:50:35Z</time>
      </trkpt>
      <trkpt lat="45.25066" lon="6.01106">
        <ele>1553.1472168</ele>
        <time>2013-02-17T12:50:38Z</time>
      </trkpt>
      <trkpt lat="45.25088" lon="6.0108">
        <ele>1543.0532227</ele>
        <time>2013-02-17T12:50:41Z</time>
      </trkpt>
      <trkpt lat="45.25113" lon="6.01059">
        <ele>1533.9208984</ele>
        <time>2013-02-17T12:50:44Z</time>
      </trkpt>
      <trkpt lat="45.25129" lon="6.01046">
        <ele>1527.1916504</ele>
        <time>2013-02-17T12:50:46Z</time>
      </trkpt>
      <trkpt lat="45.25139" lon="6.01024">
        <ele>1520.4624023</ele>
        <time>2013-02-17T12:50:48Z</time>
      </trkpt>
      <trkpt lat="45.25151" lon="6.0095">
        <ele>1507.0039063</ele>
        <time>2013-02-17T12:50:53Z</time>
      </trkpt>
      <trkpt lat="45.25158" lon="6.00922">
        <ele>1502.6779785</ele>
        <time>2013-02-17T12:50:55Z</time>
      </trkpt>
      <trkpt lat="45.25172" lon="6.00887">
        <ele>1497.390625</ele>
        <time>2013-02-17T12:50:58Z</time>
      </trkpt>
      <trkpt lat="45.25195" lon="6.00839">
        <ele>1490.1809082</ele>
        <time>2013-02-17T12:51:03Z</time>
      </trkpt>
      <trkpt lat="45.25205" lon="6.0082">
        <ele>1487.296875</ele>
        <time>2013-02-17T12:51:05Z</time>
      </trkpt>
      <trkpt lat="45.25223" lon="6.00775">
        <ele>1481.0483398</ele>
        <time>2013-02-17T12:51:09Z</time>
      </trkpt>
      <trkpt lat="45.2523" lon="6.00738">
        <ele>1478.6450195</ele>
        <time>2013-02-17T12:51:13Z</time>
      </trkpt>
      <trkpt lat="45.25225" lon="6.00728">
        <ele>1477.203125</ele>
        <time>2013-02-17T12:51:18Z</time>
      </trkpt>
      <trkpt lat="45.25222" lon="6.00729">
        <ele>1478.1643066</ele>
        <time>2013-02-17T12:51:28Z</time>
      </trkpt>
      <trkpt lat="45.25221" lon="6.00732">
        <ele>1478.1643066</ele>
        <time>2013-02-17T12:51:37Z</time>
      </trkpt>
      <trkpt lat="45.25219" lon="6.00733">
        <ele>1477.6835938</ele>
        <time>2013-02-17T12:51:45Z</time>
      </trkpt>
      <trkpt lat="45.25218" lon="6.00737">
        <ele>1484.8937988</ele>
        <time>2013-02-17T12:51:55Z</time>
      </trkpt>
      <trkpt lat="45.25217" lon="6.00738">
        <ele>1485.3742676</ele>
        <time>2013-02-17T12:52:00Z</time>
      </trkpt>
      <trkpt lat="45.25213" lon="6.00742">
        <ele>1483.451416</ele>
        <time>2013-02-17T12:52:05Z</time>
      </trkpt>
      <trkpt lat="45.25209" lon="6.00747">
        <ele>1487.7775879</ele>
        <time>2013-02-17T12:52:11Z</time>
      </trkpt>
      <trkpt lat="45.25205" lon="6.00752">
        <ele>1487.296875</ele>
        <time>2013-02-17T12:52:14Z</time>
      </trkpt>
      <trkpt lat="45.25199" lon="6.0076">
        <ele>1487.7775879</ele>
        <time>2013-02-17T12:52:18Z</time>
      </trkpt>
      <trkpt lat="45.25193" lon="6.00768">
        <ele>1485.8549805</ele>
        <time>2013-02-17T12:52:22Z</time>
      </trkpt>
      <trkpt lat="45.25187" lon="6.00776">
        <ele>1488.2583008</ele>
        <time>2013-02-17T12:52:26Z</time>
      </trkpt>
      <trkpt lat="45.25179" lon="6.00786">
        <ele>1491.1420898</ele>
        <time>2013-02-17T12:52:31Z</time>
      </trkpt>
      <trkpt lat="45.25174" lon="6.00793">
        <ele>1494.5065918</ele>
        <time>2013-02-17T12:52:35Z</time>
      </trkpt>
      <trkpt lat="45.25166" lon="6.00803">
        <ele>1493.5454102</ele>
        <time>2013-02-17T12:52:41Z</time>
      </trkpt>
      <trkpt lat="45.25158" lon="6.00813">
        <ele>1494.026123</ele>
        <time>2013-02-17T12:52:47Z</time>
      </trkpt>
      <trkpt lat="45.25148" lon="6.00831">
        <ele>1501.236084</ele>
        <time>2013-02-17T12:52:56Z</time>
      </trkpt>
      <trkpt lat="45.25126" lon="6.00853">
        <ele>1508.9265137</ele>
        <time>2013-02-17T12:53:07Z</time>
      </trkpt>
      <trkpt lat="45.25115" lon="6.00868">
        <ele>1518.5397949</ele>
        <time>2013-02-17T12:53:15Z</time>
      </trkpt>
      <trkpt lat="45.25103" lon="6.00887">
        <ele>1533.9208984</ele>
        <time>2013-02-17T12:53:24Z</time>
      </trkpt>
      <trkpt lat="45.25092" lon="6.00903">
        <ele>1545.9372559</ele>
        <time>2013-02-17T12:53:32Z</time>
      </trkpt>
      <trkpt lat="45.25083" lon="6.00916">
        <ele>1554.1086426</ele>
        <time>2013-02-17T12:53:39Z</time>
      </trkpt>
      <trkpt lat="45.2508" lon="6.00919">
        <ele>1556.5117188</ele>
        <time>2013-02-17T12:53:41Z</time>
      </trkpt>
      <trkpt lat="45.25074" lon="6.00928">
        <ele>1558.9150391</ele>
        <time>2013-02-17T12:53:45Z</time>
      </trkpt>
      <trkpt lat="45.25062" lon="6.00945">
        <ele>1563.2409668</ele>
        <time>2013-02-17T12:53:53Z</time>
      </trkpt>
      <trkpt lat="45.25053" lon="6.00959">
        <ele>1564.2023926</ele>
        <time>2013-02-17T12:54:00Z</time>
      </trkpt>
      <trkpt lat="45.25041" lon="6.00975">
        <ele>1564.6831055</ele>
        <time>2013-02-17T12:54:08Z</time>
      </trkpt>
      <trkpt lat="45.2503" lon="6.00989">
        <ele>1564.6831055</ele>
        <time>2013-02-17T12:54:16Z</time>
      </trkpt>
      <trkpt lat="45.25021" lon="6.01001">
        <ele>1565.1638184</ele>
        <time>2013-02-17T12:54:23Z</time>
      </trkpt>
      <trkpt lat="45.25009" lon="6.01015">
        <ele>1565.1638184</ele>
        <time>2013-02-17T12:54:31Z</time>
      </trkpt>
      <trkpt lat="45.24998" lon="6.01032">
        <ele>1573.8154297</ele>
        <time>2013-02-17T12:54:39Z</time>
      </trkpt>
      <trkpt lat="45.24988" lon="6.01048">
        <ele>1577.6606445</ele>
        <time>2013-02-17T12:54:47Z</time>
      </trkpt>
      <trkpt lat="45.24973" lon="6.0107">
        <ele>1579.583252</ele>
        <time>2013-02-17T12:54:58Z</time>
      </trkpt>
      <trkpt lat="45.24962" lon="6.01086">
        <ele>1581.5061035</ele>
        <time>2013-02-17T12:55:06Z</time>
      </trkpt>
      <trkpt lat="45.24948" lon="6.01105">
        <ele>1585.3513184</ele>
        <time>2013-02-17T12:55:16Z</time>
      </trkpt>
      <trkpt lat="45.24934" lon="6.01125">
        <ele>1592.5612793</ele>
        <time>2013-02-17T12:55:26Z</time>
      </trkpt>
      <trkpt lat="45.24914" lon="6.01152">
        <ele>1605.0583496</ele>
        <time>2013-02-17T12:55:40Z</time>
      </trkpt>
      <trkpt lat="45.24896" lon="6.01177">
        <ele>1616.1135254</ele>
        <time>2013-02-17T12:55:53Z</time>
      </trkpt>
      <trkpt lat="45.24878" lon="6.01202">
        <ele>1620.920166</ele>
        <time>2013-02-17T12:56:05Z</time>
      </trkpt>
      <trkpt lat="45.24861" lon="6.01225">
        <ele>1627.1687012</ele>
        <time>2013-02-17T12:56:17Z</time>
      </trkpt>
      <trkpt lat="45.24839" lon="6.01254">
        <ele>1634.859375</ele>
        <time>2013-02-17T12:56:32Z</time>
      </trkpt>
      <trkpt lat="45.2482" lon="6.0128">
        <ele>1645.9145508</ele>
        <time>2013-02-17T12:56:46Z</time>
      </trkpt>
      <trkpt lat="45.248" lon="6.01306">
        <ele>1662.7375488</ele>
        <time>2013-02-17T12:57:01Z</time>
      </trkpt>
      <trkpt lat="45.24784" lon="6.01329">
        <ele>1679.079834</ele>
        <time>2013-02-17T12:57:14Z</time>
      </trkpt>
      <trkpt lat="45.2477" lon="6.01347">
        <ele>1693.4997559</ele>
        <time>2013-02-17T12:57:25Z</time>
      </trkpt>
      <trkpt lat="45.24754" lon="6.0137">
        <ele>1712.2453613</ele>
        <time>2013-02-17T12:57:39Z</time>
      </trkpt>
      <trkpt lat="45.24742" lon="6.01386">
        <ele>1722.3391113</ele>
        <time>2013-02-17T12:57:48Z</time>
      </trkpt>
      <trkpt lat="45.24722" lon="6.01414">
        <ele>1738.2009277</ele>
        <time>2013-02-17T12:58:03Z</time>
      </trkpt>
      <trkpt lat="45.24698" lon="6.01446">
        <ele>1754.0627441</ele>
        <time>2013-02-17T12:58:20Z</time>
      </trkpt>
      <trkpt lat="45.24674" lon="6.01479">
        <ele>1772.8085938</ele>
        <time>2013-02-17T12:58:38Z</time>
      </trkpt>
      <trkpt lat="45.24658" lon="6.01501">
        <ele>1784.3442383</ele>
        <time>2013-02-17T12:58:50Z</time>
      </trkpt>
      <trkpt lat="45.24633" lon="6.01535">
        <ele>1800.6865234</ele>
        <time>2013-02-17T12:59:08Z</time>
      </trkpt>
      <trkpt lat="45.24614" lon="6.01562">
        <ele>1814.6257324</ele>
        <time>2013-02-17T12:59:22Z</time>
      </trkpt>
      <trkpt lat="45.24596" lon="6.01587">
        <ele>1829.0454102</ele>
        <time>2013-02-17T12:59:36Z</time>
      </trkpt>
      <trkpt lat="45.24582" lon="6.0161">
        <ele>1839.6201172</ele>
        <time>2013-02-17T12:59:48Z</time>
      </trkpt>
      <trkpt lat="45.24568" lon="6.01629">
        <ele>1848.2717285</ele>
        <time>2013-02-17T12:59:58Z</time>
      </trkpt>
      <trkpt lat="45.24545" lon="6.01663">
        <ele>1864.6142578</ele>
        <time>2013-02-17T13:00:16Z</time>
      </trkpt>
      <trkpt lat="45.2453" lon="6.01684">
        <ele>1877.1115723</ele>
        <time>2013-02-17T13:00:28Z</time>
      </trkpt>
      <trkpt lat="45.2452" lon="6.01697">
        <ele>1882.8791504</ele>
        <time>2013-02-17T13:00:35Z</time>
      </trkpt>
      <trkpt lat="45.24507" lon="6.01715">
        <ele>1887.2053223</ele>
        <time>2013-02-17T13:00:44Z</time>
      </trkpt>
      <trkpt lat="45.24493" lon="6.01734">
        <ele>1887.6860352</ele>
        <time>2013-02-17T13:00:53Z</time>
      </trkpt>
      <trkpt lat="45.24482" lon="6.01749">
        <ele>1887.2053223</ele>
        <time>2013-02-17T13:00:58Z</time>
      </trkpt>
      <trkpt lat="45.24477" lon="6.01764">
        <ele>1885.7634277</ele>
        <time>2013-02-17T13:01:02Z</time>
      </trkpt>
      <trkpt lat="45.24469" lon="6.0177">
        <ele>1884.3215332</ele>
        <time>2013-02-17T13:01:05Z</time>
      </trkpt>
      <trkpt lat="45.24464" lon="6.01766">
        <ele>1883.3598633</ele>
        <time>2013-02-17T13:01:08Z</time>
      </trkpt>
      <trkpt lat="45.24464" lon="6.01766">
        <ele>1883.3598633</ele>
        <time>2013-02-17T13:01:22Z</time>
      </trkpt>
      <trkpt lat="45.24465" lon="6.01766">
        <ele>1883.3598633</ele>
        <time>2013-02-17T13:01:30Z</time>
      </trkpt>
      <trkpt lat="45.24465" lon="6.01766">
        <ele>1882.8791504</ele>
        <time>2013-02-17T13:01:38Z</time>
      </trkpt>
      <trkpt lat="45.24463" lon="6.01767">
        <ele>1881.9179688</ele>
        <time>2013-02-17T13:01:44Z</time>
      </trkpt>
      <trkpt lat="45.2444" lon="6.01768">
        <ele>1874.708252</ele>
        <time>2013-02-17T13:01:48Z</time>
      </trkpt>
      <trkpt lat="45.24424" lon="6.01755">
        <ele>1871.3435059</ele>
        <time>2013-02-17T13:01:50Z</time>
      </trkpt>
      <trkpt lat="45.24394" lon="6.0173">
        <ele>1868.4597168</ele>
        <time>2013-02-17T13:01:55Z</time>
      </trkpt>
      <trkpt lat="45.24374" lon="6.0171">
        <ele>1868.4597168</ele>
        <time>2013-02-17T13:02:00Z</time>
      </trkpt>
      <trkpt lat="45.24352" lon="6.01687">
        <ele>1866.0561523</ele>
        <time>2013-02-17T13:02:04Z</time>
      </trkpt>
      <trkpt lat="45.24322" lon="6.01627">
        <ele>1860.2883301</ele>
        <time>2013-02-17T13:02:10Z</time>
      </trkpt>
      <trkpt lat="45.24311" lon="6.01593">
        <ele>1859.3271484</ele>
        <time>2013-02-17T13:02:13Z</time>
      </trkpt>
      <trkpt lat="45.24299" lon="6.01558">
        <ele>1857.8852539</ele>
        <time>2013-02-17T13:02:17Z</time>
      </trkpt>
      <trkpt lat="45.24294" lon="6.01534">
        <ele>1858.3657227</ele>
        <time>2013-02-17T13:02:21Z</time>
      </trkpt>
      <trkpt lat="45.24286" lon="6.01509">
        <ele>1857.404541</ele>
        <time>2013-02-17T13:02:25Z</time>
      </trkpt>
      <trkpt lat="45.24281" lon="6.01491">
        <ele>1857.404541</ele>
        <time>2013-02-17T13:02:28Z</time>
      </trkpt>
      <trkpt lat="45.24279" lon="6.01486">
        <ele>1857.404541</ele>
        <time>2013-02-17T13:02:29Z</time>
      </trkpt>
      <trkpt lat="45.24272" lon="6.01454">
        <ele>1855.9624023</ele>
        <time>2013-02-17T13:02:34Z</time>
      </trkpt>
      <trkpt lat="45.24271" lon="6.01421">
        <ele>1855.0012207</ele>
        <time>2013-02-17T13:02:39Z</time>
      </trkpt>
      <trkpt lat="45.24273" lon="6.01398">
        <ele>1853.0786133</ele>
        <time>2013-02-17T13:02:43Z</time>
      </trkpt>
      <trkpt lat="45.24276" lon="6.01377">
        <ele>1852.5979004</ele>
        <time>2013-02-17T13:02:46Z</time>
      </trkpt>
      <trkpt lat="45.24279" lon="6.01357">
        <ele>1852.5979004</ele>
        <time>2013-02-17T13:02:49Z</time>
      </trkpt>
      <trkpt lat="45.2428" lon="6.01344">
        <ele>1853.0786133</ele>
        <time>2013-02-17T13:02:51Z</time>
      </trkpt>
      <trkpt lat="45.24283" lon="6.01301">
        <ele>1854.0400391</ele>
        <time>2013-02-17T13:02:58Z</time>
      </trkpt>
      <trkpt lat="45.24286" lon="6.01277">
        <ele>1852.1171875</ele>
        <time>2013-02-17T13:03:02Z</time>
      </trkpt>
      <trkpt lat="45.24287" lon="6.01248">
        <ele>1853.5593262</ele>
        <time>2013-02-17T13:03:07Z</time>
      </trkpt>
      <trkpt lat="45.24289" lon="6.01242">
        <ele>1852.5979004</ele>
        <time>2013-02-17T13:03:08Z</time>
      </trkpt>
      <trkpt lat="45.243" lon="6.01186">
        <ele>1850.1945801</ele>
        <time>2013-02-17T13:03:18Z</time>
      </trkpt>
      <trkpt lat="45.24312" lon="6.01146">
        <ele>1845.8686523</ele>
        <time>2013-02-17T13:03:23Z</time>
      </trkpt>
      <trkpt lat="45.24316" lon="6.01127">
        <ele>1845.3879395</ele>
        <time>2013-02-17T13:03:25Z</time>
      </trkpt>
      <trkpt lat="45.24318" lon="6.01079">
        <ele>1841.5427246</ele>
        <time>2013-02-17T13:03:30Z</time>
      </trkpt>
      <trkpt lat="45.24326" lon="6.01036">
        <ele>1836.2556152</ele>
        <time>2013-02-17T13:03:35Z</time>
      </trkpt>
      <trkpt lat="45.24333" lon="6.01011">
        <ele>1830.0068359</ele>
        <time>2013-02-17T13:03:38Z</time>
      </trkpt>
      <trkpt lat="45.24353" lon="6.00959">
        <ele>1816.067627</ele>
        <time>2013-02-17T13:03:43Z</time>
      </trkpt>
      <trkpt lat="45.24358" lon="6.0095">
        <ele>1813.6643066</ele>
        <time>2013-02-17T13:03:44Z</time>
      </trkpt>
      <trkpt lat="45.24386" lon="6.009">
        <ele>1801.1672363</ele>
        <time>2013-02-17T13:03:49Z</time>
      </trkpt>
      <trkpt lat="45.24409" lon="6.00865">
        <ele>1794.4379883</ele>
        <time>2013-02-17T13:03:53Z</time>
      </trkpt>
      <trkpt lat="45.24425" lon="6.00847">
        <ele>1792.0349121</ele>
        <time>2013-02-17T13:03:56Z</time>
      </trkpt>
      <trkpt lat="45.24443" lon="6.00821">
        <ele>1788.1896973</ele>
        <time>2013-02-17T13:04:00Z</time>
      </trkpt>
      <trkpt lat="45.24464" lon="6.00793">
        <ele>1782.9020996</ele>
        <time>2013-02-17T13:04:04Z</time>
      </trkpt>
      <trkpt lat="45.24482" lon="6.00769">
        <ele>1777.6149902</ele>
        <time>2013-02-17T13:04:07Z</time>
      </trkpt>
      <trkpt lat="45.24497" lon="6.00742">
        <ele>1772.3278809</ele>
        <time>2013-02-17T13:04:10Z</time>
      </trkpt>
      <trkpt lat="45.24512" lon="6.00719">
        <ele>1767.0405273</ele>
        <time>2013-02-17T13:04:13Z</time>
      </trkpt>
      <trkpt lat="45.24527" lon="6.00702">
        <ele>1760.3112793</ele>
        <time>2013-02-17T13:04:16Z</time>
      </trkpt>
      <trkpt lat="45.24537" lon="6.00692">
        <ele>1754.5432129</ele>
        <time>2013-02-17T13:04:18Z</time>
      </trkpt>
      <trkpt lat="45.24548" lon="6.00677">
        <ele>1748.2946777</ele>
        <time>2013-02-17T13:04:20Z</time>
      </trkpt>
      <trkpt lat="45.24568" lon="6.00657">
        <ele>1738.2009277</ele>
        <time>2013-02-17T13:04:23Z</time>
      </trkpt>
      <trkpt lat="45.24581" lon="6.00644">
        <ele>1731.4716797</ele>
        <time>2013-02-17T13:04:25Z</time>
      </trkpt>
      <trkpt lat="45.24595" lon="6.00628">
        <ele>1724.7426758</ele>
        <time>2013-02-17T13:04:27Z</time>
      </trkpt>
      <trkpt lat="45.24618" lon="6.00614">
        <ele>1715.1293945</ele>
        <time>2013-02-17T13:04:30Z</time>
      </trkpt>
      <trkpt lat="45.2464" lon="6.00603">
        <ele>1706.4772949</ele>
        <time>2013-02-17T13:04:33Z</time>
      </trkpt>
      <trkpt lat="45.24657" lon="6.0059">
        <ele>1699.2675781</ele>
        <time>2013-02-17T13:04:36Z</time>
      </trkpt>
      <trkpt lat="45.24664" lon="6.00581">
        <ele>1695.4223633</ele>
        <time>2013-02-17T13:04:38Z</time>
      </trkpt>
      <trkpt lat="45.24674" lon="6.00564">
        <ele>1689.6542969</ele>
        <time>2013-02-17T13:04:43Z</time>
      </trkpt>
      <trkpt lat="45.24674" lon="6.00564">
        <ele>1690.6154785</ele>
        <time>2013-02-17T13:04:49Z</time>
      </trkpt>
      <trkpt lat="45.24674" lon="6.00565">
        <ele>1691.0961914</ele>
        <time>2013-02-17T13:04:55Z</time>
      </trkpt>
      <trkpt lat="45.24673" lon="6.00565">
        <ele>1691.5769043</ele>
        <time>2013-02-17T13:05:02Z</time>
      </trkpt>
      <trkpt lat="45.24673" lon="6.00565">
        <ele>1692.5385742</ele>
        <time>2013-02-17T13:05:14Z</time>
      </trkpt>
      <trkpt lat="45.24672" lon="6.00565">
        <ele>1693.019043</ele>
        <time>2013-02-17T13:05:23Z</time>
      </trkpt>
      <trkpt lat="45.24672" lon="6.00563">
        <ele>1692.0578613</ele>
        <time>2013-02-17T13:05:40Z</time>
      </trkpt>
      <trkpt lat="45.24671" lon="6.00557">
        <ele>1691.5769043</ele>
        <time>2013-02-17T13:05:41Z</time>
      </trkpt>
      <trkpt lat="45.24681" lon="6.00528">
        <ele>1688.6931152</ele>
        <time>2013-02-17T13:05:45Z</time>
      </trkpt>
      <trkpt lat="45.24682" lon="6.0051">
        <ele>1684.3671875</ele>
        <time>2013-02-17T13:05:47Z</time>
      </trkpt>
      <trkpt lat="45.24671" lon="6.0049">
        <ele>1679.5605469</ele>
        <time>2013-02-17T13:05:49Z</time>
      </trkpt>
      <trkpt lat="45.24652" lon="6.00475">
        <ele>1675.234375</ele>
        <time>2013-02-17T13:05:51Z</time>
      </trkpt>
      <trkpt lat="45.24637" lon="6.00461">
        <ele>1670.4279785</ele>
        <time>2013-02-17T13:05:53Z</time>
      </trkpt>
      <trkpt lat="45.24616" lon="6.00426">
        <ele>1658.8920898</ele>
        <time>2013-02-17T13:05:57Z</time>
      </trkpt>
      <trkpt lat="45.24608" lon="6.00405">
        <ele>1652.6435547</ele>
        <time>2013-02-17T13:05:59Z</time>
      </trkpt>
      <trkpt lat="45.24598" lon="6.00384">
        <ele>1645.9145508</ele>
        <time>2013-02-17T13:06:01Z</time>
      </trkpt>
      <trkpt lat="45.24586" lon="6.00334">
        <ele>1630.5334473</ele>
        <time>2013-02-17T13:06:05Z</time>
      </trkpt>
      <trkpt lat="45.24577" lon="6.00292">
        <ele>1617.5554199</ele>
        <time>2013-02-17T13:06:08Z</time>
      </trkpt>
      <trkpt lat="45.24568" lon="6.00266">
        <ele>1609.3842773</ele>
        <time>2013-02-17T13:06:10Z</time>
      </trkpt>
      <trkpt lat="45.24567" lon="6.00239">
        <ele>1600.7324219</ele>
        <time>2013-02-17T13:06:12Z</time>
      </trkpt>
      <trkpt lat="45.24566" lon="6.00209">
        <ele>1591.1191406</ele>
        <time>2013-02-17T13:06:14Z</time>
      </trkpt>
      <trkpt lat="45.24569" lon="6.00166">
        <ele>1577.1801758</ele>
        <time>2013-02-17T13:06:17Z</time>
      </trkpt>
      <trkpt lat="45.24573" lon="6.00137">
        <ele>1568.5283203</ele>
        <time>2013-02-17T13:06:19Z</time>
      </trkpt>
      <trkpt lat="45.24574" lon="6.00109">
        <ele>1559.395752</ele>
        <time>2013-02-17T13:06:21Z</time>
      </trkpt>
      <trkpt lat="45.24579" lon="6.00084">
        <ele>1551.2246094</ele>
        <time>2013-02-17T13:06:23Z</time>
      </trkpt>
      <trkpt lat="45.24585" lon="6.00045">
        <ele>1539.6887207</ele>
        <time>2013-02-17T13:06:26Z</time>
      </trkpt>
      <trkpt lat="45.24588" lon="6.00007">
        <ele>1527.6721191</ele>
        <time>2013-02-17T13:06:29Z</time>
      </trkpt>
      <trkpt lat="45.2459" lon="5.99982">
        <ele>1519.5012207</ele>
        <time>2013-02-17T13:06:31Z</time>
      </trkpt>
      <trkpt lat="45.24595" lon="5.99945">
        <ele>1507.965332</ele>
        <time>2013-02-17T13:06:34Z</time>
      </trkpt>
      <trkpt lat="45.24599" lon="5.99935">
        <ele>1503.6394043</ele>
        <time>2013-02-17T13:06:35Z</time>
      </trkpt>
      <trkpt lat="45.24614" lon="5.99884">
        <ele>1486.8161621</ele>
        <time>2013-02-17T13:06:39Z</time>
      </trkpt>
      <trkpt lat="45.24628" lon="5.99854">
        <ele>1474.3190918</ele>
        <time>2013-02-17T13:06:42Z</time>
      </trkpt>
      <trkpt lat="45.24644" lon="5.99822">
        <ele>1460.8605957</ele>
        <time>2013-02-17T13:06:45Z</time>
      </trkpt>
      <trkpt lat="45.24662" lon="5.99799">
        <ele>1452.2087402</ele>
        <time>2013-02-17T13:06:47Z</time>
      </trkpt>
      <trkpt lat="45.24674" lon="5.99792">
        <ele>1448.3632813</ele>
        <time>2013-02-17T13:06:48Z</time>
      </trkpt>
      <trkpt lat="45.2472" lon="5.99758">
        <ele>1430.0983887</ele>
        <time>2013-02-17T13:06:53Z</time>
      </trkpt>
      <trkpt lat="45.24726" lon="5.99754">
        <ele>1426.7338867</ele>
        <time>2013-02-17T13:06:54Z</time>
      </trkpt>
      <trkpt lat="45.24733" lon="5.99744">
        <ele>1422.8886719</ele>
        <time>2013-02-17T13:06:56Z</time>
      </trkpt>
      <trkpt lat="45.24737" lon="5.99736">
        <ele>1421.4465332</ele>
        <time>2013-02-17T13:07:00Z</time>
      </trkpt>
      <trkpt lat="45.24737" lon="5.99735">
        <ele>1427.2145996</ele>
        <time>2013-02-17T13:07:09Z</time>
      </trkpt>
      <trkpt lat="45.24739" lon="5.99737">
        <ele>1437.7890625</ele>
        <time>2013-02-17T13:07:20Z</time>
      </trkpt>
      <trkpt lat="45.24738" lon="5.99741">
        <ele>1443.0761719</ele>
        <time>2013-02-17T13:07:33Z</time>
      </trkpt>
      <trkpt lat="45.24736" lon="5.99739">
        <ele>1441.6342773</ele>
        <time>2013-02-17T13:07:39Z</time>
      </trkpt>
      <trkpt lat="45.24735" lon="5.99735">
        <ele>1441.6342773</ele>
        <time>2013-02-17T13:07:44Z</time>
      </trkpt>
      <trkpt lat="45.24733" lon="5.99731">
        <ele>1442.1149902</ele>
        <time>2013-02-17T13:07:46Z</time>
      </trkpt>
      <trkpt lat="45.24734" lon="5.99721">
        <ele>1441.6342773</ele>
        <time>2013-02-17T13:07:50Z</time>
      </trkpt>
      <trkpt lat="45.24736" lon="5.99711">
        <ele>1440.6728516</ele>
        <time>2013-02-17T13:07:54Z</time>
      </trkpt>
      <trkpt lat="45.24739" lon="5.997">
        <ele>1439.230957</ele>
        <time>2013-02-17T13:07:59Z</time>
      </trkpt>
      <trkpt lat="45.24743" lon="5.99689">
        <ele>1438.7504883</ele>
        <time>2013-02-17T13:08:02Z</time>
      </trkpt>
      <trkpt lat="45.24748" lon="5.99686">
        <ele>1438.7504883</ele>
        <time>2013-02-17T13:08:04Z</time>
      </trkpt>
      <trkpt lat="45.24757" lon="5.99675">
        <ele>1437.7890625</ele>
        <time>2013-02-17T13:08:09Z</time>
      </trkpt>
      <trkpt lat="45.24761" lon="5.9966">
        <ele>1435.385498</ele>
        <time>2013-02-17T13:08:12Z</time>
      </trkpt>
      <trkpt lat="45.24771" lon="5.99645">
        <ele>1433.4628906</ele>
        <time>2013-02-17T13:08:17Z</time>
      </trkpt>
      <trkpt lat="45.24774" lon="5.99642">
        <ele>1432.9821777</ele>
        <time>2013-02-17T13:08:18Z</time>
      </trkpt>
      <trkpt lat="45.2478" lon="5.99634">
        <ele>1432.9821777</ele>
        <time>2013-02-17T13:08:21Z</time>
      </trkpt>
      <trkpt lat="45.2479" lon="5.99627">
        <ele>1432.0209961</ele>
        <time>2013-02-17T13:08:26Z</time>
      </trkpt>
      <trkpt lat="45.248" lon="5.99619">
        <ele>1431.0598145</ele>
        <time>2013-02-17T13:08:30Z</time>
      </trkpt>
      <trkpt lat="45.24813" lon="5.99612">
        <ele>1429.6176758</ele>
        <time>2013-02-17T13:08:34Z</time>
      </trkpt>
      <trkpt lat="45.24815" lon="5.9961">
        <ele>1429.6176758</ele>
        <time>2013-02-17T13:08:35Z</time>
      </trkpt>
      <trkpt lat="45.2483" lon="5.99601">
        <ele>1425.7724609</ele>
        <time>2013-02-17T13:08:40Z</time>
      </trkpt>
      <trkpt lat="45.24833" lon="5.99597">
        <ele>1424.8112793</ele>
        <time>2013-02-17T13:08:47Z</time>
      </trkpt>
      <trkpt lat="45.24845" lon="5.9959">
        <ele>1424.8112793</ele>
        <time>2013-02-17T13:08:53Z</time>
      </trkpt>
      <trkpt lat="45.24848" lon="5.99586">
        <ele>1424.8112793</ele>
        <time>2013-02-17T13:08:55Z</time>
      </trkpt>
      <trkpt lat="45.24852" lon="5.99582">
        <ele>1426.7338867</ele>
        <time>2013-02-17T13:09:10Z</time>
      </trkpt>
      <trkpt lat="45.24854" lon="5.99581">
        <ele>1426.2531738</ele>
        <time>2013-02-17T13:09:12Z</time>
      </trkpt>
      <trkpt lat="45.2487" lon="5.9958">
        <ele>1426.2531738</ele>
        <time>2013-02-17T13:09:17Z</time>
      </trkpt>
      <trkpt lat="45.2488" lon="5.9957">
        <ele>1423.8498535</ele>
        <time>2013-02-17T13:09:20Z</time>
      </trkpt>
      <trkpt lat="45.24885" lon="5.99567">
        <ele>1423.3693848</ele>
        <time>2013-02-17T13:09:21Z</time>
      </trkpt>
      <trkpt lat="45.24905" lon="5.99552">
        <ele>1421.9272461</ele>
        <time>2013-02-17T13:09:25Z</time>
      </trkpt>
      <trkpt lat="45.24931" lon="5.99531">
        <ele>1418.5625</ele>
        <time>2013-02-17T13:09:30Z</time>
      </trkpt>
      <trkpt lat="45.24948" lon="5.99516">
        <ele>1415.197998</ele>
        <time>2013-02-17T13:09:33Z</time>
      </trkpt>
      <trkpt lat="45.24968" lon="5.99483">
        <ele>1411.3527832</ele>
        <time>2013-02-17T13:09:37Z</time>
      </trkpt>
      <trkpt lat="45.24981" lon="5.99475">
        <ele>1408.9494629</ele>
        <time>2013-02-17T13:09:39Z</time>
      </trkpt>
      <trkpt lat="45.25018" lon="5.99463">
        <ele>1403.6621094</ele>
        <time>2013-02-17T13:09:44Z</time>
      </trkpt>
      <trkpt lat="45.25058" lon="5.99446">
        <ele>1397.8942871</ele>
        <time>2013-02-17T13:09:49Z</time>
      </trkpt>
      <trkpt lat="45.25089" lon="5.99427">
        <ele>1394.0490723</ele>
        <time>2013-02-17T13:09:53Z</time>
      </trkpt>
      <trkpt lat="45.25104" lon="5.99419">
        <ele>1392.6071777</ele>
        <time>2013-02-17T13:09:55Z</time>
      </trkpt>
      <trkpt lat="45.25124" lon="5.99406">
        <ele>1390.6843262</ele>
        <time>2013-02-17T13:09:58Z</time>
      </trkpt>
      <trkpt lat="45.2516" lon="5.99384">
        <ele>1388.28125</ele>
        <time>2013-02-17T13:10:04Z</time>
      </trkpt>
      <trkpt lat="45.252" lon="5.99363">
        <ele>1384.9165039</ele>
        <time>2013-02-17T13:10:11Z</time>
      </trkpt>
      <trkpt lat="45.25236" lon="5.99352">
        <ele>1381.5517578</ele>
        <time>2013-02-17T13:10:17Z</time>
      </trkpt>
      <trkpt lat="45.25263" lon="5.99351">
        <ele>1378.1872559</ele>
        <time>2013-02-17T13:10:21Z</time>
      </trkpt>
      <trkpt lat="45.25283" lon="5.99347">
        <ele>1375.3032227</ele>
        <time>2013-02-17T13:10:24Z</time>
      </trkpt>
      <trkpt lat="45.2531" lon="5.99345">
        <ele>1372.4194336</ele>
        <time>2013-02-17T13:10:28Z</time>
      </trkpt>
      <trkpt lat="45.25351" lon="5.99349">
        <ele>1368.5739746</ele>
        <time>2013-02-17T13:10:34Z</time>
      </trkpt>
      <trkpt lat="45.25364" lon="5.99354">
        <ele>1368.0932617</ele>
        <time>2013-02-17T13:10:36Z</time>
      </trkpt>
      <trkpt lat="45.25402" lon="5.99361">
        <ele>1364.2480469</ele>
        <time>2013-02-17T13:10:42Z</time>
      </trkpt>
      <trkpt lat="45.2542" lon="5.99362">
        <ele>1363.2868652</ele>
        <time>2013-02-17T13:10:45Z</time>
      </trkpt>
      <trkpt lat="45.25441" lon="5.99357">
        <ele>1360.8835449</ele>
        <time>2013-02-17T13:10:49Z</time>
      </trkpt>
      <trkpt lat="45.2546" lon="5.9936">
        <ele>1359.9221191</ele>
        <time>2013-02-17T13:10:53Z</time>
      </trkpt>
      <trkpt lat="45.25475" lon="5.99354">
        <ele>1358.4802246</ele>
        <time>2013-02-17T13:10:57Z</time>
      </trkpt>
      <trkpt lat="45.25497" lon="5.99341">
        <ele>1357.9997559</ele>
        <time>2013-02-17T13:11:04Z</time>
      </trkpt>
      <trkpt lat="45.25522" lon="5.99334">
        <ele>1355.5961914</ele>
        <time>2013-02-17T13:11:10Z</time>
      </trkpt>
      <trkpt lat="45.25543" lon="5.99334">
        <ele>1353.1928711</ele>
        <time>2013-02-17T13:11:14Z</time>
      </trkpt>
      <trkpt lat="45.25567" lon="5.9935">
        <ele>1349.8283691</ele>
        <time>2013-02-17T13:11:19Z</time>
      </trkpt>
      <trkpt lat="45.25572" lon="5.99355">
        <ele>1348.8669434</ele>
        <time>2013-02-17T13:11:20Z</time>
      </trkpt>
      <trkpt lat="45.2559" lon="5.99393">
        <ele>1345.9831543</ele>
        <time>2013-02-17T13:11:25Z</time>
      </trkpt>
      <trkpt lat="45.25609" lon="5.99452">
        <ele>1339.734375</ele>
        <time>2013-02-17T13:11:31Z</time>
      </trkpt>
      <trkpt lat="45.25616" lon="5.99476">
        <ele>1337.8117676</ele>
        <time>2013-02-17T13:11:33Z</time>
      </trkpt>
      <trkpt lat="45.25625" lon="5.99511">
        <ele>1336.369873</ele>
        <time>2013-02-17T13:11:37Z</time>
      </trkpt>
      <trkpt lat="45.25632" lon="5.99524">
        <ele>1335.4084473</ele>
        <time>2013-02-17T13:11:40Z</time>
      </trkpt>
      <trkpt lat="45.25634" lon="5.99533">
        <ele>1335.4084473</ele>
        <time>2013-02-17T13:11:42Z</time>
      </trkpt>
      <trkpt lat="45.25638" lon="5.99546">
        <ele>1334.9279785</ele>
        <time>2013-02-17T13:11:49Z</time>
      </trkpt>
      <trkpt lat="45.2564" lon="5.99549">
        <ele>1334.4472656</ele>
        <time>2013-02-17T13:11:56Z</time>
      </trkpt>
      <trkpt lat="45.25642" lon="5.99555">
        <ele>1334.9279785</ele>
        <time>2013-02-17T13:12:02Z</time>
      </trkpt>
      <trkpt lat="45.25643" lon="5.99562">
        <ele>1334.9279785</ele>
        <time>2013-02-17T13:12:09Z</time>
      </trkpt>
      <trkpt lat="45.25645" lon="5.99572">
        <ele>1333.9665527</ele>
        <time>2013-02-17T13:12:12Z</time>
      </trkpt>
      <trkpt lat="45.25645" lon="5.99585">
        <ele>1333.4858398</ele>
        <time>2013-02-17T13:12:17Z</time>
      </trkpt>
      <trkpt lat="45.25645" lon="5.99587">
        <ele>1333.9665527</ele>
        <time>2013-02-17T13:12:23Z</time>
      </trkpt>
      <trkpt lat="45.25645" lon="5.99589">
        <ele>1334.9279785</ele>
        <time>2013-02-17T13:12:30Z</time>
      </trkpt>
      <trkpt lat="45.25646" lon="5.99594">
        <ele>1336.369873</ele>
        <time>2013-02-17T13:12:40Z</time>
      </trkpt>
      <trkpt lat="45.25647" lon="5.99599">
        <ele>1336.8503418</ele>
        <time>2013-02-17T13:12:46Z</time>
      </trkpt>
      <trkpt lat="45.25648" lon="5.99601">
        <ele>1336.8503418</ele>
        <time>2013-02-17T13:12:54Z</time>
      </trkpt>
      <trkpt lat="45.25649" lon="5.99605">
        <ele>1336.369873</ele>
        <time>2013-02-17T13:13:03Z</time>
      </trkpt>
      <trkpt lat="45.2565" lon="5.99611">
        <ele>1336.8503418</ele>
        <time>2013-02-17T13:13:12Z</time>
      </trkpt>
      <trkpt lat="45.25651" lon="5.99615">
        <ele>1337.3310547</ele>
        <time>2013-02-17T13:13:18Z</time>
      </trkpt>
      <trkpt lat="45.25653" lon="5.99622">
        <ele>1338.7731934</ele>
        <time>2013-02-17T13:13:28Z</time>
      </trkpt>
      <trkpt lat="45.25654" lon="5.99629">
        <ele>1339.2536621</ele>
        <time>2013-02-17T13:13:38Z</time>
      </trkpt>
      <trkpt lat="45.25656" lon="5.99641">
        <ele>1340.215332</ele>
        <time>2013-02-17T13:13:56Z</time>
      </trkpt>
      <trkpt lat="45.25658" lon="5.99647">
        <ele>1341.1765137</ele>
        <time>2013-02-17T13:14:06Z</time>
      </trkpt>
      <trkpt lat="45.2566" lon="5.99655">
        <ele>1341.6572266</ele>
        <time>2013-02-17T13:14:19Z</time>
      </trkpt>
      <trkpt lat="45.25661" lon="5.99661">
        <ele>1342.1379395</ele>
        <time>2013-02-17T13:14:29Z</time>
      </trkpt>
      <trkpt lat="45.25662" lon="5.99668">
        <ele>1343.0991211</ele>
        <time>2013-02-17T13:14:36Z</time>
      </trkpt>
      <trkpt lat="45.25658" lon="5.99674">
        <ele>1342.6186523</ele>
        <time>2013-02-17T13:14:40Z</time>
      </trkpt>
      <trkpt lat="45.25656" lon="5.99677">
        <ele>1342.6186523</ele>
        <time>2013-02-17T13:14:42Z</time>
      </trkpt>
      <trkpt lat="45.25655" lon="5.99679">
        <ele>1342.6186523</ele>
        <time>2013-02-17T13:14:49Z</time>
      </trkpt>
      <trkpt lat="45.25654" lon="5.9968">
        <ele>1342.6186523</ele>
        <time>2013-02-17T13:14:54Z</time>
      </trkpt>
      <trkpt lat="45.25654" lon="5.99681">
        <ele>1342.6186523</ele>
        <time>2013-02-17T13:15:05Z</time>
      </trkpt>
      <trkpt lat="45.25654" lon="5.99681">
        <ele>1341.6572266</ele>
        <time>2013-02-17T13:15:13Z</time>
      </trkpt>
      <trkpt lat="45.25653" lon="5.99681">
        <ele>1342.6186523</ele>
        <time>2013-02-17T13:15:33Z</time>
      </trkpt>
      <trkpt lat="45.25654" lon="5.99681">
        <ele>1342.6186523</ele>
        <time>2013-02-17T13:15:40Z</time>
      </trkpt>
      <trkpt lat="45.25653" lon="5.99682">
        <ele>1342.6186523</ele>
        <time>2013-02-17T13:15:47Z</time>
      </trkpt>
      <trkpt lat="45.25653" lon="5.99682">
        <ele>1342.6186523</ele>
        <time>2013-02-17T13:16:04Z</time>
      </trkpt>
      <trkpt lat="45.25653" lon="5.99683">
        <ele>1343.0991211</ele>
        <time>2013-02-17T13:16:12Z</time>
      </trkpt>
      <trkpt lat="45.25653" lon="5.99684">
        <ele>1344.5410156</ele>
        <time>2013-02-17T13:16:26Z</time>
      </trkpt>
      <trkpt lat="45.25654" lon="5.99685">
        <ele>1346.4638672</ele>
        <time>2013-02-17T13:16:40Z</time>
      </trkpt>
      <trkpt lat="45.25654" lon="5.99685">
        <ele>1346.4638672</ele>
        <time>2013-02-17T13:16:51Z</time>
      </trkpt>
      <trkpt lat="45.25654" lon="5.99686">
        <ele>1345.0217285</ele>
        <time>2013-02-17T13:17:05Z</time>
      </trkpt>
      <trkpt lat="45.25654" lon="5.99688">
        <ele>1345.0217285</ele>
        <time>2013-02-17T13:17:15Z</time>
      </trkpt>
      <trkpt lat="45.25655" lon="5.99689">
        <ele>1346.4638672</ele>
        <time>2013-02-17T13:17:34Z</time>
      </trkpt>
      <trkpt lat="45.25656" lon="5.99689">
        <ele>1347.4250488</ele>
        <time>2013-02-17T13:17:44Z</time>
      </trkpt>
      <trkpt lat="45.25657" lon="5.9969">
        <ele>1347.4250488</ele>
        <time>2013-02-17T13:17:55Z</time>
      </trkpt>
      <trkpt lat="45.25656" lon="5.99692">
        <ele>1347.4250488</ele>
        <time>2013-02-17T13:18:13Z</time>
      </trkpt>
      <trkpt lat="45.25655" lon="5.99693">
        <ele>1344.0605469</ele>
        <time>2013-02-17T13:18:27Z</time>
      </trkpt>
      <trkpt lat="45.25656" lon="5.99694">
        <ele>1343.0991211</ele>
        <time>2013-02-17T13:18:37Z</time>
      </trkpt>
      <trkpt lat="45.25656" lon="5.99696">
        <ele>1342.6186523</ele>
        <time>2013-02-17T13:18:46Z</time>
      </trkpt>
      <trkpt lat="45.25655" lon="5.99697">
        <ele>1341.6572266</ele>
        <time>2013-02-17T13:19:01Z</time>
      </trkpt>
      <trkpt lat="45.25656" lon="5.99697">
        <ele>1342.1379395</ele>
        <time>2013-02-17T13:19:14Z</time>
      </trkpt>
      <trkpt lat="45.25656" lon="5.99697">
        <ele>1341.6572266</ele>
        <time>2013-02-17T13:19:24Z</time>
      </trkpt>
      <trkpt lat="45.25656" lon="5.99699">
        <ele>1341.6572266</ele>
        <time>2013-02-17T13:19:32Z</time>
      </trkpt>
      <trkpt lat="45.25656" lon="5.99701">
        <ele>1341.6572266</ele>
        <time>2013-02-17T13:19:46Z</time>
      </trkpt>
      <trkpt lat="45.25655" lon="5.99703">
        <ele>1341.1765137</ele>
        <time>2013-02-17T13:19:56Z</time>
      </trkpt>
      <trkpt lat="45.25655" lon="5.99705">
        <ele>1341.6572266</ele>
        <time>2013-02-17T13:20:07Z</time>
      </trkpt>
      <trkpt lat="45.25656" lon="5.99706">
        <ele>1342.1379395</ele>
        <time>2013-02-17T13:20:15Z</time>
      </trkpt>
      <trkpt lat="45.25656" lon="5.99707">
        <ele>1342.1379395</ele>
        <time>2013-02-17T13:20:25Z</time>
      </trkpt>
      <trkpt lat="45.25657" lon="5.99707">
        <ele>1342.1379395</ele>
        <time>2013-02-17T13:20:35Z</time>
      </trkpt>
      <trkpt lat="45.25657" lon="5.99708">
        <ele>1342.1379395</ele>
        <time>2013-02-17T13:20:44Z</time>
      </trkpt>
      <trkpt lat="45.25658" lon="5.9971">
        <ele>1342.1379395</ele>
        <time>2013-02-17T13:20:53Z</time>
      </trkpt>
      <trkpt lat="45.25658" lon="5.99711">
        <ele>1342.1379395</ele>
        <time>2013-02-17T13:21:02Z</time>
      </trkpt>
      <trkpt lat="45.25659" lon="5.99712">
        <ele>1341.6572266</ele>
        <time>2013-02-17T13:21:12Z</time>
      </trkpt>
      <trkpt lat="45.25659" lon="5.99713">
        <ele>1342.1379395</ele>
        <time>2013-02-17T13:21:21Z</time>
      </trkpt>
      <trkpt lat="45.2566" lon="5.99714">
        <ele>1342.1379395</ele>
        <time>2013-02-17T13:21:30Z</time>
      </trkpt>
      <trkpt lat="45.2566" lon="5.99716">
        <ele>1341.1765137</ele>
        <time>2013-02-17T13:21:43Z</time>
      </trkpt>
      <trkpt lat="45.2566" lon="5.99717">
        <ele>1340.6958008</ele>
        <time>2013-02-17T13:21:54Z</time>
      </trkpt>
      <trkpt lat="45.25661" lon="5.99718">
        <ele>1341.6572266</ele>
        <time>2013-02-17T13:22:05Z</time>
      </trkpt>
      <trkpt lat="45.25662" lon="5.99719">
        <ele>1340.6958008</ele>
        <time>2013-02-17T13:22:20Z</time>
      </trkpt>
      <trkpt lat="45.25663" lon="5.99721">
        <ele>1341.6572266</ele>
        <time>2013-02-17T13:22:27Z</time>
      </trkpt>
      <trkpt lat="45.25664" lon="5.99722">
        <ele>1341.6572266</ele>
        <time>2013-02-17T13:22:36Z</time>
      </trkpt>
      <trkpt lat="45.25666" lon="5.99724">
        <ele>1341.6572266</ele>
        <time>2013-02-17T13:22:49Z</time>
      </trkpt>
      <trkpt lat="45.25667" lon="5.99725">
        <ele>1341.6572266</ele>
        <time>2013-02-17T13:22:56Z</time>
      </trkpt>
      <trkpt lat="45.25669" lon="5.9973">
        <ele>1341.6572266</ele>
        <time>2013-02-17T13:23:01Z</time>
      </trkpt>
      <trkpt lat="45.25665" lon="5.99743">
        <ele>1341.1765137</ele>
        <time>2013-02-17T13:23:08Z</time>
      </trkpt>
      <trkpt lat="45.25658" lon="5.99764">
        <ele>1341.6572266</ele>
        <time>2013-02-17T13:23:12Z</time>
      </trkpt>
      <trkpt lat="45.25648" lon="5.99781">
        <ele>1345.0217285</ele>
        <time>2013-02-17T13:23:15Z</time>
      </trkpt>
      <trkpt lat="45.25634" lon="5.99811">
        <ele>1356.0769043</ele>
        <time>2013-02-17T13:23:21Z</time>
      </trkpt>
      <trkpt lat="45.25622" lon="5.99837">
        <ele>1363.767334</ele>
        <time>2013-02-17T13:23:26Z</time>
      </trkpt>
      <trkpt lat="45.25608" lon="5.99869">
        <ele>1371.9384766</ele>
        <time>2013-02-17T13:23:32Z</time>
      </trkpt>
      <trkpt lat="45.25594" lon="5.99902">
        <ele>1377.706543</ele>
        <time>2013-02-17T13:23:38Z</time>
      </trkpt>
      <trkpt lat="45.2558" lon="5.99933">
        <ele>1384.435791</ele>
        <time>2013-02-17T13:23:44Z</time>
      </trkpt>
      <trkpt lat="45.25557" lon="5.99984">
        <ele>1398.8554688</ele>
        <time>2013-02-17T13:23:54Z</time>
      </trkpt>
      <trkpt lat="45.25541" lon="6.00021">
        <ele>1409.4301758</ele>
        <time>2013-02-17T13:24:01Z</time>
      </trkpt>
      <trkpt lat="45.25521" lon="6.00066">
        <ele>1425.7724609</ele>
        <time>2013-02-17T13:24:10Z</time>
      </trkpt>
      <trkpt lat="45.25501" lon="6.00111">
        <ele>1441.6342773</ele>
        <time>2013-02-17T13:24:19Z</time>
      </trkpt>
      <trkpt lat="45.25486" lon="6.00147">
        <ele>1452.6894531</ele>
        <time>2013-02-17T13:24:26Z</time>
      </trkpt>
      <trkpt lat="45.2547" lon="6.00182">
        <ele>1466.1477051</ele>
        <time>2013-02-17T13:24:33Z</time>
      </trkpt>
      <trkpt lat="45.25454" lon="6.00217">
        <ele>1478.6450195</ele>
        <time>2013-02-17T13:24:40Z</time>
      </trkpt>
      <trkpt lat="45.25438" lon="6.00254">
        <ele>1488.2583008</ele>
        <time>2013-02-17T13:24:47Z</time>
      </trkpt>
      <trkpt lat="45.25414" lon="6.00309">
        <ele>1506.5231934</ele>
        <time>2013-02-17T13:24:58Z</time>
      </trkpt>
      <trkpt lat="45.25396" lon="6.0035">
        <ele>1519.9816895</ele>
        <time>2013-02-17T13:25:06Z</time>
      </trkpt>
      <trkpt lat="45.25382" lon="6.00382">
        <ele>1525.7495117</ele>
        <time>2013-02-17T13:25:12Z</time>
      </trkpt>
      <trkpt lat="45.25367" lon="6.00415">
        <ele>1527.6721191</ele>
        <time>2013-02-17T13:25:18Z</time>
      </trkpt>
      <trkpt lat="45.2535" lon="6.00453">
        <ele>1526.2302246</ele>
        <time>2013-02-17T13:25:25Z</time>
      </trkpt>
      <trkpt lat="45.25329" lon="6.005">
        <ele>1514.6943359</ele>
        <time>2013-02-17T13:25:34Z</time>
      </trkpt>
      <trkpt lat="45.25308" lon="6.00548">
        <ele>1505.5620117</ele>
        <time>2013-02-17T13:25:43Z</time>
      </trkpt>
      <trkpt lat="45.25285" lon="6.00602">
        <ele>1499.7939453</ele>
        <time>2013-02-17T13:25:53Z</time>
      </trkpt>
      <trkpt lat="45.25256" lon="6.00667">
        <ele>1493.5454102</ele>
        <time>2013-02-17T13:26:05Z</time>
      </trkpt>
      <trkpt lat="45.25227" lon="6.00732">
        <ele>1492.1035156</ele>
        <time>2013-02-17T13:26:17Z</time>
      </trkpt>
      <trkpt lat="45.25203" lon="6.00786">
        <ele>1494.5065918</ele>
        <time>2013-02-17T13:26:27Z</time>
      </trkpt>
      <trkpt lat="45.25192" lon="6.00811">
        <ele>1496.4294434</ele>
        <time>2013-02-17T13:26:33Z</time>
      </trkpt>
      <trkpt lat="45.25191" lon="6.00813">
        <ele>1497.390625</ele>
        <time>2013-02-17T13:26:38Z</time>
      </trkpt>
      <trkpt lat="45.2519" lon="6.00816">
        <ele>1497.8713379</ele>
        <time>2013-02-17T13:26:57Z</time>
      </trkpt>
      <trkpt lat="45.25185" lon="6.00828">
        <ele>1500.2749023</ele>
        <time>2013-02-17T13:27:05Z</time>
      </trkpt>
      <trkpt lat="45.25177" lon="6.00844">
        <ele>1502.6779785</ele>
        <time>2013-02-17T13:27:13Z</time>
      </trkpt>
      <trkpt lat="45.25165" lon="6.00871">
        <ele>1506.5231934</ele>
        <time>2013-02-17T13:27:21Z</time>
      </trkpt>
      <trkpt lat="45.25147" lon="6.00912">
        <ele>1515.1750488</ele>
        <time>2013-02-17T13:27:30Z</time>
      </trkpt>
      <trkpt lat="45.25126" lon="6.00959">
        <ele>1526.7109375</ele>
        <time>2013-02-17T13:27:39Z</time>
      </trkpt>
      <trkpt lat="45.25105" lon="6.01005">
        <ele>1541.1306152</ele>
        <time>2013-02-17T13:27:48Z</time>
      </trkpt>
      <trkpt lat="45.25084" lon="6.01052">
        <ele>1551.2246094</ele>
        <time>2013-02-17T13:27:57Z</time>
      </trkpt>
      <trkpt lat="45.25058" lon="6.01111">
        <ele>1562.7602539</ele>
        <time>2013-02-17T13:28:08Z</time>
      </trkpt>
      <trkpt lat="45.25031" lon="6.01173">
        <ele>1579.1025391</ele>
        <time>2013-02-17T13:28:20Z</time>
      </trkpt>
      <trkpt lat="45.25004" lon="6.01233">
        <ele>1601.2131348</ele>
        <time>2013-02-17T13:28:32Z</time>
      </trkpt>
      <trkpt lat="45.2498" lon="6.01287">
        <ele>1625.2458496</ele>
        <time>2013-02-17T13:28:43Z</time>
      </trkpt>
      <trkpt lat="45.24955" lon="6.01343">
        <ele>1654.0856934</ele>
        <time>2013-02-17T13:28:55Z</time>
      </trkpt>
      <trkpt lat="45.24935" lon="6.01389">
        <ele>1680.5219727</ele>
        <time>2013-02-17T13:29:05Z</time>
      </trkpt>
      <trkpt lat="45.24909" lon="6.01447">
        <ele>1718.0131836</ele>
        <time>2013-02-17T13:29:18Z</time>
      </trkpt>
      <trkpt lat="45.24889" lon="6.01496">
        <ele>1749.2561035</ele>
        <time>2013-02-17T13:29:29Z</time>
      </trkpt>
      <trkpt lat="45.2487" lon="6.01538">
        <ele>1780.0183105</ele>
        <time>2013-02-17T13:29:39Z</time>
      </trkpt>
      <trkpt lat="45.24856" lon="6.0157">
        <ele>1799.7253418</ele>
        <time>2013-02-17T13:29:46Z</time>
      </trkpt>
      <trkpt lat="45.24833" lon="6.01622">
        <ele>1836.2556152</ele>
        <time>2013-02-17T13:29:58Z</time>
      </trkpt>
      <trkpt lat="45.24812" lon="6.01669">
        <ele>1869.4211426</ele>
        <time>2013-02-17T13:30:09Z</time>
      </trkpt>
      <trkpt lat="45.24797" lon="6.01704">
        <ele>1892.9731445</ele>
        <time>2013-02-17T13:30:17Z</time>
      </trkpt>
      <trkpt lat="45.24776" lon="6.01751">
        <ele>1926.6193848</ele>
        <time>2013-02-17T13:30:28Z</time>
      </trkpt>
      <trkpt lat="45.24755" lon="6.01798">
        <ele>1960.2653809</ele>
        <time>2013-02-17T13:30:39Z</time>
      </trkpt>
      <trkpt lat="45.24743" lon="6.01827">
        <ele>1976.1271973</ele>
        <time>2013-02-17T13:30:45Z</time>
      </trkpt>
      <trkpt lat="45.24732" lon="6.01853">
        <ele>1984.298584</ele>
        <time>2013-02-17T13:30:50Z</time>
      </trkpt>
      <trkpt lat="45.24724" lon="6.01874">
        <ele>1988.6245117</ele>
        <time>2013-02-17T13:30:54Z</time>
      </trkpt>
      <trkpt lat="45.24719" lon="6.01885">
        <ele>1989.5856934</ele>
        <time>2013-02-17T13:30:59Z</time>
      </trkpt>
      <trkpt lat="45.24716" lon="6.01896">
        <ele>1987.182373</ele>
        <time>2013-02-17T13:31:05Z</time>
      </trkpt>
      <trkpt lat="45.24715" lon="6.01903">
        <ele>1985.7404785</ele>
        <time>2013-02-17T13:31:10Z</time>
      </trkpt>
      <trkpt lat="45.24716" lon="6.01908">
        <ele>1984.7792969</ele>
        <time>2013-02-17T13:31:17Z</time>
      </trkpt>
      <trkpt lat="45.24715" lon="6.01908">
        <ele>1982.8564453</ele>
        <time>2013-02-17T13:31:29Z</time>
      </trkpt>
      <trkpt lat="45.24715" lon="6.01909">
        <ele>1982.8564453</ele>
        <time>2013-02-17T13:31:37Z</time>
      </trkpt>
      <trkpt lat="45.24714" lon="6.01909">
        <ele>1982.8564453</ele>
        <time>2013-02-17T13:31:52Z</time>
      </trkpt>
      <trkpt lat="45.24715" lon="6.01909">
        <ele>1983.8178711</ele>
        <time>2013-02-17T13:32:12Z</time>
      </trkpt>
      <trkpt lat="45.24716" lon="6.01909">
        <ele>1982.8564453</ele>
        <time>2013-02-17T13:32:28Z</time>
      </trkpt>
      <trkpt lat="45.2472" lon="6.01908">
        <ele>1983.3371582</ele>
        <time>2013-02-17T13:32:35Z</time>
      </trkpt>
      <trkpt lat="45.24727" lon="6.01905">
        <ele>1982.8564453</ele>
        <time>2013-02-17T13:32:40Z</time>
      </trkpt>
      <trkpt lat="45.24737" lon="6.01913">
        <ele>1981.4145508</ele>
        <time>2013-02-17T13:32:45Z</time>
      </trkpt>
      <trkpt lat="45.2476" lon="6.0193">
        <ele>1979.4916992</ele>
        <time>2013-02-17T13:32:52Z</time>
      </trkpt>
      <trkpt lat="45.24776" lon="6.01956">
        <ele>1976.1271973</ele>
        <time>2013-02-17T13:32:57Z</time>
      </trkpt>
      <trkpt lat="45.24779" lon="6.01962">
        <ele>1975.6464844</ele>
        <time>2013-02-17T13:32:58Z</time>
      </trkpt>
      <trkpt lat="45.24796" lon="6.01996">
        <ele>1971.8012695</ele>
        <time>2013-02-17T13:33:03Z</time>
      </trkpt>
      <trkpt lat="45.24806" lon="6.02019">
        <ele>1968.9174805</ele>
        <time>2013-02-17T13:33:06Z</time>
      </trkpt>
      <trkpt lat="45.24809" lon="6.02027">
        <ele>1968.4367676</ele>
        <time>2013-02-17T13:33:07Z</time>
      </trkpt>
      <trkpt lat="45.24825" lon="6.02067">
        <ele>1964.1108398</ele>
        <time>2013-02-17T13:33:12Z</time>
      </trkpt>
      <trkpt lat="45.24843" lon="6.02109">
        <ele>1958.3427734</ele>
        <time>2013-02-17T13:33:17Z</time>
      </trkpt>
      <trkpt lat="45.24853" lon="6.02124">
        <ele>1955.9394531</ele>
        <time>2013-02-17T13:33:19Z</time>
      </trkpt>
      <trkpt lat="45.24864" lon="6.02149">
        <ele>1951.6137695</ele>
        <time>2013-02-17T13:33:22Z</time>
      </trkpt>
      <trkpt lat="45.24865" lon="6.02181">
        <ele>1946.326416</ele>
        <time>2013-02-17T13:33:25Z</time>
      </trkpt>
      <trkpt lat="45.24865" lon="6.0223">
        <ele>1940.5583496</ele>
        <time>2013-02-17T13:33:30Z</time>
      </trkpt>
      <trkpt lat="45.24868" lon="6.02237">
        <ele>1940.0778809</ele>
        <time>2013-02-17T13:33:31Z</time>
      </trkpt>
      <trkpt lat="45.24878" lon="6.02267">
        <ele>1937.6745605</ele>
        <time>2013-02-17T13:33:35Z</time>
      </trkpt>
      <trkpt lat="45.2489" lon="6.0229">
        <ele>1936.232666</ele>
        <time>2013-02-17T13:33:39Z</time>
      </trkpt>
      <trkpt lat="45.24905" lon="6.02306">
        <ele>1932.8679199</ele>
        <time>2013-02-17T13:33:43Z</time>
      </trkpt>
      <trkpt lat="45.24931" lon="6.02318">
        <ele>1926.1386719</ele>
        <time>2013-02-17T13:33:48Z</time>
      </trkpt>
      <trkpt lat="45.24947" lon="6.02325">
        <ele>1921.3320313</ele>
        <time>2013-02-17T13:33:51Z</time>
      </trkpt>
      <trkpt lat="45.24966" lon="6.02333">
        <ele>1916.5256348</ele>
        <time>2013-02-17T13:33:54Z</time>
      </trkpt>
      <trkpt lat="45.24972" lon="6.02336">
        <ele>1914.6027832</ele>
        <time>2013-02-17T13:33:55Z</time>
      </trkpt>
      <trkpt lat="45.25015" lon="6.02349">
        <ele>1906.9123535</ele>
        <time>2013-02-17T13:34:00Z</time>
      </trkpt>
      <trkpt lat="45.25057" lon="6.02344">
        <ele>1903.5478516</ele>
        <time>2013-02-17T13:34:05Z</time>
      </trkpt>
      <trkpt lat="45.25077" lon="6.02331">
        <ele>1902.5864258</ele>
        <time>2013-02-17T13:34:08Z</time>
      </trkpt>
      <trkpt lat="45.251" lon="6.02323">
        <ele>1900.6638184</ele>
        <time>2013-02-17T13:34:12Z</time>
      </trkpt>
      <trkpt lat="45.25129" lon="6.02325">
        <ele>1898.7409668</ele>
        <time>2013-02-17T13:34:17Z</time>
      </trkpt>
      <trkpt lat="45.25167" lon="6.02335">
        <ele>1897.2990723</ele>
        <time>2013-02-17T13:34:24Z</time>
      </trkpt>
      <trkpt lat="45.25203" lon="6.02345">
        <ele>1895.8571777</ele>
        <time>2013-02-17T13:34:31Z</time>
      </trkpt>
      <trkpt lat="45.25208" lon="6.02345">
        <ele>1895.8571777</ele>
        <time>2013-02-17T13:34:32Z</time>
      </trkpt>
      <trkpt lat="45.25237" lon="6.02342">
        <ele>1893.4538574</ele>
        <time>2013-02-17T13:34:37Z</time>
      </trkpt>
      <trkpt lat="45.25244" lon="6.02339">
        <ele>1892.4926758</ele>
        <time>2013-02-17T13:34:38Z</time>
      </trkpt>
      <trkpt lat="45.25262" lon="6.02336">
        <ele>1890.5698242</ele>
        <time>2013-02-17T13:34:41Z</time>
      </trkpt>
      <trkpt lat="45.2527" lon="6.02342">
        <ele>1891.0505371</ele>
        <time>2013-02-17T13:34:44Z</time>
      </trkpt>
      <trkpt lat="45.25271" lon="6.02344">
        <ele>1890.5698242</ele>
        <time>2013-02-17T13:34:45Z</time>
      </trkpt>
      <trkpt lat="45.25273" lon="6.02346">
        <ele>1891.0505371</ele>
        <time>2013-02-17T13:34:54Z</time>
      </trkpt>
      <trkpt lat="45.25273" lon="6.02347">
        <ele>1890.0893555</ele>
        <time>2013-02-17T13:35:01Z</time>
      </trkpt>
      <trkpt lat="45.25273" lon="6.02348">
        <ele>1888.6474609</ele>
        <time>2013-02-17T13:35:10Z</time>
      </trkpt>
      <trkpt lat="45.25275" lon="6.02351">
        <ele>1887.6860352</ele>
        <time>2013-02-17T13:35:19Z</time>
      </trkpt>
      <trkpt lat="45.25276" lon="6.02352">
        <ele>1887.2053223</ele>
        <time>2013-02-17T13:35:25Z</time>
      </trkpt>
      <trkpt lat="45.25277" lon="6.02353">
        <ele>1887.6860352</ele>
        <time>2013-02-17T13:35:35Z</time>
      </trkpt>
      <trkpt lat="45.2528" lon="6.02356">
        <ele>1887.2053223</ele>
        <time>2013-02-17T13:35:43Z</time>
      </trkpt>
      <trkpt lat="45.25282" lon="6.02357">
        <ele>1887.2053223</ele>
        <time>2013-02-17T13:35:49Z</time>
      </trkpt>
      <trkpt lat="45.25283" lon="6.02359">
        <ele>1886.7246094</ele>
        <time>2013-02-17T13:35:56Z</time>
      </trkpt>
      <trkpt lat="45.25286" lon="6.02363">
        <ele>1887.6860352</ele>
        <time>2013-02-17T13:36:00Z</time>
      </trkpt>
      <trkpt lat="45.25289" lon="6.02367">
        <ele>1888.166748</ele>
        <time>2013-02-17T13:36:04Z</time>
      </trkpt>
      <trkpt lat="45.25296" lon="6.02378">
        <ele>1889.6086426</ele>
        <time>2013-02-17T13:36:09Z</time>
      </trkpt>
      <trkpt lat="45.25298" lon="6.0238">
        <ele>1889.6086426</ele>
        <time>2013-02-17T13:36:10Z</time>
      </trkpt>
      <trkpt lat="45.25313" lon="6.02406">
        <ele>1894.4150391</ele>
        <time>2013-02-17T13:36:20Z</time>
      </trkpt>
      <trkpt lat="45.25327" lon="6.02429">
        <ele>1899.7023926</ele>
        <time>2013-02-17T13:36:29Z</time>
      </trkpt>
      <trkpt lat="45.25346" lon="6.02458">
        <ele>1906.4316406</ele>
        <time>2013-02-17T13:36:41Z</time>
      </trkpt>
      <trkpt lat="45.25362" lon="6.02484">
        <ele>1914.1220703</ele>
        <time>2013-02-17T13:36:52Z</time>
      </trkpt>
      <trkpt lat="45.25378" lon="6.0251">
        <ele>1923.7353516</ele>
        <time>2013-02-17T13:37:03Z</time>
      </trkpt>
      <trkpt lat="45.25397" lon="6.0254">
        <ele>1936.232666</ele>
        <time>2013-02-17T13:37:16Z</time>
      </trkpt>
      <trkpt lat="45.25408" lon="6.02559">
        <ele>1943.4423828</ele>
        <time>2013-02-17T13:37:24Z</time>
      </trkpt>
      <trkpt lat="45.25421" lon="6.02581">
        <ele>1948.7297363</ele>
        <time>2013-02-17T13:37:33Z</time>
      </trkpt>
      <trkpt lat="45.25435" lon="6.02605">
        <ele>1955.4589844</ele>
        <time>2013-02-17T13:37:43Z</time>
      </trkpt>
      <trkpt lat="45.25452" lon="6.02633">
        <ele>1965.5529785</ele>
        <time>2013-02-17T13:37:55Z</time>
      </trkpt>
      <trkpt lat="45.25471" lon="6.02663">
        <ele>1976.6079102</ele>
        <time>2013-02-17T13:38:08Z</time>
      </trkpt>
      <trkpt lat="45.25486" lon="6.02687">
        <ele>1981.8952637</ele>
        <time>2013-02-17T13:38:18Z</time>
      </trkpt>
      <trkpt lat="45.25507" lon="6.02721">
        <ele>1990.0664063</ele>
        <time>2013-02-17T13:38:32Z</time>
      </trkpt>
      <trkpt lat="45.2553" lon="6.02759">
        <ele>2002.5634766</ele>
        <time>2013-02-17T13:38:48Z</time>
      </trkpt>
      <trkpt lat="45.25551" lon="6.02794">
        <ele>2023.2319336</ele>
        <time>2013-02-17T13:39:04Z</time>
      </trkpt>
      <trkpt lat="45.25569" lon="6.02822">
        <ele>2040.5354004</ele>
        <time>2013-02-17T13:39:17Z</time>
      </trkpt>
      <trkpt lat="45.25582" lon="6.02842">
        <ele>2048.7067871</ele>
        <time>2013-02-17T13:39:26Z</time>
      </trkpt>
      <trkpt lat="45.25604" lon="6.02878">
        <ele>2065.0493164</ele>
        <time>2013-02-17T13:39:42Z</time>
      </trkpt>
      <trkpt lat="45.25625" lon="6.02911">
        <ele>2082.8334961</ele>
        <time>2013-02-17T13:39:57Z</time>
      </trkpt>
      <trkpt lat="45.25639" lon="6.02934">
        <ele>2093.888916</ele>
        <time>2013-02-17T13:40:07Z</time>
      </trkpt>
      <trkpt lat="45.25656" lon="6.02963">
        <ele>2108.3085938</ele>
        <time>2013-02-17T13:40:20Z</time>
      </trkpt>
      <trkpt lat="45.25669" lon="6.02984">
        <ele>2116.4797363</ele>
        <time>2013-02-17T13:40:29Z</time>
      </trkpt>
      <trkpt lat="45.25683" lon="6.03005">
        <ele>2117.9216309</ele>
        <time>2013-02-17T13:40:37Z</time>
      </trkpt>
      <trkpt lat="45.25678" lon="6.03019">
        <ele>2117.440918</ele>
        <time>2013-02-17T13:40:41Z</time>
      </trkpt>
      <trkpt lat="45.25672" lon="6.03027">
        <ele>2117.9216309</ele>
        <time>2013-02-17T13:40:47Z</time>
      </trkpt>
      <trkpt lat="45.25666" lon="6.03032">
        <ele>2117.440918</ele>
        <time>2013-02-17T13:40:53Z</time>
      </trkpt>
      <trkpt lat="45.25655" lon="6.03043">
        <ele>2116.9604492</ele>
        <time>2013-02-17T13:40:59Z</time>
      </trkpt>
      <trkpt lat="45.25642" lon="6.03056">
        <ele>2115.0378418</ele>
        <time>2013-02-17T13:41:05Z</time>
      </trkpt>
      <trkpt lat="45.25639" lon="6.03059">
        <ele>2114.076416</ele>
        <time>2013-02-17T13:41:09Z</time>
      </trkpt>
      <trkpt lat="45.25639" lon="6.03059">
        <ele>2114.076416</ele>
        <time>2013-02-17T13:41:16Z</time>
      </trkpt>
      <trkpt lat="45.25639" lon="6.03058">
        <ele>2114.076416</ele>
        <time>2013-02-17T13:41:24Z</time>
      </trkpt>
      <trkpt lat="45.25638" lon="6.03058">
        <ele>2114.5571289</ele>
        <time>2013-02-17T13:41:38Z</time>
      </trkpt>
      <trkpt lat="45.25638" lon="6.03058">
        <ele>2114.5571289</ele>
        <time>2013-02-17T13:41:47Z</time>
      </trkpt>
      <trkpt lat="45.25638" lon="6.03059">
        <ele>2113.5957031</ele>
        <time>2013-02-17T13:41:59Z</time>
      </trkpt>
      <trkpt lat="45.25639" lon="6.03059">
        <ele>2113.5957031</ele>
        <time>2013-02-17T13:42:08Z</time>
      </trkpt>
      <trkpt lat="45.25637" lon="6.0306">
        <ele>2113.5957031</ele>
        <time>2013-02-17T13:42:14Z</time>
      </trkpt>
      <trkpt lat="45.25629" lon="6.03078">
        <ele>2110.2312012</ele>
        <time>2013-02-17T13:42:18Z</time>
      </trkpt>
      <trkpt lat="45.25621" lon="6.0311">
        <ele>2107.347168</ele>
        <time>2013-02-17T13:42:22Z</time>
      </trkpt>
      <trkpt lat="45.2562" lon="6.03123">
        <ele>2106.3857422</ele>
        <time>2013-02-17T13:42:24Z</time>
      </trkpt>
      <trkpt lat="45.25625" lon="6.0314">
        <ele>2103.0212402</ele>
        <time>2013-02-17T13:42:27Z</time>
      </trkpt>
      <trkpt lat="45.25628" lon="6.03155">
        <ele>2100.6179199</ele>
        <time>2013-02-17T13:42:29Z</time>
      </trkpt>
      <trkpt lat="45.25628" lon="6.03177">
        <ele>2096.2922363</ele>
        <time>2013-02-17T13:42:34Z</time>
      </trkpt>
      <trkpt lat="45.25628" lon="6.03183">
        <ele>2094.8500977</ele>
        <time>2013-02-17T13:42:37Z</time>
      </trkpt>
      <trkpt lat="45.25628" lon="6.03182">
        <ele>2093.888916</ele>
        <time>2013-02-17T13:42:46Z</time>
      </trkpt>
      <trkpt lat="45.25627" lon="6.03182">
        <ele>2092.9274902</ele>
        <time>2013-02-17T13:42:52Z</time>
      </trkpt>
      <trkpt lat="45.25641" lon="6.03189">
        <ele>2088.1208496</ele>
        <time>2013-02-17T13:42:56Z</time>
      </trkpt>
      <trkpt lat="45.25657" lon="6.03189">
        <ele>2084.7563477</ele>
        <time>2013-02-17T13:42:59Z</time>
      </trkpt>
      <trkpt lat="45.25678" lon="6.03189">
        <ele>2078.9882813</ele>
        <time>2013-02-17T13:43:03Z</time>
      </trkpt>
      <trkpt lat="45.25694" lon="6.03191">
        <ele>2074.6623535</ele>
        <time>2013-02-17T13:43:06Z</time>
      </trkpt>
      <trkpt lat="45.25713" lon="6.03193">
        <ele>2070.3364258</ele>
        <time>2013-02-17T13:43:09Z</time>
      </trkpt>
      <trkpt lat="45.25732" lon="6.03197">
        <ele>2066.010498</ele>
        <time>2013-02-17T13:43:12Z</time>
      </trkpt>
      <trkpt lat="45.25751" lon="6.03212">
        <ele>2060.7233887</ele>
        <time>2013-02-17T13:43:15Z</time>
      </trkpt>
      <trkpt lat="45.25765" lon="6.03239">
        <ele>2053.9941406</ele>
        <time>2013-02-17T13:43:18Z</time>
      </trkpt>
      <trkpt lat="45.25755" lon="6.03281">
        <ele>2046.3037109</ele>
        <time>2013-02-17T13:43:21Z</time>
      </trkpt>
      <trkpt lat="45.25743" lon="6.03354">
        <ele>2032.8449707</ele>
        <time>2013-02-17T13:43:26Z</time>
      </trkpt>
      <trkpt lat="45.25738" lon="6.0339">
        <ele>2025.6350098</ele>
        <time>2013-02-17T13:43:29Z</time>
      </trkpt>
      <trkpt lat="45.25735" lon="6.03421">
        <ele>2017.9445801</ele>
        <time>2013-02-17T13:43:32Z</time>
      </trkpt>
      <trkpt lat="45.25733" lon="6.03432">
        <ele>2015.5415039</ele>
        <time>2013-02-17T13:43:33Z</time>
      </trkpt>
      <trkpt lat="45.25723" lon="6.03496">
        <ele>2004.486084</ele>
        <time>2013-02-17T13:43:38Z</time>
      </trkpt>
      <trkpt lat="45.25725" lon="6.03542">
        <ele>1994.8728027</ele>
        <time>2013-02-17T13:43:42Z</time>
      </trkpt>
      <trkpt lat="45.2573" lon="6.0358">
        <ele>1986.2211914</ele>
        <time>2013-02-17T13:43:45Z</time>
      </trkpt>
      <trkpt lat="45.25731" lon="6.03603">
        <ele>1980.4533691</ele>
        <time>2013-02-17T13:43:47Z</time>
      </trkpt>
      <trkpt lat="45.25731" lon="6.0364">
        <ele>1973.2434082</ele>
        <time>2013-02-17T13:43:50Z</time>
      </trkpt>
      <trkpt lat="45.25736" lon="6.03673">
        <ele>1965.5529785</ele>
        <time>2013-02-17T13:43:53Z</time>
      </trkpt>
      <trkpt lat="45.25747" lon="6.03707">
        <ele>1957.3815918</ele>
        <time>2013-02-17T13:43:56Z</time>
      </trkpt>
      <trkpt lat="45.25757" lon="6.03726">
        <ele>1951.6137695</ele>
        <time>2013-02-17T13:43:58Z</time>
      </trkpt>
      <trkpt lat="45.25759" lon="6.0374">
        <ele>1947.2875977</ele>
        <time>2013-02-17T13:44:00Z</time>
      </trkpt>
      <trkpt lat="45.25767" lon="6.03752">
        <ele>1942.9616699</ele>
        <time>2013-02-17T13:44:02Z</time>
      </trkpt>
      <trkpt lat="45.25775" lon="6.03769">
        <ele>1937.1938477</ele>
        <time>2013-02-17T13:44:04Z</time>
      </trkpt>
      <trkpt lat="45.25786" lon="6.03785">
        <ele>1931.9064941</ele>
        <time>2013-02-17T13:44:06Z</time>
      </trkpt>
      <trkpt lat="45.25805" lon="6.03828">
        <ele>1918.4482422</ele>
        <time>2013-02-17T13:44:10Z</time>
      </trkpt>
      <trkpt lat="45.25814" lon="6.03852">
        <ele>1912.6801758</ele>
        <time>2013-02-17T13:44:12Z</time>
      </trkpt>
      <trkpt lat="45.25826" lon="6.03904">
        <ele>1902.5864258</ele>
        <time>2013-02-17T13:44:16Z</time>
      </trkpt>
      <trkpt lat="45.25826" lon="6.03925">
        <ele>1895.8571777</ele>
        <time>2013-02-17T13:44:19Z</time>
      </trkpt>
      <trkpt lat="45.25827" lon="6.03926">
        <ele>1892.9731445</ele>
        <time>2013-02-17T13:44:22Z</time>
      </trkpt>
      <trkpt lat="45.25828" lon="6.03925">
        <ele>1892.9731445</ele>
        <time>2013-02-17T13:44:27Z</time>
      </trkpt>
      <trkpt lat="45.25828" lon="6.03925">
        <ele>1895.8571777</ele>
        <time>2013-02-17T13:44:37Z</time>
      </trkpt>
      <trkpt lat="45.25828" lon="6.03927">
        <ele>1897.2990723</ele>
        <time>2013-02-17T13:44:45Z</time>
      </trkpt>
      <trkpt lat="45.25828" lon="6.03928">
        <ele>1897.2990723</ele>
        <time>2013-02-17T13:44:46Z</time>
      </trkpt>
      <trkpt lat="45.25819" lon="6.03935">
        <ele>1894.4150391</ele>
        <time>2013-02-17T13:44:50Z</time>
      </trkpt>
      <trkpt lat="45.25812" lon="6.03954">
        <ele>1892.4926758</ele>
        <time>2013-02-17T13:44:52Z</time>
      </trkpt>
      <trkpt lat="45.25808" lon="6.03982">
        <ele>1888.166748</ele>
        <time>2013-02-17T13:44:55Z</time>
      </trkpt>
      <trkpt lat="45.25806" lon="6.04009">
        <ele>1882.8791504</ele>
        <time>2013-02-17T13:44:58Z</time>
      </trkpt>
      <trkpt lat="45.25803" lon="6.04036">
        <ele>1878.0727539</ele>
        <time>2013-02-17T13:45:01Z</time>
      </trkpt>
      <trkpt lat="45.25796" lon="6.04054">
        <ele>1873.2663574</ele>
        <time>2013-02-17T13:45:04Z</time>
      </trkpt>
      <trkpt lat="45.25787" lon="6.04066">
        <ele>1869.9016113</ele>
        <time>2013-02-17T13:45:06Z</time>
      </trkpt>
      <trkpt lat="45.25779" lon="6.04091">
        <ele>1862.2109375</ele>
        <time>2013-02-17T13:45:10Z</time>
      </trkpt>
      <trkpt lat="45.25778" lon="6.04108">
        <ele>1858.3657227</ele>
        <time>2013-02-17T13:45:12Z</time>
      </trkpt>
      <trkpt lat="45.25778" lon="6.04156">
        <ele>1850.6750488</ele>
        <time>2013-02-17T13:45:17Z</time>
      </trkpt>
      <trkpt lat="45.25776" lon="6.04187">
        <ele>1847.3105469</ele>
        <time>2013-02-17T13:45:20Z</time>
      </trkpt>
      <trkpt lat="45.25775" lon="6.04196">
        <ele>1846.3493652</ele>
        <time>2013-02-17T13:45:21Z</time>
      </trkpt>
      <trkpt lat="45.25767" lon="6.04242">
        <ele>1838.6589355</ele>
        <time>2013-02-17T13:45:26Z</time>
      </trkpt>
      <trkpt lat="45.2577" lon="6.04298">
        <ele>1830.4875488</ele>
        <time>2013-02-17T13:45:31Z</time>
      </trkpt>
      <trkpt lat="45.25774" lon="6.04305">
        <ele>1828.0842285</ele>
        <time>2013-02-17T13:45:33Z</time>
      </trkpt>
      <trkpt lat="45.25775" lon="6.04304">
        <ele>1827.1230469</ele>
        <time>2013-02-17T13:45:37Z</time>
      </trkpt>
      <trkpt lat="45.25776" lon="6.04304">
        <ele>1826.642334</ele>
        <time>2013-02-17T13:45:38Z</time>
      </trkpt>
      <trkpt lat="45.25781" lon="6.04314">
        <ele>1824.7197266</ele>
        <time>2013-02-17T13:45:41Z</time>
      </trkpt>
      <trkpt lat="45.25784" lon="6.04323">
        <ele>1822.7971191</ele>
        <time>2013-02-17T13:45:42Z</time>
      </trkpt>
      <trkpt lat="45.25815" lon="6.04359">
        <ele>1808.8579102</ele>
        <time>2013-02-17T13:45:47Z</time>
      </trkpt>
      <trkpt lat="45.25833" lon="6.04387">
        <ele>1799.2446289</ele>
        <time>2013-02-17T13:45:50Z</time>
      </trkpt>
      <trkpt lat="45.25847" lon="6.04404">
        <ele>1792.9960938</ele>
        <time>2013-02-17T13:45:52Z</time>
      </trkpt>
      <trkpt lat="45.25867" lon="6.04436">
        <ele>1781.940918</ele>
        <time>2013-02-17T13:45:55Z</time>
      </trkpt>
      <trkpt lat="45.25888" lon="6.04469">
        <ele>1769.9243164</ele>
        <time>2013-02-17T13:45:58Z</time>
      </trkpt>
      <trkpt lat="45.25916" lon="6.04509">
        <ele>1755.5046387</ele>
        <time>2013-02-17T13:46:02Z</time>
      </trkpt>
      <trkpt lat="45.2593" lon="6.04529">
        <ele>1747.814209</ele>
        <time>2013-02-17T13:46:04Z</time>
      </trkpt>
      <trkpt lat="45.25959" lon="6.04559">
        <ele>1736.2783203</ele>
        <time>2013-02-17T13:46:07Z</time>
      </trkpt>
      <trkpt lat="45.25988" lon="6.04592">
        <ele>1724.2619629</ele>
        <time>2013-02-17T13:46:10Z</time>
      </trkpt>
      <trkpt lat="45.26018" lon="6.04624">
        <ele>1712.2453613</ele>
        <time>2013-02-17T13:46:13Z</time>
      </trkpt>
      <trkpt lat="45.2603" lon="6.04633">
        <ele>1708.4001465</ele>
        <time>2013-02-17T13:46:14Z</time>
      </trkpt>
      <trkpt lat="45.26054" lon="6.04655">
        <ele>1700.7094727</ele>
        <time>2013-02-17T13:46:16Z</time>
      </trkpt>
      <trkpt lat="45.26077" lon="6.04679">
        <ele>1693.9804688</ele>
        <time>2013-02-17T13:46:18Z</time>
      </trkpt>
      <trkpt lat="45.26109" lon="6.04711">
        <ele>1686.2897949</ele>
        <time>2013-02-17T13:46:21Z</time>
      </trkpt>
      <trkpt lat="45.2613" lon="6.04729">
        <ele>1681.9638672</ele>
        <time>2013-02-17T13:46:23Z</time>
      </trkpt>
      <trkpt lat="45.26162" lon="6.04777">
        <ele>1673.7924805</ele>
        <time>2013-02-17T13:46:27Z</time>
      </trkpt>
      <trkpt lat="45.26172" lon="6.04807">
        <ele>1668.5053711</ele>
        <time>2013-02-17T13:46:30Z</time>
      </trkpt>
      <trkpt lat="45.26168" lon="6.04808">
        <ele>1667.0634766</ele>
        <time>2013-02-17T13:46:32Z</time>
      </trkpt>
      <trkpt lat="45.26168" lon="6.04809">
        <ele>1668.986084</ele>
        <time>2013-02-17T13:46:39Z</time>
      </trkpt>
      <trkpt lat="45.26169" lon="6.04812">
        <ele>1669.9472656</ele>
        <time>2013-02-17T13:46:46Z</time>
      </trkpt>
      <trkpt lat="45.26169" lon="6.04814">
        <ele>1669.9472656</ele>
        <time>2013-02-17T13:46:47Z</time>
      </trkpt>
      <trkpt lat="45.26168" lon="6.04829">
        <ele>1670.9086914</ele>
        <time>2013-02-17T13:46:54Z</time>
      </trkpt>
      <trkpt lat="45.26167" lon="6.0483">
        <ele>1670.9086914</ele>
        <time>2013-02-17T13:46:55Z</time>
      </trkpt>
      <trkpt lat="45.26161" lon="6.04832">
        <ele>1671.3891602</ele>
        <time>2013-02-17T13:47:01Z</time>
      </trkpt>
      <trkpt lat="45.26155" lon="6.04824">
        <ele>1670.9086914</ele>
        <time>2013-02-17T13:47:08Z</time>
      </trkpt>
      <trkpt lat="45.26153" lon="6.0482">
        <ele>1671.3891602</ele>
        <time>2013-02-17T13:47:16Z</time>
      </trkpt>
      <trkpt lat="45.26151" lon="6.04817">
        <ele>1670.9086914</ele>
        <time>2013-02-17T13:47:22Z</time>
      </trkpt>
      <trkpt lat="45.26146" lon="6.0481">
        <ele>1664.6601563</ele>
        <time>2013-02-17T13:47:32Z</time>
      </trkpt>
      <trkpt lat="45.26144" lon="6.04809">
        <ele>1663.6987305</ele>
        <time>2013-02-17T13:47:33Z</time>
      </trkpt>
      <trkpt lat="45.26134" lon="6.04794">
        <ele>1663.6987305</ele>
        <time>2013-02-17T13:47:37Z</time>
      </trkpt>
      <trkpt lat="45.26126" lon="6.04769">
        <ele>1676.1960449</ele>
        <time>2013-02-17T13:47:41Z</time>
      </trkpt>
      <trkpt lat="45.26115" lon="6.04747">
        <ele>1681.9638672</ele>
        <time>2013-02-17T13:47:45Z</time>
      </trkpt>
      <trkpt lat="45.26101" lon="6.0472">
        <ele>1689.6542969</ele>
        <time>2013-02-17T13:47:50Z</time>
      </trkpt>
      <trkpt lat="45.26098" lon="6.04715">
        <ele>1691.0961914</ele>
        <time>2013-02-17T13:47:51Z</time>
      </trkpt>
      <trkpt lat="45.26088" lon="6.04694">
        <ele>1696.8642578</ele>
        <time>2013-02-17T13:47:55Z</time>
      </trkpt>
      <trkpt lat="45.26077" lon="6.04674">
        <ele>1704.0742188</ele>
        <time>2013-02-17T13:47:59Z</time>
      </trkpt>
      <trkpt lat="45.26059" lon="6.04638">
        <ele>1714.6486816</ele>
        <time>2013-02-17T13:48:06Z</time>
      </trkpt>
      <trkpt lat="45.2604" lon="6.04603">
        <ele>1726.6652832</ele>
        <time>2013-02-17T13:48:13Z</time>
      </trkpt>
      <trkpt lat="45.26022" lon="6.04569">
        <ele>1738.6816406</ele>
        <time>2013-02-17T13:48:20Z</time>
      </trkpt>
      <trkpt lat="45.26002" lon="6.0453">
        <ele>1753.5820313</ele>
        <time>2013-02-17T13:48:28Z</time>
      </trkpt>
      <trkpt lat="45.25989" lon="6.04505">
        <ele>1760.3112793</ele>
        <time>2013-02-17T13:48:33Z</time>
      </trkpt>
      <trkpt lat="45.2597" lon="6.0447">
        <ele>1770.4050293</ele>
        <time>2013-02-17T13:48:40Z</time>
      </trkpt>
      <trkpt lat="45.25952" lon="6.04436">
        <ele>1781.940918</ele>
        <time>2013-02-17T13:48:47Z</time>
      </trkpt>
      <trkpt lat="45.25932" lon="6.04397">
        <ele>1794.9187012</ele>
        <time>2013-02-17T13:48:55Z</time>
      </trkpt>
      <trkpt lat="45.25914" lon="6.04363">
        <ele>1807.8967285</ele>
        <time>2013-02-17T13:49:02Z</time>
      </trkpt>
      <trkpt lat="45.25893" lon="6.04325">
        <ele>1823.7583008</ele>
        <time>2013-02-17T13:49:10Z</time>
      </trkpt>
      <trkpt lat="45.25878" lon="6.04296">
        <ele>1834.3327637</ele>
        <time>2013-02-17T13:49:16Z</time>
      </trkpt>
      <trkpt lat="45.25862" lon="6.04266">
        <ele>1841.0620117</ele>
        <time>2013-02-17T13:49:22Z</time>
      </trkpt>
      <trkpt lat="45.25846" lon="6.04236">
        <ele>1848.7524414</ele>
        <time>2013-02-17T13:49:28Z</time>
      </trkpt>
      <trkpt lat="45.25824" lon="6.04196">
        <ele>1859.3271484</ele>
        <time>2013-02-17T13:49:36Z</time>
      </trkpt>
      <trkpt lat="45.25808" lon="6.04165">
        <ele>1862.2109375</ele>
        <time>2013-02-17T13:49:42Z</time>
      </trkpt>
      <trkpt lat="45.25786" lon="6.04125">
        <ele>1866.5368652</ele>
        <time>2013-02-17T13:49:50Z</time>
      </trkpt>
      <trkpt lat="45.25764" lon="6.04084">
        <ele>1872.7856445</ele>
        <time>2013-02-17T13:49:58Z</time>
      </trkpt>
      <trkpt lat="45.25743" lon="6.04045">
        <ele>1882.8791504</ele>
        <time>2013-02-17T13:50:06Z</time>
      </trkpt>
      <trkpt lat="45.25723" lon="6.04009">
        <ele>1903.5478516</ele>
        <time>2013-02-17T13:50:14Z</time>
      </trkpt>
      <trkpt lat="45.25709" lon="6.03983">
        <ele>1919.409668</ele>
        <time>2013-02-17T13:50:20Z</time>
      </trkpt>
      <trkpt lat="45.25689" lon="6.03944">
        <ele>1944.8842773</ele>
        <time>2013-02-17T13:50:29Z</time>
      </trkpt>
      <trkpt lat="45.25672" lon="6.03911">
        <ele>1968.4367676</ele>
        <time>2013-02-17T13:50:37Z</time>
      </trkpt>
      <trkpt lat="45.25656" lon="6.03881">
        <ele>1990.0664063</ele>
        <time>2013-02-17T13:50:44Z</time>
      </trkpt>
      <trkpt lat="45.25634" lon="6.0384">
        <ele>2021.309082</ele>
        <time>2013-02-17T13:50:54Z</time>
      </trkpt>
      <trkpt lat="45.25614" lon="6.03802">
        <ele>2047.2648926</ele>
        <time>2013-02-17T13:51:03Z</time>
      </trkpt>
      <trkpt lat="45.25603" lon="6.0378">
        <ele>2058.8005371</ele>
        <time>2013-02-17T13:51:08Z</time>
      </trkpt>
      <trkpt lat="45.25586" lon="6.03748">
        <ele>2075.1428223</ele>
        <time>2013-02-17T13:51:15Z</time>
      </trkpt>
      <trkpt lat="45.25566" lon="6.0371">
        <ele>2093.4082031</ele>
        <time>2013-02-17T13:51:23Z</time>
      </trkpt>
      <trkpt lat="45.25553" lon="6.03685">
        <ele>2098.6953125</ele>
        <time>2013-02-17T13:51:28Z</time>
      </trkpt>
      <trkpt lat="45.25536" lon="6.03655">
        <ele>2105.4245605</ele>
        <time>2013-02-17T13:51:34Z</time>
      </trkpt>
      <trkpt lat="45.25518" lon="6.03621">
        <ele>2114.5571289</ele>
        <time>2013-02-17T13:51:41Z</time>
      </trkpt>
      <trkpt lat="45.25499" lon="6.03586">
        <ele>2124.1704102</ele>
        <time>2013-02-17T13:51:48Z</time>
      </trkpt>
      <trkpt lat="45.25475" lon="6.0354">
        <ele>2131.8608398</ele>
        <time>2013-02-17T13:51:57Z</time>
      </trkpt>
      <trkpt lat="45.25443" lon="6.0348">
        <ele>2144.3579102</ele>
        <time>2013-02-17T13:52:09Z</time>
      </trkpt>
      <trkpt lat="45.25423" lon="6.03442">
        <ele>2159.2585449</ele>
        <time>2013-02-17T13:52:17Z</time>
      </trkpt>
      <trkpt lat="45.25397" lon="6.03393">
        <ele>2187.6171875</ele>
        <time>2013-02-17T13:52:28Z</time>
      </trkpt>
      <trkpt lat="45.25374" lon="6.03348">
        <ele>2214.0534668</ele>
        <time>2013-02-17T13:52:38Z</time>
      </trkpt>
      <trkpt lat="45.25355" lon="6.03313">
        <ele>2236.1640625</ele>
        <time>2013-02-17T13:52:46Z</time>
      </trkpt>
      <trkpt lat="45.25345" lon="6.03293">
        <ele>2243.8544922</ele>
        <time>2013-02-17T13:52:50Z</time>
      </trkpt>
      <trkpt lat="45.2534" lon="6.03287">
        <ele>2246.7382813</ele>
        <time>2013-02-17T13:52:52Z</time>
      </trkpt>
      <trkpt lat="45.25336" lon="6.03278">
        <ele>2249.6223145</ele>
        <time>2013-02-17T13:52:57Z</time>
      </trkpt>
      <trkpt lat="45.25331" lon="6.03269">
        <ele>2247.2189941</ele>
        <time>2013-02-17T13:53:00Z</time>
      </trkpt>
      <trkpt lat="45.2532" lon="6.03269">
        <ele>2244.3349609</ele>
        <time>2013-02-17T13:53:07Z</time>
      </trkpt>
      <trkpt lat="45.25311" lon="6.03267">
        <ele>2243.8544922</ele>
        <time>2013-02-17T13:53:12Z</time>
      </trkpt>
      <trkpt lat="45.25302" lon="6.03265">
        <ele>2242.8930664</ele>
        <time>2013-02-17T13:53:16Z</time>
      </trkpt>
      <trkpt lat="45.25301" lon="6.03259">
        <ele>2241.9318848</ele>
        <time>2013-02-17T13:53:21Z</time>
      </trkpt>
      <trkpt lat="45.25299" lon="6.03248">
        <ele>2241.4511719</ele>
        <time>2013-02-17T13:53:26Z</time>
      </trkpt>
      <trkpt lat="45.25296" lon="6.03243">
        <ele>2240.970459</ele>
        <time>2013-02-17T13:53:28Z</time>
      </trkpt>
      <trkpt lat="45.25279" lon="6.03236">
        <ele>2238.0866699</ele>
        <time>2013-02-17T13:53:33Z</time>
      </trkpt>
      <trkpt lat="45.25263" lon="6.03228">
        <ele>2236.6445313</ele>
        <time>2013-02-17T13:53:36Z</time>
      </trkpt>
      <trkpt lat="45.25254" lon="6.03224">
        <ele>2235.6831055</ele>
        <time>2013-02-17T13:53:39Z</time>
      </trkpt>
      <trkpt lat="45.25253" lon="6.03223">
        <ele>2235.2023926</ele>
        <time>2013-02-17T13:53:43Z</time>
      </trkpt>
      <trkpt lat="45.25256" lon="6.03224">
        <ele>2235.2023926</ele>
        <time>2013-02-17T13:53:49Z</time>
      </trkpt>
      <trkpt lat="45.25258" lon="6.03225">
        <ele>2235.2023926</ele>
        <time>2013-02-17T13:53:50Z</time>
      </trkpt>
      <trkpt lat="45.25266" lon="6.03229">
        <ele>2236.6445313</ele>
        <time>2013-02-17T13:53:55Z</time>
      </trkpt>
      <trkpt lat="45.25269" lon="6.03231">
        <ele>2237.605957</ele>
        <time>2013-02-17T13:53:57Z</time>
      </trkpt>
      <trkpt lat="45.25273" lon="6.03233">
        <ele>2238.5673828</ele>
        <time>2013-02-17T13:54:01Z</time>
      </trkpt>
      <trkpt lat="45.25277" lon="6.03233">
        <ele>2240.0092773</ele>
        <time>2013-02-17T13:54:07Z</time>
      </trkpt>
      <trkpt lat="45.25279" lon="6.03233">
        <ele>2240.970459</ele>
        <time>2013-02-17T13:54:13Z</time>
      </trkpt>
      <trkpt lat="45.2528" lon="6.03233">
        <ele>2241.9318848</ele>
        <time>2013-02-17T13:54:20Z</time>
      </trkpt>
      <trkpt lat="45.25281" lon="6.03233">
        <ele>2241.4511719</ele>
        <time>2013-02-17T13:54:25Z</time>
      </trkpt>
      <trkpt lat="45.2528" lon="6.03233">
        <ele>2240.970459</ele>
        <time>2013-02-17T13:54:31Z</time>
      </trkpt>
      <trkpt lat="45.25286" lon="6.03235">
        <ele>2240.0092773</ele>
        <time>2013-02-17T13:54:35Z</time>
      </trkpt>
      <trkpt lat="45.25296" lon="6.03244">
        <ele>2240.4897461</ele>
        <time>2013-02-17T13:54:42Z</time>
      </trkpt>
      <trkpt lat="45.25298" lon="6.03249">
        <ele>2240.4897461</ele>
        <time>2013-02-17T13:54:45Z</time>
      </trkpt>
      <trkpt lat="45.25299" lon="6.03262">
        <ele>2240.970459</ele>
        <time>2013-02-17T13:54:52Z</time>
      </trkpt>
      <trkpt lat="45.25298" lon="6.03267">
        <ele>2241.4511719</ele>
        <time>2013-02-17T13:54:57Z</time>
      </trkpt>
      <trkpt lat="45.25298" lon="6.03268">
        <ele>2240.970459</ele>
        <time>2013-02-17T13:55:04Z</time>
      </trkpt>
      <trkpt lat="45.25298" lon="6.03268">
        <ele>2242.4125977</ele>
        <time>2013-02-17T13:55:14Z</time>
      </trkpt>
      <trkpt lat="45.25298" lon="6.03268">
        <ele>2241.9318848</ele>
        <time>2013-02-17T13:55:27Z</time>
      </trkpt>
      <trkpt lat="45.25298" lon="6.03268">
        <ele>2241.9318848</ele>
        <time>2013-02-17T13:55:36Z</time>
      </trkpt>
      <trkpt lat="45.25297" lon="6.03269">
        <ele>2241.4511719</ele>
        <time>2013-02-17T13:55:44Z</time>
      </trkpt>
      <trkpt lat="45.25294" lon="6.03272">
        <ele>2240.970459</ele>
        <time>2013-02-17T13:55:51Z</time>
      </trkpt>
      <trkpt lat="45.2529" lon="6.03278">
        <ele>2240.0092773</ele>
        <time>2013-02-17T13:55:56Z</time>
      </trkpt>
      <trkpt lat="45.25278" lon="6.03292">
        <ele>2240.0092773</ele>
        <time>2013-02-17T13:56:01Z</time>
      </trkpt>
      <trkpt lat="45.2526" lon="6.03317">
        <ele>2238.0866699</ele>
        <time>2013-02-17T13:56:08Z</time>
      </trkpt>
      <trkpt lat="45.25242" lon="6.03334">
        <ele>2234.7219238</ele>
        <time>2013-02-17T13:56:13Z</time>
      </trkpt>
      <trkpt lat="45.25225" lon="6.03344">
        <ele>2231.3571777</ele>
        <time>2013-02-17T13:56:16Z</time>
      </trkpt>
      <trkpt lat="45.25203" lon="6.03358">
        <ele>2226.0700684</ele>
        <time>2013-02-17T13:56:20Z</time>
      </trkpt>
      <trkpt lat="45.252" lon="6.03365">
        <ele>2223.666748</ele>
        <time>2013-02-17T13:56:22Z</time>
      </trkpt>
      <trkpt lat="45.25201" lon="6.03367">
        <ele>2222.7055664</ele>
        <time>2013-02-17T13:56:23Z</time>
      </trkpt>
      <trkpt lat="45.25226" lon="6.03374">
        <ele>2215.9760742</ele>
        <time>2013-02-17T13:56:28Z</time>
      </trkpt>
      <trkpt lat="45.25254" lon="6.03379">
        <ele>2209.7275391</ele>
        <time>2013-02-17T13:56:33Z</time>
      </trkpt>
      <trkpt lat="45.25271" lon="6.03381">
        <ele>2206.3630371</ele>
        <time>2013-02-17T13:56:36Z</time>
      </trkpt>
      <trkpt lat="45.25294" lon="6.03385">
        <ele>2201.0756836</ele>
        <time>2013-02-17T13:56:40Z</time>
      </trkpt>
      <trkpt lat="45.25315" lon="6.03388">
        <ele>2197.2304688</ele>
        <time>2013-02-17T13:56:43Z</time>
      </trkpt>
      <trkpt lat="45.25344" lon="6.03395">
        <ele>2190.9819336</ele>
        <time>2013-02-17T13:56:47Z</time>
      </trkpt>
      <trkpt lat="45.25365" lon="6.034">
        <ele>2185.6945801</ele>
        <time>2013-02-17T13:56:50Z</time>
      </trkpt>
      <trkpt lat="45.25373" lon="6.03402">
        <ele>2183.7719727</ele>
        <time>2013-02-17T13:56:51Z</time>
      </trkpt>
      <trkpt lat="45.254" lon="6.03399">
        <ele>2176.081543</ele>
        <time>2013-02-17T13:56:55Z</time>
      </trkpt>
      <trkpt lat="45.2542" lon="6.03378">
        <ele>2168.3908691</ele>
        <time>2013-02-17T13:56:59Z</time>
      </trkpt>
      <trkpt lat="45.25439" lon="6.03352">
        <ele>2160.2197266</ele>
        <time>2013-02-17T13:57:03Z</time>
      </trkpt>
      <trkpt lat="45.25444" lon="6.03348">
        <ele>2158.777832</ele>
        <time>2013-02-17T13:57:04Z</time>
      </trkpt>
      <trkpt lat="45.2546" lon="6.03341">
        <ele>2150.1259766</ele>
        <time>2013-02-17T13:57:08Z</time>
      </trkpt>
      <trkpt lat="45.25461" lon="6.03347">
        <ele>2147.2419434</ele>
        <time>2013-02-17T13:57:11Z</time>
      </trkpt>
      <trkpt lat="45.25461" lon="6.03345">
        <ele>2146.7612305</ele>
        <time>2013-02-17T13:57:15Z</time>
      </trkpt>
      <trkpt lat="45.25461" lon="6.03344">
        <ele>2147.7226563</ele>
        <time>2013-02-17T13:57:24Z</time>
      </trkpt>
      <trkpt lat="45.25461" lon="6.03344">
        <ele>2148.6838379</ele>
        <time>2013-02-17T13:57:33Z</time>
      </trkpt>
      <trkpt lat="45.25462" lon="6.03344">
        <ele>2149.1645508</ele>
        <time>2013-02-17T13:57:40Z</time>
      </trkpt>
      <trkpt lat="45.25462" lon="6.03344">
        <ele>2149.1645508</ele>
        <time>2013-02-17T13:57:46Z</time>
      </trkpt>
      <trkpt lat="45.25462" lon="6.03344">
        <ele>2149.1645508</ele>
        <time>2013-02-17T13:57:54Z</time>
      </trkpt>
      <trkpt lat="45.25462" lon="6.03345">
        <ele>2149.6452637</ele>
        <time>2013-02-17T13:58:06Z</time>
      </trkpt>
      <trkpt lat="45.25462" lon="6.03345">
        <ele>2149.6452637</ele>
        <time>2013-02-17T13:58:16Z</time>
      </trkpt>
      <trkpt lat="45.25462" lon="6.03347">
        <ele>2150.6064453</ele>
        <time>2013-02-17T13:58:25Z</time>
      </trkpt>
      <trkpt lat="45.25469" lon="6.03349">
        <ele>2148.6838379</ele>
        <time>2013-02-17T13:58:28Z</time>
      </trkpt>
      <trkpt lat="45.25486" lon="6.03349">
        <ele>2144.3579102</ele>
        <time>2013-02-17T13:58:31Z</time>
      </trkpt>
      <trkpt lat="45.25501" lon="6.03352">
        <ele>2138.5900879</ele>
        <time>2013-02-17T13:58:34Z</time>
      </trkpt>
      <trkpt lat="45.25513" lon="6.03335">
        <ele>2134.2641602</ele>
        <time>2013-02-17T13:58:37Z</time>
      </trkpt>
      <trkpt lat="45.25521" lon="6.03321">
        <ele>2130.8996582</ele>
        <time>2013-02-17T13:58:39Z</time>
      </trkpt>
      <trkpt lat="45.25537" lon="6.03283">
        <ele>2122.2475586</ele>
        <time>2013-02-17T13:58:44Z</time>
      </trkpt>
      <trkpt lat="45.25548" lon="6.03255">
        <ele>2117.440918</ele>
        <time>2013-02-17T13:58:47Z</time>
      </trkpt>
      <trkpt lat="45.2556" lon="6.0323">
        <ele>2113.5957031</ele>
        <time>2013-02-17T13:58:50Z</time>
      </trkpt>
      <trkpt lat="45.25573" lon="6.03206">
        <ele>2109.7504883</ele>
        <time>2013-02-17T13:58:53Z</time>
      </trkpt>
      <trkpt lat="45.25577" lon="6.03199">
        <ele>2108.3085938</ele>
        <time>2013-02-17T13:58:54Z</time>
      </trkpt>
      <trkpt lat="45.25603" lon="6.0317">
        <ele>2101.5793457</ele>
        <time>2013-02-17T13:58:59Z</time>
      </trkpt>
      <trkpt lat="45.25622" lon="6.03176">
        <ele>2094.8500977</ele>
        <time>2013-02-17T13:59:02Z</time>
      </trkpt>
      <trkpt lat="45.2564" lon="6.03181">
        <ele>2088.6015625</ele>
        <time>2013-02-17T13:59:05Z</time>
      </trkpt>
      <trkpt lat="45.25655" lon="6.03184">
        <ele>2084.7563477</ele>
        <time>2013-02-17T13:59:08Z</time>
      </trkpt>
      <trkpt lat="45.2567" lon="6.03189">
        <ele>2080.4304199</ele>
        <time>2013-02-17T13:59:11Z</time>
      </trkpt>
      <trkpt lat="45.257" lon="6.03182">
        <ele>2073.220459</ele>
        <time>2013-02-17T13:59:16Z</time>
      </trkpt>
      <trkpt lat="45.25707" lon="6.03183">
        <ele>2071.7783203</ele>
        <time>2013-02-17T13:59:17Z</time>
      </trkpt>
      <trkpt lat="45.25719" lon="6.03187">
        <ele>2068.8945313</ele>
        <time>2013-02-17T13:59:19Z</time>
      </trkpt>
      <trkpt lat="45.2573" lon="6.03196">
        <ele>2066.4912109</ele>
        <time>2013-02-17T13:59:21Z</time>
      </trkpt>
      <trkpt lat="45.25755" lon="6.03213">
        <ele>2059.28125</ele>
        <time>2013-02-17T13:59:25Z</time>
      </trkpt>
      <trkpt lat="45.25765" lon="6.03222">
        <ele>2056.3972168</ele>
        <time>2013-02-17T13:59:27Z</time>
      </trkpt>
      <trkpt lat="45.25778" lon="6.03231">
        <ele>2053.9941406</ele>
        <time>2013-02-17T13:59:29Z</time>
      </trkpt>
      <trkpt lat="45.258" lon="6.03269">
        <ele>2046.3037109</ele>
        <time>2013-02-17T13:59:33Z</time>
      </trkpt>
      <trkpt lat="45.25826" lon="6.03328">
        <ele>2036.2097168</ele>
        <time>2013-02-17T13:59:37Z</time>
      </trkpt>
      <trkpt lat="45.25867" lon="6.03417">
        <ele>2027.5576172</ele>
        <time>2013-02-17T13:59:43Z</time>
      </trkpt>
      <trkpt lat="45.2589" lon="6.03464">
        <ele>2025.6350098</ele>
        <time>2013-02-17T13:59:47Z</time>
      </trkpt>
      <trkpt lat="45.25922" lon="6.03511">
        <ele>2020.8286133</ele>
        <time>2013-02-17T13:59:52Z</time>
      </trkpt>
      <trkpt lat="45.25961" lon="6.03573">
        <ele>2013.1381836</ele>
        <time>2013-02-17T13:59:58Z</time>
      </trkpt>
      <trkpt lat="45.25983" lon="6.03602">
        <ele>2008.3312988</ele>
        <time>2013-02-17T14:00:01Z</time>
      </trkpt>
      <trkpt lat="45.26013" lon="6.03636">
        <ele>2001.6022949</ele>
        <time>2013-02-17T14:00:05Z</time>
      </trkpt>
      <trkpt lat="45.26034" lon="6.03661">
        <ele>1997.2763672</ele>
        <time>2013-02-17T14:00:08Z</time>
      </trkpt>
      <trkpt lat="45.26055" lon="6.03705">
        <ele>1990.0664063</ele>
        <time>2013-02-17T14:00:12Z</time>
      </trkpt>
      <trkpt lat="45.26059" lon="6.03718">
        <ele>1988.6245117</ele>
        <time>2013-02-17T14:00:13Z</time>
      </trkpt>
      <trkpt lat="45.26073" lon="6.03755">
        <ele>1983.8178711</ele>
        <time>2013-02-17T14:00:16Z</time>
      </trkpt>
      <trkpt lat="45.26096" lon="6.03804">
        <ele>1978.0498047</ele>
        <time>2013-02-17T14:00:20Z</time>
      </trkpt>
      <trkpt lat="45.26118" lon="6.03849">
        <ele>1971.8012695</ele>
        <time>2013-02-17T14:00:24Z</time>
      </trkpt>
      <trkpt lat="45.26136" lon="6.03875">
        <ele>1967.9560547</ele>
        <time>2013-02-17T14:00:27Z</time>
      </trkpt>
      <trkpt lat="45.26148" lon="6.0389">
        <ele>1965.5529785</ele>
        <time>2013-02-17T14:00:29Z</time>
      </trkpt>
      <trkpt lat="45.26166" lon="6.03918">
        <ele>1959.784668</ele>
        <time>2013-02-17T14:00:32Z</time>
      </trkpt>
      <trkpt lat="45.26196" lon="6.03958">
        <ele>1951.6137695</ele>
        <time>2013-02-17T14:00:36Z</time>
      </trkpt>
      <trkpt lat="45.2621" lon="6.03979">
        <ele>1946.8068848</ele>
        <time>2013-02-17T14:00:38Z</time>
      </trkpt>
      <trkpt lat="45.26227" lon="6.03996">
        <ele>1942.4812012</ele>
        <time>2013-02-17T14:00:40Z</time>
      </trkpt>
      <trkpt lat="45.2625" lon="6.04022">
        <ele>1935.2712402</ele>
        <time>2013-02-17T14:00:43Z</time>
      </trkpt>
      <trkpt lat="45.26266" lon="6.0404">
        <ele>1929.9838867</ele>
        <time>2013-02-17T14:00:45Z</time>
      </trkpt>
      <trkpt lat="45.2631" lon="6.04084">
        <ele>1915.564209</ele>
        <time>2013-02-17T14:00:50Z</time>
      </trkpt>
      <trkpt lat="45.2634" lon="6.04099">
        <ele>1907.3930664</ele>
        <time>2013-02-17T14:00:53Z</time>
      </trkpt>
      <trkpt lat="45.2635" lon="6.04102">
        <ele>1905.470459</ele>
        <time>2013-02-17T14:00:54Z</time>
      </trkpt>
      <trkpt lat="45.26398" lon="6.04109">
        <ele>1893.9345703</ele>
        <time>2013-02-17T14:00:59Z</time>
      </trkpt>
      <trkpt lat="45.26427" lon="6.04112">
        <ele>1886.7246094</ele>
        <time>2013-02-17T14:01:02Z</time>
      </trkpt>
      <trkpt lat="45.26444" lon="6.04111">
        <ele>1882.8791504</ele>
        <time>2013-02-17T14:01:04Z</time>
      </trkpt>
      <trkpt lat="45.26455" lon="6.04121">
        <ele>1879.5146484</ele>
        <time>2013-02-17T14:01:06Z</time>
      </trkpt>
      <trkpt lat="45.26459" lon="6.04134">
        <ele>1876.6308594</ele>
        <time>2013-02-17T14:01:09Z</time>
      </trkpt>
      <trkpt lat="45.26461" lon="6.04136">
        <ele>1875.6694336</ele>
        <time>2013-02-17T14:01:10Z</time>
      </trkpt>
      <trkpt lat="45.26483" lon="6.04162">
        <ele>1867.0175781</ele>
        <time>2013-02-17T14:01:14Z</time>
      </trkpt>
      <trkpt lat="45.26488" lon="6.04185">
        <ele>1861.7304688</ele>
        <time>2013-02-17T14:01:16Z</time>
      </trkpt>
      <trkpt lat="45.26489" lon="6.04208">
        <ele>1857.8852539</ele>
        <time>2013-02-17T14:01:18Z</time>
      </trkpt>
      <trkpt lat="45.26483" lon="6.04221">
        <ele>1853.0786133</ele>
        <time>2013-02-17T14:01:21Z</time>
      </trkpt>
      <trkpt lat="45.26483" lon="6.04223">
        <ele>1853.0786133</ele>
        <time>2013-02-17T14:01:29Z</time>
      </trkpt>
      <trkpt lat="45.26484" lon="6.04223">
        <ele>1853.5593262</ele>
        <time>2013-02-17T14:01:37Z</time>
      </trkpt>
      <trkpt lat="45.26482" lon="6.04222">
        <ele>1853.5593262</ele>
        <time>2013-02-17T14:01:45Z</time>
      </trkpt>
      <trkpt lat="45.2647" lon="6.04231">
        <ele>1850.6750488</ele>
        <time>2013-02-17T14:01:49Z</time>
      </trkpt>
      <trkpt lat="45.26454" lon="6.0424">
        <ele>1845.8686523</ele>
        <time>2013-02-17T14:01:52Z</time>
      </trkpt>
      <trkpt lat="45.26447" lon="6.04242">
        <ele>1843.9460449</ele>
        <time>2013-02-17T14:01:53Z</time>
      </trkpt>
      <trkpt lat="45.26423" lon="6.04262">
        <ele>1834.8134766</ele>
        <time>2013-02-17T14:01:57Z</time>
      </trkpt>
      <trkpt lat="45.26411" lon="6.04286">
        <ele>1826.1616211</ele>
        <time>2013-02-17T14:02:00Z</time>
      </trkpt>
      <trkpt lat="45.26401" lon="6.04304">
        <ele>1820.3937988</ele>
        <time>2013-02-17T14:02:02Z</time>
      </trkpt>
      <trkpt lat="45.26403" lon="6.04324">
        <ele>1814.1450195</ele>
        <time>2013-02-17T14:02:04Z</time>
      </trkpt>
      <trkpt lat="45.26405" lon="6.04333">
        <ele>1811.7419434</ele>
        <time>2013-02-17T14:02:05Z</time>
      </trkpt>
      <trkpt lat="45.26414" lon="6.0437">
        <ele>1800.2060547</ele>
        <time>2013-02-17T14:02:09Z</time>
      </trkpt>
      <trkpt lat="45.26424" lon="6.04416">
        <ele>1790.5927734</ele>
        <time>2013-02-17T14:02:13Z</time>
      </trkpt>
      <trkpt lat="45.26417" lon="6.04453">
        <ele>1782.4216309</ele>
        <time>2013-02-17T14:02:17Z</time>
      </trkpt>
      <trkpt lat="45.26402" lon="6.04468">
        <ele>1779.5375977</ele>
        <time>2013-02-17T14:02:20Z</time>
      </trkpt>
      <trkpt lat="45.26389" lon="6.04485">
        <ele>1776.1730957</ele>
        <time>2013-02-17T14:02:23Z</time>
      </trkpt>
      <trkpt lat="45.26378" lon="6.04506">
        <ele>1771.3662109</ele>
        <time>2013-02-17T14:02:27Z</time>
      </trkpt>
      <trkpt lat="45.26371" lon="6.04532">
        <ele>1765.5986328</ele>
        <time>2013-02-17T14:02:30Z</time>
      </trkpt>
      <trkpt lat="45.26371" lon="6.04553">
        <ele>1760.3112793</ele>
        <time>2013-02-17T14:02:32Z</time>
      </trkpt>
      <trkpt lat="45.26369" lon="6.04604">
        <ele>1748.2946777</ele>
        <time>2013-02-17T14:02:37Z</time>
      </trkpt>
      <trkpt lat="45.26366" lon="6.04625">
        <ele>1742.5270996</ele>
        <time>2013-02-17T14:02:39Z</time>
      </trkpt>
      <trkpt lat="45.26364" lon="6.04671">
        <ele>1731.4716797</ele>
        <time>2013-02-17T14:02:43Z</time>
      </trkpt>
      <trkpt lat="45.26357" lon="6.04706">
        <ele>1722.3391113</ele>
        <time>2013-02-17T14:02:46Z</time>
      </trkpt>
      <trkpt lat="45.26339" lon="6.0473">
        <ele>1713.6872559</ele>
        <time>2013-02-17T14:02:49Z</time>
      </trkpt>
      <trkpt lat="45.26314" lon="6.04755">
        <ele>1703.5935059</ele>
        <time>2013-02-17T14:02:53Z</time>
      </trkpt>
      <trkpt lat="45.26299" lon="6.04758">
        <ele>1699.748291</ele>
        <time>2013-02-17T14:02:55Z</time>
      </trkpt>
      <trkpt lat="45.26279" lon="6.04758">
        <ele>1695.4223633</ele>
        <time>2013-02-17T14:02:58Z</time>
      </trkpt>
      <trkpt lat="45.26274" lon="6.0476">
        <ele>1694.4609375</ele>
        <time>2013-02-17T14:02:59Z</time>
      </trkpt>
      <trkpt lat="45.26245" lon="6.0476">
        <ele>1688.6931152</ele>
        <time>2013-02-17T14:03:04Z</time>
      </trkpt>
      <trkpt lat="45.26228" lon="6.04757">
        <ele>1684.8479004</ele>
        <time>2013-02-17T14:03:07Z</time>
      </trkpt>
      <trkpt lat="45.26201" lon="6.04761">
        <ele>1678.5993652</ele>
        <time>2013-02-17T14:03:11Z</time>
      </trkpt>
      <trkpt lat="45.26194" lon="6.04776">
        <ele>1675.7150879</ele>
        <time>2013-02-17T14:03:13Z</time>
      </trkpt>
      <trkpt lat="45.26174" lon="6.0481">
        <ele>1673.7924805</ele>
        <time>2013-02-17T14:03:18Z</time>
      </trkpt>
      <trkpt lat="45.26166" lon="6.04828">
        <ele>1673.7924805</ele>
        <time>2013-02-17T14:03:23Z</time>
      </trkpt>
      <trkpt lat="45.26162" lon="6.04829">
        <ele>1673.7924805</ele>
        <time>2013-02-17T14:03:28Z</time>
      </trkpt>
      <trkpt lat="45.26158" lon="6.04827">
        <ele>1673.7924805</ele>
        <time>2013-02-17T14:03:36Z</time>
      </trkpt>
      <trkpt lat="45.26157" lon="6.04827">
        <ele>1673.3120117</ele>
        <time>2013-02-17T14:03:45Z</time>
      </trkpt>
      <trkpt lat="45.26156" lon="6.04825">
        <ele>1673.7924805</ele>
        <time>2013-02-17T14:03:54Z</time>
      </trkpt>
      <trkpt lat="45.26156" lon="6.04824">
        <ele>1673.3120117</ele>
        <time>2013-02-17T14:04:04Z</time>
      </trkpt>
      <trkpt lat="45.26156" lon="6.04822">
        <ele>1672.8312988</ele>
        <time>2013-02-17T14:04:11Z</time>
      </trkpt>
      <trkpt lat="45.26156" lon="6.04819">
        <ele>1674.7539063</ele>
        <time>2013-02-17T14:04:21Z</time>
      </trkpt>
      <trkpt lat="45.26153" lon="6.04818">
        <ele>1675.234375</ele>
        <time>2013-02-17T14:04:27Z</time>
      </trkpt>
      <trkpt lat="45.26153" lon="6.04816">
        <ele>1674.2731934</ele>
        <time>2013-02-17T14:04:32Z</time>
      </trkpt>
      <trkpt lat="45.26149" lon="6.04814">
        <ele>1670.9086914</ele>
        <time>2013-02-17T14:04:40Z</time>
      </trkpt>
      <trkpt lat="45.26138" lon="6.04792">
        <ele>1665.621582</ele>
        <time>2013-02-17T14:04:45Z</time>
      </trkpt>
      <trkpt lat="45.26127" lon="6.0477">
        <ele>1672.3505859</ele>
        <time>2013-02-17T14:04:49Z</time>
      </trkpt>
      <trkpt lat="45.26126" lon="6.04765">
        <ele>1674.7539063</ele>
        <time>2013-02-17T14:04:50Z</time>
      </trkpt>
      <trkpt lat="45.26111" lon="6.04739">
        <ele>1682.4445801</ele>
        <time>2013-02-17T14:04:55Z</time>
      </trkpt>
      <trkpt lat="45.26098" lon="6.04714">
        <ele>1691.5769043</ele>
        <time>2013-02-17T14:05:00Z</time>
      </trkpt>
      <trkpt lat="45.26085" lon="6.04691">
        <ele>1699.748291</ele>
        <time>2013-02-17T14:05:05Z</time>
      </trkpt>
      <trkpt lat="45.26069" lon="6.0466">
        <ele>1708.8808594</ele>
        <time>2013-02-17T14:05:11Z</time>
      </trkpt>
      <trkpt lat="45.26054" lon="6.0463">
        <ele>1717.5324707</ele>
        <time>2013-02-17T14:05:17Z</time>
      </trkpt>
      <trkpt lat="45.26033" lon="6.04591">
        <ele>1730.510498</ele>
        <time>2013-02-17T14:05:25Z</time>
      </trkpt>
      <trkpt lat="45.26015" lon="6.04557">
        <ele>1743.9689941</ele>
        <time>2013-02-17T14:05:32Z</time>
      </trkpt>
      <trkpt lat="45.26" lon="6.04527">
        <ele>1755.5046387</ele>
        <time>2013-02-17T14:05:38Z</time>
      </trkpt>
      <trkpt lat="45.25988" lon="6.04502">
        <ele>1763.1953125</ele>
        <time>2013-02-17T14:05:43Z</time>
      </trkpt>
      <trkpt lat="45.25969" lon="6.04468">
        <ele>1773.2893066</ele>
        <time>2013-02-17T14:05:50Z</time>
      </trkpt>
      <trkpt lat="45.25951" lon="6.04434">
        <ele>1784.8249512</ele>
        <time>2013-02-17T14:05:57Z</time>
      </trkpt>
      <trkpt lat="45.25933" lon="6.04399">
        <ele>1795.880127</ele>
        <time>2013-02-17T14:06:04Z</time>
      </trkpt>
      <trkpt lat="45.25913" lon="6.0436">
        <ele>1809.8190918</ele>
        <time>2013-02-17T14:06:12Z</time>
      </trkpt>
      <trkpt lat="45.25893" lon="6.04322">
        <ele>1826.1616211</ele>
        <time>2013-02-17T14:06:20Z</time>
      </trkpt>
      <trkpt lat="45.25877" lon="6.04292">
        <ele>1837.2167969</ele>
        <time>2013-02-17T14:06:26Z</time>
      </trkpt>
      <trkpt lat="45.25861" lon="6.04263">
        <ele>1842.9846191</ele>
        <time>2013-02-17T14:06:32Z</time>
      </trkpt>
      <trkpt lat="45.25845" lon="6.04233">
        <ele>1849.7138672</ele>
        <time>2013-02-17T14:06:38Z</time>
      </trkpt>
      <trkpt lat="45.25824" lon="6.04194">
        <ele>1859.8076172</ele>
        <time>2013-02-17T14:06:46Z</time>
      </trkpt>
      <trkpt lat="45.25815" lon="6.04177">
        <ele>1860.2883301</ele>
        <time>2013-02-17T14:06:50Z</time>
      </trkpt>
      <trkpt lat="45.25807" lon="6.04162">
        <ele>1861.2497559</ele>
        <time>2013-02-17T14:06:55Z</time>
      </trkpt>
      <trkpt lat="45.25795" lon="6.0414">
        <ele>1863.1723633</ele>
        <time>2013-02-17T14:07:02Z</time>
      </trkpt>
      <trkpt lat="45.25785" lon="6.04122">
        <ele>1864.6142578</ele>
        <time>2013-02-17T14:07:08Z</time>
      </trkpt>
      <trkpt lat="45.25772" lon="6.04099">
        <ele>1867.4980469</ele>
        <time>2013-02-17T14:07:16Z</time>
      </trkpt>
      <trkpt lat="45.25758" lon="6.04072">
        <ele>1871.3435059</ele>
        <time>2013-02-17T14:07:25Z</time>
      </trkpt>
      <trkpt lat="45.25745" lon="6.04049">
        <ele>1877.1115723</ele>
        <time>2013-02-17T14:07:33Z</time>
      </trkpt>
      <trkpt lat="45.25731" lon="6.04022">
        <ele>1891.0505371</ele>
        <time>2013-02-17T14:07:43Z</time>
      </trkpt>
      <trkpt lat="45.25718" lon="6.03995">
        <ele>1907.8737793</ele>
        <time>2013-02-17T14:07:53Z</time>
      </trkpt>
      <trkpt lat="45.25709" lon="6.03977">
        <ele>1918.9289551</ele>
        <time>2013-02-17T14:08:00Z</time>
      </trkpt>
      <trkpt lat="45.25692" lon="6.03946">
        <ele>1939.597168</ele>
        <time>2013-02-17T14:08:12Z</time>
      </trkpt>
      <trkpt lat="45.2568" lon="6.03923">
        <ele>1955.9394531</ele>
        <time>2013-02-17T14:08:20Z</time>
      </trkpt>
      <trkpt lat="45.2566" lon="6.03889">
        <ele>1979.9724121</ele>
        <time>2013-02-17T14:08:29Z</time>
      </trkpt>
      <trkpt lat="45.25636" lon="6.03843">
        <ele>2015.5415039</ele>
        <time>2013-02-17T14:08:40Z</time>
      </trkpt>
      <trkpt lat="45.25617" lon="6.03805">
        <ele>2045.822998</ele>
        <time>2013-02-17T14:08:49Z</time>
      </trkpt>
      <trkpt lat="45.25605" lon="6.03781">
        <ele>2058.3198242</ele>
        <time>2013-02-17T14:08:54Z</time>
      </trkpt>
      <trkpt lat="45.2559" lon="6.03753">
        <ele>2073.7009277</ele>
        <time>2013-02-17T14:09:00Z</time>
      </trkpt>
      <trkpt lat="45.25578" lon="6.0373">
        <ele>2086.6787109</ele>
        <time>2013-02-17T14:09:05Z</time>
      </trkpt>
      <trkpt lat="45.25576" lon="6.03726">
        <ele>2089.5627441</ele>
        <time>2013-02-17T14:09:06Z</time>
      </trkpt>
      <trkpt lat="45.25564" lon="6.037">
        <ele>2099.1760254</ele>
        <time>2013-02-17T14:09:11Z</time>
      </trkpt>
      <trkpt lat="45.25547" lon="6.03669">
        <ele>2105.4245605</ele>
        <time>2013-02-17T14:09:17Z</time>
      </trkpt>
      <trkpt lat="45.25528" lon="6.03634">
        <ele>2114.076416</ele>
        <time>2013-02-17T14:09:24Z</time>
      </trkpt>
      <trkpt lat="45.25507" lon="6.03594">
        <ele>2125.1315918</ele>
        <time>2013-02-17T14:09:32Z</time>
      </trkpt>
      <trkpt lat="45.25504" lon="6.03589">
        <ele>2126.5737305</ele>
        <time>2013-02-17T14:09:33Z</time>
      </trkpt>
      <trkpt lat="45.25479" lon="6.03543">
        <ele>2134.744873</ele>
        <time>2013-02-17T14:09:42Z</time>
      </trkpt>
      <trkpt lat="45.25454" lon="6.03498">
        <ele>2142.4355469</ele>
        <time>2013-02-17T14:09:51Z</time>
      </trkpt>
      <trkpt lat="45.25432" lon="6.03455">
        <ele>2154.932373</ele>
        <time>2013-02-17T14:10:00Z</time>
      </trkpt>
      <trkpt lat="45.25412" lon="6.03419">
        <ele>2174.1589355</ele>
        <time>2013-02-17T14:10:08Z</time>
      </trkpt>
      <trkpt lat="45.25391" lon="6.03379">
        <ele>2197.2304688</ele>
        <time>2013-02-17T14:10:17Z</time>
      </trkpt>
      <trkpt lat="45.2538" lon="6.03357">
        <ele>2211.1696777</ele>
        <time>2013-02-17T14:10:22Z</time>
      </trkpt>
      <trkpt lat="45.25362" lon="6.03321">
        <ele>2232.3186035</ele>
        <time>2013-02-17T14:10:30Z</time>
      </trkpt>
      <trkpt lat="45.25349" lon="6.03298">
        <ele>2244.8156738</ele>
        <time>2013-02-17T14:10:35Z</time>
      </trkpt>
      <trkpt lat="45.25335" lon="6.0328">
        <ele>2251.5449219</ele>
        <time>2013-02-17T14:10:40Z</time>
      </trkpt>
      <trkpt lat="45.25337" lon="6.0327">
        <ele>2252.5063477</ele>
        <time>2013-02-17T14:10:44Z</time>
      </trkpt>
      <trkpt lat="45.25346" lon="6.03273">
        <ele>2249.6223145</ele>
        <time>2013-02-17T14:10:49Z</time>
      </trkpt>
      <trkpt lat="45.2535" lon="6.03275">
        <ele>2248.6608887</ele>
        <time>2013-02-17T14:10:51Z</time>
      </trkpt>
      <trkpt lat="45.25363" lon="6.03282">
        <ele>2243.3737793</ele>
        <time>2013-02-17T14:10:56Z</time>
      </trkpt>
      <trkpt lat="45.25375" lon="6.03276">
        <ele>2238.5673828</ele>
        <time>2013-02-17T14:11:00Z</time>
      </trkpt>
      <trkpt lat="45.25393" lon="6.03258">
        <ele>2229.4345703</ele>
        <time>2013-02-17T14:11:04Z</time>
      </trkpt>
      <trkpt lat="45.25403" lon="6.03238">
        <ele>2221.2634277</ele>
        <time>2013-02-17T14:11:07Z</time>
      </trkpt>
      <trkpt lat="45.25421" lon="6.03228">
        <ele>2211.6503906</ele>
        <time>2013-02-17T14:11:10Z</time>
      </trkpt>
      <trkpt lat="45.25432" lon="6.03221">
        <ele>2205.8823242</ele>
        <time>2013-02-17T14:11:12Z</time>
      </trkpt>
      <trkpt lat="45.25437" lon="6.03216">
        <ele>2202.998291</ele>
        <time>2013-02-17T14:11:13Z</time>
      </trkpt>
      <trkpt lat="45.25459" lon="6.03203">
        <ele>2191.9433594</ele>
        <time>2013-02-17T14:11:17Z</time>
      </trkpt>
      <trkpt lat="45.25478" lon="6.03202">
        <ele>2183.2912598</ele>
        <time>2013-02-17T14:11:20Z</time>
      </trkpt>
      <trkpt lat="45.25488" lon="6.03216">
        <ele>2177.0429688</ele>
        <time>2013-02-17T14:11:22Z</time>
      </trkpt>
      <trkpt lat="45.2549" lon="6.0325">
        <ele>2166.4682617</ele>
        <time>2013-02-17T14:11:25Z</time>
      </trkpt>
      <trkpt lat="45.25476" lon="6.03296">
        <ele>2155.8935547</ele>
        <time>2013-02-17T14:11:29Z</time>
      </trkpt>
      <trkpt lat="45.25477" lon="6.03333">
        <ele>2148.203125</ele>
        <time>2013-02-17T14:11:32Z</time>
      </trkpt>
      <trkpt lat="45.25478" lon="6.03344">
        <ele>2146.2807617</ele>
        <time>2013-02-17T14:11:33Z</time>
      </trkpt>
      <trkpt lat="45.25491" lon="6.03354">
        <ele>2140.9934082</ele>
        <time>2013-02-17T14:11:36Z</time>
      </trkpt>
      <trkpt lat="45.25501" lon="6.0334">
        <ele>2137.6286621</ele>
        <time>2013-02-17T14:11:39Z</time>
      </trkpt>
      <trkpt lat="45.25505" lon="6.03329">
        <ele>2135.7060547</ele>
        <time>2013-02-17T14:11:41Z</time>
      </trkpt>
      <trkpt lat="45.25524" lon="6.03307">
        <ele>2129.9382324</ele>
        <time>2013-02-17T14:11:45Z</time>
      </trkpt>
      <trkpt lat="45.25537" lon="6.03284">
        <ele>2125.1315918</ele>
        <time>2013-02-17T14:11:48Z</time>
      </trkpt>
      <trkpt lat="45.25549" lon="6.03257">
        <ele>2120.8056641</ele>
        <time>2013-02-17T14:11:51Z</time>
      </trkpt>
      <trkpt lat="45.25553" lon="6.03248">
        <ele>2119.3637695</ele>
        <time>2013-02-17T14:11:52Z</time>
      </trkpt>
      <trkpt lat="45.25574" lon="6.03206">
        <ele>2112.1538086</ele>
        <time>2013-02-17T14:11:57Z</time>
      </trkpt>
      <trkpt lat="45.25584" lon="6.03192">
        <ele>2109.2700195</ele>
        <time>2013-02-17T14:11:59Z</time>
      </trkpt>
      <trkpt lat="45.25605" lon="6.0316">
        <ele>2103.982666</ele>
        <time>2013-02-17T14:12:04Z</time>
      </trkpt>
      <trkpt lat="45.25607" lon="6.03164">
        <ele>2102.5405273</ele>
        <time>2013-02-17T14:12:07Z</time>
      </trkpt>
      <trkpt lat="45.25612" lon="6.03166">
        <ele>2100.6179199</ele>
        <time>2013-02-17T14:12:10Z</time>
      </trkpt>
      <trkpt lat="45.25623" lon="6.03167">
        <ele>2097.7341309</ele>
        <time>2013-02-17T14:12:13Z</time>
      </trkpt>
      <trkpt lat="45.25627" lon="6.03182">
        <ele>2095.3308105</ele>
        <time>2013-02-17T14:12:16Z</time>
      </trkpt>
      <trkpt lat="45.25628" lon="6.0319">
        <ele>2091.9660645</ele>
        <time>2013-02-17T14:12:19Z</time>
      </trkpt>
      <trkpt lat="45.25632" lon="6.032">
        <ele>2089.0820313</ele>
        <time>2013-02-17T14:12:21Z</time>
      </trkpt>
      <trkpt lat="45.25633" lon="6.0322">
        <ele>2082.8334961</ele>
        <time>2013-02-17T14:12:24Z</time>
      </trkpt>
      <trkpt lat="45.2563" lon="6.03234">
        <ele>2078.0270996</ele>
        <time>2013-02-17T14:12:26Z</time>
      </trkpt>
      <trkpt lat="45.25634" lon="6.03245">
        <ele>2074.6623535</ele>
        <time>2013-02-17T14:12:28Z</time>
      </trkpt>
      <trkpt lat="45.25639" lon="6.03257">
        <ele>2068.8945313</ele>
        <time>2013-02-17T14:12:30Z</time>
      </trkpt>
      <trkpt lat="45.25645" lon="6.03265">
        <ele>2064.0878906</ele>
        <time>2013-02-17T14:12:32Z</time>
      </trkpt>
      <trkpt lat="45.25677" lon="6.03287">
        <ele>2049.1875</ele>
        <time>2013-02-17T14:12:37Z</time>
      </trkpt>
      <trkpt lat="45.25699" lon="6.03321">
        <ele>2038.6130371</ele>
        <time>2013-02-17T14:12:40Z</time>
      </trkpt>
      <trkpt lat="45.25717" lon="6.03365">
        <ele>2030.9226074</ele>
        <time>2013-02-17T14:12:43Z</time>
      </trkpt>
      <trkpt lat="45.25722" lon="6.0339">
        <ele>2027.0771484</ele>
        <time>2013-02-17T14:12:45Z</time>
      </trkpt>
      <trkpt lat="45.25724" lon="6.03425">
        <ele>2018.9060059</ele>
        <time>2013-02-17T14:12:48Z</time>
      </trkpt>
      <trkpt lat="45.25721" lon="6.03461">
        <ele>2011.6960449</ele>
        <time>2013-02-17T14:12:51Z</time>
      </trkpt>
      <trkpt lat="45.25715" lon="6.03481">
        <ele>2008.3312988</ele>
        <time>2013-02-17T14:12:53Z</time>
      </trkpt>
      <trkpt lat="45.25702" lon="6.03508">
        <ele>2001.121582</ele>
        <time>2013-02-17T14:12:58Z</time>
      </trkpt>
      <trkpt lat="45.25702" lon="6.0351">
        <ele>1999.6796875</ele>
        <time>2013-02-17T14:13:06Z</time>
      </trkpt>
      <trkpt lat="45.25703" lon="6.03509">
        <ele>2000.6408691</ele>
        <time>2013-02-17T14:13:15Z</time>
      </trkpt>
      <trkpt lat="45.25702" lon="6.03511">
        <ele>2001.6022949</ele>
        <time>2013-02-17T14:13:21Z</time>
      </trkpt>
      <trkpt lat="45.257" lon="6.0353">
        <ele>1997.7570801</ele>
        <time>2013-02-17T14:13:25Z</time>
      </trkpt>
      <trkpt lat="45.25711" lon="6.03561">
        <ele>1991.5083008</ele>
        <time>2013-02-17T14:13:29Z</time>
      </trkpt>
      <trkpt lat="45.25719" lon="6.03596">
        <ele>1985.2597656</ele>
        <time>2013-02-17T14:13:33Z</time>
      </trkpt>
      <trkpt lat="45.25723" lon="6.03625">
        <ele>1979.9724121</ele>
        <time>2013-02-17T14:13:36Z</time>
      </trkpt>
      <trkpt lat="45.25739" lon="6.03662">
        <ele>1971.3205566</ele>
        <time>2013-02-17T14:13:40Z</time>
      </trkpt>
      <trkpt lat="45.25754" lon="6.03699">
        <ele>1962.6687012</ele>
        <time>2013-02-17T14:13:44Z</time>
      </trkpt>
      <trkpt lat="45.25763" lon="6.03723">
        <ele>1954.9782715</ele>
        <time>2013-02-17T14:13:47Z</time>
      </trkpt>
      <trkpt lat="45.2577" lon="6.0374">
        <ele>1950.171875</ele>
        <time>2013-02-17T14:13:49Z</time>
      </trkpt>
      <trkpt lat="45.25782" lon="6.0376">
        <ele>1942.9616699</ele>
        <time>2013-02-17T14:13:52Z</time>
      </trkpt>
      <trkpt lat="45.25788" lon="6.03777">
        <ele>1938.6359863</ele>
        <time>2013-02-17T14:13:54Z</time>
      </trkpt>
      <trkpt lat="45.25805" lon="6.03812">
        <ele>1926.6193848</ele>
        <time>2013-02-17T14:13:59Z</time>
      </trkpt>
      <trkpt lat="45.25815" lon="6.03836">
        <ele>1919.409668</ele>
        <time>2013-02-17T14:14:02Z</time>
      </trkpt>
      <trkpt lat="45.25824" lon="6.03855">
        <ele>1915.0834961</ele>
        <time>2013-02-17T14:14:04Z</time>
      </trkpt>
      <trkpt lat="45.25828" lon="6.03874">
        <ele>1911.2382813</ele>
        <time>2013-02-17T14:14:06Z</time>
      </trkpt>
      <trkpt lat="45.25827" lon="6.03894">
        <ele>1909.3156738</ele>
        <time>2013-02-17T14:14:08Z</time>
      </trkpt>
      <trkpt lat="45.25822" lon="6.0391">
        <ele>1905.9509277</ele>
        <time>2013-02-17T14:14:11Z</time>
      </trkpt>
      <trkpt lat="45.25821" lon="6.03912">
        <ele>1904.9897461</ele>
        <time>2013-02-17T14:14:14Z</time>
      </trkpt>
      <trkpt lat="45.25807" lon="6.03919">
        <ele>1899.2216797</ele>
        <time>2013-02-17T14:14:18Z</time>
      </trkpt>
      <trkpt lat="45.25804" lon="6.03929">
        <ele>1897.7797852</ele>
        <time>2013-02-17T14:14:19Z</time>
      </trkpt>
      <trkpt lat="45.25803" lon="6.03967">
        <ele>1892.0119629</ele>
        <time>2013-02-17T14:14:23Z</time>
      </trkpt>
      <trkpt lat="45.25804" lon="6.03987">
        <ele>1889.1279297</ele>
        <time>2013-02-17T14:14:25Z</time>
      </trkpt>
      <trkpt lat="45.258" lon="6.04002">
        <ele>1886.2441406</ele>
        <time>2013-02-17T14:14:27Z</time>
      </trkpt>
      <trkpt lat="45.25798" lon="6.04042">
        <ele>1879.0339355</ele>
        <time>2013-02-17T14:14:32Z</time>
      </trkpt>
      <trkpt lat="45.25792" lon="6.04062">
        <ele>1873.7468262</ele>
        <time>2013-02-17T14:14:35Z</time>
      </trkpt>
      <trkpt lat="45.2578" lon="6.04069">
        <ele>1870.3823242</ele>
        <time>2013-02-17T14:14:38Z</time>
      </trkpt>
      <trkpt lat="45.25779" lon="6.04087">
        <ele>1864.6142578</ele>
        <time>2013-02-17T14:14:41Z</time>
      </trkpt>
      <trkpt lat="45.2578" lon="6.04115">
        <ele>1858.8464355</ele>
        <time>2013-02-17T14:14:44Z</time>
      </trkpt>
      <trkpt lat="45.25783" lon="6.04144">
        <ele>1854.5205078</ele>
        <time>2013-02-17T14:14:47Z</time>
      </trkpt>
      <trkpt lat="45.25782" lon="6.04174">
        <ele>1851.1557617</ele>
        <time>2013-02-17T14:14:50Z</time>
      </trkpt>
      <trkpt lat="45.2577" lon="6.04227">
        <ele>1842.9846191</ele>
        <time>2013-02-17T14:14:55Z</time>
      </trkpt>
      <trkpt lat="45.25766" lon="6.04263">
        <ele>1836.736084</ele>
        <time>2013-02-17T14:14:58Z</time>
      </trkpt>
      <trkpt lat="45.25765" lon="6.04287">
        <ele>1833.8520508</ele>
        <time>2013-02-17T14:15:00Z</time>
      </trkpt>
      <trkpt lat="45.25762" lon="6.04338">
        <ele>1827.1230469</ele>
        <time>2013-02-17T14:15:05Z</time>
      </trkpt>
      <trkpt lat="45.25765" lon="6.04354">
        <ele>1822.7971191</ele>
        <time>2013-02-17T14:15:09Z</time>
      </trkpt>
      <trkpt lat="45.25767" lon="6.04353">
        <ele>1822.7971191</ele>
        <time>2013-02-17T14:15:11Z</time>
      </trkpt>
      <trkpt lat="45.25765" lon="6.04355">
        <ele>1822.7971191</ele>
        <time>2013-02-17T14:15:22Z</time>
      </trkpt>
      <trkpt lat="45.25765" lon="6.04355">
        <ele>1823.7583008</ele>
        <time>2013-02-17T14:15:29Z</time>
      </trkpt>
      <trkpt lat="45.25765" lon="6.04355">
        <ele>1824.7197266</ele>
        <time>2013-02-17T14:15:41Z</time>
      </trkpt>
      <trkpt lat="45.25766" lon="6.04356">
        <ele>1823.277832</ele>
        <time>2013-02-17T14:15:48Z</time>
      </trkpt>
      <trkpt lat="45.25777" lon="6.04371">
        <ele>1819.9128418</ele>
        <time>2013-02-17T14:15:52Z</time>
      </trkpt>
      <trkpt lat="45.25782" lon="6.04376">
        <ele>1817.9902344</ele>
        <time>2013-02-17T14:15:53Z</time>
      </trkpt>
      <trkpt lat="45.258" lon="6.0439">
        <ele>1811.2612305</ele>
        <time>2013-02-17T14:15:56Z</time>
      </trkpt>
      <trkpt lat="45.25806" lon="6.04397">
        <ele>1807.8967285</ele>
        <time>2013-02-17T14:15:57Z</time>
      </trkpt>
      <trkpt lat="45.25828" lon="6.04418">
        <ele>1798.763916</ele>
        <time>2013-02-17T14:16:00Z</time>
      </trkpt>
      <trkpt lat="45.25847" lon="6.04442">
        <ele>1788.6704102</ele>
        <time>2013-02-17T14:16:03Z</time>
      </trkpt>
      <trkpt lat="45.25853" lon="6.04451">
        <ele>1785.7861328</ele>
        <time>2013-02-17T14:16:04Z</time>
      </trkpt>
      <trkpt lat="45.25878" lon="6.04492">
        <ele>1771.8469238</ele>
        <time>2013-02-17T14:16:08Z</time>
      </trkpt>
      <trkpt lat="45.25885" lon="6.04502">
        <ele>1768.4824219</ele>
        <time>2013-02-17T14:16:09Z</time>
      </trkpt>
      <trkpt lat="45.25906" lon="6.04531">
        <ele>1758.3886719</ele>
        <time>2013-02-17T14:16:12Z</time>
      </trkpt>
      <trkpt lat="45.2592" lon="6.04551">
        <ele>1750.697998</ele>
        <time>2013-02-17T14:16:14Z</time>
      </trkpt>
      <trkpt lat="45.25937" lon="6.04566">
        <ele>1744.4494629</ele>
        <time>2013-02-17T14:16:16Z</time>
      </trkpt>
      <trkpt lat="45.25955" lon="6.0458">
        <ele>1737.7202148</ele>
        <time>2013-02-17T14:16:18Z</time>
      </trkpt>
      <trkpt lat="45.25998" lon="6.04614">
        <ele>1720.8972168</ele>
        <time>2013-02-17T14:16:23Z</time>
      </trkpt>
      <trkpt lat="45.26025" lon="6.04637">
        <ele>1710.8034668</ele>
        <time>2013-02-17T14:16:26Z</time>
      </trkpt>
      <trkpt lat="45.26056" lon="6.04663">
        <ele>1701.1901855</ele>
        <time>2013-02-17T14:16:29Z</time>
      </trkpt>
      <trkpt lat="45.26067" lon="6.04673">
        <ele>1698.3061523</ele>
        <time>2013-02-17T14:16:30Z</time>
      </trkpt>
      <trkpt lat="45.26105" lon="6.04712">
        <ele>1688.6931152</ele>
        <time>2013-02-17T14:16:34Z</time>
      </trkpt>
      <trkpt lat="45.26134" lon="6.04749">
        <ele>1681.0026855</ele>
        <time>2013-02-17T14:16:38Z</time>
      </trkpt>
      <trkpt lat="45.26161" lon="6.04793">
        <ele>1673.3120117</ele>
        <time>2013-02-17T14:16:42Z</time>
      </trkpt>
      <trkpt lat="45.26169" lon="6.04823">
        <ele>1670.4279785</ele>
        <time>2013-02-17T14:16:45Z</time>
      </trkpt>
      <trkpt lat="45.26164" lon="6.0483">
        <ele>1669.4667969</ele>
        <time>2013-02-17T14:16:48Z</time>
      </trkpt>
      <trkpt lat="45.26164" lon="6.04829">
        <ele>1670.4279785</ele>
        <time>2013-02-17T14:16:53Z</time>
      </trkpt>
      <trkpt lat="45.2616" lon="6.04828">
        <ele>1672.3505859</ele>
        <time>2013-02-17T14:16:59Z</time>
      </trkpt>
      <trkpt lat="45.26158" lon="6.04827">
        <ele>1671.869873</ele>
        <time>2013-02-17T14:17:04Z</time>
      </trkpt>
      <trkpt lat="45.26157" lon="6.04825">
        <ele>1671.3891602</ele>
        <time>2013-02-17T14:17:11Z</time>
      </trkpt>
      <trkpt lat="45.26158" lon="6.04824">
        <ele>1672.3505859</ele>
        <time>2013-02-17T14:17:19Z</time>
      </trkpt>
      <trkpt lat="45.26156" lon="6.04821">
        <ele>1675.7150879</ele>
        <time>2013-02-17T14:17:32Z</time>
      </trkpt>
      <trkpt lat="45.26154" lon="6.04822">
        <ele>1676.6767578</ele>
        <time>2013-02-17T14:17:39Z</time>
      </trkpt>
      <trkpt lat="45.26146" lon="6.0482">
        <ele>1675.7150879</ele>
        <time>2013-02-17T14:17:47Z</time>
      </trkpt>
      <trkpt lat="45.26143" lon="6.04814">
        <ele>1673.3120117</ele>
        <time>2013-02-17T14:17:56Z</time>
      </trkpt>
      <trkpt lat="45.26134" lon="6.04796">
        <ele>1671.3891602</ele>
        <time>2013-02-17T14:18:00Z</time>
      </trkpt>
      <trkpt lat="45.26126" lon="6.04769">
        <ele>1677.6379395</ele>
        <time>2013-02-17T14:18:05Z</time>
      </trkpt>
      <trkpt lat="45.26116" lon="6.04748">
        <ele>1682.4445801</ele>
        <time>2013-02-17T14:18:09Z</time>
      </trkpt>
      <trkpt lat="45.26103" lon="6.04722">
        <ele>1688.6931152</ele>
        <time>2013-02-17T14:18:14Z</time>
      </trkpt>
      <trkpt lat="45.26089" lon="6.04697">
        <ele>1695.9030762</ele>
        <time>2013-02-17T14:18:19Z</time>
      </trkpt>
      <trkpt lat="45.26074" lon="6.04668">
        <ele>1705.0354004</ele>
        <time>2013-02-17T14:18:25Z</time>
      </trkpt>
      <trkpt lat="45.26055" lon="6.04633">
        <ele>1715.1293945</ele>
        <time>2013-02-17T14:18:32Z</time>
      </trkpt>
      <trkpt lat="45.26031" lon="6.04588">
        <ele>1730.510498</ele>
        <time>2013-02-17T14:18:41Z</time>
      </trkpt>
      <trkpt lat="45.26008" lon="6.04545">
        <ele>1748.2946777</ele>
        <time>2013-02-17T14:18:50Z</time>
      </trkpt>
      <trkpt lat="45.26006" lon="6.04541">
        <ele>1750.2175293</ele>
        <time>2013-02-17T14:18:51Z</time>
      </trkpt>
      <trkpt lat="45.2599" lon="6.04511">
        <ele>1759.3500977</ele>
        <time>2013-02-17T14:18:57Z</time>
      </trkpt>
      <trkpt lat="45.25972" lon="6.04476">
        <ele>1768.9631348</ele>
        <time>2013-02-17T14:19:04Z</time>
      </trkpt>
      <trkpt lat="45.25953" lon="6.04443">
        <ele>1780.0183105</ele>
        <time>2013-02-17T14:19:11Z</time>
      </trkpt>
      <trkpt lat="45.25927" lon="6.04395">
        <ele>1796.8413086</ele>
        <time>2013-02-17T14:19:21Z</time>
      </trkpt>
      <trkpt lat="45.25904" lon="6.04352">
        <ele>1813.1838379</ele>
        <time>2013-02-17T14:19:30Z</time>
      </trkpt>
      <trkpt lat="45.25882" lon="6.04311">
        <ele>1831.4487305</ele>
        <time>2013-02-17T14:19:39Z</time>
      </trkpt>
      <trkpt lat="45.25868" lon="6.04285">
        <ele>1837.2167969</ele>
        <time>2013-02-17T14:19:44Z</time>
      </trkpt>
      <trkpt lat="45.25849" lon="6.0425">
        <ele>1845.3879395</ele>
        <time>2013-02-17T14:19:51Z</time>
      </trkpt>
      <trkpt lat="45.25826" lon="6.04206">
        <ele>1857.8852539</ele>
        <time>2013-02-17T14:20:00Z</time>
      </trkpt>
      <trkpt lat="45.25809" lon="6.04175">
        <ele>1861.2497559</ele>
        <time>2013-02-17T14:20:06Z</time>
      </trkpt>
      <trkpt lat="45.25787" lon="6.04135">
        <ele>1865.0949707</ele>
        <time>2013-02-17T14:20:14Z</time>
      </trkpt>
      <trkpt lat="45.25762" lon="6.04089">
        <ele>1871.3435059</ele>
        <time>2013-02-17T14:20:23Z</time>
      </trkpt>
      <trkpt lat="45.25738" lon="6.04045">
        <ele>1883.3598633</ele>
        <time>2013-02-17T14:20:32Z</time>
      </trkpt>
      <trkpt lat="45.25721" lon="6.04014">
        <ele>1900.6638184</ele>
        <time>2013-02-17T14:20:39Z</time>
      </trkpt>
      <trkpt lat="45.25707" lon="6.03987">
        <ele>1916.5256348</ele>
        <time>2013-02-17T14:20:45Z</time>
      </trkpt>
      <trkpt lat="45.25689" lon="6.03953">
        <ele>1939.1164551</ele>
        <time>2013-02-17T14:20:53Z</time>
      </trkpt>
      <trkpt lat="45.25675" lon="6.03928">
        <ele>1956.420166</ele>
        <time>2013-02-17T14:20:59Z</time>
      </trkpt>
      <trkpt lat="45.25657" lon="6.03894">
        <ele>1980.4533691</ele>
        <time>2013-02-17T14:21:07Z</time>
      </trkpt>
      <trkpt lat="45.25642" lon="6.03865">
        <ele>2002.0827637</ele>
        <time>2013-02-17T14:21:14Z</time>
      </trkpt>
      <trkpt lat="45.25618" lon="6.03821">
        <ele>2036.6901855</ele>
        <time>2013-02-17T14:21:25Z</time>
      </trkpt>
      <trkpt lat="45.25607" lon="6.03798">
        <ele>2050.1489258</ele>
        <time>2013-02-17T14:21:30Z</time>
      </trkpt>
      <trkpt lat="45.25593" lon="6.03771">
        <ele>2064.5686035</ele>
        <time>2013-02-17T14:21:36Z</time>
      </trkpt>
      <trkpt lat="45.25579" lon="6.03744">
        <ele>2079.949707</ele>
        <time>2013-02-17T14:21:42Z</time>
      </trkpt>
      <trkpt lat="45.25562" lon="6.03712">
        <ele>2095.3308105</ele>
        <time>2013-02-17T14:21:49Z</time>
      </trkpt>
      <trkpt lat="45.25549" lon="6.03686">
        <ele>2100.6179199</ele>
        <time>2013-02-17T14:21:54Z</time>
      </trkpt>
      <trkpt lat="45.2553" lon="6.03651">
        <ele>2108.7893066</ele>
        <time>2013-02-17T14:22:01Z</time>
      </trkpt>
      <trkpt lat="45.25511" lon="6.03616">
        <ele>2118.4023438</ele>
        <time>2013-02-17T14:22:08Z</time>
      </trkpt>
      <trkpt lat="45.2549" lon="6.03577">
        <ele>2128.4963379</ele>
        <time>2013-02-17T14:22:16Z</time>
      </trkpt>
      <trkpt lat="45.2546" lon="6.03521">
        <ele>2137.1479492</ele>
        <time>2013-02-17T14:22:27Z</time>
      </trkpt>
      <trkpt lat="45.25428" lon="6.03461">
        <ele>2151.5678711</ele>
        <time>2013-02-17T14:22:39Z</time>
      </trkpt>
      <trkpt lat="45.25406" lon="6.03421">
        <ele>2173.1977539</ele>
        <time>2013-02-17T14:22:48Z</time>
      </trkpt>
      <trkpt lat="45.25384" lon="6.03381">
        <ele>2196.7497559</ele>
        <time>2013-02-17T14:22:57Z</time>
      </trkpt>
      <trkpt lat="45.25372" lon="6.03359">
        <ele>2209.2470703</ele>
        <time>2013-02-17T14:23:02Z</time>
      </trkpt>
      <trkpt lat="45.25354" lon="6.03324">
        <ele>2230.3959961</ele>
        <time>2013-02-17T14:23:10Z</time>
      </trkpt>
      <trkpt lat="45.25342" lon="6.03299">
        <ele>2242.8930664</ele>
        <time>2013-02-17T14:23:15Z</time>
      </trkpt>
      <trkpt lat="45.25332" lon="6.03282">
        <ele>2249.1416016</ele>
        <time>2013-02-17T14:23:20Z</time>
      </trkpt>
      <trkpt lat="45.2533" lon="6.03273">
        <ele>2251.064209</ele>
        <time>2013-02-17T14:23:24Z</time>
      </trkpt>
      <trkpt lat="45.25333" lon="6.03266">
        <ele>2251.064209</ele>
        <time>2013-02-17T14:23:27Z</time>
      </trkpt>
      <trkpt lat="45.2534" lon="6.03263">
        <ele>2250.1030273</ele>
        <time>2013-02-17T14:23:32Z</time>
      </trkpt>
      <trkpt lat="45.25344" lon="6.03264">
        <ele>2248.6608887</ele>
        <time>2013-02-17T14:23:35Z</time>
      </trkpt>
      <trkpt lat="45.25359" lon="6.03273">
        <ele>2243.8544922</ele>
        <time>2013-02-17T14:23:42Z</time>
      </trkpt>
      <trkpt lat="45.25366" lon="6.0329">
        <ele>2240.4897461</ele>
        <time>2013-02-17T14:23:46Z</time>
      </trkpt>
      <trkpt lat="45.25367" lon="6.03292">
        <ele>2239.0478516</ele>
        <time>2013-02-17T14:23:50Z</time>
      </trkpt>
      <trkpt lat="45.25367" lon="6.03292">
        <ele>2238.0866699</ele>
        <time>2013-02-17T14:23:55Z</time>
      </trkpt>
      <trkpt lat="45.25377" lon="6.03276">
        <ele>2235.6831055</ele>
        <time>2013-02-17T14:23:59Z</time>
      </trkpt>
      <trkpt lat="45.25384" lon="6.03263">
        <ele>2232.7990723</ele>
        <time>2013-02-17T14:24:01Z</time>
      </trkpt>
      <trkpt lat="45.25404" lon="6.03237">
        <ele>2223.666748</ele>
        <time>2013-02-17T14:24:05Z</time>
      </trkpt>
      <trkpt lat="45.25413" lon="6.03234">
        <ele>2219.8212891</ele>
        <time>2013-02-17T14:24:07Z</time>
      </trkpt>
      <trkpt lat="45.25418" lon="6.03232">
        <ele>2216.9375</ele>
        <time>2013-02-17T14:24:09Z</time>
      </trkpt>
      <trkpt lat="45.2544" lon="6.03216">
        <ele>2206.3630371</ele>
        <time>2013-02-17T14:24:13Z</time>
      </trkpt>
      <trkpt lat="45.25458" lon="6.03204">
        <ele>2196.7497559</ele>
        <time>2013-02-17T14:24:16Z</time>
      </trkpt>
      <trkpt lat="45.2547" lon="6.03201">
        <ele>2190.9819336</ele>
        <time>2013-02-17T14:24:18Z</time>
      </trkpt>
      <trkpt lat="45.25481" lon="6.03202">
        <ele>2184.7333984</ele>
        <time>2013-02-17T14:24:20Z</time>
      </trkpt>
      <trkpt lat="45.25493" lon="6.03214">
        <ele>2177.0429688</ele>
        <time>2013-02-17T14:24:23Z</time>
      </trkpt>
      <trkpt lat="45.25491" lon="6.03225">
        <ele>2172.2363281</ele>
        <time>2013-02-17T14:24:26Z</time>
      </trkpt>
      <trkpt lat="45.25482" lon="6.03256">
        <ele>2165.9875488</ele>
        <time>2013-02-17T14:24:32Z</time>
      </trkpt>
      <trkpt lat="45.2548" lon="6.03274">
        <ele>2163.1037598</ele>
        <time>2013-02-17T14:24:34Z</time>
      </trkpt>
      <trkpt lat="45.25479" lon="6.03314">
        <ele>2155.4130859</ele>
        <time>2013-02-17T14:24:38Z</time>
      </trkpt>
      <trkpt lat="45.25483" lon="6.03325">
        <ele>2151.5678711</ele>
        <time>2013-02-17T14:24:40Z</time>
      </trkpt>
      <trkpt lat="45.25499" lon="6.03324">
        <ele>2142.9160156</ele>
        <time>2013-02-17T14:24:44Z</time>
      </trkpt>
      <trkpt lat="45.25507" lon="6.03321">
        <ele>2138.109375</ele>
        <time>2013-02-17T14:24:46Z</time>
      </trkpt>
      <trkpt lat="45.25518" lon="6.03316">
        <ele>2132.8220215</ele>
        <time>2013-02-17T14:24:48Z</time>
      </trkpt>
      <trkpt lat="45.25524" lon="6.03309">
        <ele>2130.4189453</ele>
        <time>2013-02-17T14:24:49Z</time>
      </trkpt>
      <trkpt lat="45.2555" lon="6.03256">
        <ele>2117.9216309</ele>
        <time>2013-02-17T14:24:55Z</time>
      </trkpt>
      <trkpt lat="45.25554" lon="6.03248">
        <ele>2115.9990234</ele>
        <time>2013-02-17T14:24:56Z</time>
      </trkpt>
      <trkpt lat="45.25562" lon="6.03231">
        <ele>2113.1152344</ele>
        <time>2013-02-17T14:24:58Z</time>
      </trkpt>
      <trkpt lat="45.25576" lon="6.03204">
        <ele>2110.2312012</ele>
        <time>2013-02-17T14:25:01Z</time>
      </trkpt>
      <trkpt lat="45.25589" lon="6.03177">
        <ele>2106.8664551</ele>
        <time>2013-02-17T14:25:04Z</time>
      </trkpt>
      <trkpt lat="45.25607" lon="6.03126">
        <ele>2103.0212402</ele>
        <time>2013-02-17T14:25:09Z</time>
      </trkpt>
      <trkpt lat="45.25608" lon="6.03117">
        <ele>2103.5019531</ele>
        <time>2013-02-17T14:25:10Z</time>
      </trkpt>
      <trkpt lat="45.25612" lon="6.03091">
        <ele>2103.982666</ele>
        <time>2013-02-17T14:25:14Z</time>
      </trkpt>
      <trkpt lat="45.25612" lon="6.03082">
        <ele>2104.4631348</ele>
        <time>2013-02-17T14:25:19Z</time>
      </trkpt>
      <trkpt lat="45.2561" lon="6.03082">
        <ele>2104.9438477</ele>
        <time>2013-02-17T14:25:26Z</time>
      </trkpt>
      <trkpt lat="45.25609" lon="6.03082">
        <ele>2106.8664551</ele>
        <time>2013-02-17T14:25:44Z</time>
      </trkpt>
      <trkpt lat="45.25609" lon="6.03081">
        <ele>2107.347168</ele>
        <time>2013-02-17T14:25:58Z</time>
      </trkpt>
      <trkpt lat="45.25598" lon="6.03075">
        <ele>2103.982666</ele>
        <time>2013-02-17T14:26:02Z</time>
      </trkpt>
      <trkpt lat="45.25591" lon="6.03063">
        <ele>2100.1374512</ele>
        <time>2013-02-17T14:26:05Z</time>
      </trkpt>
      <trkpt lat="45.25583" lon="6.03052">
        <ele>2095.8115234</ele>
        <time>2013-02-17T14:26:07Z</time>
      </trkpt>
      <trkpt lat="45.25582" lon="6.03029">
        <ele>2089.5627441</ele>
        <time>2013-02-17T14:26:10Z</time>
      </trkpt>
      <trkpt lat="45.25571" lon="6.03019">
        <ele>2084.2756348</ele>
        <time>2013-02-17T14:26:12Z</time>
      </trkpt>
      <trkpt lat="45.25564" lon="6.03004">
        <ele>2078.5078125</ele>
        <time>2013-02-17T14:26:14Z</time>
      </trkpt>
      <trkpt lat="45.25554" lon="6.02993">
        <ele>2073.220459</ele>
        <time>2013-02-17T14:26:16Z</time>
      </trkpt>
      <trkpt lat="45.2554" lon="6.02975">
        <ele>2063.126709</ele>
        <time>2013-02-17T14:26:19Z</time>
      </trkpt>
      <trkpt lat="45.2553" lon="6.02958">
        <ele>2056.8779297</ele>
        <time>2013-02-17T14:26:21Z</time>
      </trkpt>
      <trkpt lat="45.25524" lon="6.02938">
        <ele>2050.1489258</ele>
        <time>2013-02-17T14:26:23Z</time>
      </trkpt>
      <trkpt lat="45.25515" lon="6.02916">
        <ele>2043.4194336</ele>
        <time>2013-02-17T14:26:25Z</time>
      </trkpt>
      <trkpt lat="45.25496" lon="6.02892">
        <ele>2034.2871094</ele>
        <time>2013-02-17T14:26:28Z</time>
      </trkpt>
      <trkpt lat="45.25479" lon="6.02865">
        <ele>2024.6738281</ele>
        <time>2013-02-17T14:26:31Z</time>
      </trkpt>
      <trkpt lat="45.25467" lon="6.02828">
        <ele>2014.5800781</ele>
        <time>2013-02-17T14:26:34Z</time>
      </trkpt>
      <trkpt lat="45.25455" lon="6.02807">
        <ele>2008.3312988</ele>
        <time>2013-02-17T14:26:36Z</time>
      </trkpt>
      <trkpt lat="45.25436" lon="6.02773">
        <ele>1997.7570801</ele>
        <time>2013-02-17T14:26:39Z</time>
      </trkpt>
      <trkpt lat="45.25427" lon="6.02746">
        <ele>1990.546875</ele>
        <time>2013-02-17T14:26:41Z</time>
      </trkpt>
      <trkpt lat="45.25402" lon="6.02682">
        <ele>1973.723877</ele>
        <time>2013-02-17T14:26:46Z</time>
      </trkpt>
      <trkpt lat="45.25389" lon="6.02663">
        <ele>1966.5141602</ele>
        <time>2013-02-17T14:26:48Z</time>
      </trkpt>
      <trkpt lat="45.25368" lon="6.0261">
        <ele>1951.1330566</ele>
        <time>2013-02-17T14:26:52Z</time>
      </trkpt>
      <trkpt lat="45.25375" lon="6.02564">
        <ele>1941.5197754</ele>
        <time>2013-02-17T14:26:55Z</time>
      </trkpt>
      <trkpt lat="45.25404" lon="6.02513">
        <ele>1928.5419922</ele>
        <time>2013-02-17T14:26:59Z</time>
      </trkpt>
      <trkpt lat="45.25409" lon="6.02481">
        <ele>1919.409668</ele>
        <time>2013-02-17T14:27:02Z</time>
      </trkpt>
      <trkpt lat="45.25395" lon="6.02456">
        <ele>1913.1608887</ele>
        <time>2013-02-17T14:27:04Z</time>
      </trkpt>
      <trkpt lat="45.25323" lon="6.02379">
        <ele>1896.8183594</ele>
        <time>2013-02-17T14:27:11Z</time>
      </trkpt>
      <trkpt lat="45.25297" lon="6.02349">
        <ele>1892.9731445</ele>
        <time>2013-02-17T14:27:14Z</time>
      </trkpt>
      <trkpt lat="45.25269" lon="6.02333">
        <ele>1892.9731445</ele>
        <time>2013-02-17T14:27:18Z</time>
      </trkpt>
      <trkpt lat="45.25256" lon="6.0232">
        <ele>1891.53125</ele>
        <time>2013-02-17T14:27:22Z</time>
      </trkpt>
      <trkpt lat="45.25255" lon="6.0232">
        <ele>1891.0505371</ele>
        <time>2013-02-17T14:27:23Z</time>
      </trkpt>
      <trkpt lat="45.2525" lon="6.02319">
        <ele>1890.0893555</ele>
        <time>2013-02-17T14:27:28Z</time>
      </trkpt>
      <trkpt lat="45.2524" lon="6.02299">
        <ele>1886.2441406</ele>
        <time>2013-02-17T14:27:32Z</time>
      </trkpt>
      <trkpt lat="45.25225" lon="6.02279">
        <ele>1880.9567871</ele>
        <time>2013-02-17T14:27:35Z</time>
      </trkpt>
      <trkpt lat="45.25219" lon="6.02273">
        <ele>1879.0339355</ele>
        <time>2013-02-17T14:27:36Z</time>
      </trkpt>
      <trkpt lat="45.25186" lon="6.02235">
        <ele>1868.9404297</ele>
        <time>2013-02-17T14:27:41Z</time>
      </trkpt>
      <trkpt lat="45.25169" lon="6.02205">
        <ele>1861.7304688</ele>
        <time>2013-02-17T14:27:44Z</time>
      </trkpt>
      <trkpt lat="45.2515" lon="6.02175">
        <ele>1854.5205078</ele>
        <time>2013-02-17T14:27:47Z</time>
      </trkpt>
      <trkpt lat="45.25135" lon="6.02158">
        <ele>1850.1945801</ele>
        <time>2013-02-17T14:27:49Z</time>
      </trkpt>
      <trkpt lat="45.25122" lon="6.02138">
        <ele>1845.8686523</ele>
        <time>2013-02-17T14:27:51Z</time>
      </trkpt>
      <trkpt lat="45.25108" lon="6.02104">
        <ele>1838.6589355</ele>
        <time>2013-02-17T14:27:54Z</time>
      </trkpt>
      <trkpt lat="45.25106" lon="6.02079">
        <ele>1833.8520508</ele>
        <time>2013-02-17T14:27:56Z</time>
      </trkpt>
      <trkpt lat="45.25094" lon="6.02055">
        <ele>1827.1230469</ele>
        <time>2013-02-17T14:27:59Z</time>
      </trkpt>
      <trkpt lat="45.2509" lon="6.02047">
        <ele>1824.2390137</ele>
        <time>2013-02-17T14:28:00Z</time>
      </trkpt>
      <trkpt lat="45.25084" lon="6.02016">
        <ele>1816.5483398</ele>
        <time>2013-02-17T14:28:03Z</time>
      </trkpt>
      <trkpt lat="45.2508" lon="6.01998">
        <ele>1811.7419434</ele>
        <time>2013-02-17T14:28:05Z</time>
      </trkpt>
      <trkpt lat="45.25071" lon="6.01972">
        <ele>1803.0898438</ele>
        <time>2013-02-17T14:28:08Z</time>
      </trkpt>
      <trkpt lat="45.25067" lon="6.01952">
        <ele>1796.8413086</ele>
        <time>2013-02-17T14:28:10Z</time>
      </trkpt>
      <trkpt lat="45.25075" lon="6.01936">
        <ele>1790.1123047</ele>
        <time>2013-02-17T14:28:13Z</time>
      </trkpt>
      <trkpt lat="45.25083" lon="6.01914">
        <ele>1781.4602051</ele>
        <time>2013-02-17T14:28:16Z</time>
      </trkpt>
      <trkpt lat="45.25088" lon="6.01891">
        <ele>1774.2504883</ele>
        <time>2013-02-17T14:28:18Z</time>
      </trkpt>
      <trkpt lat="45.25097" lon="6.01857">
        <ele>1763.1953125</ele>
        <time>2013-02-17T14:28:21Z</time>
      </trkpt>
      <trkpt lat="45.25106" lon="6.01841">
        <ele>1757.4274902</ele>
        <time>2013-02-17T14:28:23Z</time>
      </trkpt>
      <trkpt lat="45.25115" lon="6.01815">
        <ele>1750.2175293</ele>
        <time>2013-02-17T14:28:25Z</time>
      </trkpt>
      <trkpt lat="45.25118" lon="6.01809">
        <ele>1745.4108887</ele>
        <time>2013-02-17T14:28:26Z</time>
      </trkpt>
      <trkpt lat="45.25121" lon="6.018">
        <ele>1739.1621094</ele>
        <time>2013-02-17T14:28:28Z</time>
      </trkpt>
      <trkpt lat="45.25122" lon="6.01801">
        <ele>1730.510498</ele>
        <time>2013-02-17T14:28:31Z</time>
      </trkpt>
      <trkpt lat="45.25119" lon="6.01802">
        <ele>1728.1071777</ele>
        <time>2013-02-17T14:28:35Z</time>
      </trkpt>
      <trkpt lat="45.25119" lon="6.01803">
        <ele>1728.1071777</ele>
        <time>2013-02-17T14:28:36Z</time>
      </trkpt>
      <trkpt lat="45.25123" lon="6.01784">
        <ele>1726.6652832</ele>
        <time>2013-02-17T14:28:40Z</time>
      </trkpt>
      <trkpt lat="45.25118" lon="6.01752">
        <ele>1722.3391113</ele>
        <time>2013-02-17T14:28:43Z</time>
      </trkpt>
      <trkpt lat="45.25102" lon="6.01707">
        <ele>1715.6101074</ele>
        <time>2013-02-17T14:28:48Z</time>
      </trkpt>
      <trkpt lat="45.25099" lon="6.01683">
        <ele>1711.7648926</ele>
        <time>2013-02-17T14:28:51Z</time>
      </trkpt>
      <trkpt lat="45.25088" lon="6.01652">
        <ele>1707.4387207</ele>
        <time>2013-02-17T14:28:54Z</time>
      </trkpt>
      <trkpt lat="45.25079" lon="6.01619">
        <ele>1700.7094727</ele>
        <time>2013-02-17T14:28:57Z</time>
      </trkpt>
      <trkpt lat="45.25064" lon="6.01561">
        <ele>1688.6931152</ele>
        <time>2013-02-17T14:29:02Z</time>
      </trkpt>
      <trkpt lat="45.25064" lon="6.0154">
        <ele>1684.3671875</ele>
        <time>2013-02-17T14:29:04Z</time>
      </trkpt>
      <trkpt lat="45.25059" lon="6.0152">
        <ele>1680.0412598</ele>
        <time>2013-02-17T14:29:06Z</time>
      </trkpt>
      <trkpt lat="45.25042" lon="6.01467">
        <ele>1668.0246582</ele>
        <time>2013-02-17T14:29:11Z</time>
      </trkpt>
      <trkpt lat="45.25022" lon="6.01408">
        <ele>1656.0080566</ele>
        <time>2013-02-17T14:29:16Z</time>
      </trkpt>
      <trkpt lat="45.2502" lon="6.01383">
        <ele>1651.2016602</ele>
        <time>2013-02-17T14:29:19Z</time>
      </trkpt>
      <trkpt lat="45.25009" lon="6.01364">
        <ele>1646.8757324</ele>
        <time>2013-02-17T14:29:22Z</time>
      </trkpt>
      <trkpt lat="45.25012" lon="6.01353">
        <ele>1644.953125</ele>
        <time>2013-02-17T14:29:24Z</time>
      </trkpt>
      <trkpt lat="45.25014" lon="6.01353">
        <ele>1643.9916992</ele>
        <time>2013-02-17T14:29:27Z</time>
      </trkpt>
      <trkpt lat="45.25013" lon="6.01354">
        <ele>1643.9916992</ele>
        <time>2013-02-17T14:29:36Z</time>
      </trkpt>
      <trkpt lat="45.25013" lon="6.01354">
        <ele>1644.953125</ele>
        <time>2013-02-17T14:29:43Z</time>
      </trkpt>
      <trkpt lat="45.25013" lon="6.01355">
        <ele>1645.4338379</ele>
        <time>2013-02-17T14:29:49Z</time>
      </trkpt>
      <trkpt lat="45.25012" lon="6.01353">
        <ele>1645.4338379</ele>
        <time>2013-02-17T14:29:51Z</time>
      </trkpt>
      <trkpt lat="45.24999" lon="6.01335">
        <ele>1642.0690918</ele>
        <time>2013-02-17T14:29:55Z</time>
      </trkpt>
      <trkpt lat="45.24987" lon="6.01316">
        <ele>1639.1850586</ele>
        <time>2013-02-17T14:29:57Z</time>
      </trkpt>
      <trkpt lat="45.24962" lon="6.01278">
        <ele>1630.0527344</ele>
        <time>2013-02-17T14:30:01Z</time>
      </trkpt>
      <trkpt lat="45.24952" lon="6.01245">
        <ele>1621.8813477</ele>
        <time>2013-02-17T14:30:04Z</time>
      </trkpt>
      <trkpt lat="45.24948" lon="6.01235">
        <ele>1619.9587402</ele>
        <time>2013-02-17T14:30:05Z</time>
      </trkpt>
      <trkpt lat="45.24943" lon="6.01218">
        <ele>1614.190918</ele>
        <time>2013-02-17T14:30:08Z</time>
      </trkpt>
      <trkpt lat="45.24943" lon="6.0122">
        <ele>1609.3842773</ele>
        <time>2013-02-17T14:30:14Z</time>
      </trkpt>
      <trkpt lat="45.24943" lon="6.01221">
        <ele>1608.4228516</ele>
        <time>2013-02-17T14:30:20Z</time>
      </trkpt>
      <trkpt lat="45.24945" lon="6.01215">
        <ele>1610.345459</ele>
        <time>2013-02-17T14:30:25Z</time>
      </trkpt>
      <trkpt lat="45.24945" lon="6.01216">
        <ele>1610.8261719</ele>
        <time>2013-02-17T14:30:31Z</time>
      </trkpt>
      <trkpt lat="45.24948" lon="6.01215">
        <ele>1613.7102051</ele>
        <time>2013-02-17T14:30:36Z</time>
      </trkpt>
      <trkpt lat="45.24959" lon="6.01194">
        <ele>1611.3068848</ele>
        <time>2013-02-17T14:30:40Z</time>
      </trkpt>
      <trkpt lat="45.24969" lon="6.01182">
        <ele>1608.4228516</ele>
        <time>2013-02-17T14:30:42Z</time>
      </trkpt>
      <trkpt lat="45.24986" lon="6.01145">
        <ele>1602.1743164</ele>
        <time>2013-02-17T14:30:46Z</time>
      </trkpt>
      <trkpt lat="45.25016" lon="6.01139">
        <ele>1586.7932129</ele>
        <time>2013-02-17T14:30:50Z</time>
      </trkpt>
      <trkpt lat="45.25022" lon="6.01132">
        <ele>1584.3901367</ele>
        <time>2013-02-17T14:30:51Z</time>
      </trkpt>
      <trkpt lat="45.25056" lon="6.01106">
        <ele>1571.4121094</ele>
        <time>2013-02-17T14:30:56Z</time>
      </trkpt>
      <trkpt lat="45.25063" lon="6.011">
        <ele>1569.0090332</ele>
        <time>2013-02-17T14:30:57Z</time>
      </trkpt>
      <trkpt lat="45.25077" lon="6.0109">
        <ele>1563.7214355</ele>
        <time>2013-02-17T14:30:59Z</time>
      </trkpt>
      <trkpt lat="45.25103" lon="6.01064">
        <ele>1548.3405762</ele>
        <time>2013-02-17T14:31:03Z</time>
      </trkpt>
      <trkpt lat="45.25116" lon="6.01051">
        <ele>1540.6499023</ele>
        <time>2013-02-17T14:31:05Z</time>
      </trkpt>
      <trkpt lat="45.25142" lon="6.01006">
        <ele>1527.1916504</ele>
        <time>2013-02-17T14:31:09Z</time>
      </trkpt>
      <trkpt lat="45.25145" lon="6.00989">
        <ele>1523.3464355</ele>
        <time>2013-02-17T14:31:10Z</time>
      </trkpt>
      <trkpt lat="45.25152" lon="6.00953">
        <ele>1517.0979004</ele>
        <time>2013-02-17T14:31:12Z</time>
      </trkpt>
      <trkpt lat="45.25173" lon="6.00891">
        <ele>1507.0039063</ele>
        <time>2013-02-17T14:31:16Z</time>
      </trkpt>
      <trkpt lat="45.25183" lon="6.00864">
        <ele>1502.6779785</ele>
        <time>2013-02-17T14:31:18Z</time>
      </trkpt>
      <trkpt lat="45.25202" lon="6.00816">
        <ele>1494.026123</ele>
        <time>2013-02-17T14:31:22Z</time>
      </trkpt>
      <trkpt lat="45.25219" lon="6.0078">
        <ele>1487.296875</ele>
        <time>2013-02-17T14:31:25Z</time>
      </trkpt>
      <trkpt lat="45.25253" lon="6.00727">
        <ele>1480.567627</ele>
        <time>2013-02-17T14:31:30Z</time>
      </trkpt>
      <trkpt lat="45.25286" lon="6.00678">
        <ele>1477.203125</ele>
        <time>2013-02-17T14:31:36Z</time>
      </trkpt>
      <trkpt lat="45.25326" lon="6.00636">
        <ele>1471.9157715</ele>
        <time>2013-02-17T14:31:43Z</time>
      </trkpt>
      <trkpt lat="45.25367" lon="6.00599">
        <ele>1468.5512695</ele>
        <time>2013-02-17T14:31:50Z</time>
      </trkpt>
      <trkpt lat="45.25378" lon="6.00589">
        <ele>1469.0319824</ele>
        <time>2013-02-17T14:31:52Z</time>
      </trkpt>
      <trkpt lat="45.2541" lon="6.00553">
        <ele>1466.628418</ele>
        <time>2013-02-17T14:31:58Z</time>
      </trkpt>
      <trkpt lat="45.25416" lon="6.00546">
        <ele>1465.6672363</ele>
        <time>2013-02-17T14:31:59Z</time>
      </trkpt>
      <trkpt lat="45.25441" lon="6.00513">
        <ele>1460.3798828</ele>
        <time>2013-02-17T14:32:04Z</time>
      </trkpt>
      <trkpt lat="45.25455" lon="6.00487">
        <ele>1456.534668</ele>
        <time>2013-02-17T14:32:07Z</time>
      </trkpt>
      <trkpt lat="45.25473" lon="6.00451">
        <ele>1452.2087402</ele>
        <time>2013-02-17T14:32:11Z</time>
      </trkpt>
      <trkpt lat="45.25479" lon="6.00432">
        <ele>1450.2861328</ele>
        <time>2013-02-17T14:32:13Z</time>
      </trkpt>
      <trkpt lat="45.25487" lon="6.00411">
        <ele>1447.8828125</ele>
        <time>2013-02-17T14:32:15Z</time>
      </trkpt>
      <trkpt lat="45.25504" lon="6.00369">
        <ele>1442.5957031</ele>
        <time>2013-02-17T14:32:19Z</time>
      </trkpt>
      <trkpt lat="45.25515" lon="6.00351">
        <ele>1440.6728516</ele>
        <time>2013-02-17T14:32:21Z</time>
      </trkpt>
      <trkpt lat="45.25524" lon="6.00318">
        <ele>1437.3083496</ele>
        <time>2013-02-17T14:32:24Z</time>
      </trkpt>
      <trkpt lat="45.25532" lon="6.00284">
        <ele>1433.4628906</ele>
        <time>2013-02-17T14:32:27Z</time>
      </trkpt>
      <trkpt lat="45.25552" lon="6.00229">
        <ele>1425.7724609</ele>
        <time>2013-02-17T14:32:32Z</time>
      </trkpt>
      <trkpt lat="45.25557" lon="6.00219">
        <ele>1424.3305664</ele>
        <time>2013-02-17T14:32:33Z</time>
      </trkpt>
      <trkpt lat="45.25576" lon="6.00165">
        <ele>1418.5625</ele>
        <time>2013-02-17T14:32:38Z</time>
      </trkpt>
      <trkpt lat="45.2558" lon="6.00156">
        <ele>1417.6010742</ele>
        <time>2013-02-17T14:32:40Z</time>
      </trkpt>
      <trkpt lat="45.25583" lon="6.00154">
        <ele>1416.1591797</ele>
        <time>2013-02-17T14:32:45Z</time>
      </trkpt>
      <trkpt lat="45.25584" lon="6.00153">
        <ele>1416.1591797</ele>
        <time>2013-02-17T14:32:46Z</time>
      </trkpt>
      <trkpt lat="45.25585" lon="6.00137">
        <ele>1413.7558594</ele>
        <time>2013-02-17T14:32:51Z</time>
      </trkpt>
      <trkpt lat="45.25588" lon="6.00112">
        <ele>1410.8720703</ele>
        <time>2013-02-17T14:32:54Z</time>
      </trkpt>
      <trkpt lat="45.25587" lon="6.00091">
        <ele>1408.46875</ele>
        <time>2013-02-17T14:32:56Z</time>
      </trkpt>
      <trkpt lat="45.25587" lon="6.00058">
        <ele>1403.6621094</ele>
        <time>2013-02-17T14:32:59Z</time>
      </trkpt>
      <trkpt lat="45.25587" lon="6.00026">
        <ele>1399.8168945</ele>
        <time>2013-02-17T14:33:02Z</time>
      </trkpt>
      <trkpt lat="45.25588" lon="6.00005">
        <ele>1396.4523926</ele>
        <time>2013-02-17T14:33:04Z</time>
      </trkpt>
      <trkpt lat="45.25585" lon="5.99957">
        <ele>1387.800293</ele>
        <time>2013-02-17T14:33:08Z</time>
      </trkpt>
      <trkpt lat="45.25585" lon="5.99944">
        <ele>1386.3583984</ele>
        <time>2013-02-17T14:33:09Z</time>
      </trkpt>
      <trkpt lat="45.25583" lon="5.99883">
        <ele>1378.1872559</ele>
        <time>2013-02-17T14:33:14Z</time>
      </trkpt>
      <trkpt lat="45.2559" lon="5.99862">
        <ele>1373.8613281</ele>
        <time>2013-02-17T14:33:16Z</time>
      </trkpt>
      <trkpt lat="45.25596" lon="5.99837">
        <ele>1370.9772949</ele>
        <time>2013-02-17T14:33:18Z</time>
      </trkpt>
      <trkpt lat="45.25611" lon="5.99788">
        <ele>1362.8061523</ele>
        <time>2013-02-17T14:33:22Z</time>
      </trkpt>
      <trkpt lat="45.25627" lon="5.99738">
        <ele>1356.5576172</ele>
        <time>2013-02-17T14:33:26Z</time>
      </trkpt>
      <trkpt lat="45.25628" lon="5.99726">
        <ele>1355.5961914</ele>
        <time>2013-02-17T14:33:27Z</time>
      </trkpt>
      <trkpt lat="45.25633" lon="5.99684">
        <ele>1350.7895508</ele>
        <time>2013-02-17T14:33:32Z</time>
      </trkpt>
      <trkpt lat="45.25635" lon="5.99677">
        <ele>1349.8283691</ele>
        <time>2013-02-17T14:33:33Z</time>
      </trkpt>
      <trkpt lat="45.25634" lon="5.99655">
        <ele>1347.4250488</ele>
        <time>2013-02-17T14:33:36Z</time>
      </trkpt>
      <trkpt lat="45.25632" lon="5.99631">
        <ele>1345.0217285</ele>
        <time>2013-02-17T14:33:39Z</time>
      </trkpt>
      <trkpt lat="45.2563" lon="5.99613">
        <ele>1343.579834</ele>
        <time>2013-02-17T14:33:41Z</time>
      </trkpt>
      <trkpt lat="45.25632" lon="5.99588">
        <ele>1341.1765137</ele>
        <time>2013-02-17T14:33:44Z</time>
      </trkpt>
      <trkpt lat="45.25637" lon="5.99575">
        <ele>1340.215332</ele>
        <time>2013-02-17T14:33:46Z</time>
      </trkpt>
      <trkpt lat="45.25639" lon="5.99564">
        <ele>1339.734375</ele>
        <time>2013-02-17T14:33:48Z</time>
      </trkpt>
      <trkpt lat="45.25642" lon="5.99551">
        <ele>1339.2536621</ele>
        <time>2013-02-17T14:33:51Z</time>
      </trkpt>
      <trkpt lat="45.25644" lon="5.99531">
        <ele>1336.8503418</ele>
        <time>2013-02-17T14:33:56Z</time>
      </trkpt>
      <trkpt lat="45.25641" lon="5.99508">
        <ele>1335.4084473</ele>
        <time>2013-02-17T14:34:01Z</time>
      </trkpt>
      <trkpt lat="45.25639" lon="5.99494">
        <ele>1334.4472656</ele>
        <time>2013-02-17T14:34:05Z</time>
      </trkpt>
      <trkpt lat="45.25642" lon="5.99471">
        <ele>1333.4858398</ele>
        <time>2013-02-17T14:34:10Z</time>
      </trkpt>
      <trkpt lat="45.25648" lon="5.99458">
        <ele>1334.9279785</ele>
        <time>2013-02-17T14:34:14Z</time>
      </trkpt>
      <trkpt lat="45.25651" lon="5.99454">
        <ele>1336.369873</ele>
        <time>2013-02-17T14:34:18Z</time>
      </trkpt>
      <trkpt lat="45.25654" lon="5.99453">
        <ele>1337.3310547</ele>
        <time>2013-02-17T14:34:30Z</time>
      </trkpt>
      <trkpt lat="45.25656" lon="5.99452">
        <ele>1339.734375</ele>
        <time>2013-02-17T14:34:40Z</time>
      </trkpt>
      <trkpt lat="45.25659" lon="5.99448">
        <ele>1342.6186523</ele>
        <time>2013-02-17T14:34:54Z</time>
      </trkpt>
      <trkpt lat="45.2566" lon="5.99447">
        <ele>1342.1379395</ele>
        <time>2013-02-17T14:35:06Z</time>
      </trkpt>
      <trkpt lat="45.25659" lon="5.9945">
        <ele>1341.1765137</ele>
        <time>2013-02-17T14:35:19Z</time>
      </trkpt>
      <trkpt lat="45.25659" lon="5.9945">
        <ele>1342.1379395</ele>
        <time>2013-02-17T14:35:27Z</time>
      </trkpt>
      <trkpt lat="45.25656" lon="5.99452">
        <ele>1341.6572266</ele>
        <time>2013-02-17T14:35:45Z</time>
      </trkpt>
      <trkpt lat="45.25656" lon="5.99451">
        <ele>1341.6572266</ele>
        <time>2013-02-17T14:35:56Z</time>
      </trkpt>
    </trkseg>
  </trk>
</gpx>